<?xml version="1.0" encoding="UTF-8" standalone="no" ?>
<gpx xmlns="http://www.topografix.com/GPX/1/1" xmlns:xsi="http://www.w3.org/2001/XMLSchema-instance" xsi:schemaLocation="http://www.topografix.com/GPX/1/1 http://www.topografix.com/GPX/1/1/gpx.xsd" version="1.1" creator="VisuGPX - https://www.visugpx.com">
  <metadata>
    <name>Bord de Loire - Carquefou - Sucé - La Chapelle - Nantes</name>
    <desc><![CDATA[Bord de Loire - Carquefou - Sucé - La Chapelle - Nantes]]></desc>
  </metadata>
  <trk>
    <name><![CDATA[2016-12-17 13:02]]></name>
    <desc><![CDATA[<p>Heure de départ: 12/17/2016 13:02</p><p>Heure d'arrivée: 12/17/2016 15:36</p><p>Distance: 60,9 km (02:33)</p><p>Temps déplacement: 02:28</p><p>Vitesse moyenne: 23,83 km/h</p><p>Vitesse moyenne mouv.: 24,59 km/h</p><p>Vitesse Max.: 35,65km/h</p><p>Altitude minimale: -15 m</p><p>Altitude maximale: 39 m</p><p>Vitesse de montée: 859,4 m/h</p><p>Vitesse de descente: -820,8 m/h</p><p>Gain d'altitude: 758 m</p><p>Perte d'altitude: -781 m</p><p>Temps de montée: 00:52</p><p>Temps de descente: 00:57</p><hr align="center" width="480" style="height: 2px; width: 517px"/>]]></desc>
    <trkseg>
      <trkpt lat="47.16791" lon="-1.62642">
        <ele>24.11</ele>
        <time>2016-12-17T12:02:39Z</time>
      </trkpt>
      <trkpt lat="47.16781" lon="-1.62668">
        <ele>24.26</ele>
        <time>2016-12-17T12:05:26Z</time>
      </trkpt>
      <trkpt lat="47.16759" lon="-1.62671">
        <ele>22.57</ele>
        <time>2016-12-17T12:05:30Z</time>
      </trkpt>
      <trkpt lat="47.16738" lon="-1.62676">
        <ele>22.16</ele>
        <time>2016-12-17T12:05:34Z</time>
      </trkpt>
      <trkpt lat="47.16718" lon="-1.62692">
        <ele>20.6</ele>
        <time>2016-12-17T12:05:38Z</time>
      </trkpt>
      <trkpt lat="47.16701" lon="-1.62678">
        <ele>20.25</ele>
        <time>2016-12-17T12:05:41Z</time>
      </trkpt>
      <trkpt lat="47.16696" lon="-1.6265">
        <ele>19.29</ele>
        <time>2016-12-17T12:05:44Z</time>
      </trkpt>
      <trkpt lat="47.16692" lon="-1.62622">
        <ele>18.83</ele>
        <time>2016-12-17T12:05:47Z</time>
      </trkpt>
      <trkpt lat="47.16693" lon="-1.62589">
        <ele>18.97</ele>
        <time>2016-12-17T12:05:50Z</time>
      </trkpt>
      <trkpt lat="47.16695" lon="-1.6256">
        <ele>18.83</ele>
        <time>2016-12-17T12:05:53Z</time>
      </trkpt>
      <trkpt lat="47.16698" lon="-1.62528">
        <ele>18.06</ele>
        <time>2016-12-17T12:05:56Z</time>
      </trkpt>
      <trkpt lat="47.16702" lon="-1.62501">
        <ele>18.18</ele>
        <time>2016-12-17T12:05:59Z</time>
      </trkpt>
      <trkpt lat="47.16707" lon="-1.62473">
        <ele>17.87</ele>
        <time>2016-12-17T12:06:02Z</time>
      </trkpt>
      <trkpt lat="47.16712" lon="-1.62443">
        <ele>16.3</ele>
        <time>2016-12-17T12:06:05Z</time>
      </trkpt>
      <trkpt lat="47.16718" lon="-1.62415">
        <ele>16.4</ele>
        <time>2016-12-17T12:06:08Z</time>
      </trkpt>
      <trkpt lat="47.16725" lon="-1.62389">
        <ele>16.54</ele>
        <time>2016-12-17T12:06:11Z</time>
      </trkpt>
      <trkpt lat="47.16734" lon="-1.62365">
        <ele>16.02</ele>
        <time>2016-12-17T12:06:14Z</time>
      </trkpt>
      <trkpt lat="47.16749" lon="-1.62346">
        <ele>14.91</ele>
        <time>2016-12-17T12:06:17Z</time>
      </trkpt>
      <trkpt lat="47.16765" lon="-1.62335">
        <ele>14.95</ele>
        <time>2016-12-17T12:06:20Z</time>
      </trkpt>
      <trkpt lat="47.16786" lon="-1.62325">
        <ele>16.51</ele>
        <time>2016-12-17T12:06:24Z</time>
      </trkpt>
      <trkpt lat="47.16805" lon="-1.62316">
        <ele>17.99</ele>
        <time>2016-12-17T12:06:27Z</time>
      </trkpt>
      <trkpt lat="47.16821" lon="-1.62305">
        <ele>19.82</ele>
        <time>2016-12-17T12:06:30Z</time>
      </trkpt>
      <trkpt lat="47.16838" lon="-1.62292">
        <ele>21.31</ele>
        <time>2016-12-17T12:06:33Z</time>
      </trkpt>
      <trkpt lat="47.16855" lon="-1.62274">
        <ele>20.88</ele>
        <time>2016-12-17T12:06:36Z</time>
      </trkpt>
      <trkpt lat="47.16873" lon="-1.62251">
        <ele>20.18</ele>
        <time>2016-12-17T12:06:40Z</time>
      </trkpt>
      <trkpt lat="47.16887" lon="-1.62232">
        <ele>20.31</ele>
        <time>2016-12-17T12:06:43Z</time>
      </trkpt>
      <trkpt lat="47.169" lon="-1.62213">
        <ele>20.69</ele>
        <time>2016-12-17T12:06:46Z</time>
      </trkpt>
      <trkpt lat="47.16914" lon="-1.62192">
        <ele>21.02</ele>
        <time>2016-12-17T12:06:49Z</time>
      </trkpt>
      <trkpt lat="47.16927" lon="-1.6217">
        <ele>21.99</ele>
        <time>2016-12-17T12:06:52Z</time>
      </trkpt>
      <trkpt lat="47.16939" lon="-1.62148">
        <ele>22.65</ele>
        <time>2016-12-17T12:06:55Z</time>
      </trkpt>
      <trkpt lat="47.1695" lon="-1.62124">
        <ele>20.85</ele>
        <time>2016-12-17T12:06:58Z</time>
      </trkpt>
      <trkpt lat="47.16963" lon="-1.62099">
        <ele>20.69</ele>
        <time>2016-12-17T12:07:01Z</time>
      </trkpt>
      <trkpt lat="47.16974" lon="-1.62075">
        <ele>20.9</ele>
        <time>2016-12-17T12:07:04Z</time>
      </trkpt>
      <trkpt lat="47.16989" lon="-1.62046">
        <ele>20.45</ele>
        <time>2016-12-17T12:07:08Z</time>
      </trkpt>
      <trkpt lat="47.17001" lon="-1.62025">
        <ele>20.34</ele>
        <time>2016-12-17T12:07:11Z</time>
      </trkpt>
      <trkpt lat="47.17014" lon="-1.62006">
        <ele>20.24</ele>
        <time>2016-12-17T12:07:14Z</time>
      </trkpt>
      <trkpt lat="47.17029" lon="-1.61985">
        <ele>19.13</ele>
        <time>2016-12-17T12:07:17Z</time>
      </trkpt>
      <trkpt lat="47.17042" lon="-1.61965">
        <ele>19.4</ele>
        <time>2016-12-17T12:07:20Z</time>
      </trkpt>
      <trkpt lat="47.17056" lon="-1.61946">
        <ele>20.54</ele>
        <time>2016-12-17T12:07:23Z</time>
      </trkpt>
      <trkpt lat="47.17075" lon="-1.61923">
        <ele>19.68</ele>
        <time>2016-12-17T12:07:27Z</time>
      </trkpt>
      <trkpt lat="47.1709" lon="-1.61907">
        <ele>18.16</ele>
        <time>2016-12-17T12:07:30Z</time>
      </trkpt>
      <trkpt lat="47.17105" lon="-1.61892">
        <ele>17.07</ele>
        <time>2016-12-17T12:07:33Z</time>
      </trkpt>
      <trkpt lat="47.17125" lon="-1.61875">
        <ele>18.22</ele>
        <time>2016-12-17T12:07:37Z</time>
      </trkpt>
      <trkpt lat="47.1714" lon="-1.6186">
        <ele>19.42</ele>
        <time>2016-12-17T12:07:40Z</time>
      </trkpt>
      <trkpt lat="47.1716" lon="-1.61841">
        <ele>21.37</ele>
        <time>2016-12-17T12:07:44Z</time>
      </trkpt>
      <trkpt lat="47.17176" lon="-1.61827">
        <ele>22</ele>
        <time>2016-12-17T12:07:47Z</time>
      </trkpt>
      <trkpt lat="47.17193" lon="-1.61811">
        <ele>22.1</ele>
        <time>2016-12-17T12:07:50Z</time>
      </trkpt>
      <trkpt lat="47.17208" lon="-1.61796">
        <ele>21.84</ele>
        <time>2016-12-17T12:07:53Z</time>
      </trkpt>
      <trkpt lat="47.17221" lon="-1.61776">
        <ele>20.97</ele>
        <time>2016-12-17T12:07:56Z</time>
      </trkpt>
      <trkpt lat="47.1723" lon="-1.61751">
        <ele>19.7</ele>
        <time>2016-12-17T12:07:59Z</time>
      </trkpt>
      <trkpt lat="47.17247" lon="-1.61726">
        <ele>18.82</ele>
        <time>2016-12-17T12:08:03Z</time>
      </trkpt>
      <trkpt lat="47.1726" lon="-1.61698">
        <ele>20.16</ele>
        <time>2016-12-17T12:08:07Z</time>
      </trkpt>
      <trkpt lat="47.17269" lon="-1.61675">
        <ele>19.85</ele>
        <time>2016-12-17T12:08:10Z</time>
      </trkpt>
      <trkpt lat="47.17278" lon="-1.61651">
        <ele>21.88</ele>
        <time>2016-12-17T12:08:13Z</time>
      </trkpt>
      <trkpt lat="47.17289" lon="-1.61629">
        <ele>22.11</ele>
        <time>2016-12-17T12:08:16Z</time>
      </trkpt>
      <trkpt lat="47.17307" lon="-1.61603">
        <ele>20.36</ele>
        <time>2016-12-17T12:08:20Z</time>
      </trkpt>
      <trkpt lat="47.17324" lon="-1.6158">
        <ele>19.52</ele>
        <time>2016-12-17T12:08:24Z</time>
      </trkpt>
      <trkpt lat="47.17341" lon="-1.61557">
        <ele>17.86</ele>
        <time>2016-12-17T12:08:28Z</time>
      </trkpt>
      <trkpt lat="47.17356" lon="-1.61539">
        <ele>16</ele>
        <time>2016-12-17T12:08:31Z</time>
      </trkpt>
      <trkpt lat="47.17371" lon="-1.61523">
        <ele>14.55</ele>
        <time>2016-12-17T12:08:34Z</time>
      </trkpt>
      <trkpt lat="47.17387" lon="-1.6151">
        <ele>14.84</ele>
        <time>2016-12-17T12:08:37Z</time>
      </trkpt>
      <trkpt lat="47.17405" lon="-1.61497">
        <ele>16.24</ele>
        <time>2016-12-17T12:08:40Z</time>
      </trkpt>
      <trkpt lat="47.17423" lon="-1.61485">
        <ele>15.65</ele>
        <time>2016-12-17T12:08:43Z</time>
      </trkpt>
      <trkpt lat="47.17443" lon="-1.61476">
        <ele>15.68</ele>
        <time>2016-12-17T12:08:46Z</time>
      </trkpt>
      <trkpt lat="47.17462" lon="-1.61467">
        <ele>16.67</ele>
        <time>2016-12-17T12:08:49Z</time>
      </trkpt>
      <trkpt lat="47.1748" lon="-1.61459">
        <ele>15.94</ele>
        <time>2016-12-17T12:08:52Z</time>
      </trkpt>
      <trkpt lat="47.175" lon="-1.61453">
        <ele>15.89</ele>
        <time>2016-12-17T12:08:55Z</time>
      </trkpt>
      <trkpt lat="47.17514" lon="-1.61429">
        <ele>16.07</ele>
        <time>2016-12-17T12:08:59Z</time>
      </trkpt>
      <trkpt lat="47.1752" lon="-1.61401">
        <ele>14.75</ele>
        <time>2016-12-17T12:09:02Z</time>
      </trkpt>
      <trkpt lat="47.17526" lon="-1.61371">
        <ele>13.52</ele>
        <time>2016-12-17T12:09:05Z</time>
      </trkpt>
      <trkpt lat="47.17525" lon="-1.6134">
        <ele>12.47</ele>
        <time>2016-12-17T12:09:10Z</time>
      </trkpt>
      <trkpt lat="47.17518" lon="-1.61314">
        <ele>10.81</ele>
        <time>2016-12-17T12:09:13Z</time>
      </trkpt>
      <trkpt lat="47.17515" lon="-1.61285">
        <ele>9.07</ele>
        <time>2016-12-17T12:09:16Z</time>
      </trkpt>
      <trkpt lat="47.17501" lon="-1.61257">
        <ele>9.76</ele>
        <time>2016-12-17T12:09:20Z</time>
      </trkpt>
      <trkpt lat="47.1749" lon="-1.61233">
        <ele>10.17</ele>
        <time>2016-12-17T12:09:23Z</time>
      </trkpt>
      <trkpt lat="47.17479" lon="-1.61207">
        <ele>9.8</ele>
        <time>2016-12-17T12:09:26Z</time>
      </trkpt>
      <trkpt lat="47.17469" lon="-1.61182">
        <ele>10.69</ele>
        <time>2016-12-17T12:09:29Z</time>
      </trkpt>
      <trkpt lat="47.17459" lon="-1.61157">
        <ele>11.02</ele>
        <time>2016-12-17T12:09:32Z</time>
      </trkpt>
      <trkpt lat="47.17449" lon="-1.61131">
        <ele>10.16</ele>
        <time>2016-12-17T12:09:35Z</time>
      </trkpt>
      <trkpt lat="47.17442" lon="-1.61105">
        <ele>9.12</ele>
        <time>2016-12-17T12:09:38Z</time>
      </trkpt>
      <trkpt lat="47.17437" lon="-1.61078">
        <ele>8.8</ele>
        <time>2016-12-17T12:09:41Z</time>
      </trkpt>
      <trkpt lat="47.17425" lon="-1.61053">
        <ele>7.27</ele>
        <time>2016-12-17T12:09:44Z</time>
      </trkpt>
      <trkpt lat="47.17419" lon="-1.61024">
        <ele>6.1</ele>
        <time>2016-12-17T12:09:47Z</time>
      </trkpt>
      <trkpt lat="47.17433" lon="-1.61046">
        <ele>5.59</ele>
        <time>2016-12-17T12:09:54Z</time>
      </trkpt>
      <trkpt lat="47.17444" lon="-1.61072">
        <ele>5.16</ele>
        <time>2016-12-17T12:09:57Z</time>
      </trkpt>
      <trkpt lat="47.17462" lon="-1.61093">
        <ele>5.07</ele>
        <time>2016-12-17T12:10:00Z</time>
      </trkpt>
      <trkpt lat="47.17482" lon="-1.61107">
        <ele>4.36</ele>
        <time>2016-12-17T12:10:03Z</time>
      </trkpt>
      <trkpt lat="47.17505" lon="-1.61105">
        <ele>1.73</ele>
        <time>2016-12-17T12:10:06Z</time>
      </trkpt>
      <trkpt lat="47.17525" lon="-1.61094">
        <ele>0.25</ele>
        <time>2016-12-17T12:10:09Z</time>
      </trkpt>
      <trkpt lat="47.1754" lon="-1.61079">
        <ele>0.72</ele>
        <time>2016-12-17T12:10:12Z</time>
      </trkpt>
      <trkpt lat="47.17556" lon="-1.61061">
        <ele>0.62</ele>
        <time>2016-12-17T12:10:15Z</time>
      </trkpt>
      <trkpt lat="47.17573" lon="-1.61046">
        <ele>0.44</ele>
        <time>2016-12-17T12:10:18Z</time>
      </trkpt>
      <trkpt lat="47.17589" lon="-1.61033">
        <ele>2.01</ele>
        <time>2016-12-17T12:10:21Z</time>
      </trkpt>
      <trkpt lat="47.17609" lon="-1.61014">
        <ele>2.05</ele>
        <time>2016-12-17T12:10:25Z</time>
      </trkpt>
      <trkpt lat="47.17625" lon="-1.60998">
        <ele>1.7</ele>
        <time>2016-12-17T12:10:28Z</time>
      </trkpt>
      <trkpt lat="47.17643" lon="-1.60984">
        <ele>1.63</ele>
        <time>2016-12-17T12:10:31Z</time>
      </trkpt>
      <trkpt lat="47.17661" lon="-1.60972">
        <ele>2.15</ele>
        <time>2016-12-17T12:10:34Z</time>
      </trkpt>
      <trkpt lat="47.1768" lon="-1.6097">
        <ele>1.99</ele>
        <time>2016-12-17T12:10:37Z</time>
      </trkpt>
      <trkpt lat="47.17705" lon="-1.6097">
        <ele>0.64</ele>
        <time>2016-12-17T12:10:41Z</time>
      </trkpt>
      <trkpt lat="47.17723" lon="-1.60959">
        <ele>1.93</ele>
        <time>2016-12-17T12:10:44Z</time>
      </trkpt>
      <trkpt lat="47.1774" lon="-1.60947">
        <ele>2.25</ele>
        <time>2016-12-17T12:10:47Z</time>
      </trkpt>
      <trkpt lat="47.17763" lon="-1.60929">
        <ele>3.96</ele>
        <time>2016-12-17T12:10:51Z</time>
      </trkpt>
      <trkpt lat="47.17783" lon="-1.60912">
        <ele>4.22</ele>
        <time>2016-12-17T12:10:55Z</time>
      </trkpt>
      <trkpt lat="47.178" lon="-1.60899">
        <ele>3.54</ele>
        <time>2016-12-17T12:10:58Z</time>
      </trkpt>
      <trkpt lat="47.17817" lon="-1.60884">
        <ele>4.76</ele>
        <time>2016-12-17T12:11:01Z</time>
      </trkpt>
      <trkpt lat="47.17832" lon="-1.60858">
        <ele>4.45</ele>
        <time>2016-12-17T12:11:04Z</time>
      </trkpt>
      <trkpt lat="47.17843" lon="-1.60836">
        <ele>4.33</ele>
        <time>2016-12-17T12:11:07Z</time>
      </trkpt>
      <trkpt lat="47.1785" lon="-1.60809">
        <ele>3.63</ele>
        <time>2016-12-17T12:11:10Z</time>
      </trkpt>
      <trkpt lat="47.17855" lon="-1.60779">
        <ele>3.01</ele>
        <time>2016-12-17T12:11:13Z</time>
      </trkpt>
      <trkpt lat="47.17861" lon="-1.60752">
        <ele>2.48</ele>
        <time>2016-12-17T12:11:16Z</time>
      </trkpt>
      <trkpt lat="47.17868" lon="-1.60721">
        <ele>1.97</ele>
        <time>2016-12-17T12:11:19Z</time>
      </trkpt>
      <trkpt lat="47.17876" lon="-1.60687">
        <ele>1.53</ele>
        <time>2016-12-17T12:11:23Z</time>
      </trkpt>
      <trkpt lat="47.17883" lon="-1.60662">
        <ele>1.69</ele>
        <time>2016-12-17T12:11:26Z</time>
      </trkpt>
      <trkpt lat="47.17891" lon="-1.60636">
        <ele>2.26</ele>
        <time>2016-12-17T12:11:29Z</time>
      </trkpt>
      <trkpt lat="47.17901" lon="-1.60606">
        <ele>2.77</ele>
        <time>2016-12-17T12:11:33Z</time>
      </trkpt>
      <trkpt lat="47.17908" lon="-1.60578">
        <ele>2.82</ele>
        <time>2016-12-17T12:11:38Z</time>
      </trkpt>
      <trkpt lat="47.17932" lon="-1.60582">
        <ele>3.11</ele>
        <time>2016-12-17T12:11:46Z</time>
      </trkpt>
      <trkpt lat="47.17954" lon="-1.60574">
        <ele>3.51</ele>
        <time>2016-12-17T12:11:49Z</time>
      </trkpt>
      <trkpt lat="47.17976" lon="-1.60561">
        <ele>1.34</ele>
        <time>2016-12-17T12:11:53Z</time>
      </trkpt>
      <trkpt lat="47.17996" lon="-1.60554">
        <ele>1.66</ele>
        <time>2016-12-17T12:11:56Z</time>
      </trkpt>
      <trkpt lat="47.18019" lon="-1.6055">
        <ele>0.92</ele>
        <time>2016-12-17T12:11:59Z</time>
      </trkpt>
      <trkpt lat="47.18038" lon="-1.60553">
        <ele>0.06</ele>
        <time>2016-12-17T12:12:02Z</time>
      </trkpt>
      <trkpt lat="47.1806" lon="-1.60562">
        <ele>0.46</ele>
        <time>2016-12-17T12:12:05Z</time>
      </trkpt>
      <trkpt lat="47.18078" lon="-1.60574">
        <ele>-0.34</ele>
        <time>2016-12-17T12:12:08Z</time>
      </trkpt>
      <trkpt lat="47.18096" lon="-1.60585">
        <ele>0.27</ele>
        <time>2016-12-17T12:12:11Z</time>
      </trkpt>
      <trkpt lat="47.18115" lon="-1.60594">
        <ele>-0.72</ele>
        <time>2016-12-17T12:12:14Z</time>
      </trkpt>
      <trkpt lat="47.18135" lon="-1.60601">
        <ele>-1.76</ele>
        <time>2016-12-17T12:12:17Z</time>
      </trkpt>
      <trkpt lat="47.18153" lon="-1.60605">
        <ele>-1.28</ele>
        <time>2016-12-17T12:12:20Z</time>
      </trkpt>
      <trkpt lat="47.18172" lon="-1.60604">
        <ele>2.19</ele>
        <time>2016-12-17T12:12:23Z</time>
      </trkpt>
      <trkpt lat="47.18192" lon="-1.60595">
        <ele>1.69</ele>
        <time>2016-12-17T12:12:27Z</time>
      </trkpt>
      <trkpt lat="47.18204" lon="-1.60572">
        <ele>2.65</ele>
        <time>2016-12-17T12:12:33Z</time>
      </trkpt>
      <trkpt lat="47.18222" lon="-1.60565">
        <ele>4.53</ele>
        <time>2016-12-17T12:12:36Z</time>
      </trkpt>
      <trkpt lat="47.18243" lon="-1.60553">
        <ele>4.65</ele>
        <time>2016-12-17T12:12:39Z</time>
      </trkpt>
      <trkpt lat="47.18262" lon="-1.60539">
        <ele>3.59</ele>
        <time>2016-12-17T12:12:42Z</time>
      </trkpt>
      <trkpt lat="47.18279" lon="-1.60521">
        <ele>2.83</ele>
        <time>2016-12-17T12:12:45Z</time>
      </trkpt>
      <trkpt lat="47.18294" lon="-1.60504">
        <ele>2.99</ele>
        <time>2016-12-17T12:12:48Z</time>
      </trkpt>
      <trkpt lat="47.1831" lon="-1.60485">
        <ele>4.58</ele>
        <time>2016-12-17T12:12:51Z</time>
      </trkpt>
      <trkpt lat="47.18326" lon="-1.60468">
        <ele>5.57</ele>
        <time>2016-12-17T12:12:54Z</time>
      </trkpt>
      <trkpt lat="47.18342" lon="-1.60448">
        <ele>7.27</ele>
        <time>2016-12-17T12:12:57Z</time>
      </trkpt>
      <trkpt lat="47.18357" lon="-1.60428">
        <ele>7.58</ele>
        <time>2016-12-17T12:13:00Z</time>
      </trkpt>
      <trkpt lat="47.18372" lon="-1.60408">
        <ele>7.14</ele>
        <time>2016-12-17T12:13:03Z</time>
      </trkpt>
      <trkpt lat="47.18386" lon="-1.6039">
        <ele>6.38</ele>
        <time>2016-12-17T12:13:06Z</time>
      </trkpt>
      <trkpt lat="47.18399" lon="-1.60372">
        <ele>6.51</ele>
        <time>2016-12-17T12:13:09Z</time>
      </trkpt>
      <trkpt lat="47.18414" lon="-1.60353">
        <ele>5.97</ele>
        <time>2016-12-17T12:13:12Z</time>
      </trkpt>
      <trkpt lat="47.18427" lon="-1.60335">
        <ele>6.17</ele>
        <time>2016-12-17T12:13:15Z</time>
      </trkpt>
      <trkpt lat="47.18441" lon="-1.60314">
        <ele>5.83</ele>
        <time>2016-12-17T12:13:18Z</time>
      </trkpt>
      <trkpt lat="47.18454" lon="-1.60292">
        <ele>4.62</ele>
        <time>2016-12-17T12:13:21Z</time>
      </trkpt>
      <trkpt lat="47.18466" lon="-1.6027">
        <ele>5.27</ele>
        <time>2016-12-17T12:13:24Z</time>
      </trkpt>
      <trkpt lat="47.18478" lon="-1.60248">
        <ele>5.07</ele>
        <time>2016-12-17T12:13:27Z</time>
      </trkpt>
      <trkpt lat="47.18489" lon="-1.60225">
        <ele>5.32</ele>
        <time>2016-12-17T12:13:30Z</time>
      </trkpt>
      <trkpt lat="47.18501" lon="-1.60201">
        <ele>5.98</ele>
        <time>2016-12-17T12:13:33Z</time>
      </trkpt>
      <trkpt lat="47.18512" lon="-1.60178">
        <ele>4.32</ele>
        <time>2016-12-17T12:13:36Z</time>
      </trkpt>
      <trkpt lat="47.18524" lon="-1.60155">
        <ele>3.31</ele>
        <time>2016-12-17T12:13:39Z</time>
      </trkpt>
      <trkpt lat="47.18535" lon="-1.60131">
        <ele>3.76</ele>
        <time>2016-12-17T12:13:42Z</time>
      </trkpt>
      <trkpt lat="47.18545" lon="-1.60107">
        <ele>4.56</ele>
        <time>2016-12-17T12:13:45Z</time>
      </trkpt>
      <trkpt lat="47.18555" lon="-1.60084">
        <ele>4.47</ele>
        <time>2016-12-17T12:13:48Z</time>
      </trkpt>
      <trkpt lat="47.18564" lon="-1.60061">
        <ele>4.38</ele>
        <time>2016-12-17T12:13:51Z</time>
      </trkpt>
      <trkpt lat="47.18575" lon="-1.60034">
        <ele>5.1</ele>
        <time>2016-12-17T12:13:54Z</time>
      </trkpt>
      <trkpt lat="47.18584" lon="-1.60008">
        <ele>5.35</ele>
        <time>2016-12-17T12:13:57Z</time>
      </trkpt>
      <trkpt lat="47.18595" lon="-1.59977">
        <ele>6.36</ele>
        <time>2016-12-17T12:14:01Z</time>
      </trkpt>
      <trkpt lat="47.18602" lon="-1.5995">
        <ele>5.07</ele>
        <time>2016-12-17T12:14:04Z</time>
      </trkpt>
      <trkpt lat="47.18609" lon="-1.59923">
        <ele>3.2</ele>
        <time>2016-12-17T12:14:07Z</time>
      </trkpt>
      <trkpt lat="47.18618" lon="-1.5989">
        <ele>3.86</ele>
        <time>2016-12-17T12:14:11Z</time>
      </trkpt>
      <trkpt lat="47.18624" lon="-1.59865">
        <ele>4.6</ele>
        <time>2016-12-17T12:14:14Z</time>
      </trkpt>
      <trkpt lat="47.18621" lon="-1.59831">
        <ele>3.89</ele>
        <time>2016-12-17T12:14:18Z</time>
      </trkpt>
      <trkpt lat="47.18629" lon="-1.59806">
        <ele>4.55</ele>
        <time>2016-12-17T12:14:22Z</time>
      </trkpt>
      <trkpt lat="47.18633" lon="-1.5978">
        <ele>3.71</ele>
        <time>2016-12-17T12:14:25Z</time>
      </trkpt>
      <trkpt lat="47.18644" lon="-1.59756">
        <ele>3.94</ele>
        <time>2016-12-17T12:14:28Z</time>
      </trkpt>
      <trkpt lat="47.18655" lon="-1.59728">
        <ele>4.8</ele>
        <time>2016-12-17T12:14:32Z</time>
      </trkpt>
      <trkpt lat="47.18659" lon="-1.597">
        <ele>5.24</ele>
        <time>2016-12-17T12:14:35Z</time>
      </trkpt>
      <trkpt lat="47.18664" lon="-1.59673">
        <ele>5.78</ele>
        <time>2016-12-17T12:14:38Z</time>
      </trkpt>
      <trkpt lat="47.1867" lon="-1.59647">
        <ele>5.54</ele>
        <time>2016-12-17T12:14:41Z</time>
      </trkpt>
      <trkpt lat="47.18676" lon="-1.59621">
        <ele>4.63</ele>
        <time>2016-12-17T12:14:44Z</time>
      </trkpt>
      <trkpt lat="47.18681" lon="-1.59591">
        <ele>5.14</ele>
        <time>2016-12-17T12:14:47Z</time>
      </trkpt>
      <trkpt lat="47.18684" lon="-1.59562">
        <ele>5.69</ele>
        <time>2016-12-17T12:14:50Z</time>
      </trkpt>
      <trkpt lat="47.18688" lon="-1.59527">
        <ele>6.53</ele>
        <time>2016-12-17T12:14:54Z</time>
      </trkpt>
      <trkpt lat="47.18691" lon="-1.595">
        <ele>5.73</ele>
        <time>2016-12-17T12:14:57Z</time>
      </trkpt>
      <trkpt lat="47.18695" lon="-1.59464">
        <ele>5.4</ele>
        <time>2016-12-17T12:15:01Z</time>
      </trkpt>
      <trkpt lat="47.18697" lon="-1.59437">
        <ele>5.55</ele>
        <time>2016-12-17T12:15:04Z</time>
      </trkpt>
      <trkpt lat="47.18701" lon="-1.59402">
        <ele>6.68</ele>
        <time>2016-12-17T12:15:08Z</time>
      </trkpt>
      <trkpt lat="47.18704" lon="-1.59375">
        <ele>5.87</ele>
        <time>2016-12-17T12:15:11Z</time>
      </trkpt>
      <trkpt lat="47.18707" lon="-1.5934">
        <ele>4.48</ele>
        <time>2016-12-17T12:15:15Z</time>
      </trkpt>
      <trkpt lat="47.1871" lon="-1.59313">
        <ele>4.73</ele>
        <time>2016-12-17T12:15:18Z</time>
      </trkpt>
      <trkpt lat="47.18713" lon="-1.59285">
        <ele>4.7</ele>
        <time>2016-12-17T12:15:21Z</time>
      </trkpt>
      <trkpt lat="47.18716" lon="-1.59258">
        <ele>4.54</ele>
        <time>2016-12-17T12:15:24Z</time>
      </trkpt>
      <trkpt lat="47.18719" lon="-1.59223">
        <ele>4.93</ele>
        <time>2016-12-17T12:15:28Z</time>
      </trkpt>
      <trkpt lat="47.18722" lon="-1.59196">
        <ele>3.61</ele>
        <time>2016-12-17T12:15:31Z</time>
      </trkpt>
      <trkpt lat="47.18725" lon="-1.59168">
        <ele>3.08</ele>
        <time>2016-12-17T12:15:34Z</time>
      </trkpt>
      <trkpt lat="47.18728" lon="-1.5914">
        <ele>2.81</ele>
        <time>2016-12-17T12:15:37Z</time>
      </trkpt>
      <trkpt lat="47.18732" lon="-1.59105">
        <ele>3.7</ele>
        <time>2016-12-17T12:15:41Z</time>
      </trkpt>
      <trkpt lat="47.18736" lon="-1.59077">
        <ele>4.58</ele>
        <time>2016-12-17T12:15:44Z</time>
      </trkpt>
      <trkpt lat="47.1874" lon="-1.59048">
        <ele>5.33</ele>
        <time>2016-12-17T12:15:47Z</time>
      </trkpt>
      <trkpt lat="47.18743" lon="-1.59021">
        <ele>4.92</ele>
        <time>2016-12-17T12:15:50Z</time>
      </trkpt>
      <trkpt lat="47.18745" lon="-1.58995">
        <ele>3.92</ele>
        <time>2016-12-17T12:15:53Z</time>
      </trkpt>
      <trkpt lat="47.1875" lon="-1.58962">
        <ele>4.43</ele>
        <time>2016-12-17T12:15:57Z</time>
      </trkpt>
      <trkpt lat="47.18754" lon="-1.58936">
        <ele>5.93</ele>
        <time>2016-12-17T12:16:00Z</time>
      </trkpt>
      <trkpt lat="47.18758" lon="-1.58906">
        <ele>6.16</ele>
        <time>2016-12-17T12:16:03Z</time>
      </trkpt>
      <trkpt lat="47.18761" lon="-1.5888">
        <ele>6.79</ele>
        <time>2016-12-17T12:16:06Z</time>
      </trkpt>
      <trkpt lat="47.18765" lon="-1.58846">
        <ele>5.36</ele>
        <time>2016-12-17T12:16:10Z</time>
      </trkpt>
      <trkpt lat="47.18767" lon="-1.58819">
        <ele>6.32</ele>
        <time>2016-12-17T12:16:13Z</time>
      </trkpt>
      <trkpt lat="47.18768" lon="-1.58792">
        <ele>5.54</ele>
        <time>2016-12-17T12:16:16Z</time>
      </trkpt>
      <trkpt lat="47.18761" lon="-1.58766">
        <ele>3.8</ele>
        <time>2016-12-17T12:16:22Z</time>
      </trkpt>
      <trkpt lat="47.18758" lon="-1.58732">
        <ele>3.79</ele>
        <time>2016-12-17T12:16:25Z</time>
      </trkpt>
      <trkpt lat="47.18769" lon="-1.58709">
        <ele>5.2</ele>
        <time>2016-12-17T12:16:28Z</time>
      </trkpt>
      <trkpt lat="47.18782" lon="-1.58687">
        <ele>5.32</ele>
        <time>2016-12-17T12:16:31Z</time>
      </trkpt>
      <trkpt lat="47.18789" lon="-1.58662">
        <ele>4.69</ele>
        <time>2016-12-17T12:16:34Z</time>
      </trkpt>
      <trkpt lat="47.18797" lon="-1.58632">
        <ele>4.83</ele>
        <time>2016-12-17T12:16:37Z</time>
      </trkpt>
      <trkpt lat="47.18804" lon="-1.58604">
        <ele>5.79</ele>
        <time>2016-12-17T12:16:40Z</time>
      </trkpt>
      <trkpt lat="47.18811" lon="-1.58577">
        <ele>5.34</ele>
        <time>2016-12-17T12:16:43Z</time>
      </trkpt>
      <trkpt lat="47.18817" lon="-1.58551">
        <ele>4.02</ele>
        <time>2016-12-17T12:16:46Z</time>
      </trkpt>
      <trkpt lat="47.18824" lon="-1.58525">
        <ele>3</ele>
        <time>2016-12-17T12:16:49Z</time>
      </trkpt>
      <trkpt lat="47.18831" lon="-1.58498">
        <ele>1.76</ele>
        <time>2016-12-17T12:16:52Z</time>
      </trkpt>
      <trkpt lat="47.18841" lon="-1.58467">
        <ele>-0.31</ele>
        <time>2016-12-17T12:16:56Z</time>
      </trkpt>
      <trkpt lat="47.18849" lon="-1.58443">
        <ele>0.81</ele>
        <time>2016-12-17T12:16:59Z</time>
      </trkpt>
      <trkpt lat="47.18858" lon="-1.58415">
        <ele>2.69</ele>
        <time>2016-12-17T12:17:02Z</time>
      </trkpt>
      <trkpt lat="47.18866" lon="-1.58391">
        <ele>4.09</ele>
        <time>2016-12-17T12:17:05Z</time>
      </trkpt>
      <trkpt lat="47.18874" lon="-1.58366">
        <ele>5.27</ele>
        <time>2016-12-17T12:17:08Z</time>
      </trkpt>
      <trkpt lat="47.18882" lon="-1.58342">
        <ele>3.88</ele>
        <time>2016-12-17T12:17:11Z</time>
      </trkpt>
      <trkpt lat="47.1889" lon="-1.58316">
        <ele>2.89</ele>
        <time>2016-12-17T12:17:14Z</time>
      </trkpt>
      <trkpt lat="47.18899" lon="-1.58291">
        <ele>3.63</ele>
        <time>2016-12-17T12:17:17Z</time>
      </trkpt>
      <trkpt lat="47.18908" lon="-1.58268">
        <ele>3.97</ele>
        <time>2016-12-17T12:17:20Z</time>
      </trkpt>
      <trkpt lat="47.18917" lon="-1.58242">
        <ele>5.21</ele>
        <time>2016-12-17T12:17:23Z</time>
      </trkpt>
      <trkpt lat="47.18926" lon="-1.58218">
        <ele>4.92</ele>
        <time>2016-12-17T12:17:26Z</time>
      </trkpt>
      <trkpt lat="47.18935" lon="-1.58188">
        <ele>3.82</ele>
        <time>2016-12-17T12:17:29Z</time>
      </trkpt>
      <trkpt lat="47.18944" lon="-1.58163">
        <ele>3.78</ele>
        <time>2016-12-17T12:17:32Z</time>
      </trkpt>
      <trkpt lat="47.18954" lon="-1.58136">
        <ele>2.53</ele>
        <time>2016-12-17T12:17:35Z</time>
      </trkpt>
      <trkpt lat="47.18964" lon="-1.58109">
        <ele>4.26</ele>
        <time>2016-12-17T12:17:38Z</time>
      </trkpt>
      <trkpt lat="47.18974" lon="-1.58083">
        <ele>5.09</ele>
        <time>2016-12-17T12:17:41Z</time>
      </trkpt>
      <trkpt lat="47.18983" lon="-1.58059">
        <ele>5.14</ele>
        <time>2016-12-17T12:17:44Z</time>
      </trkpt>
      <trkpt lat="47.18992" lon="-1.58031">
        <ele>4.64</ele>
        <time>2016-12-17T12:17:47Z</time>
      </trkpt>
      <trkpt lat="47.19001" lon="-1.58007">
        <ele>3.72</ele>
        <time>2016-12-17T12:17:50Z</time>
      </trkpt>
      <trkpt lat="47.19011" lon="-1.57979">
        <ele>4.11</ele>
        <time>2016-12-17T12:17:53Z</time>
      </trkpt>
      <trkpt lat="47.1902" lon="-1.57951">
        <ele>4.53</ele>
        <time>2016-12-17T12:17:56Z</time>
      </trkpt>
      <trkpt lat="47.19029" lon="-1.57924">
        <ele>4.01</ele>
        <time>2016-12-17T12:17:59Z</time>
      </trkpt>
      <trkpt lat="47.19039" lon="-1.579">
        <ele>4.84</ele>
        <time>2016-12-17T12:18:02Z</time>
      </trkpt>
      <trkpt lat="47.19049" lon="-1.57873">
        <ele>5.31</ele>
        <time>2016-12-17T12:18:05Z</time>
      </trkpt>
      <trkpt lat="47.19058" lon="-1.57846">
        <ele>6.8</ele>
        <time>2016-12-17T12:18:08Z</time>
      </trkpt>
      <trkpt lat="47.19067" lon="-1.57823">
        <ele>7.77</ele>
        <time>2016-12-17T12:18:11Z</time>
      </trkpt>
      <trkpt lat="47.19076" lon="-1.57795">
        <ele>7.49</ele>
        <time>2016-12-17T12:18:14Z</time>
      </trkpt>
      <trkpt lat="47.19086" lon="-1.5777">
        <ele>6.95</ele>
        <time>2016-12-17T12:18:17Z</time>
      </trkpt>
      <trkpt lat="47.19096" lon="-1.57743">
        <ele>6.26</ele>
        <time>2016-12-17T12:18:20Z</time>
      </trkpt>
      <trkpt lat="47.19105" lon="-1.57716">
        <ele>4.74</ele>
        <time>2016-12-17T12:18:23Z</time>
      </trkpt>
      <trkpt lat="47.19113" lon="-1.57692">
        <ele>5.42</ele>
        <time>2016-12-17T12:18:26Z</time>
      </trkpt>
      <trkpt lat="47.19122" lon="-1.57664">
        <ele>4.16</ele>
        <time>2016-12-17T12:18:29Z</time>
      </trkpt>
      <trkpt lat="47.19131" lon="-1.5764">
        <ele>3.72</ele>
        <time>2016-12-17T12:18:32Z</time>
      </trkpt>
      <trkpt lat="47.19142" lon="-1.57615">
        <ele>5.46</ele>
        <time>2016-12-17T12:18:35Z</time>
      </trkpt>
      <trkpt lat="47.19151" lon="-1.57588">
        <ele>4.16</ele>
        <time>2016-12-17T12:18:38Z</time>
      </trkpt>
      <trkpt lat="47.19161" lon="-1.57562">
        <ele>4.47</ele>
        <time>2016-12-17T12:18:41Z</time>
      </trkpt>
      <trkpt lat="47.1917" lon="-1.57536">
        <ele>4.83</ele>
        <time>2016-12-17T12:18:44Z</time>
      </trkpt>
      <trkpt lat="47.1918" lon="-1.57509">
        <ele>6.51</ele>
        <time>2016-12-17T12:18:47Z</time>
      </trkpt>
      <trkpt lat="47.19189" lon="-1.57482">
        <ele>6.7</ele>
        <time>2016-12-17T12:18:50Z</time>
      </trkpt>
      <trkpt lat="47.19197" lon="-1.57454">
        <ele>7.29</ele>
        <time>2016-12-17T12:18:53Z</time>
      </trkpt>
      <trkpt lat="47.19205" lon="-1.57421">
        <ele>6.33</ele>
        <time>2016-12-17T12:18:57Z</time>
      </trkpt>
      <trkpt lat="47.19213" lon="-1.57394">
        <ele>6.08</ele>
        <time>2016-12-17T12:19:00Z</time>
      </trkpt>
      <trkpt lat="47.19221" lon="-1.57365">
        <ele>6.69</ele>
        <time>2016-12-17T12:19:03Z</time>
      </trkpt>
      <trkpt lat="47.19228" lon="-1.57335">
        <ele>7.77</ele>
        <time>2016-12-17T12:19:06Z</time>
      </trkpt>
      <trkpt lat="47.19235" lon="-1.57305">
        <ele>9.51</ele>
        <time>2016-12-17T12:19:09Z</time>
      </trkpt>
      <trkpt lat="47.1924" lon="-1.57278">
        <ele>9.15</ele>
        <time>2016-12-17T12:19:12Z</time>
      </trkpt>
      <trkpt lat="47.19244" lon="-1.5725">
        <ele>8.51</ele>
        <time>2016-12-17T12:19:15Z</time>
      </trkpt>
      <trkpt lat="47.19249" lon="-1.57222">
        <ele>9.05</ele>
        <time>2016-12-17T12:19:18Z</time>
      </trkpt>
      <trkpt lat="47.19253" lon="-1.5719">
        <ele>8.83</ele>
        <time>2016-12-17T12:19:21Z</time>
      </trkpt>
      <trkpt lat="47.19257" lon="-1.57159">
        <ele>8.98</ele>
        <time>2016-12-17T12:19:24Z</time>
      </trkpt>
      <trkpt lat="47.1926" lon="-1.57128">
        <ele>9.02</ele>
        <time>2016-12-17T12:19:27Z</time>
      </trkpt>
      <trkpt lat="47.19263" lon="-1.57093">
        <ele>6.52</ele>
        <time>2016-12-17T12:19:31Z</time>
      </trkpt>
      <trkpt lat="47.19265" lon="-1.57062">
        <ele>6.37</ele>
        <time>2016-12-17T12:19:35Z</time>
      </trkpt>
      <trkpt lat="47.19262" lon="-1.57033">
        <ele>4.78</ele>
        <time>2016-12-17T12:19:38Z</time>
      </trkpt>
      <trkpt lat="47.19269" lon="-1.57008">
        <ele>3.6</ele>
        <time>2016-12-17T12:19:41Z</time>
      </trkpt>
      <trkpt lat="47.19274" lon="-1.56978">
        <ele>3.74</ele>
        <time>2016-12-17T12:19:44Z</time>
      </trkpt>
      <trkpt lat="47.19279" lon="-1.56948">
        <ele>3.55</ele>
        <time>2016-12-17T12:19:47Z</time>
      </trkpt>
      <trkpt lat="47.19282" lon="-1.56916">
        <ele>4.71</ele>
        <time>2016-12-17T12:19:50Z</time>
      </trkpt>
      <trkpt lat="47.19283" lon="-1.56889">
        <ele>5.58</ele>
        <time>2016-12-17T12:19:53Z</time>
      </trkpt>
      <trkpt lat="47.19285" lon="-1.5686">
        <ele>5.28</ele>
        <time>2016-12-17T12:19:56Z</time>
      </trkpt>
      <trkpt lat="47.19288" lon="-1.56831">
        <ele>5.33</ele>
        <time>2016-12-17T12:19:59Z</time>
      </trkpt>
      <trkpt lat="47.19291" lon="-1.56801">
        <ele>6.43</ele>
        <time>2016-12-17T12:20:02Z</time>
      </trkpt>
      <trkpt lat="47.19293" lon="-1.56774">
        <ele>5.58</ele>
        <time>2016-12-17T12:20:05Z</time>
      </trkpt>
      <trkpt lat="47.19294" lon="-1.56744">
        <ele>4.3</ele>
        <time>2016-12-17T12:20:08Z</time>
      </trkpt>
      <trkpt lat="47.19294" lon="-1.56712">
        <ele>3.92</ele>
        <time>2016-12-17T12:20:11Z</time>
      </trkpt>
      <trkpt lat="47.19292" lon="-1.56684">
        <ele>4.02</ele>
        <time>2016-12-17T12:20:14Z</time>
      </trkpt>
      <trkpt lat="47.19291" lon="-1.56656">
        <ele>3.56</ele>
        <time>2016-12-17T12:20:17Z</time>
      </trkpt>
      <trkpt lat="47.19288" lon="-1.56626">
        <ele>3.33</ele>
        <time>2016-12-17T12:20:20Z</time>
      </trkpt>
      <trkpt lat="47.19285" lon="-1.56597">
        <ele>3.41</ele>
        <time>2016-12-17T12:20:23Z</time>
      </trkpt>
      <trkpt lat="47.19282" lon="-1.56567">
        <ele>3.97</ele>
        <time>2016-12-17T12:20:26Z</time>
      </trkpt>
      <trkpt lat="47.19278" lon="-1.56539">
        <ele>3.71</ele>
        <time>2016-12-17T12:20:29Z</time>
      </trkpt>
      <trkpt lat="47.19275" lon="-1.56506">
        <ele>3.34</ele>
        <time>2016-12-17T12:20:32Z</time>
      </trkpt>
      <trkpt lat="47.19271" lon="-1.56478">
        <ele>4.72</ele>
        <time>2016-12-17T12:20:35Z</time>
      </trkpt>
      <trkpt lat="47.19267" lon="-1.56451">
        <ele>4.78</ele>
        <time>2016-12-17T12:20:38Z</time>
      </trkpt>
      <trkpt lat="47.19264" lon="-1.5642">
        <ele>4.23</ele>
        <time>2016-12-17T12:20:41Z</time>
      </trkpt>
      <trkpt lat="47.19262" lon="-1.56391">
        <ele>3.72</ele>
        <time>2016-12-17T12:20:44Z</time>
      </trkpt>
      <trkpt lat="47.1926" lon="-1.56363">
        <ele>3.5</ele>
        <time>2016-12-17T12:20:47Z</time>
      </trkpt>
      <trkpt lat="47.19256" lon="-1.56335">
        <ele>3.72</ele>
        <time>2016-12-17T12:20:50Z</time>
      </trkpt>
      <trkpt lat="47.19245" lon="-1.56312">
        <ele>4.79</ele>
        <time>2016-12-17T12:20:53Z</time>
      </trkpt>
      <trkpt lat="47.19237" lon="-1.56287">
        <ele>4.76</ele>
        <time>2016-12-17T12:20:56Z</time>
      </trkpt>
      <trkpt lat="47.19239" lon="-1.56259">
        <ele>4.4</ele>
        <time>2016-12-17T12:20:59Z</time>
      </trkpt>
      <trkpt lat="47.19245" lon="-1.56231">
        <ele>4.2</ele>
        <time>2016-12-17T12:21:02Z</time>
      </trkpt>
      <trkpt lat="47.19242" lon="-1.56198">
        <ele>3.46</ele>
        <time>2016-12-17T12:21:05Z</time>
      </trkpt>
      <trkpt lat="47.19242" lon="-1.56169">
        <ele>4.15</ele>
        <time>2016-12-17T12:21:08Z</time>
      </trkpt>
      <trkpt lat="47.19242" lon="-1.56137">
        <ele>4.39</ele>
        <time>2016-12-17T12:21:11Z</time>
      </trkpt>
      <trkpt lat="47.19242" lon="-1.56105">
        <ele>4.3</ele>
        <time>2016-12-17T12:21:14Z</time>
      </trkpt>
      <trkpt lat="47.19242" lon="-1.56075">
        <ele>5.16</ele>
        <time>2016-12-17T12:21:17Z</time>
      </trkpt>
      <trkpt lat="47.1924" lon="-1.56046">
        <ele>4.93</ele>
        <time>2016-12-17T12:21:20Z</time>
      </trkpt>
      <trkpt lat="47.19238" lon="-1.56015">
        <ele>3.4</ele>
        <time>2016-12-17T12:21:23Z</time>
      </trkpt>
      <trkpt lat="47.19234" lon="-1.55987">
        <ele>3.1</ele>
        <time>2016-12-17T12:21:26Z</time>
      </trkpt>
      <trkpt lat="47.1923" lon="-1.55957">
        <ele>2.21</ele>
        <time>2016-12-17T12:21:29Z</time>
      </trkpt>
      <trkpt lat="47.19227" lon="-1.55929">
        <ele>0.99</ele>
        <time>2016-12-17T12:21:32Z</time>
      </trkpt>
      <trkpt lat="47.19225" lon="-1.55902">
        <ele>1.3</ele>
        <time>2016-12-17T12:21:35Z</time>
      </trkpt>
      <trkpt lat="47.19222" lon="-1.5587">
        <ele>2.98</ele>
        <time>2016-12-17T12:21:38Z</time>
      </trkpt>
      <trkpt lat="47.1922" lon="-1.55838">
        <ele>1.97</ele>
        <time>2016-12-17T12:21:41Z</time>
      </trkpt>
      <trkpt lat="47.19219" lon="-1.55809">
        <ele>2.37</ele>
        <time>2016-12-17T12:21:44Z</time>
      </trkpt>
      <trkpt lat="47.19218" lon="-1.55781">
        <ele>3.65</ele>
        <time>2016-12-17T12:21:47Z</time>
      </trkpt>
      <trkpt lat="47.19218" lon="-1.55751">
        <ele>4.34</ele>
        <time>2016-12-17T12:21:50Z</time>
      </trkpt>
      <trkpt lat="47.19218" lon="-1.55722">
        <ele>4.7</ele>
        <time>2016-12-17T12:21:53Z</time>
      </trkpt>
      <trkpt lat="47.19218" lon="-1.55691">
        <ele>5.26</ele>
        <time>2016-12-17T12:21:56Z</time>
      </trkpt>
      <trkpt lat="47.19218" lon="-1.55662">
        <ele>4.89</ele>
        <time>2016-12-17T12:21:59Z</time>
      </trkpt>
      <trkpt lat="47.1922" lon="-1.55634">
        <ele>5</ele>
        <time>2016-12-17T12:22:02Z</time>
      </trkpt>
      <trkpt lat="47.19222" lon="-1.55603">
        <ele>5.33</ele>
        <time>2016-12-17T12:22:05Z</time>
      </trkpt>
      <trkpt lat="47.19225" lon="-1.55571">
        <ele>5.39</ele>
        <time>2016-12-17T12:22:08Z</time>
      </trkpt>
      <trkpt lat="47.19229" lon="-1.55543">
        <ele>5.76</ele>
        <time>2016-12-17T12:22:11Z</time>
      </trkpt>
      <trkpt lat="47.19232" lon="-1.55515">
        <ele>7.27</ele>
        <time>2016-12-17T12:22:14Z</time>
      </trkpt>
      <trkpt lat="47.19234" lon="-1.55486">
        <ele>7.89</ele>
        <time>2016-12-17T12:22:17Z</time>
      </trkpt>
      <trkpt lat="47.19225" lon="-1.55452">
        <ele>6.34</ele>
        <time>2016-12-17T12:22:21Z</time>
      </trkpt>
      <trkpt lat="47.19216" lon="-1.55425">
        <ele>5.08</ele>
        <time>2016-12-17T12:22:24Z</time>
      </trkpt>
      <trkpt lat="47.19231" lon="-1.55396">
        <ele>4.33</ele>
        <time>2016-12-17T12:22:28Z</time>
      </trkpt>
      <trkpt lat="47.19244" lon="-1.55376">
        <ele>5.26</ele>
        <time>2016-12-17T12:22:31Z</time>
      </trkpt>
      <trkpt lat="47.19252" lon="-1.55349">
        <ele>5.82</ele>
        <time>2016-12-17T12:22:34Z</time>
      </trkpt>
      <trkpt lat="47.19259" lon="-1.5532">
        <ele>6.92</ele>
        <time>2016-12-17T12:22:37Z</time>
      </trkpt>
      <trkpt lat="47.19267" lon="-1.55292">
        <ele>7.72</ele>
        <time>2016-12-17T12:22:40Z</time>
      </trkpt>
      <trkpt lat="47.19272" lon="-1.55266">
        <ele>6.8</ele>
        <time>2016-12-17T12:22:43Z</time>
      </trkpt>
      <trkpt lat="47.19277" lon="-1.55238">
        <ele>7.12</ele>
        <time>2016-12-17T12:22:46Z</time>
      </trkpt>
      <trkpt lat="47.19283" lon="-1.5521">
        <ele>9.82</ele>
        <time>2016-12-17T12:22:49Z</time>
      </trkpt>
      <trkpt lat="47.19293" lon="-1.55177">
        <ele>8.81</ele>
        <time>2016-12-17T12:22:53Z</time>
      </trkpt>
      <trkpt lat="47.193" lon="-1.55151">
        <ele>6.72</ele>
        <time>2016-12-17T12:22:56Z</time>
      </trkpt>
      <trkpt lat="47.19308" lon="-1.55119">
        <ele>6.43</ele>
        <time>2016-12-17T12:23:00Z</time>
      </trkpt>
      <trkpt lat="47.19317" lon="-1.55088">
        <ele>7.88</ele>
        <time>2016-12-17T12:23:04Z</time>
      </trkpt>
      <trkpt lat="47.19325" lon="-1.55056">
        <ele>8.09</ele>
        <time>2016-12-17T12:23:08Z</time>
      </trkpt>
      <trkpt lat="47.19331" lon="-1.55029">
        <ele>8.79</ele>
        <time>2016-12-17T12:23:11Z</time>
      </trkpt>
      <trkpt lat="47.19338" lon="-1.55002">
        <ele>9.02</ele>
        <time>2016-12-17T12:23:14Z</time>
      </trkpt>
      <trkpt lat="47.19345" lon="-1.54976">
        <ele>9.64</ele>
        <time>2016-12-17T12:23:17Z</time>
      </trkpt>
      <trkpt lat="47.19353" lon="-1.54949">
        <ele>10.87</ele>
        <time>2016-12-17T12:23:20Z</time>
      </trkpt>
      <trkpt lat="47.1936" lon="-1.54919">
        <ele>12.3</ele>
        <time>2016-12-17T12:23:24Z</time>
      </trkpt>
      <trkpt lat="47.19368" lon="-1.54889">
        <ele>12.86</ele>
        <time>2016-12-17T12:23:28Z</time>
      </trkpt>
      <trkpt lat="47.19374" lon="-1.54863">
        <ele>12.79</ele>
        <time>2016-12-17T12:23:31Z</time>
      </trkpt>
      <trkpt lat="47.1938" lon="-1.54835">
        <ele>12.23</ele>
        <time>2016-12-17T12:23:34Z</time>
      </trkpt>
      <trkpt lat="47.19387" lon="-1.54804">
        <ele>10.6</ele>
        <time>2016-12-17T12:23:37Z</time>
      </trkpt>
      <trkpt lat="47.19393" lon="-1.54775">
        <ele>9.94</ele>
        <time>2016-12-17T12:23:40Z</time>
      </trkpt>
      <trkpt lat="47.19401" lon="-1.54744">
        <ele>10.53</ele>
        <time>2016-12-17T12:23:43Z</time>
      </trkpt>
      <trkpt lat="47.1941" lon="-1.5471">
        <ele>12.69</ele>
        <time>2016-12-17T12:23:46Z</time>
      </trkpt>
      <trkpt lat="47.19419" lon="-1.5468">
        <ele>12.46</ele>
        <time>2016-12-17T12:23:49Z</time>
      </trkpt>
      <trkpt lat="47.19427" lon="-1.5465">
        <ele>10.87</ele>
        <time>2016-12-17T12:23:52Z</time>
      </trkpt>
      <trkpt lat="47.19434" lon="-1.54625">
        <ele>9.42</ele>
        <time>2016-12-17T12:23:55Z</time>
      </trkpt>
      <trkpt lat="47.19425" lon="-1.54596">
        <ele>7.85</ele>
        <time>2016-12-17T12:23:59Z</time>
      </trkpt>
      <trkpt lat="47.19427" lon="-1.5457">
        <ele>6.22</ele>
        <time>2016-12-17T12:24:02Z</time>
      </trkpt>
      <trkpt lat="47.19445" lon="-1.54548">
        <ele>5.62</ele>
        <time>2016-12-17T12:24:06Z</time>
      </trkpt>
      <trkpt lat="47.19457" lon="-1.54525">
        <ele>5.84</ele>
        <time>2016-12-17T12:24:09Z</time>
      </trkpt>
      <trkpt lat="47.19465" lon="-1.545">
        <ele>6.02</ele>
        <time>2016-12-17T12:24:12Z</time>
      </trkpt>
      <trkpt lat="47.19474" lon="-1.54475">
        <ele>7.04</ele>
        <time>2016-12-17T12:24:15Z</time>
      </trkpt>
      <trkpt lat="47.19491" lon="-1.54452">
        <ele>8.27</ele>
        <time>2016-12-17T12:24:20Z</time>
      </trkpt>
      <trkpt lat="47.1951" lon="-1.54438">
        <ele>7.55</ele>
        <time>2016-12-17T12:24:23Z</time>
      </trkpt>
      <trkpt lat="47.19527" lon="-1.54425">
        <ele>6.58</ele>
        <time>2016-12-17T12:24:26Z</time>
      </trkpt>
      <trkpt lat="47.19544" lon="-1.54412">
        <ele>5.59</ele>
        <time>2016-12-17T12:24:29Z</time>
      </trkpt>
      <trkpt lat="47.19561" lon="-1.54398">
        <ele>4.8</ele>
        <time>2016-12-17T12:24:32Z</time>
      </trkpt>
      <trkpt lat="47.19578" lon="-1.54385">
        <ele>4.69</ele>
        <time>2016-12-17T12:24:35Z</time>
      </trkpt>
      <trkpt lat="47.19596" lon="-1.5437">
        <ele>4.28</ele>
        <time>2016-12-17T12:24:38Z</time>
      </trkpt>
      <trkpt lat="47.19613" lon="-1.54354">
        <ele>4.07</ele>
        <time>2016-12-17T12:24:41Z</time>
      </trkpt>
      <trkpt lat="47.19628" lon="-1.54334">
        <ele>2.87</ele>
        <time>2016-12-17T12:24:44Z</time>
      </trkpt>
      <trkpt lat="47.19642" lon="-1.54314">
        <ele>2.43</ele>
        <time>2016-12-17T12:24:47Z</time>
      </trkpt>
      <trkpt lat="47.19659" lon="-1.54295">
        <ele>3.12</ele>
        <time>2016-12-17T12:24:50Z</time>
      </trkpt>
      <trkpt lat="47.19679" lon="-1.54276">
        <ele>2.92</ele>
        <time>2016-12-17T12:24:54Z</time>
      </trkpt>
      <trkpt lat="47.19696" lon="-1.54264">
        <ele>2.84</ele>
        <time>2016-12-17T12:24:57Z</time>
      </trkpt>
      <trkpt lat="47.19715" lon="-1.54252">
        <ele>2.73</ele>
        <time>2016-12-17T12:25:00Z</time>
      </trkpt>
      <trkpt lat="47.19732" lon="-1.54241">
        <ele>2.69</ele>
        <time>2016-12-17T12:25:03Z</time>
      </trkpt>
      <trkpt lat="47.1975" lon="-1.54225">
        <ele>2.82</ele>
        <time>2016-12-17T12:25:06Z</time>
      </trkpt>
      <trkpt lat="47.19766" lon="-1.54211">
        <ele>4.5</ele>
        <time>2016-12-17T12:25:09Z</time>
      </trkpt>
      <trkpt lat="47.19781" lon="-1.54197">
        <ele>6.31</ele>
        <time>2016-12-17T12:25:13Z</time>
      </trkpt>
      <trkpt lat="47.19791" lon="-1.54164">
        <ele>5.72</ele>
        <time>2016-12-17T12:25:17Z</time>
      </trkpt>
      <trkpt lat="47.19797" lon="-1.54128">
        <ele>5.1</ele>
        <time>2016-12-17T12:25:21Z</time>
      </trkpt>
      <trkpt lat="47.19811" lon="-1.54103">
        <ele>4.31</ele>
        <time>2016-12-17T12:25:24Z</time>
      </trkpt>
      <trkpt lat="47.19829" lon="-1.5409">
        <ele>3.61</ele>
        <time>2016-12-17T12:25:27Z</time>
      </trkpt>
      <trkpt lat="47.1984" lon="-1.54064">
        <ele>3.75</ele>
        <time>2016-12-17T12:25:31Z</time>
      </trkpt>
      <trkpt lat="47.19852" lon="-1.54037">
        <ele>3.29</ele>
        <time>2016-12-17T12:25:34Z</time>
      </trkpt>
      <trkpt lat="47.19861" lon="-1.54009">
        <ele>3.95</ele>
        <time>2016-12-17T12:25:37Z</time>
      </trkpt>
      <trkpt lat="47.19869" lon="-1.53979">
        <ele>5.39</ele>
        <time>2016-12-17T12:25:40Z</time>
      </trkpt>
      <trkpt lat="47.19877" lon="-1.53951">
        <ele>6</ele>
        <time>2016-12-17T12:25:43Z</time>
      </trkpt>
      <trkpt lat="47.19883" lon="-1.53922">
        <ele>5.64</ele>
        <time>2016-12-17T12:25:46Z</time>
      </trkpt>
      <trkpt lat="47.1989" lon="-1.53893">
        <ele>4.87</ele>
        <time>2016-12-17T12:25:49Z</time>
      </trkpt>
      <trkpt lat="47.19894" lon="-1.53866">
        <ele>3.83</ele>
        <time>2016-12-17T12:25:52Z</time>
      </trkpt>
      <trkpt lat="47.19898" lon="-1.53838">
        <ele>2.95</ele>
        <time>2016-12-17T12:25:55Z</time>
      </trkpt>
      <trkpt lat="47.19904" lon="-1.53811">
        <ele>0.81</ele>
        <time>2016-12-17T12:25:58Z</time>
      </trkpt>
      <trkpt lat="47.19909" lon="-1.53782">
        <ele>-0.74</ele>
        <time>2016-12-17T12:26:01Z</time>
      </trkpt>
      <trkpt lat="47.19915" lon="-1.53755">
        <ele>-1.88</ele>
        <time>2016-12-17T12:26:04Z</time>
      </trkpt>
      <trkpt lat="47.1992" lon="-1.53726">
        <ele>-1.29</ele>
        <time>2016-12-17T12:26:07Z</time>
      </trkpt>
      <trkpt lat="47.19928" lon="-1.53699">
        <ele>-0.6</ele>
        <time>2016-12-17T12:26:10Z</time>
      </trkpt>
      <trkpt lat="47.19935" lon="-1.53674">
        <ele>0.18</ele>
        <time>2016-12-17T12:26:13Z</time>
      </trkpt>
      <trkpt lat="47.19943" lon="-1.53649">
        <ele>1.97</ele>
        <time>2016-12-17T12:26:16Z</time>
      </trkpt>
      <trkpt lat="47.1995" lon="-1.53618">
        <ele>3.97</ele>
        <time>2016-12-17T12:26:19Z</time>
      </trkpt>
      <trkpt lat="47.19957" lon="-1.53589">
        <ele>4.14</ele>
        <time>2016-12-17T12:26:22Z</time>
      </trkpt>
      <trkpt lat="47.19964" lon="-1.53562">
        <ele>4.45</ele>
        <time>2016-12-17T12:26:25Z</time>
      </trkpt>
      <trkpt lat="47.19971" lon="-1.53534">
        <ele>4.27</ele>
        <time>2016-12-17T12:26:28Z</time>
      </trkpt>
      <trkpt lat="47.19978" lon="-1.53508">
        <ele>4.31</ele>
        <time>2016-12-17T12:26:31Z</time>
      </trkpt>
      <trkpt lat="47.19984" lon="-1.53475">
        <ele>5.2</ele>
        <time>2016-12-17T12:26:35Z</time>
      </trkpt>
      <trkpt lat="47.20006" lon="-1.53466">
        <ele>5.23</ele>
        <time>2016-12-17T12:26:39Z</time>
      </trkpt>
      <trkpt lat="47.20024" lon="-1.53453">
        <ele>4.78</ele>
        <time>2016-12-17T12:26:42Z</time>
      </trkpt>
      <trkpt lat="47.20034" lon="-1.53429">
        <ele>5.08</ele>
        <time>2016-12-17T12:26:45Z</time>
      </trkpt>
      <trkpt lat="47.20046" lon="-1.53397">
        <ele>3.97</ele>
        <time>2016-12-17T12:26:49Z</time>
      </trkpt>
      <trkpt lat="47.20058" lon="-1.53373">
        <ele>3.76</ele>
        <time>2016-12-17T12:26:52Z</time>
      </trkpt>
      <trkpt lat="47.2007" lon="-1.5335">
        <ele>2.94</ele>
        <time>2016-12-17T12:26:55Z</time>
      </trkpt>
      <trkpt lat="47.20085" lon="-1.53328">
        <ele>2</ele>
        <time>2016-12-17T12:26:59Z</time>
      </trkpt>
      <trkpt lat="47.20094" lon="-1.53302">
        <ele>3.08</ele>
        <time>2016-12-17T12:27:02Z</time>
      </trkpt>
      <trkpt lat="47.20102" lon="-1.53275">
        <ele>1.93</ele>
        <time>2016-12-17T12:27:05Z</time>
      </trkpt>
      <trkpt lat="47.2011" lon="-1.53247">
        <ele>1.58</ele>
        <time>2016-12-17T12:27:08Z</time>
      </trkpt>
      <trkpt lat="47.20118" lon="-1.53214">
        <ele>1.33</ele>
        <time>2016-12-17T12:27:12Z</time>
      </trkpt>
      <trkpt lat="47.20126" lon="-1.53185">
        <ele>1.24</ele>
        <time>2016-12-17T12:27:15Z</time>
      </trkpt>
      <trkpt lat="47.20133" lon="-1.5316">
        <ele>2.09</ele>
        <time>2016-12-17T12:27:18Z</time>
      </trkpt>
      <trkpt lat="47.20142" lon="-1.53135">
        <ele>4.09</ele>
        <time>2016-12-17T12:27:21Z</time>
      </trkpt>
      <trkpt lat="47.20153" lon="-1.53108">
        <ele>5.55</ele>
        <time>2016-12-17T12:27:24Z</time>
      </trkpt>
      <trkpt lat="47.20165" lon="-1.53079">
        <ele>5.56</ele>
        <time>2016-12-17T12:27:28Z</time>
      </trkpt>
      <trkpt lat="47.20177" lon="-1.53056">
        <ele>5.32</ele>
        <time>2016-12-17T12:27:31Z</time>
      </trkpt>
      <trkpt lat="47.20193" lon="-1.53035">
        <ele>5.17</ele>
        <time>2016-12-17T12:27:34Z</time>
      </trkpt>
      <trkpt lat="47.2021" lon="-1.53019">
        <ele>2.95</ele>
        <time>2016-12-17T12:27:37Z</time>
      </trkpt>
      <trkpt lat="47.20226" lon="-1.53003">
        <ele>1.09</ele>
        <time>2016-12-17T12:27:40Z</time>
      </trkpt>
      <trkpt lat="47.2024" lon="-1.52983">
        <ele>0.08</ele>
        <time>2016-12-17T12:27:43Z</time>
      </trkpt>
      <trkpt lat="47.20252" lon="-1.5296">
        <ele>1.19</ele>
        <time>2016-12-17T12:27:46Z</time>
      </trkpt>
      <trkpt lat="47.20267" lon="-1.52935">
        <ele>0.91</ele>
        <time>2016-12-17T12:27:49Z</time>
      </trkpt>
      <trkpt lat="47.20278" lon="-1.52911">
        <ele>1.22</ele>
        <time>2016-12-17T12:27:52Z</time>
      </trkpt>
      <trkpt lat="47.20289" lon="-1.52887">
        <ele>2.12</ele>
        <time>2016-12-17T12:27:55Z</time>
      </trkpt>
      <trkpt lat="47.203" lon="-1.52857">
        <ele>2.71</ele>
        <time>2016-12-17T12:27:58Z</time>
      </trkpt>
      <trkpt lat="47.20309" lon="-1.52831">
        <ele>3.91</ele>
        <time>2016-12-17T12:28:01Z</time>
      </trkpt>
      <trkpt lat="47.2032" lon="-1.52805">
        <ele>4.24</ele>
        <time>2016-12-17T12:28:04Z</time>
      </trkpt>
      <trkpt lat="47.20334" lon="-1.52774">
        <ele>4.21</ele>
        <time>2016-12-17T12:28:08Z</time>
      </trkpt>
      <trkpt lat="47.20346" lon="-1.52751">
        <ele>4.71</ele>
        <time>2016-12-17T12:28:11Z</time>
      </trkpt>
      <trkpt lat="47.20361" lon="-1.52724">
        <ele>6.3</ele>
        <time>2016-12-17T12:28:15Z</time>
      </trkpt>
      <trkpt lat="47.20374" lon="-1.52699">
        <ele>6.3</ele>
        <time>2016-12-17T12:28:18Z</time>
      </trkpt>
      <trkpt lat="47.20387" lon="-1.52679">
        <ele>8.09</ele>
        <time>2016-12-17T12:28:21Z</time>
      </trkpt>
      <trkpt lat="47.204" lon="-1.52655">
        <ele>9.2</ele>
        <time>2016-12-17T12:28:24Z</time>
      </trkpt>
      <trkpt lat="47.20409" lon="-1.5263">
        <ele>6.98</ele>
        <time>2016-12-17T12:28:27Z</time>
      </trkpt>
      <trkpt lat="47.20417" lon="-1.52604">
        <ele>3.86</ele>
        <time>2016-12-17T12:28:30Z</time>
      </trkpt>
      <trkpt lat="47.20424" lon="-1.52571">
        <ele>2.01</ele>
        <time>2016-12-17T12:28:34Z</time>
      </trkpt>
      <trkpt lat="47.20432" lon="-1.52545">
        <ele>1.21</ele>
        <time>2016-12-17T12:28:37Z</time>
      </trkpt>
      <trkpt lat="47.20442" lon="-1.52518">
        <ele>3.15</ele>
        <time>2016-12-17T12:28:40Z</time>
      </trkpt>
      <trkpt lat="47.20452" lon="-1.52495">
        <ele>6.2</ele>
        <time>2016-12-17T12:28:43Z</time>
      </trkpt>
      <trkpt lat="47.20461" lon="-1.52469">
        <ele>6.34</ele>
        <time>2016-12-17T12:28:46Z</time>
      </trkpt>
      <trkpt lat="47.2047" lon="-1.52438">
        <ele>7.22</ele>
        <time>2016-12-17T12:28:50Z</time>
      </trkpt>
      <trkpt lat="47.20481" lon="-1.52407">
        <ele>7.43</ele>
        <time>2016-12-17T12:28:54Z</time>
      </trkpt>
      <trkpt lat="47.20491" lon="-1.52383">
        <ele>8.39</ele>
        <time>2016-12-17T12:28:58Z</time>
      </trkpt>
      <trkpt lat="47.20502" lon="-1.52361">
        <ele>8.43</ele>
        <time>2016-12-17T12:29:06Z</time>
      </trkpt>
      <trkpt lat="47.20512" lon="-1.52385">
        <ele>6.29</ele>
        <time>2016-12-17T12:29:10Z</time>
      </trkpt>
      <trkpt lat="47.20524" lon="-1.52407">
        <ele>4.72</ele>
        <time>2016-12-17T12:29:13Z</time>
      </trkpt>
      <trkpt lat="47.20537" lon="-1.5243">
        <ele>6.09</ele>
        <time>2016-12-17T12:29:16Z</time>
      </trkpt>
      <trkpt lat="47.2055" lon="-1.52453">
        <ele>6.76</ele>
        <time>2016-12-17T12:29:19Z</time>
      </trkpt>
      <trkpt lat="47.20561" lon="-1.52474">
        <ele>9.18</ele>
        <time>2016-12-17T12:29:22Z</time>
      </trkpt>
      <trkpt lat="47.20573" lon="-1.52496">
        <ele>10.34</ele>
        <time>2016-12-17T12:29:25Z</time>
      </trkpt>
      <trkpt lat="47.20585" lon="-1.52516">
        <ele>10.41</ele>
        <time>2016-12-17T12:29:28Z</time>
      </trkpt>
      <trkpt lat="47.206" lon="-1.52541">
        <ele>10.21</ele>
        <time>2016-12-17T12:29:32Z</time>
      </trkpt>
      <trkpt lat="47.20615" lon="-1.52566">
        <ele>11.04</ele>
        <time>2016-12-17T12:29:36Z</time>
      </trkpt>
      <trkpt lat="47.2063" lon="-1.52591">
        <ele>10.64</ele>
        <time>2016-12-17T12:29:40Z</time>
      </trkpt>
      <trkpt lat="47.20648" lon="-1.52617">
        <ele>9.27</ele>
        <time>2016-12-17T12:29:44Z</time>
      </trkpt>
      <trkpt lat="47.2066" lon="-1.52638">
        <ele>9.85</ele>
        <time>2016-12-17T12:29:47Z</time>
      </trkpt>
      <trkpt lat="47.20675" lon="-1.52662">
        <ele>9.87</ele>
        <time>2016-12-17T12:29:51Z</time>
      </trkpt>
      <trkpt lat="47.20695" lon="-1.52667">
        <ele>7.54</ele>
        <time>2016-12-17T12:29:54Z</time>
      </trkpt>
      <trkpt lat="47.20713" lon="-1.52658">
        <ele>4.82</ele>
        <time>2016-12-17T12:29:58Z</time>
      </trkpt>
      <trkpt lat="47.20732" lon="-1.52668">
        <ele>4.88</ele>
        <time>2016-12-17T12:30:02Z</time>
      </trkpt>
      <trkpt lat="47.2075" lon="-1.52675">
        <ele>4.66</ele>
        <time>2016-12-17T12:30:05Z</time>
      </trkpt>
      <trkpt lat="47.20771" lon="-1.52684">
        <ele>5.46</ele>
        <time>2016-12-17T12:30:08Z</time>
      </trkpt>
      <trkpt lat="47.20794" lon="-1.52694">
        <ele>6.78</ele>
        <time>2016-12-17T12:30:12Z</time>
      </trkpt>
      <trkpt lat="47.20812" lon="-1.52702">
        <ele>9.48</ele>
        <time>2016-12-17T12:30:15Z</time>
      </trkpt>
      <trkpt lat="47.20832" lon="-1.52711">
        <ele>9.49</ele>
        <time>2016-12-17T12:30:18Z</time>
      </trkpt>
      <trkpt lat="47.20849" lon="-1.5272">
        <ele>9.83</ele>
        <time>2016-12-17T12:30:21Z</time>
      </trkpt>
      <trkpt lat="47.20865" lon="-1.52733">
        <ele>9.54</ele>
        <time>2016-12-17T12:30:24Z</time>
      </trkpt>
      <trkpt lat="47.20882" lon="-1.52748">
        <ele>10.6</ele>
        <time>2016-12-17T12:30:27Z</time>
      </trkpt>
      <trkpt lat="47.20899" lon="-1.52758">
        <ele>11.22</ele>
        <time>2016-12-17T12:30:30Z</time>
      </trkpt>
      <trkpt lat="47.2092" lon="-1.52769">
        <ele>11.26</ele>
        <time>2016-12-17T12:30:34Z</time>
      </trkpt>
      <trkpt lat="47.20938" lon="-1.52758">
        <ele>11.76</ele>
        <time>2016-12-17T12:30:37Z</time>
      </trkpt>
      <trkpt lat="47.20954" lon="-1.5273">
        <ele>10.47</ele>
        <time>2016-12-17T12:30:41Z</time>
      </trkpt>
      <trkpt lat="47.20967" lon="-1.52709">
        <ele>9.37</ele>
        <time>2016-12-17T12:30:44Z</time>
      </trkpt>
      <trkpt lat="47.20987" lon="-1.52703">
        <ele>9.69</ele>
        <time>2016-12-17T12:30:48Z</time>
      </trkpt>
      <trkpt lat="47.21004" lon="-1.52716">
        <ele>8.26</ele>
        <time>2016-12-17T12:30:51Z</time>
      </trkpt>
      <trkpt lat="47.2102" lon="-1.52732">
        <ele>8.07</ele>
        <time>2016-12-17T12:30:54Z</time>
      </trkpt>
      <trkpt lat="47.21035" lon="-1.52752">
        <ele>8.58</ele>
        <time>2016-12-17T12:30:57Z</time>
      </trkpt>
      <trkpt lat="47.2105" lon="-1.52771">
        <ele>8.55</ele>
        <time>2016-12-17T12:31:00Z</time>
      </trkpt>
      <trkpt lat="47.21067" lon="-1.52793">
        <ele>11.54</ele>
        <time>2016-12-17T12:31:04Z</time>
      </trkpt>
      <trkpt lat="47.21087" lon="-1.52816">
        <ele>15.96</ele>
        <time>2016-12-17T12:31:08Z</time>
      </trkpt>
      <trkpt lat="47.21103" lon="-1.52833">
        <ele>15.88</ele>
        <time>2016-12-17T12:31:11Z</time>
      </trkpt>
      <trkpt lat="47.21118" lon="-1.52853">
        <ele>14.37</ele>
        <time>2016-12-17T12:31:14Z</time>
      </trkpt>
      <trkpt lat="47.21133" lon="-1.52871">
        <ele>13.38</ele>
        <time>2016-12-17T12:31:17Z</time>
      </trkpt>
      <trkpt lat="47.21154" lon="-1.52878">
        <ele>13.27</ele>
        <time>2016-12-17T12:31:20Z</time>
      </trkpt>
      <trkpt lat="47.21172" lon="-1.52882">
        <ele>11.92</ele>
        <time>2016-12-17T12:31:23Z</time>
      </trkpt>
      <trkpt lat="47.21194" lon="-1.5289">
        <ele>7.87</ele>
        <time>2016-12-17T12:31:27Z</time>
      </trkpt>
      <trkpt lat="47.21213" lon="-1.52894">
        <ele>7.77</ele>
        <time>2016-12-17T12:31:30Z</time>
      </trkpt>
      <trkpt lat="47.21233" lon="-1.529">
        <ele>7.52</ele>
        <time>2016-12-17T12:31:33Z</time>
      </trkpt>
      <trkpt lat="47.2125" lon="-1.52906">
        <ele>6.73</ele>
        <time>2016-12-17T12:31:36Z</time>
      </trkpt>
      <trkpt lat="47.21268" lon="-1.52911">
        <ele>6.75</ele>
        <time>2016-12-17T12:31:39Z</time>
      </trkpt>
      <trkpt lat="47.21291" lon="-1.52915">
        <ele>6.01</ele>
        <time>2016-12-17T12:31:43Z</time>
      </trkpt>
      <trkpt lat="47.21312" lon="-1.5292">
        <ele>6.47</ele>
        <time>2016-12-17T12:31:47Z</time>
      </trkpt>
      <trkpt lat="47.21331" lon="-1.52926">
        <ele>6.93</ele>
        <time>2016-12-17T12:31:50Z</time>
      </trkpt>
      <trkpt lat="47.21349" lon="-1.52931">
        <ele>7.15</ele>
        <time>2016-12-17T12:31:53Z</time>
      </trkpt>
      <trkpt lat="47.21363" lon="-1.5291">
        <ele>7.7</ele>
        <time>2016-12-17T12:31:58Z</time>
      </trkpt>
      <trkpt lat="47.21365" lon="-1.52876">
        <ele>8.86</ele>
        <time>2016-12-17T12:32:02Z</time>
      </trkpt>
      <trkpt lat="47.21365" lon="-1.52844">
        <ele>8.44</ele>
        <time>2016-12-17T12:32:05Z</time>
      </trkpt>
      <trkpt lat="47.21367" lon="-1.5281">
        <ele>7.58</ele>
        <time>2016-12-17T12:32:08Z</time>
      </trkpt>
      <trkpt lat="47.21369" lon="-1.52777">
        <ele>6.36</ele>
        <time>2016-12-17T12:32:12Z</time>
      </trkpt>
      <trkpt lat="47.21372" lon="-1.52744">
        <ele>5.01</ele>
        <time>2016-12-17T12:32:15Z</time>
      </trkpt>
      <trkpt lat="47.21377" lon="-1.52715">
        <ele>4.91</ele>
        <time>2016-12-17T12:32:18Z</time>
      </trkpt>
      <trkpt lat="47.21383" lon="-1.52687">
        <ele>6.37</ele>
        <time>2016-12-17T12:32:21Z</time>
      </trkpt>
      <trkpt lat="47.2139" lon="-1.52657">
        <ele>6.26</ele>
        <time>2016-12-17T12:32:24Z</time>
      </trkpt>
      <trkpt lat="47.21398" lon="-1.52627">
        <ele>5.66</ele>
        <time>2016-12-17T12:32:27Z</time>
      </trkpt>
      <trkpt lat="47.21407" lon="-1.52599">
        <ele>5.73</ele>
        <time>2016-12-17T12:32:30Z</time>
      </trkpt>
      <trkpt lat="47.21415" lon="-1.52571">
        <ele>6.78</ele>
        <time>2016-12-17T12:32:33Z</time>
      </trkpt>
      <trkpt lat="47.21426" lon="-1.52539">
        <ele>7.07</ele>
        <time>2016-12-17T12:32:36Z</time>
      </trkpt>
      <trkpt lat="47.21435" lon="-1.52512">
        <ele>7.22</ele>
        <time>2016-12-17T12:32:39Z</time>
      </trkpt>
      <trkpt lat="47.21444" lon="-1.52482">
        <ele>7.23</ele>
        <time>2016-12-17T12:32:42Z</time>
      </trkpt>
      <trkpt lat="47.21454" lon="-1.52456">
        <ele>7.95</ele>
        <time>2016-12-17T12:32:45Z</time>
      </trkpt>
      <trkpt lat="47.21462" lon="-1.52431">
        <ele>9.09</ele>
        <time>2016-12-17T12:32:48Z</time>
      </trkpt>
      <trkpt lat="47.21471" lon="-1.52404">
        <ele>8.7</ele>
        <time>2016-12-17T12:32:51Z</time>
      </trkpt>
      <trkpt lat="47.2148" lon="-1.52377">
        <ele>7.9</ele>
        <time>2016-12-17T12:32:54Z</time>
      </trkpt>
      <trkpt lat="47.21489" lon="-1.5235">
        <ele>8.1</ele>
        <time>2016-12-17T12:32:57Z</time>
      </trkpt>
      <trkpt lat="47.21497" lon="-1.52326">
        <ele>6.93</ele>
        <time>2016-12-17T12:33:00Z</time>
      </trkpt>
      <trkpt lat="47.21506" lon="-1.52298">
        <ele>7.69</ele>
        <time>2016-12-17T12:33:03Z</time>
      </trkpt>
      <trkpt lat="47.21514" lon="-1.52274">
        <ele>5.91</ele>
        <time>2016-12-17T12:33:06Z</time>
      </trkpt>
      <trkpt lat="47.21523" lon="-1.52246">
        <ele>5.94</ele>
        <time>2016-12-17T12:33:09Z</time>
      </trkpt>
      <trkpt lat="47.2153" lon="-1.52219">
        <ele>6.71</ele>
        <time>2016-12-17T12:33:12Z</time>
      </trkpt>
      <trkpt lat="47.21539" lon="-1.52191">
        <ele>6.33</ele>
        <time>2016-12-17T12:33:15Z</time>
      </trkpt>
      <trkpt lat="47.2155" lon="-1.52159">
        <ele>6.31</ele>
        <time>2016-12-17T12:33:19Z</time>
      </trkpt>
      <trkpt lat="47.21558" lon="-1.52131">
        <ele>5.41</ele>
        <time>2016-12-17T12:33:22Z</time>
      </trkpt>
      <trkpt lat="47.21567" lon="-1.52103">
        <ele>5.72</ele>
        <time>2016-12-17T12:33:25Z</time>
      </trkpt>
      <trkpt lat="47.21576" lon="-1.52077">
        <ele>6.33</ele>
        <time>2016-12-17T12:33:28Z</time>
      </trkpt>
      <trkpt lat="47.21586" lon="-1.52051">
        <ele>6.25</ele>
        <time>2016-12-17T12:33:31Z</time>
      </trkpt>
      <trkpt lat="47.21595" lon="-1.52023">
        <ele>5.63</ele>
        <time>2016-12-17T12:33:34Z</time>
      </trkpt>
      <trkpt lat="47.21605" lon="-1.51995">
        <ele>5.81</ele>
        <time>2016-12-17T12:33:37Z</time>
      </trkpt>
      <trkpt lat="47.21617" lon="-1.51965">
        <ele>7.19</ele>
        <time>2016-12-17T12:33:41Z</time>
      </trkpt>
      <trkpt lat="47.21623" lon="-1.51935">
        <ele>7.39</ele>
        <time>2016-12-17T12:33:44Z</time>
      </trkpt>
      <trkpt lat="47.21631" lon="-1.51903">
        <ele>8.09</ele>
        <time>2016-12-17T12:33:47Z</time>
      </trkpt>
      <trkpt lat="47.2164" lon="-1.51879">
        <ele>8.87</ele>
        <time>2016-12-17T12:33:50Z</time>
      </trkpt>
      <trkpt lat="47.21647" lon="-1.51844">
        <ele>8.03</ele>
        <time>2016-12-17T12:33:54Z</time>
      </trkpt>
      <trkpt lat="47.21654" lon="-1.51818">
        <ele>6.59</ele>
        <time>2016-12-17T12:33:57Z</time>
      </trkpt>
      <trkpt lat="47.21666" lon="-1.51791">
        <ele>5.2</ele>
        <time>2016-12-17T12:34:00Z</time>
      </trkpt>
      <trkpt lat="47.21679" lon="-1.51766">
        <ele>4.14</ele>
        <time>2016-12-17T12:34:03Z</time>
      </trkpt>
      <trkpt lat="47.21693" lon="-1.5174">
        <ele>4.16</ele>
        <time>2016-12-17T12:34:06Z</time>
      </trkpt>
      <trkpt lat="47.21706" lon="-1.51714">
        <ele>4.65</ele>
        <time>2016-12-17T12:34:09Z</time>
      </trkpt>
      <trkpt lat="47.21717" lon="-1.51691">
        <ele>4.64</ele>
        <time>2016-12-17T12:34:12Z</time>
      </trkpt>
      <trkpt lat="47.21727" lon="-1.51667">
        <ele>4.64</ele>
        <time>2016-12-17T12:34:15Z</time>
      </trkpt>
      <trkpt lat="47.21737" lon="-1.51644">
        <ele>5.04</ele>
        <time>2016-12-17T12:34:18Z</time>
      </trkpt>
      <trkpt lat="47.21748" lon="-1.51622">
        <ele>5.86</ele>
        <time>2016-12-17T12:34:21Z</time>
      </trkpt>
      <trkpt lat="47.21763" lon="-1.51594">
        <ele>8</ele>
        <time>2016-12-17T12:34:25Z</time>
      </trkpt>
      <trkpt lat="47.21778" lon="-1.51572">
        <ele>7.58</ele>
        <time>2016-12-17T12:34:28Z</time>
      </trkpt>
      <trkpt lat="47.2179" lon="-1.51552">
        <ele>6.76</ele>
        <time>2016-12-17T12:34:31Z</time>
      </trkpt>
      <trkpt lat="47.21801" lon="-1.51527">
        <ele>5.25</ele>
        <time>2016-12-17T12:34:34Z</time>
      </trkpt>
      <trkpt lat="47.21812" lon="-1.51498">
        <ele>4.51</ele>
        <time>2016-12-17T12:34:37Z</time>
      </trkpt>
      <trkpt lat="47.21823" lon="-1.51468">
        <ele>4.41</ele>
        <time>2016-12-17T12:34:40Z</time>
      </trkpt>
      <trkpt lat="47.21828" lon="-1.5144">
        <ele>4.33</ele>
        <time>2016-12-17T12:34:43Z</time>
      </trkpt>
      <trkpt lat="47.21832" lon="-1.51412">
        <ele>3.46</ele>
        <time>2016-12-17T12:34:46Z</time>
      </trkpt>
      <trkpt lat="47.21838" lon="-1.51385">
        <ele>3.08</ele>
        <time>2016-12-17T12:34:49Z</time>
      </trkpt>
      <trkpt lat="47.21845" lon="-1.51355">
        <ele>3.1</ele>
        <time>2016-12-17T12:34:52Z</time>
      </trkpt>
      <trkpt lat="47.21853" lon="-1.51328">
        <ele>3.31</ele>
        <time>2016-12-17T12:34:55Z</time>
      </trkpt>
      <trkpt lat="47.21861" lon="-1.51301">
        <ele>4.43</ele>
        <time>2016-12-17T12:34:58Z</time>
      </trkpt>
      <trkpt lat="47.21869" lon="-1.51272">
        <ele>5.26</ele>
        <time>2016-12-17T12:35:01Z</time>
      </trkpt>
      <trkpt lat="47.21879" lon="-1.51245">
        <ele>6.83</ele>
        <time>2016-12-17T12:35:04Z</time>
      </trkpt>
      <trkpt lat="47.21889" lon="-1.51215">
        <ele>7.6</ele>
        <time>2016-12-17T12:35:07Z</time>
      </trkpt>
      <trkpt lat="47.21897" lon="-1.5119">
        <ele>7.53</ele>
        <time>2016-12-17T12:35:10Z</time>
      </trkpt>
      <trkpt lat="47.21906" lon="-1.51165">
        <ele>7.52</ele>
        <time>2016-12-17T12:35:13Z</time>
      </trkpt>
      <trkpt lat="47.21913" lon="-1.5114">
        <ele>7.19</ele>
        <time>2016-12-17T12:35:16Z</time>
      </trkpt>
      <trkpt lat="47.21922" lon="-1.51113">
        <ele>6.6</ele>
        <time>2016-12-17T12:35:19Z</time>
      </trkpt>
      <trkpt lat="47.21931" lon="-1.51088">
        <ele>6.49</ele>
        <time>2016-12-17T12:35:22Z</time>
      </trkpt>
      <trkpt lat="47.21943" lon="-1.5106">
        <ele>5.75</ele>
        <time>2016-12-17T12:35:26Z</time>
      </trkpt>
      <trkpt lat="47.21955" lon="-1.51035">
        <ele>5.82</ele>
        <time>2016-12-17T12:35:30Z</time>
      </trkpt>
      <trkpt lat="47.21962" lon="-1.51006">
        <ele>5.59</ele>
        <time>2016-12-17T12:35:33Z</time>
      </trkpt>
      <trkpt lat="47.21971" lon="-1.50978">
        <ele>5.44</ele>
        <time>2016-12-17T12:35:36Z</time>
      </trkpt>
      <trkpt lat="47.21979" lon="-1.50953">
        <ele>6.04</ele>
        <time>2016-12-17T12:35:39Z</time>
      </trkpt>
      <trkpt lat="47.21988" lon="-1.50921">
        <ele>6.51</ele>
        <time>2016-12-17T12:35:43Z</time>
      </trkpt>
      <trkpt lat="47.21995" lon="-1.50893">
        <ele>5.79</ele>
        <time>2016-12-17T12:35:46Z</time>
      </trkpt>
      <trkpt lat="47.22003" lon="-1.50864">
        <ele>6.12</ele>
        <time>2016-12-17T12:35:49Z</time>
      </trkpt>
      <trkpt lat="47.22012" lon="-1.50838">
        <ele>5.64</ele>
        <time>2016-12-17T12:35:52Z</time>
      </trkpt>
      <trkpt lat="47.22023" lon="-1.5081">
        <ele>2.72</ele>
        <time>2016-12-17T12:35:56Z</time>
      </trkpt>
      <trkpt lat="47.22034" lon="-1.50783">
        <ele>3.46</ele>
        <time>2016-12-17T12:35:59Z</time>
      </trkpt>
      <trkpt lat="47.22042" lon="-1.50756">
        <ele>2.68</ele>
        <time>2016-12-17T12:36:02Z</time>
      </trkpt>
      <trkpt lat="47.22049" lon="-1.50728">
        <ele>1.61</ele>
        <time>2016-12-17T12:36:05Z</time>
      </trkpt>
      <trkpt lat="47.22054" lon="-1.50698">
        <ele>0.4</ele>
        <time>2016-12-17T12:36:08Z</time>
      </trkpt>
      <trkpt lat="47.22058" lon="-1.50666">
        <ele>0.92</ele>
        <time>2016-12-17T12:36:11Z</time>
      </trkpt>
      <trkpt lat="47.2206" lon="-1.50634">
        <ele>2.14</ele>
        <time>2016-12-17T12:36:14Z</time>
      </trkpt>
      <trkpt lat="47.22061" lon="-1.50605">
        <ele>3.34</ele>
        <time>2016-12-17T12:36:17Z</time>
      </trkpt>
      <trkpt lat="47.22062" lon="-1.50571">
        <ele>4.99</ele>
        <time>2016-12-17T12:36:20Z</time>
      </trkpt>
      <trkpt lat="47.22063" lon="-1.50539">
        <ele>6.19</ele>
        <time>2016-12-17T12:36:23Z</time>
      </trkpt>
      <trkpt lat="47.22063" lon="-1.50508">
        <ele>5.06</ele>
        <time>2016-12-17T12:36:26Z</time>
      </trkpt>
      <trkpt lat="47.22064" lon="-1.50478">
        <ele>4.11</ele>
        <time>2016-12-17T12:36:29Z</time>
      </trkpt>
      <trkpt lat="47.22067" lon="-1.50451">
        <ele>4.84</ele>
        <time>2016-12-17T12:36:32Z</time>
      </trkpt>
      <trkpt lat="47.22072" lon="-1.50418">
        <ele>5.01</ele>
        <time>2016-12-17T12:36:35Z</time>
      </trkpt>
      <trkpt lat="47.22079" lon="-1.5039">
        <ele>4.6</ele>
        <time>2016-12-17T12:36:38Z</time>
      </trkpt>
      <trkpt lat="47.22089" lon="-1.50356">
        <ele>3.04</ele>
        <time>2016-12-17T12:36:42Z</time>
      </trkpt>
      <trkpt lat="47.221" lon="-1.50328">
        <ele>4.59</ele>
        <time>2016-12-17T12:36:46Z</time>
      </trkpt>
      <trkpt lat="47.22117" lon="-1.50299">
        <ele>6.08</ele>
        <time>2016-12-17T12:36:49Z</time>
      </trkpt>
      <trkpt lat="47.22129" lon="-1.50273">
        <ele>5.57</ele>
        <time>2016-12-17T12:36:52Z</time>
      </trkpt>
      <trkpt lat="47.22138" lon="-1.50245">
        <ele>3.92</ele>
        <time>2016-12-17T12:36:55Z</time>
      </trkpt>
      <trkpt lat="47.22145" lon="-1.50217">
        <ele>3.45</ele>
        <time>2016-12-17T12:36:58Z</time>
      </trkpt>
      <trkpt lat="47.22152" lon="-1.5019">
        <ele>4.05</ele>
        <time>2016-12-17T12:37:01Z</time>
      </trkpt>
      <trkpt lat="47.22158" lon="-1.50161">
        <ele>5.33</ele>
        <time>2016-12-17T12:37:04Z</time>
      </trkpt>
      <trkpt lat="47.22165" lon="-1.50135">
        <ele>6.61</ele>
        <time>2016-12-17T12:37:07Z</time>
      </trkpt>
      <trkpt lat="47.22173" lon="-1.5011">
        <ele>8.13</ele>
        <time>2016-12-17T12:37:10Z</time>
      </trkpt>
      <trkpt lat="47.2218" lon="-1.50084">
        <ele>9.37</ele>
        <time>2016-12-17T12:37:13Z</time>
      </trkpt>
      <trkpt lat="47.22188" lon="-1.50049">
        <ele>9.59</ele>
        <time>2016-12-17T12:37:17Z</time>
      </trkpt>
      <trkpt lat="47.22194" lon="-1.50016">
        <ele>9.46</ele>
        <time>2016-12-17T12:37:20Z</time>
      </trkpt>
      <trkpt lat="47.22201" lon="-1.49987">
        <ele>9.16</ele>
        <time>2016-12-17T12:37:23Z</time>
      </trkpt>
      <trkpt lat="47.22209" lon="-1.49957">
        <ele>8.95</ele>
        <time>2016-12-17T12:37:27Z</time>
      </trkpt>
      <trkpt lat="47.22218" lon="-1.49925">
        <ele>8.44</ele>
        <time>2016-12-17T12:37:31Z</time>
      </trkpt>
      <trkpt lat="47.22227" lon="-1.49895">
        <ele>7.82</ele>
        <time>2016-12-17T12:37:34Z</time>
      </trkpt>
      <trkpt lat="47.22233" lon="-1.49871">
        <ele>7.35</ele>
        <time>2016-12-17T12:37:37Z</time>
      </trkpt>
      <trkpt lat="47.22241" lon="-1.49841">
        <ele>8.77</ele>
        <time>2016-12-17T12:37:40Z</time>
      </trkpt>
      <trkpt lat="47.22246" lon="-1.49812">
        <ele>8.84</ele>
        <time>2016-12-17T12:37:43Z</time>
      </trkpt>
      <trkpt lat="47.22252" lon="-1.49781">
        <ele>7.19</ele>
        <time>2016-12-17T12:37:46Z</time>
      </trkpt>
      <trkpt lat="47.22256" lon="-1.49751">
        <ele>6.74</ele>
        <time>2016-12-17T12:37:49Z</time>
      </trkpt>
      <trkpt lat="47.22262" lon="-1.49721">
        <ele>6.54</ele>
        <time>2016-12-17T12:37:52Z</time>
      </trkpt>
      <trkpt lat="47.22269" lon="-1.49695">
        <ele>5.66</ele>
        <time>2016-12-17T12:37:55Z</time>
      </trkpt>
      <trkpt lat="47.2228" lon="-1.49667">
        <ele>6.18</ele>
        <time>2016-12-17T12:37:58Z</time>
      </trkpt>
      <trkpt lat="47.22287" lon="-1.4964">
        <ele>7.8</ele>
        <time>2016-12-17T12:38:01Z</time>
      </trkpt>
      <trkpt lat="47.22296" lon="-1.49606">
        <ele>6.31</ele>
        <time>2016-12-17T12:38:05Z</time>
      </trkpt>
      <trkpt lat="47.22305" lon="-1.49578">
        <ele>5.59</ele>
        <time>2016-12-17T12:38:08Z</time>
      </trkpt>
      <trkpt lat="47.22315" lon="-1.49551">
        <ele>6.38</ele>
        <time>2016-12-17T12:38:11Z</time>
      </trkpt>
      <trkpt lat="47.22325" lon="-1.49524">
        <ele>7.78</ele>
        <time>2016-12-17T12:38:14Z</time>
      </trkpt>
      <trkpt lat="47.22335" lon="-1.49497">
        <ele>10.33</ele>
        <time>2016-12-17T12:38:17Z</time>
      </trkpt>
      <trkpt lat="47.22343" lon="-1.49471">
        <ele>11.7</ele>
        <time>2016-12-17T12:38:20Z</time>
      </trkpt>
      <trkpt lat="47.22353" lon="-1.49443">
        <ele>12.3</ele>
        <time>2016-12-17T12:38:23Z</time>
      </trkpt>
      <trkpt lat="47.22361" lon="-1.49419">
        <ele>13.27</ele>
        <time>2016-12-17T12:38:26Z</time>
      </trkpt>
      <trkpt lat="47.22372" lon="-1.49394">
        <ele>11.91</ele>
        <time>2016-12-17T12:38:29Z</time>
      </trkpt>
      <trkpt lat="47.22383" lon="-1.49367">
        <ele>10.96</ele>
        <time>2016-12-17T12:38:32Z</time>
      </trkpt>
      <trkpt lat="47.22395" lon="-1.49341">
        <ele>9.8</ele>
        <time>2016-12-17T12:38:35Z</time>
      </trkpt>
      <trkpt lat="47.22406" lon="-1.49316">
        <ele>8.59</ele>
        <time>2016-12-17T12:38:38Z</time>
      </trkpt>
      <trkpt lat="47.22416" lon="-1.4929">
        <ele>8.62</ele>
        <time>2016-12-17T12:38:41Z</time>
      </trkpt>
      <trkpt lat="47.22425" lon="-1.49262">
        <ele>9.06</ele>
        <time>2016-12-17T12:38:44Z</time>
      </trkpt>
      <trkpt lat="47.22436" lon="-1.49236">
        <ele>7.26</ele>
        <time>2016-12-17T12:38:47Z</time>
      </trkpt>
      <trkpt lat="47.22446" lon="-1.49209">
        <ele>5.78</ele>
        <time>2016-12-17T12:38:50Z</time>
      </trkpt>
      <trkpt lat="47.22454" lon="-1.49184">
        <ele>5.56</ele>
        <time>2016-12-17T12:38:53Z</time>
      </trkpt>
      <trkpt lat="47.22464" lon="-1.49159">
        <ele>6.6</ele>
        <time>2016-12-17T12:38:56Z</time>
      </trkpt>
      <trkpt lat="47.22474" lon="-1.49131">
        <ele>6.31</ele>
        <time>2016-12-17T12:38:59Z</time>
      </trkpt>
      <trkpt lat="47.22483" lon="-1.49104">
        <ele>7.27</ele>
        <time>2016-12-17T12:39:02Z</time>
      </trkpt>
      <trkpt lat="47.22492" lon="-1.49077">
        <ele>7.29</ele>
        <time>2016-12-17T12:39:05Z</time>
      </trkpt>
      <trkpt lat="47.22501" lon="-1.49051">
        <ele>7.55</ele>
        <time>2016-12-17T12:39:08Z</time>
      </trkpt>
      <trkpt lat="47.22509" lon="-1.49025">
        <ele>7.3</ele>
        <time>2016-12-17T12:39:11Z</time>
      </trkpt>
      <trkpt lat="47.22516" lon="-1.48998">
        <ele>6.07</ele>
        <time>2016-12-17T12:39:14Z</time>
      </trkpt>
      <trkpt lat="47.22523" lon="-1.48971">
        <ele>5.92</ele>
        <time>2016-12-17T12:39:17Z</time>
      </trkpt>
      <trkpt lat="47.22534" lon="-1.48937">
        <ele>6.08</ele>
        <time>2016-12-17T12:39:21Z</time>
      </trkpt>
      <trkpt lat="47.22543" lon="-1.48908">
        <ele>6.07</ele>
        <time>2016-12-17T12:39:24Z</time>
      </trkpt>
      <trkpt lat="47.2255" lon="-1.48882">
        <ele>6.27</ele>
        <time>2016-12-17T12:39:27Z</time>
      </trkpt>
      <trkpt lat="47.22557" lon="-1.48858">
        <ele>5.74</ele>
        <time>2016-12-17T12:39:30Z</time>
      </trkpt>
      <trkpt lat="47.22565" lon="-1.48833">
        <ele>3.74</ele>
        <time>2016-12-17T12:39:33Z</time>
      </trkpt>
      <trkpt lat="47.22575" lon="-1.48802">
        <ele>3.12</ele>
        <time>2016-12-17T12:39:36Z</time>
      </trkpt>
      <trkpt lat="47.22586" lon="-1.48775">
        <ele>3.22</ele>
        <time>2016-12-17T12:39:39Z</time>
      </trkpt>
      <trkpt lat="47.22595" lon="-1.48748">
        <ele>4.43</ele>
        <time>2016-12-17T12:39:42Z</time>
      </trkpt>
      <trkpt lat="47.22603" lon="-1.48719">
        <ele>3.99</ele>
        <time>2016-12-17T12:39:45Z</time>
      </trkpt>
      <trkpt lat="47.2261" lon="-1.48691">
        <ele>5.18</ele>
        <time>2016-12-17T12:39:48Z</time>
      </trkpt>
      <trkpt lat="47.22617" lon="-1.48666">
        <ele>5.53</ele>
        <time>2016-12-17T12:39:51Z</time>
      </trkpt>
      <trkpt lat="47.22625" lon="-1.4864">
        <ele>4.96</ele>
        <time>2016-12-17T12:39:54Z</time>
      </trkpt>
      <trkpt lat="47.22635" lon="-1.48614">
        <ele>4.43</ele>
        <time>2016-12-17T12:39:57Z</time>
      </trkpt>
      <trkpt lat="47.22644" lon="-1.48589">
        <ele>5.19</ele>
        <time>2016-12-17T12:40:00Z</time>
      </trkpt>
      <trkpt lat="47.22654" lon="-1.48564">
        <ele>5.11</ele>
        <time>2016-12-17T12:40:03Z</time>
      </trkpt>
      <trkpt lat="47.22663" lon="-1.48538">
        <ele>5.84</ele>
        <time>2016-12-17T12:40:06Z</time>
      </trkpt>
      <trkpt lat="47.22671" lon="-1.48512">
        <ele>4.52</ele>
        <time>2016-12-17T12:40:09Z</time>
      </trkpt>
      <trkpt lat="47.22679" lon="-1.48488">
        <ele>3.7</ele>
        <time>2016-12-17T12:40:12Z</time>
      </trkpt>
      <trkpt lat="47.22688" lon="-1.48465">
        <ele>5.1</ele>
        <time>2016-12-17T12:40:15Z</time>
      </trkpt>
      <trkpt lat="47.227" lon="-1.48439">
        <ele>5.8</ele>
        <time>2016-12-17T12:40:18Z</time>
      </trkpt>
      <trkpt lat="47.22709" lon="-1.48414">
        <ele>5.98</ele>
        <time>2016-12-17T12:40:21Z</time>
      </trkpt>
      <trkpt lat="47.22725" lon="-1.48388">
        <ele>5.1</ele>
        <time>2016-12-17T12:40:25Z</time>
      </trkpt>
      <trkpt lat="47.22739" lon="-1.4837">
        <ele>5.23</ele>
        <time>2016-12-17T12:40:28Z</time>
      </trkpt>
      <trkpt lat="47.22752" lon="-1.48351">
        <ele>5.79</ele>
        <time>2016-12-17T12:40:31Z</time>
      </trkpt>
      <trkpt lat="47.22766" lon="-1.48332">
        <ele>3.99</ele>
        <time>2016-12-17T12:40:34Z</time>
      </trkpt>
      <trkpt lat="47.2278" lon="-1.48312">
        <ele>3.52</ele>
        <time>2016-12-17T12:40:37Z</time>
      </trkpt>
      <trkpt lat="47.22794" lon="-1.48293">
        <ele>3.15</ele>
        <time>2016-12-17T12:40:40Z</time>
      </trkpt>
      <trkpt lat="47.2281" lon="-1.48266">
        <ele>4.13</ele>
        <time>2016-12-17T12:40:44Z</time>
      </trkpt>
      <trkpt lat="47.22823" lon="-1.48246">
        <ele>3.41</ele>
        <time>2016-12-17T12:40:47Z</time>
      </trkpt>
      <trkpt lat="47.22841" lon="-1.48221">
        <ele>3.14</ele>
        <time>2016-12-17T12:40:51Z</time>
      </trkpt>
      <trkpt lat="47.22855" lon="-1.482">
        <ele>3.88</ele>
        <time>2016-12-17T12:40:54Z</time>
      </trkpt>
      <trkpt lat="47.22871" lon="-1.48174">
        <ele>3.84</ele>
        <time>2016-12-17T12:40:58Z</time>
      </trkpt>
      <trkpt lat="47.22887" lon="-1.48148">
        <ele>4.85</ele>
        <time>2016-12-17T12:41:02Z</time>
      </trkpt>
      <trkpt lat="47.22902" lon="-1.48124">
        <ele>4.54</ele>
        <time>2016-12-17T12:41:05Z</time>
      </trkpt>
      <trkpt lat="47.22918" lon="-1.4811">
        <ele>3.7</ele>
        <time>2016-12-17T12:41:08Z</time>
      </trkpt>
      <trkpt lat="47.22936" lon="-1.48106">
        <ele>3.41</ele>
        <time>2016-12-17T12:41:11Z</time>
      </trkpt>
      <trkpt lat="47.22957" lon="-1.48095">
        <ele>3.53</ele>
        <time>2016-12-17T12:41:15Z</time>
      </trkpt>
      <trkpt lat="47.2297" lon="-1.48072">
        <ele>1.84</ele>
        <time>2016-12-17T12:41:18Z</time>
      </trkpt>
      <trkpt lat="47.22983" lon="-1.48049">
        <ele>3.05</ele>
        <time>2016-12-17T12:41:21Z</time>
      </trkpt>
      <trkpt lat="47.22995" lon="-1.48028">
        <ele>2.98</ele>
        <time>2016-12-17T12:41:24Z</time>
      </trkpt>
      <trkpt lat="47.23007" lon="-1.48005">
        <ele>2.2</ele>
        <time>2016-12-17T12:41:27Z</time>
      </trkpt>
      <trkpt lat="47.23024" lon="-1.47978">
        <ele>1.2</ele>
        <time>2016-12-17T12:41:31Z</time>
      </trkpt>
      <trkpt lat="47.23037" lon="-1.47957">
        <ele>-0.63</ele>
        <time>2016-12-17T12:41:34Z</time>
      </trkpt>
      <trkpt lat="47.23055" lon="-1.47932">
        <ele>-0.59</ele>
        <time>2016-12-17T12:41:38Z</time>
      </trkpt>
      <trkpt lat="47.23075" lon="-1.47911">
        <ele>1.25</ele>
        <time>2016-12-17T12:41:42Z</time>
      </trkpt>
      <trkpt lat="47.2309" lon="-1.47892">
        <ele>2.33</ele>
        <time>2016-12-17T12:41:46Z</time>
      </trkpt>
      <trkpt lat="47.23104" lon="-1.47872">
        <ele>3.74</ele>
        <time>2016-12-17T12:41:49Z</time>
      </trkpt>
      <trkpt lat="47.2312" lon="-1.47849">
        <ele>4.16</ele>
        <time>2016-12-17T12:41:52Z</time>
      </trkpt>
      <trkpt lat="47.23132" lon="-1.47826">
        <ele>4.24</ele>
        <time>2016-12-17T12:41:55Z</time>
      </trkpt>
      <trkpt lat="47.23144" lon="-1.47795">
        <ele>4.14</ele>
        <time>2016-12-17T12:41:59Z</time>
      </trkpt>
      <trkpt lat="47.23154" lon="-1.47773">
        <ele>4.33</ele>
        <time>2016-12-17T12:42:02Z</time>
      </trkpt>
      <trkpt lat="47.23164" lon="-1.47747">
        <ele>4.39</ele>
        <time>2016-12-17T12:42:05Z</time>
      </trkpt>
      <trkpt lat="47.23173" lon="-1.47724">
        <ele>4.45</ele>
        <time>2016-12-17T12:42:08Z</time>
      </trkpt>
      <trkpt lat="47.23184" lon="-1.47699">
        <ele>5.32</ele>
        <time>2016-12-17T12:42:11Z</time>
      </trkpt>
      <trkpt lat="47.23194" lon="-1.47673">
        <ele>4.58</ele>
        <time>2016-12-17T12:42:14Z</time>
      </trkpt>
      <trkpt lat="47.23206" lon="-1.47646">
        <ele>4.08</ele>
        <time>2016-12-17T12:42:17Z</time>
      </trkpt>
      <trkpt lat="47.23215" lon="-1.47622">
        <ele>5.03</ele>
        <time>2016-12-17T12:42:20Z</time>
      </trkpt>
      <trkpt lat="47.23226" lon="-1.47597">
        <ele>5.87</ele>
        <time>2016-12-17T12:42:23Z</time>
      </trkpt>
      <trkpt lat="47.23237" lon="-1.47574">
        <ele>5.75</ele>
        <time>2016-12-17T12:42:26Z</time>
      </trkpt>
      <trkpt lat="47.23249" lon="-1.47552">
        <ele>6.65</ele>
        <time>2016-12-17T12:42:29Z</time>
      </trkpt>
      <trkpt lat="47.23263" lon="-1.4753">
        <ele>6.61</ele>
        <time>2016-12-17T12:42:32Z</time>
      </trkpt>
      <trkpt lat="47.23281" lon="-1.47511">
        <ele>5.66</ele>
        <time>2016-12-17T12:42:36Z</time>
      </trkpt>
      <trkpt lat="47.23298" lon="-1.475">
        <ele>6.21</ele>
        <time>2016-12-17T12:42:39Z</time>
      </trkpt>
      <trkpt lat="47.2332" lon="-1.47487">
        <ele>5.28</ele>
        <time>2016-12-17T12:42:43Z</time>
      </trkpt>
      <trkpt lat="47.23341" lon="-1.47471">
        <ele>2.23</ele>
        <time>2016-12-17T12:42:47Z</time>
      </trkpt>
      <trkpt lat="47.23361" lon="-1.47462">
        <ele>1.6</ele>
        <time>2016-12-17T12:42:50Z</time>
      </trkpt>
      <trkpt lat="47.2338" lon="-1.47455">
        <ele>2.67</ele>
        <time>2016-12-17T12:42:53Z</time>
      </trkpt>
      <trkpt lat="47.23397" lon="-1.47444">
        <ele>3.83</ele>
        <time>2016-12-17T12:42:56Z</time>
      </trkpt>
      <trkpt lat="47.23417" lon="-1.47432">
        <ele>2.7</ele>
        <time>2016-12-17T12:42:59Z</time>
      </trkpt>
      <trkpt lat="47.23436" lon="-1.47421">
        <ele>2.85</ele>
        <time>2016-12-17T12:43:03Z</time>
      </trkpt>
      <trkpt lat="47.23459" lon="-1.47408">
        <ele>3.23</ele>
        <time>2016-12-17T12:43:07Z</time>
      </trkpt>
      <trkpt lat="47.23481" lon="-1.47398">
        <ele>2.95</ele>
        <time>2016-12-17T12:43:11Z</time>
      </trkpt>
      <trkpt lat="47.235" lon="-1.47386">
        <ele>3.06</ele>
        <time>2016-12-17T12:43:14Z</time>
      </trkpt>
      <trkpt lat="47.23518" lon="-1.47372">
        <ele>2.96</ele>
        <time>2016-12-17T12:43:17Z</time>
      </trkpt>
      <trkpt lat="47.23536" lon="-1.47359">
        <ele>2.6</ele>
        <time>2016-12-17T12:43:20Z</time>
      </trkpt>
      <trkpt lat="47.23553" lon="-1.47344">
        <ele>2.56</ele>
        <time>2016-12-17T12:43:23Z</time>
      </trkpt>
      <trkpt lat="47.2357" lon="-1.4733">
        <ele>2.53</ele>
        <time>2016-12-17T12:43:26Z</time>
      </trkpt>
      <trkpt lat="47.23589" lon="-1.47313">
        <ele>2.05</ele>
        <time>2016-12-17T12:43:30Z</time>
      </trkpt>
      <trkpt lat="47.23611" lon="-1.47293">
        <ele>2.58</ele>
        <time>2016-12-17T12:43:34Z</time>
      </trkpt>
      <trkpt lat="47.23627" lon="-1.47275">
        <ele>1.82</ele>
        <time>2016-12-17T12:43:37Z</time>
      </trkpt>
      <trkpt lat="47.23645" lon="-1.47255">
        <ele>1.33</ele>
        <time>2016-12-17T12:43:41Z</time>
      </trkpt>
      <trkpt lat="47.2366" lon="-1.47237">
        <ele>3.07</ele>
        <time>2016-12-17T12:43:44Z</time>
      </trkpt>
      <trkpt lat="47.23675" lon="-1.4722">
        <ele>3.98</ele>
        <time>2016-12-17T12:43:47Z</time>
      </trkpt>
      <trkpt lat="47.2369" lon="-1.47201">
        <ele>4.85</ele>
        <time>2016-12-17T12:43:50Z</time>
      </trkpt>
      <trkpt lat="47.23702" lon="-1.47179">
        <ele>5.4</ele>
        <time>2016-12-17T12:43:53Z</time>
      </trkpt>
      <trkpt lat="47.23719" lon="-1.47156">
        <ele>5.59</ele>
        <time>2016-12-17T12:43:57Z</time>
      </trkpt>
      <trkpt lat="47.23732" lon="-1.47136">
        <ele>6.41</ele>
        <time>2016-12-17T12:44:00Z</time>
      </trkpt>
      <trkpt lat="47.23748" lon="-1.47117">
        <ele>7.92</ele>
        <time>2016-12-17T12:44:03Z</time>
      </trkpt>
      <trkpt lat="47.23763" lon="-1.47098">
        <ele>8.2</ele>
        <time>2016-12-17T12:44:06Z</time>
      </trkpt>
      <trkpt lat="47.2378" lon="-1.47075">
        <ele>6.47</ele>
        <time>2016-12-17T12:44:10Z</time>
      </trkpt>
      <trkpt lat="47.23794" lon="-1.47058">
        <ele>5.22</ele>
        <time>2016-12-17T12:44:13Z</time>
      </trkpt>
      <trkpt lat="47.23809" lon="-1.47036">
        <ele>4.28</ele>
        <time>2016-12-17T12:44:16Z</time>
      </trkpt>
      <trkpt lat="47.23824" lon="-1.47012">
        <ele>3.72</ele>
        <time>2016-12-17T12:44:20Z</time>
      </trkpt>
      <trkpt lat="47.23837" lon="-1.46991">
        <ele>3.36</ele>
        <time>2016-12-17T12:44:23Z</time>
      </trkpt>
      <trkpt lat="47.2385" lon="-1.46971">
        <ele>2.81</ele>
        <time>2016-12-17T12:44:26Z</time>
      </trkpt>
      <trkpt lat="47.23863" lon="-1.46951">
        <ele>4.22</ele>
        <time>2016-12-17T12:44:29Z</time>
      </trkpt>
      <trkpt lat="47.23881" lon="-1.4693">
        <ele>6.04</ele>
        <time>2016-12-17T12:44:33Z</time>
      </trkpt>
      <trkpt lat="47.23896" lon="-1.4691">
        <ele>6.12</ele>
        <time>2016-12-17T12:44:36Z</time>
      </trkpt>
      <trkpt lat="47.23911" lon="-1.46889">
        <ele>6.95</ele>
        <time>2016-12-17T12:44:39Z</time>
      </trkpt>
      <trkpt lat="47.23925" lon="-1.46872">
        <ele>6.67</ele>
        <time>2016-12-17T12:44:42Z</time>
      </trkpt>
      <trkpt lat="47.23945" lon="-1.46853">
        <ele>5.89</ele>
        <time>2016-12-17T12:44:46Z</time>
      </trkpt>
      <trkpt lat="47.23965" lon="-1.46837">
        <ele>6.04</ele>
        <time>2016-12-17T12:44:50Z</time>
      </trkpt>
      <trkpt lat="47.23986" lon="-1.46817">
        <ele>6.36</ele>
        <time>2016-12-17T12:44:54Z</time>
      </trkpt>
      <trkpt lat="47.24" lon="-1.46801">
        <ele>5.56</ele>
        <time>2016-12-17T12:44:57Z</time>
      </trkpt>
      <trkpt lat="47.24016" lon="-1.46785">
        <ele>6.65</ele>
        <time>2016-12-17T12:45:00Z</time>
      </trkpt>
      <trkpt lat="47.24031" lon="-1.46767">
        <ele>7.45</ele>
        <time>2016-12-17T12:45:03Z</time>
      </trkpt>
      <trkpt lat="47.24048" lon="-1.46751">
        <ele>8.56</ele>
        <time>2016-12-17T12:45:06Z</time>
      </trkpt>
      <trkpt lat="47.24063" lon="-1.46733">
        <ele>8.43</ele>
        <time>2016-12-17T12:45:09Z</time>
      </trkpt>
      <trkpt lat="47.24077" lon="-1.46715">
        <ele>6.79</ele>
        <time>2016-12-17T12:45:12Z</time>
      </trkpt>
      <trkpt lat="47.2409" lon="-1.46694">
        <ele>6.07</ele>
        <time>2016-12-17T12:45:15Z</time>
      </trkpt>
      <trkpt lat="47.24105" lon="-1.46672">
        <ele>6.18</ele>
        <time>2016-12-17T12:45:18Z</time>
      </trkpt>
      <trkpt lat="47.2412" lon="-1.46651">
        <ele>5.79</ele>
        <time>2016-12-17T12:45:22Z</time>
      </trkpt>
      <trkpt lat="47.24138" lon="-1.46628">
        <ele>5.4</ele>
        <time>2016-12-17T12:45:26Z</time>
      </trkpt>
      <trkpt lat="47.24152" lon="-1.46609">
        <ele>6.4</ele>
        <time>2016-12-17T12:45:29Z</time>
      </trkpt>
      <trkpt lat="47.24167" lon="-1.46589">
        <ele>5.13</ele>
        <time>2016-12-17T12:45:32Z</time>
      </trkpt>
      <trkpt lat="47.24183" lon="-1.46568">
        <ele>4.97</ele>
        <time>2016-12-17T12:45:35Z</time>
      </trkpt>
      <trkpt lat="47.24201" lon="-1.46546">
        <ele>5.12</ele>
        <time>2016-12-17T12:45:39Z</time>
      </trkpt>
      <trkpt lat="47.24216" lon="-1.46528">
        <ele>2.73</ele>
        <time>2016-12-17T12:45:42Z</time>
      </trkpt>
      <trkpt lat="47.24233" lon="-1.46506">
        <ele>4.25</ele>
        <time>2016-12-17T12:45:46Z</time>
      </trkpt>
      <trkpt lat="47.2425" lon="-1.46483">
        <ele>5.04</ele>
        <time>2016-12-17T12:45:50Z</time>
      </trkpt>
      <trkpt lat="47.24265" lon="-1.46465">
        <ele>4.54</ele>
        <time>2016-12-17T12:45:53Z</time>
      </trkpt>
      <trkpt lat="47.24282" lon="-1.46442">
        <ele>5.87</ele>
        <time>2016-12-17T12:45:57Z</time>
      </trkpt>
      <trkpt lat="47.24294" lon="-1.46422">
        <ele>6.63</ele>
        <time>2016-12-17T12:46:00Z</time>
      </trkpt>
      <trkpt lat="47.24308" lon="-1.46402">
        <ele>7.04</ele>
        <time>2016-12-17T12:46:03Z</time>
      </trkpt>
      <trkpt lat="47.2432" lon="-1.46381">
        <ele>7.23</ele>
        <time>2016-12-17T12:46:06Z</time>
      </trkpt>
      <trkpt lat="47.24333" lon="-1.4636">
        <ele>6.38</ele>
        <time>2016-12-17T12:46:09Z</time>
      </trkpt>
      <trkpt lat="47.24347" lon="-1.46338">
        <ele>6.4</ele>
        <time>2016-12-17T12:46:12Z</time>
      </trkpt>
      <trkpt lat="47.2436" lon="-1.46314">
        <ele>7.71</ele>
        <time>2016-12-17T12:46:15Z</time>
      </trkpt>
      <trkpt lat="47.24375" lon="-1.46291">
        <ele>6.2</ele>
        <time>2016-12-17T12:46:19Z</time>
      </trkpt>
      <trkpt lat="47.24392" lon="-1.46267">
        <ele>6.6</ele>
        <time>2016-12-17T12:46:23Z</time>
      </trkpt>
      <trkpt lat="47.24405" lon="-1.46248">
        <ele>7.05</ele>
        <time>2016-12-17T12:46:26Z</time>
      </trkpt>
      <trkpt lat="47.2442" lon="-1.46228">
        <ele>6.93</ele>
        <time>2016-12-17T12:46:29Z</time>
      </trkpt>
      <trkpt lat="47.24436" lon="-1.46207">
        <ele>6.11</ele>
        <time>2016-12-17T12:46:32Z</time>
      </trkpt>
      <trkpt lat="47.2445" lon="-1.46189">
        <ele>5.74</ele>
        <time>2016-12-17T12:46:35Z</time>
      </trkpt>
      <trkpt lat="47.24464" lon="-1.46171">
        <ele>4.83</ele>
        <time>2016-12-17T12:46:38Z</time>
      </trkpt>
      <trkpt lat="47.24479" lon="-1.46153">
        <ele>3.88</ele>
        <time>2016-12-17T12:46:41Z</time>
      </trkpt>
      <trkpt lat="47.24495" lon="-1.46134">
        <ele>4.83</ele>
        <time>2016-12-17T12:46:44Z</time>
      </trkpt>
      <trkpt lat="47.24512" lon="-1.46111">
        <ele>5.2</ele>
        <time>2016-12-17T12:46:48Z</time>
      </trkpt>
      <trkpt lat="47.24528" lon="-1.46092">
        <ele>4.46</ele>
        <time>2016-12-17T12:46:51Z</time>
      </trkpt>
      <trkpt lat="47.2454" lon="-1.46068">
        <ele>2.51</ele>
        <time>2016-12-17T12:46:54Z</time>
      </trkpt>
      <trkpt lat="47.24551" lon="-1.46046">
        <ele>3.52</ele>
        <time>2016-12-17T12:46:57Z</time>
      </trkpt>
      <trkpt lat="47.24565" lon="-1.46018">
        <ele>4.59</ele>
        <time>2016-12-17T12:47:01Z</time>
      </trkpt>
      <trkpt lat="47.24578" lon="-1.45992">
        <ele>5.88</ele>
        <time>2016-12-17T12:47:05Z</time>
      </trkpt>
      <trkpt lat="47.24589" lon="-1.45968">
        <ele>6.02</ele>
        <time>2016-12-17T12:47:08Z</time>
      </trkpt>
      <trkpt lat="47.246" lon="-1.45945">
        <ele>6.02</ele>
        <time>2016-12-17T12:47:11Z</time>
      </trkpt>
      <trkpt lat="47.24613" lon="-1.45916">
        <ele>8.48</ele>
        <time>2016-12-17T12:47:15Z</time>
      </trkpt>
      <trkpt lat="47.24623" lon="-1.45891">
        <ele>10.35</ele>
        <time>2016-12-17T12:47:18Z</time>
      </trkpt>
      <trkpt lat="47.24632" lon="-1.4586">
        <ele>9.13</ele>
        <time>2016-12-17T12:47:22Z</time>
      </trkpt>
      <trkpt lat="47.24639" lon="-1.45827">
        <ele>8.04</ele>
        <time>2016-12-17T12:47:26Z</time>
      </trkpt>
      <trkpt lat="47.24647" lon="-1.45795">
        <ele>6.93</ele>
        <time>2016-12-17T12:47:30Z</time>
      </trkpt>
      <trkpt lat="47.24655" lon="-1.45765">
        <ele>6.87</ele>
        <time>2016-12-17T12:47:33Z</time>
      </trkpt>
      <trkpt lat="47.24663" lon="-1.45733">
        <ele>6.49</ele>
        <time>2016-12-17T12:47:36Z</time>
      </trkpt>
      <trkpt lat="47.2467" lon="-1.45703">
        <ele>6.28</ele>
        <time>2016-12-17T12:47:39Z</time>
      </trkpt>
      <trkpt lat="47.24679" lon="-1.45671">
        <ele>5.92</ele>
        <time>2016-12-17T12:47:43Z</time>
      </trkpt>
      <trkpt lat="47.24688" lon="-1.4564">
        <ele>4.76</ele>
        <time>2016-12-17T12:47:47Z</time>
      </trkpt>
      <trkpt lat="47.24698" lon="-1.45612">
        <ele>4.45</ele>
        <time>2016-12-17T12:47:50Z</time>
      </trkpt>
      <trkpt lat="47.24706" lon="-1.45585">
        <ele>3.66</ele>
        <time>2016-12-17T12:47:53Z</time>
      </trkpt>
      <trkpt lat="47.24714" lon="-1.45558">
        <ele>4.06</ele>
        <time>2016-12-17T12:47:56Z</time>
      </trkpt>
      <trkpt lat="47.24721" lon="-1.45533">
        <ele>4.23</ele>
        <time>2016-12-17T12:47:59Z</time>
      </trkpt>
      <trkpt lat="47.24729" lon="-1.45508">
        <ele>5.07</ele>
        <time>2016-12-17T12:48:02Z</time>
      </trkpt>
      <trkpt lat="47.24739" lon="-1.45484">
        <ele>5.65</ele>
        <time>2016-12-17T12:48:05Z</time>
      </trkpt>
      <trkpt lat="47.2475" lon="-1.45462">
        <ele>5.15</ele>
        <time>2016-12-17T12:48:08Z</time>
      </trkpt>
      <trkpt lat="47.2476" lon="-1.45438">
        <ele>4.38</ele>
        <time>2016-12-17T12:48:11Z</time>
      </trkpt>
      <trkpt lat="47.24769" lon="-1.45414">
        <ele>3.58</ele>
        <time>2016-12-17T12:48:14Z</time>
      </trkpt>
      <trkpt lat="47.24781" lon="-1.45391">
        <ele>5.47</ele>
        <time>2016-12-17T12:48:17Z</time>
      </trkpt>
      <trkpt lat="47.24803" lon="-1.45401">
        <ele>7.91</ele>
        <time>2016-12-17T12:48:21Z</time>
      </trkpt>
      <trkpt lat="47.24822" lon="-1.45417">
        <ele>10</ele>
        <time>2016-12-17T12:48:24Z</time>
      </trkpt>
      <trkpt lat="47.24839" lon="-1.45435">
        <ele>9.71</ele>
        <time>2016-12-17T12:48:27Z</time>
      </trkpt>
      <trkpt lat="47.24854" lon="-1.45451">
        <ele>8.94</ele>
        <time>2016-12-17T12:48:30Z</time>
      </trkpt>
      <trkpt lat="47.24872" lon="-1.45469">
        <ele>7.89</ele>
        <time>2016-12-17T12:48:33Z</time>
      </trkpt>
      <trkpt lat="47.24887" lon="-1.45485">
        <ele>8.34</ele>
        <time>2016-12-17T12:48:36Z</time>
      </trkpt>
      <trkpt lat="47.24903" lon="-1.45502">
        <ele>9.16</ele>
        <time>2016-12-17T12:48:39Z</time>
      </trkpt>
      <trkpt lat="47.24922" lon="-1.45522">
        <ele>8.14</ele>
        <time>2016-12-17T12:48:43Z</time>
      </trkpt>
      <trkpt lat="47.24939" lon="-1.4554">
        <ele>9.06</ele>
        <time>2016-12-17T12:48:46Z</time>
      </trkpt>
      <trkpt lat="47.24954" lon="-1.45555">
        <ele>9.45</ele>
        <time>2016-12-17T12:48:49Z</time>
      </trkpt>
      <trkpt lat="47.24969" lon="-1.45569">
        <ele>9.89</ele>
        <time>2016-12-17T12:48:52Z</time>
      </trkpt>
      <trkpt lat="47.24988" lon="-1.45576">
        <ele>7.91</ele>
        <time>2016-12-17T12:48:55Z</time>
      </trkpt>
      <trkpt lat="47.25007" lon="-1.45571">
        <ele>6.36</ele>
        <time>2016-12-17T12:48:58Z</time>
      </trkpt>
      <trkpt lat="47.25025" lon="-1.45554">
        <ele>4.53</ele>
        <time>2016-12-17T12:49:01Z</time>
      </trkpt>
      <trkpt lat="47.25039" lon="-1.45533">
        <ele>3.68</ele>
        <time>2016-12-17T12:49:04Z</time>
      </trkpt>
      <trkpt lat="47.2505" lon="-1.4551">
        <ele>3.22</ele>
        <time>2016-12-17T12:49:07Z</time>
      </trkpt>
      <trkpt lat="47.25062" lon="-1.45486">
        <ele>3.62</ele>
        <time>2016-12-17T12:49:10Z</time>
      </trkpt>
      <trkpt lat="47.25075" lon="-1.45456">
        <ele>4.98</ele>
        <time>2016-12-17T12:49:14Z</time>
      </trkpt>
      <trkpt lat="47.25085" lon="-1.45433">
        <ele>4.74</ele>
        <time>2016-12-17T12:49:17Z</time>
      </trkpt>
      <trkpt lat="47.25102" lon="-1.4541">
        <ele>3.84</ele>
        <time>2016-12-17T12:49:21Z</time>
      </trkpt>
      <trkpt lat="47.25121" lon="-1.45396">
        <ele>5.35</ele>
        <time>2016-12-17T12:49:24Z</time>
      </trkpt>
      <trkpt lat="47.25139" lon="-1.45388">
        <ele>4.62</ele>
        <time>2016-12-17T12:49:27Z</time>
      </trkpt>
      <trkpt lat="47.25161" lon="-1.4538">
        <ele>3.81</ele>
        <time>2016-12-17T12:49:31Z</time>
      </trkpt>
      <trkpt lat="47.25179" lon="-1.45375">
        <ele>4.02</ele>
        <time>2016-12-17T12:49:34Z</time>
      </trkpt>
      <trkpt lat="47.252" lon="-1.45367">
        <ele>4.67</ele>
        <time>2016-12-17T12:49:38Z</time>
      </trkpt>
      <trkpt lat="47.25219" lon="-1.45363">
        <ele>3.99</ele>
        <time>2016-12-17T12:49:41Z</time>
      </trkpt>
      <trkpt lat="47.25241" lon="-1.45361">
        <ele>2.92</ele>
        <time>2016-12-17T12:49:45Z</time>
      </trkpt>
      <trkpt lat="47.2526" lon="-1.45362">
        <ele>2.06</ele>
        <time>2016-12-17T12:49:48Z</time>
      </trkpt>
      <trkpt lat="47.25284" lon="-1.45371">
        <ele>1.68</ele>
        <time>2016-12-17T12:49:52Z</time>
      </trkpt>
      <trkpt lat="47.25302" lon="-1.45385">
        <ele>2.64</ele>
        <time>2016-12-17T12:49:55Z</time>
      </trkpt>
      <trkpt lat="47.25319" lon="-1.454">
        <ele>2.71</ele>
        <time>2016-12-17T12:49:58Z</time>
      </trkpt>
      <trkpt lat="47.25334" lon="-1.45416">
        <ele>4.86</ele>
        <time>2016-12-17T12:50:01Z</time>
      </trkpt>
      <trkpt lat="47.2535" lon="-1.45433">
        <ele>6.11</ele>
        <time>2016-12-17T12:50:04Z</time>
      </trkpt>
      <trkpt lat="47.25367" lon="-1.45451">
        <ele>6.12</ele>
        <time>2016-12-17T12:50:08Z</time>
      </trkpt>
      <trkpt lat="47.25382" lon="-1.45468">
        <ele>5.29</ele>
        <time>2016-12-17T12:50:11Z</time>
      </trkpt>
      <trkpt lat="47.25399" lon="-1.45489">
        <ele>4.61</ele>
        <time>2016-12-17T12:50:15Z</time>
      </trkpt>
      <trkpt lat="47.25412" lon="-1.45507">
        <ele>5.06</ele>
        <time>2016-12-17T12:50:18Z</time>
      </trkpt>
      <trkpt lat="47.25427" lon="-1.45532">
        <ele>6.18</ele>
        <time>2016-12-17T12:50:22Z</time>
      </trkpt>
      <trkpt lat="47.25439" lon="-1.45552">
        <ele>4.94</ele>
        <time>2016-12-17T12:50:25Z</time>
      </trkpt>
      <trkpt lat="47.25454" lon="-1.45576">
        <ele>3.6</ele>
        <time>2016-12-17T12:50:29Z</time>
      </trkpt>
      <trkpt lat="47.25469" lon="-1.45598">
        <ele>4.05</ele>
        <time>2016-12-17T12:50:33Z</time>
      </trkpt>
      <trkpt lat="47.25487" lon="-1.4562">
        <ele>6.75</ele>
        <time>2016-12-17T12:50:38Z</time>
      </trkpt>
      <trkpt lat="47.25501" lon="-1.45638">
        <ele>6.14</ele>
        <time>2016-12-17T12:50:42Z</time>
      </trkpt>
      <trkpt lat="47.25519" lon="-1.4566">
        <ele>9.23</ele>
        <time>2016-12-17T12:50:47Z</time>
      </trkpt>
      <trkpt lat="47.25537" lon="-1.45679">
        <ele>10.96</ele>
        <time>2016-12-17T12:50:52Z</time>
      </trkpt>
      <trkpt lat="47.25552" lon="-1.45694">
        <ele>11.92</ele>
        <time>2016-12-17T12:50:56Z</time>
      </trkpt>
      <trkpt lat="47.25567" lon="-1.4571">
        <ele>11.63</ele>
        <time>2016-12-17T12:51:00Z</time>
      </trkpt>
      <trkpt lat="47.25586" lon="-1.45729">
        <ele>12.1</ele>
        <time>2016-12-17T12:51:04Z</time>
      </trkpt>
      <trkpt lat="47.25603" lon="-1.45745">
        <ele>15.37</ele>
        <time>2016-12-17T12:51:08Z</time>
      </trkpt>
      <trkpt lat="47.25621" lon="-1.45765">
        <ele>17.01</ele>
        <time>2016-12-17T12:51:12Z</time>
      </trkpt>
      <trkpt lat="47.25638" lon="-1.45782">
        <ele>16.09</ele>
        <time>2016-12-17T12:51:15Z</time>
      </trkpt>
      <trkpt lat="47.25653" lon="-1.458">
        <ele>14.13</ele>
        <time>2016-12-17T12:51:18Z</time>
      </trkpt>
      <trkpt lat="47.2567" lon="-1.45818">
        <ele>11.56</ele>
        <time>2016-12-17T12:51:21Z</time>
      </trkpt>
      <trkpt lat="47.25687" lon="-1.45836">
        <ele>10.51</ele>
        <time>2016-12-17T12:51:24Z</time>
      </trkpt>
      <trkpt lat="47.25705" lon="-1.45855">
        <ele>9.63</ele>
        <time>2016-12-17T12:51:28Z</time>
      </trkpt>
      <trkpt lat="47.2572" lon="-1.45871">
        <ele>9.21</ele>
        <time>2016-12-17T12:51:31Z</time>
      </trkpt>
      <trkpt lat="47.25735" lon="-1.45894">
        <ele>7.46</ele>
        <time>2016-12-17T12:51:35Z</time>
      </trkpt>
      <trkpt lat="47.25747" lon="-1.45916">
        <ele>6.27</ele>
        <time>2016-12-17T12:51:38Z</time>
      </trkpt>
      <trkpt lat="47.25755" lon="-1.45943">
        <ele>6.61</ele>
        <time>2016-12-17T12:51:42Z</time>
      </trkpt>
      <trkpt lat="47.25759" lon="-1.45978">
        <ele>8.3</ele>
        <time>2016-12-17T12:51:46Z</time>
      </trkpt>
      <trkpt lat="47.25759" lon="-1.46005">
        <ele>8.15</ele>
        <time>2016-12-17T12:51:49Z</time>
      </trkpt>
      <trkpt lat="47.25755" lon="-1.46041">
        <ele>6.79</ele>
        <time>2016-12-17T12:51:53Z</time>
      </trkpt>
      <trkpt lat="47.25748" lon="-1.46072">
        <ele>7.23</ele>
        <time>2016-12-17T12:51:57Z</time>
      </trkpt>
      <trkpt lat="47.25742" lon="-1.46097">
        <ele>9.05</ele>
        <time>2016-12-17T12:52:00Z</time>
      </trkpt>
      <trkpt lat="47.25739" lon="-1.46129">
        <ele>8.82</ele>
        <time>2016-12-17T12:52:04Z</time>
      </trkpt>
      <trkpt lat="47.25752" lon="-1.46154">
        <ele>9.55</ele>
        <time>2016-12-17T12:52:08Z</time>
      </trkpt>
      <trkpt lat="47.25769" lon="-1.46178">
        <ele>11.33</ele>
        <time>2016-12-17T12:52:12Z</time>
      </trkpt>
      <trkpt lat="47.25789" lon="-1.46189">
        <ele>10.5</ele>
        <time>2016-12-17T12:52:17Z</time>
      </trkpt>
      <trkpt lat="47.25803" lon="-1.46211">
        <ele>10.65</ele>
        <time>2016-12-17T12:52:21Z</time>
      </trkpt>
      <trkpt lat="47.25819" lon="-1.46224">
        <ele>10.24</ele>
        <time>2016-12-17T12:52:24Z</time>
      </trkpt>
      <trkpt lat="47.25837" lon="-1.46226">
        <ele>10.61</ele>
        <time>2016-12-17T12:52:27Z</time>
      </trkpt>
      <trkpt lat="47.25858" lon="-1.46222">
        <ele>13.75</ele>
        <time>2016-12-17T12:52:31Z</time>
      </trkpt>
      <trkpt lat="47.25879" lon="-1.46211">
        <ele>15.26</ele>
        <time>2016-12-17T12:52:35Z</time>
      </trkpt>
      <trkpt lat="47.25894" lon="-1.46196">
        <ele>16.22</ele>
        <time>2016-12-17T12:52:38Z</time>
      </trkpt>
      <trkpt lat="47.2591" lon="-1.46173">
        <ele>16.54</ele>
        <time>2016-12-17T12:52:42Z</time>
      </trkpt>
      <trkpt lat="47.25927" lon="-1.4615">
        <ele>17.32</ele>
        <time>2016-12-17T12:52:46Z</time>
      </trkpt>
      <trkpt lat="47.25939" lon="-1.46129">
        <ele>17.53</ele>
        <time>2016-12-17T12:52:50Z</time>
      </trkpt>
      <trkpt lat="47.25956" lon="-1.46105">
        <ele>18.62</ele>
        <time>2016-12-17T12:52:54Z</time>
      </trkpt>
      <trkpt lat="47.25972" lon="-1.46083">
        <ele>19.05</ele>
        <time>2016-12-17T12:52:58Z</time>
      </trkpt>
      <trkpt lat="47.25993" lon="-1.46074">
        <ele>19.79</ele>
        <time>2016-12-17T12:53:02Z</time>
      </trkpt>
      <trkpt lat="47.26014" lon="-1.46069">
        <ele>20.74</ele>
        <time>2016-12-17T12:53:06Z</time>
      </trkpt>
      <trkpt lat="47.26036" lon="-1.46068">
        <ele>21.12</ele>
        <time>2016-12-17T12:53:10Z</time>
      </trkpt>
      <trkpt lat="47.26056" lon="-1.46066">
        <ele>21.09</ele>
        <time>2016-12-17T12:53:14Z</time>
      </trkpt>
      <trkpt lat="47.26079" lon="-1.46065">
        <ele>21</ele>
        <time>2016-12-17T12:53:18Z</time>
      </trkpt>
      <trkpt lat="47.26098" lon="-1.4606">
        <ele>21.49</ele>
        <time>2016-12-17T12:53:22Z</time>
      </trkpt>
      <trkpt lat="47.26119" lon="-1.46054">
        <ele>21.31</ele>
        <time>2016-12-17T12:53:26Z</time>
      </trkpt>
      <trkpt lat="47.26138" lon="-1.46044">
        <ele>21.28</ele>
        <time>2016-12-17T12:53:30Z</time>
      </trkpt>
      <trkpt lat="47.26158" lon="-1.4603">
        <ele>20.05</ele>
        <time>2016-12-17T12:53:34Z</time>
      </trkpt>
      <trkpt lat="47.26175" lon="-1.46017">
        <ele>20.02</ele>
        <time>2016-12-17T12:53:38Z</time>
      </trkpt>
      <trkpt lat="47.26191" lon="-1.46004">
        <ele>21.16</ele>
        <time>2016-12-17T12:53:41Z</time>
      </trkpt>
      <trkpt lat="47.26208" lon="-1.4599">
        <ele>20.83</ele>
        <time>2016-12-17T12:53:44Z</time>
      </trkpt>
      <trkpt lat="47.26227" lon="-1.45974">
        <ele>20.41</ele>
        <time>2016-12-17T12:53:48Z</time>
      </trkpt>
      <trkpt lat="47.26245" lon="-1.45956">
        <ele>19.42</ele>
        <time>2016-12-17T12:53:52Z</time>
      </trkpt>
      <trkpt lat="47.26263" lon="-1.45946">
        <ele>19.24</ele>
        <time>2016-12-17T12:53:55Z</time>
      </trkpt>
      <trkpt lat="47.26283" lon="-1.45956">
        <ele>18.3</ele>
        <time>2016-12-17T12:53:59Z</time>
      </trkpt>
      <trkpt lat="47.26302" lon="-1.45973">
        <ele>19.57</ele>
        <time>2016-12-17T12:54:03Z</time>
      </trkpt>
      <trkpt lat="47.2632" lon="-1.4599">
        <ele>22.48</ele>
        <time>2016-12-17T12:54:07Z</time>
      </trkpt>
      <trkpt lat="47.26339" lon="-1.46006">
        <ele>23.59</ele>
        <time>2016-12-17T12:54:11Z</time>
      </trkpt>
      <trkpt lat="47.26357" lon="-1.46022">
        <ele>21.65</ele>
        <time>2016-12-17T12:54:15Z</time>
      </trkpt>
      <trkpt lat="47.26376" lon="-1.46037">
        <ele>20.99</ele>
        <time>2016-12-17T12:54:19Z</time>
      </trkpt>
      <trkpt lat="47.26394" lon="-1.46054">
        <ele>23.54</ele>
        <time>2016-12-17T12:54:23Z</time>
      </trkpt>
      <trkpt lat="47.26412" lon="-1.4607">
        <ele>24.89</ele>
        <time>2016-12-17T12:54:27Z</time>
      </trkpt>
      <trkpt lat="47.2643" lon="-1.46087">
        <ele>24.94</ele>
        <time>2016-12-17T12:54:31Z</time>
      </trkpt>
      <trkpt lat="47.26447" lon="-1.461">
        <ele>23.26</ele>
        <time>2016-12-17T12:54:35Z</time>
      </trkpt>
      <trkpt lat="47.26467" lon="-1.46118">
        <ele>23.35</ele>
        <time>2016-12-17T12:54:39Z</time>
      </trkpt>
      <trkpt lat="47.26487" lon="-1.46135">
        <ele>24.2</ele>
        <time>2016-12-17T12:54:43Z</time>
      </trkpt>
      <trkpt lat="47.26503" lon="-1.46148">
        <ele>24.12</ele>
        <time>2016-12-17T12:54:47Z</time>
      </trkpt>
      <trkpt lat="47.26521" lon="-1.46161">
        <ele>23.19</ele>
        <time>2016-12-17T12:54:51Z</time>
      </trkpt>
      <trkpt lat="47.26538" lon="-1.46171">
        <ele>23.2</ele>
        <time>2016-12-17T12:54:55Z</time>
      </trkpt>
      <trkpt lat="47.26555" lon="-1.46182">
        <ele>24.13</ele>
        <time>2016-12-17T12:54:58Z</time>
      </trkpt>
      <trkpt lat="47.26573" lon="-1.46194">
        <ele>25.32</ele>
        <time>2016-12-17T12:55:02Z</time>
      </trkpt>
      <trkpt lat="47.26594" lon="-1.46208">
        <ele>26.38</ele>
        <time>2016-12-17T12:55:06Z</time>
      </trkpt>
      <trkpt lat="47.26614" lon="-1.46222">
        <ele>26.65</ele>
        <time>2016-12-17T12:55:10Z</time>
      </trkpt>
      <trkpt lat="47.26632" lon="-1.46234">
        <ele>28.09</ele>
        <time>2016-12-17T12:55:13Z</time>
      </trkpt>
      <trkpt lat="47.26651" lon="-1.46243">
        <ele>28.05</ele>
        <time>2016-12-17T12:55:17Z</time>
      </trkpt>
      <trkpt lat="47.26675" lon="-1.46239">
        <ele>26.02</ele>
        <time>2016-12-17T12:55:21Z</time>
      </trkpt>
      <trkpt lat="47.26695" lon="-1.46225">
        <ele>26.02</ele>
        <time>2016-12-17T12:55:25Z</time>
      </trkpt>
      <trkpt lat="47.26712" lon="-1.46214">
        <ele>26.39</ele>
        <time>2016-12-17T12:55:28Z</time>
      </trkpt>
      <trkpt lat="47.2673" lon="-1.46214">
        <ele>27.36</ele>
        <time>2016-12-17T12:55:31Z</time>
      </trkpt>
      <trkpt lat="47.2675" lon="-1.46222">
        <ele>28.73</ele>
        <time>2016-12-17T12:55:35Z</time>
      </trkpt>
      <trkpt lat="47.26771" lon="-1.4623">
        <ele>29.49</ele>
        <time>2016-12-17T12:55:39Z</time>
      </trkpt>
      <trkpt lat="47.26789" lon="-1.46236">
        <ele>28.83</ele>
        <time>2016-12-17T12:55:42Z</time>
      </trkpt>
      <trkpt lat="47.26809" lon="-1.46244">
        <ele>26.31</ele>
        <time>2016-12-17T12:55:46Z</time>
      </trkpt>
      <trkpt lat="47.26828" lon="-1.46254">
        <ele>26.51</ele>
        <time>2016-12-17T12:55:50Z</time>
      </trkpt>
      <trkpt lat="47.26848" lon="-1.4627">
        <ele>26.05</ele>
        <time>2016-12-17T12:55:54Z</time>
      </trkpt>
      <trkpt lat="47.26864" lon="-1.46285">
        <ele>26.43</ele>
        <time>2016-12-17T12:55:57Z</time>
      </trkpt>
      <trkpt lat="47.2688" lon="-1.46305">
        <ele>25.88</ele>
        <time>2016-12-17T12:56:01Z</time>
      </trkpt>
      <trkpt lat="47.26894" lon="-1.46322">
        <ele>26.21</ele>
        <time>2016-12-17T12:56:05Z</time>
      </trkpt>
      <trkpt lat="47.26912" lon="-1.46342">
        <ele>26.6</ele>
        <time>2016-12-17T12:56:09Z</time>
      </trkpt>
      <trkpt lat="47.2693" lon="-1.4636">
        <ele>25.72</ele>
        <time>2016-12-17T12:56:13Z</time>
      </trkpt>
      <trkpt lat="47.26949" lon="-1.46378">
        <ele>26.04</ele>
        <time>2016-12-17T12:56:17Z</time>
      </trkpt>
      <trkpt lat="47.26966" lon="-1.46392">
        <ele>25.51</ele>
        <time>2016-12-17T12:56:21Z</time>
      </trkpt>
      <trkpt lat="47.26986" lon="-1.46403">
        <ele>26.78</ele>
        <time>2016-12-17T12:56:25Z</time>
      </trkpt>
      <trkpt lat="47.27009" lon="-1.46415">
        <ele>27.74</ele>
        <time>2016-12-17T12:56:29Z</time>
      </trkpt>
      <trkpt lat="47.27029" lon="-1.46428">
        <ele>29.12</ele>
        <time>2016-12-17T12:56:33Z</time>
      </trkpt>
      <trkpt lat="47.27049" lon="-1.46438">
        <ele>30.69</ele>
        <time>2016-12-17T12:56:37Z</time>
      </trkpt>
      <trkpt lat="47.2707" lon="-1.46451">
        <ele>29.82</ele>
        <time>2016-12-17T12:56:41Z</time>
      </trkpt>
      <trkpt lat="47.27091" lon="-1.46464">
        <ele>28.96</ele>
        <time>2016-12-17T12:56:45Z</time>
      </trkpt>
      <trkpt lat="47.27113" lon="-1.46477">
        <ele>28.11</ele>
        <time>2016-12-17T12:56:49Z</time>
      </trkpt>
      <trkpt lat="47.27134" lon="-1.46488">
        <ele>30.35</ele>
        <time>2016-12-17T12:56:53Z</time>
      </trkpt>
      <trkpt lat="47.27155" lon="-1.465">
        <ele>31.04</ele>
        <time>2016-12-17T12:56:57Z</time>
      </trkpt>
      <trkpt lat="47.27176" lon="-1.46515">
        <ele>31.52</ele>
        <time>2016-12-17T12:57:01Z</time>
      </trkpt>
      <trkpt lat="47.27196" lon="-1.46528">
        <ele>30.07</ele>
        <time>2016-12-17T12:57:05Z</time>
      </trkpt>
      <trkpt lat="47.27216" lon="-1.46537">
        <ele>27.84</ele>
        <time>2016-12-17T12:57:09Z</time>
      </trkpt>
      <trkpt lat="47.27233" lon="-1.4655">
        <ele>27.41</ele>
        <time>2016-12-17T12:57:12Z</time>
      </trkpt>
      <trkpt lat="47.27255" lon="-1.46563">
        <ele>29.31</ele>
        <time>2016-12-17T12:57:16Z</time>
      </trkpt>
      <trkpt lat="47.27276" lon="-1.46576">
        <ele>28.48</ele>
        <time>2016-12-17T12:57:20Z</time>
      </trkpt>
      <trkpt lat="47.27298" lon="-1.46589">
        <ele>29.08</ele>
        <time>2016-12-17T12:57:25Z</time>
      </trkpt>
      <trkpt lat="47.27317" lon="-1.46601">
        <ele>32.23</ele>
        <time>2016-12-17T12:57:29Z</time>
      </trkpt>
      <trkpt lat="47.27336" lon="-1.46612">
        <ele>34.23</ele>
        <time>2016-12-17T12:57:33Z</time>
      </trkpt>
      <trkpt lat="47.27355" lon="-1.46624">
        <ele>33.19</ele>
        <time>2016-12-17T12:57:37Z</time>
      </trkpt>
      <trkpt lat="47.27377" lon="-1.46635">
        <ele>33.86</ele>
        <time>2016-12-17T12:57:41Z</time>
      </trkpt>
      <trkpt lat="47.27395" lon="-1.46645">
        <ele>34.63</ele>
        <time>2016-12-17T12:57:45Z</time>
      </trkpt>
      <trkpt lat="47.27414" lon="-1.4666">
        <ele>34.57</ele>
        <time>2016-12-17T12:57:50Z</time>
      </trkpt>
      <trkpt lat="47.27431" lon="-1.46671">
        <ele>36.11</ele>
        <time>2016-12-17T12:57:53Z</time>
      </trkpt>
      <trkpt lat="47.2745" lon="-1.46688">
        <ele>36.85</ele>
        <time>2016-12-17T12:57:57Z</time>
      </trkpt>
      <trkpt lat="47.27461" lon="-1.4671">
        <ele>34.82</ele>
        <time>2016-12-17T12:58:00Z</time>
      </trkpt>
      <trkpt lat="47.27473" lon="-1.46731">
        <ele>35.19</ele>
        <time>2016-12-17T12:58:03Z</time>
      </trkpt>
      <trkpt lat="47.27487" lon="-1.46753">
        <ele>35.12</ele>
        <time>2016-12-17T12:58:07Z</time>
      </trkpt>
      <trkpt lat="47.27502" lon="-1.46774">
        <ele>33.36</ele>
        <time>2016-12-17T12:58:11Z</time>
      </trkpt>
      <trkpt lat="47.27523" lon="-1.46778">
        <ele>33.7</ele>
        <time>2016-12-17T12:58:15Z</time>
      </trkpt>
      <trkpt lat="47.27546" lon="-1.46781">
        <ele>35.44</ele>
        <time>2016-12-17T12:58:19Z</time>
      </trkpt>
      <trkpt lat="47.27563" lon="-1.46802">
        <ele>36.62</ele>
        <time>2016-12-17T12:58:22Z</time>
      </trkpt>
      <trkpt lat="47.2757" lon="-1.46827">
        <ele>36.16</ele>
        <time>2016-12-17T12:58:25Z</time>
      </trkpt>
      <trkpt lat="47.27568" lon="-1.46857">
        <ele>35.04</ele>
        <time>2016-12-17T12:58:28Z</time>
      </trkpt>
      <trkpt lat="47.2757" lon="-1.46885">
        <ele>33.35</ele>
        <time>2016-12-17T12:58:31Z</time>
      </trkpt>
      <trkpt lat="47.2758" lon="-1.46911">
        <ele>33.31</ele>
        <time>2016-12-17T12:58:34Z</time>
      </trkpt>
      <trkpt lat="47.27591" lon="-1.46943">
        <ele>33.33</ele>
        <time>2016-12-17T12:58:38Z</time>
      </trkpt>
      <trkpt lat="47.27596" lon="-1.46976">
        <ele>34.03</ele>
        <time>2016-12-17T12:58:42Z</time>
      </trkpt>
      <trkpt lat="47.276" lon="-1.4701">
        <ele>31.33</ele>
        <time>2016-12-17T12:58:46Z</time>
      </trkpt>
      <trkpt lat="47.27607" lon="-1.47039">
        <ele>29.85</ele>
        <time>2016-12-17T12:58:50Z</time>
      </trkpt>
      <trkpt lat="47.27618" lon="-1.4706">
        <ele>30.79</ele>
        <time>2016-12-17T12:58:54Z</time>
      </trkpt>
      <trkpt lat="47.27634" lon="-1.4708">
        <ele>35.37</ele>
        <time>2016-12-17T12:58:58Z</time>
      </trkpt>
      <trkpt lat="47.27648" lon="-1.47098">
        <ele>38.47</ele>
        <time>2016-12-17T12:59:02Z</time>
      </trkpt>
      <trkpt lat="47.27668" lon="-1.47116">
        <ele>38.97</ele>
        <time>2016-12-17T12:59:06Z</time>
      </trkpt>
      <trkpt lat="47.27684" lon="-1.47141">
        <ele>38.11</ele>
        <time>2016-12-17T12:59:10Z</time>
      </trkpt>
      <trkpt lat="47.277" lon="-1.47159">
        <ele>36.42</ele>
        <time>2016-12-17T12:59:13Z</time>
      </trkpt>
      <trkpt lat="47.27717" lon="-1.47177">
        <ele>35.69</ele>
        <time>2016-12-17T12:59:17Z</time>
      </trkpt>
      <trkpt lat="47.27734" lon="-1.47198">
        <ele>36.46</ele>
        <time>2016-12-17T12:59:21Z</time>
      </trkpt>
      <trkpt lat="47.27752" lon="-1.47218">
        <ele>38.42</ele>
        <time>2016-12-17T12:59:25Z</time>
      </trkpt>
      <trkpt lat="47.27768" lon="-1.47238">
        <ele>38.76</ele>
        <time>2016-12-17T12:59:29Z</time>
      </trkpt>
      <trkpt lat="47.27785" lon="-1.47259">
        <ele>39.74</ele>
        <time>2016-12-17T12:59:33Z</time>
      </trkpt>
      <trkpt lat="47.27801" lon="-1.4728">
        <ele>37.61</ele>
        <time>2016-12-17T12:59:37Z</time>
      </trkpt>
      <trkpt lat="47.27817" lon="-1.47303">
        <ele>35.25</ele>
        <time>2016-12-17T12:59:41Z</time>
      </trkpt>
      <trkpt lat="47.27833" lon="-1.47323">
        <ele>33.07</ele>
        <time>2016-12-17T12:59:45Z</time>
      </trkpt>
      <trkpt lat="47.27846" lon="-1.4734">
        <ele>35.43</ele>
        <time>2016-12-17T12:59:48Z</time>
      </trkpt>
      <trkpt lat="47.2786" lon="-1.47357">
        <ele>37.32</ele>
        <time>2016-12-17T12:59:51Z</time>
      </trkpt>
      <trkpt lat="47.27875" lon="-1.47383">
        <ele>37.42</ele>
        <time>2016-12-17T12:59:55Z</time>
      </trkpt>
      <trkpt lat="47.27883" lon="-1.47407">
        <ele>36.45</ele>
        <time>2016-12-17T12:59:58Z</time>
      </trkpt>
      <trkpt lat="47.27887" lon="-1.47434">
        <ele>35.17</ele>
        <time>2016-12-17T13:00:01Z</time>
      </trkpt>
      <trkpt lat="47.27887" lon="-1.47461">
        <ele>34.87</ele>
        <time>2016-12-17T13:00:04Z</time>
      </trkpt>
      <trkpt lat="47.27884" lon="-1.4749">
        <ele>34.3</ele>
        <time>2016-12-17T13:00:07Z</time>
      </trkpt>
      <trkpt lat="47.27878" lon="-1.47523">
        <ele>35.68</ele>
        <time>2016-12-17T13:00:11Z</time>
      </trkpt>
      <trkpt lat="47.27878" lon="-1.47556">
        <ele>35.35</ele>
        <time>2016-12-17T13:00:15Z</time>
      </trkpt>
      <trkpt lat="47.27886" lon="-1.47585">
        <ele>35.88</ele>
        <time>2016-12-17T13:00:19Z</time>
      </trkpt>
      <trkpt lat="47.27898" lon="-1.47606">
        <ele>35.7</ele>
        <time>2016-12-17T13:00:22Z</time>
      </trkpt>
      <trkpt lat="47.27918" lon="-1.47625">
        <ele>34.18</ele>
        <time>2016-12-17T13:00:26Z</time>
      </trkpt>
      <trkpt lat="47.2794" lon="-1.47639">
        <ele>34.96</ele>
        <time>2016-12-17T13:00:30Z</time>
      </trkpt>
      <trkpt lat="47.27956" lon="-1.47649">
        <ele>35.17</ele>
        <time>2016-12-17T13:00:33Z</time>
      </trkpt>
      <trkpt lat="47.27974" lon="-1.4766">
        <ele>34.26</ele>
        <time>2016-12-17T13:00:36Z</time>
      </trkpt>
      <trkpt lat="47.27995" lon="-1.47673">
        <ele>33.27</ele>
        <time>2016-12-17T13:00:40Z</time>
      </trkpt>
      <trkpt lat="47.28013" lon="-1.47683">
        <ele>32.7</ele>
        <time>2016-12-17T13:00:43Z</time>
      </trkpt>
      <trkpt lat="47.28032" lon="-1.47695">
        <ele>32.18</ele>
        <time>2016-12-17T13:00:46Z</time>
      </trkpt>
      <trkpt lat="47.28052" lon="-1.47707">
        <ele>32.71</ele>
        <time>2016-12-17T13:00:50Z</time>
      </trkpt>
      <trkpt lat="47.28069" lon="-1.47717">
        <ele>32.85</ele>
        <time>2016-12-17T13:00:53Z</time>
      </trkpt>
      <trkpt lat="47.28087" lon="-1.47728">
        <ele>32.6</ele>
        <time>2016-12-17T13:00:56Z</time>
      </trkpt>
      <trkpt lat="47.28104" lon="-1.47738">
        <ele>32.83</ele>
        <time>2016-12-17T13:00:59Z</time>
      </trkpt>
      <trkpt lat="47.28126" lon="-1.47749">
        <ele>31.13</ele>
        <time>2016-12-17T13:01:03Z</time>
      </trkpt>
      <trkpt lat="47.28144" lon="-1.47751">
        <ele>29.41</ele>
        <time>2016-12-17T13:01:06Z</time>
      </trkpt>
      <trkpt lat="47.28167" lon="-1.4775">
        <ele>29.08</ele>
        <time>2016-12-17T13:01:10Z</time>
      </trkpt>
      <trkpt lat="47.28189" lon="-1.47749">
        <ele>29.51</ele>
        <time>2016-12-17T13:01:14Z</time>
      </trkpt>
      <trkpt lat="47.28209" lon="-1.47748">
        <ele>28.85</ele>
        <time>2016-12-17T13:01:17Z</time>
      </trkpt>
      <trkpt lat="47.28229" lon="-1.47744">
        <ele>30.07</ele>
        <time>2016-12-17T13:01:20Z</time>
      </trkpt>
      <trkpt lat="47.2825" lon="-1.47735">
        <ele>32.93</ele>
        <time>2016-12-17T13:01:24Z</time>
      </trkpt>
      <trkpt lat="47.28267" lon="-1.47725">
        <ele>33.95</ele>
        <time>2016-12-17T13:01:28Z</time>
      </trkpt>
      <trkpt lat="47.28287" lon="-1.47716">
        <ele>35.44</ele>
        <time>2016-12-17T13:01:32Z</time>
      </trkpt>
      <trkpt lat="47.28308" lon="-1.47706">
        <ele>36.71</ele>
        <time>2016-12-17T13:01:36Z</time>
      </trkpt>
      <trkpt lat="47.28326" lon="-1.47697">
        <ele>38.31</ele>
        <time>2016-12-17T13:01:40Z</time>
      </trkpt>
      <trkpt lat="47.28348" lon="-1.47685">
        <ele>36.61</ele>
        <time>2016-12-17T13:01:44Z</time>
      </trkpt>
      <trkpt lat="47.28372" lon="-1.47677">
        <ele>36.56</ele>
        <time>2016-12-17T13:01:48Z</time>
      </trkpt>
      <trkpt lat="47.28393" lon="-1.47669">
        <ele>38.65</ele>
        <time>2016-12-17T13:01:52Z</time>
      </trkpt>
      <trkpt lat="47.28414" lon="-1.47659">
        <ele>35.36</ele>
        <time>2016-12-17T13:01:57Z</time>
      </trkpt>
      <trkpt lat="47.28432" lon="-1.47651">
        <ele>35.9</ele>
        <time>2016-12-17T13:02:00Z</time>
      </trkpt>
      <trkpt lat="47.28452" lon="-1.47658">
        <ele>37.71</ele>
        <time>2016-12-17T13:02:04Z</time>
      </trkpt>
      <trkpt lat="47.28469" lon="-1.47675">
        <ele>39.52</ele>
        <time>2016-12-17T13:02:08Z</time>
      </trkpt>
      <trkpt lat="47.28487" lon="-1.47694">
        <ele>38.51</ele>
        <time>2016-12-17T13:02:12Z</time>
      </trkpt>
      <trkpt lat="47.28499" lon="-1.47713">
        <ele>37.04</ele>
        <time>2016-12-17T13:02:15Z</time>
      </trkpt>
      <trkpt lat="47.28512" lon="-1.47733">
        <ele>35.24</ele>
        <time>2016-12-17T13:02:18Z</time>
      </trkpt>
      <trkpt lat="47.28527" lon="-1.47757">
        <ele>32.86</ele>
        <time>2016-12-17T13:02:22Z</time>
      </trkpt>
      <trkpt lat="47.28539" lon="-1.47776">
        <ele>32.22</ele>
        <time>2016-12-17T13:02:25Z</time>
      </trkpt>
      <trkpt lat="47.2855" lon="-1.47797">
        <ele>31.5</ele>
        <time>2016-12-17T13:02:28Z</time>
      </trkpt>
      <trkpt lat="47.28563" lon="-1.47823">
        <ele>33.27</ele>
        <time>2016-12-17T13:02:32Z</time>
      </trkpt>
      <trkpt lat="47.28575" lon="-1.47851">
        <ele>33.81</ele>
        <time>2016-12-17T13:02:36Z</time>
      </trkpt>
      <trkpt lat="47.28585" lon="-1.47875">
        <ele>33.59</ele>
        <time>2016-12-17T13:02:40Z</time>
      </trkpt>
      <trkpt lat="47.28594" lon="-1.47899">
        <ele>33.54</ele>
        <time>2016-12-17T13:02:43Z</time>
      </trkpt>
      <trkpt lat="47.28602" lon="-1.4793">
        <ele>33.61</ele>
        <time>2016-12-17T13:02:47Z</time>
      </trkpt>
      <trkpt lat="47.28611" lon="-1.47956">
        <ele>35.97</ele>
        <time>2016-12-17T13:02:51Z</time>
      </trkpt>
      <trkpt lat="47.28619" lon="-1.47981">
        <ele>36.21</ele>
        <time>2016-12-17T13:02:54Z</time>
      </trkpt>
      <trkpt lat="47.28625" lon="-1.48006">
        <ele>35.81</ele>
        <time>2016-12-17T13:02:57Z</time>
      </trkpt>
      <trkpt lat="47.28634" lon="-1.48034">
        <ele>35.65</ele>
        <time>2016-12-17T13:03:01Z</time>
      </trkpt>
      <trkpt lat="47.28642" lon="-1.48058">
        <ele>34.37</ele>
        <time>2016-12-17T13:03:04Z</time>
      </trkpt>
      <trkpt lat="47.28651" lon="-1.48083">
        <ele>34.28</ele>
        <time>2016-12-17T13:03:07Z</time>
      </trkpt>
      <trkpt lat="47.28663" lon="-1.48108">
        <ele>34.52</ele>
        <time>2016-12-17T13:03:10Z</time>
      </trkpt>
      <trkpt lat="47.28677" lon="-1.48133">
        <ele>34.16</ele>
        <time>2016-12-17T13:03:13Z</time>
      </trkpt>
      <trkpt lat="47.28693" lon="-1.48156">
        <ele>33.77</ele>
        <time>2016-12-17T13:03:16Z</time>
      </trkpt>
      <trkpt lat="47.28708" lon="-1.48176">
        <ele>31.69</ele>
        <time>2016-12-17T13:03:19Z</time>
      </trkpt>
      <trkpt lat="47.28722" lon="-1.48194">
        <ele>31.3</ele>
        <time>2016-12-17T13:03:22Z</time>
      </trkpt>
      <trkpt lat="47.2874" lon="-1.48217">
        <ele>28.96</ele>
        <time>2016-12-17T13:03:26Z</time>
      </trkpt>
      <trkpt lat="47.28757" lon="-1.4824">
        <ele>30.23</ele>
        <time>2016-12-17T13:03:30Z</time>
      </trkpt>
      <trkpt lat="47.28769" lon="-1.4826">
        <ele>31.6</ele>
        <time>2016-12-17T13:03:33Z</time>
      </trkpt>
      <trkpt lat="47.28783" lon="-1.48287">
        <ele>33.86</ele>
        <time>2016-12-17T13:03:37Z</time>
      </trkpt>
      <trkpt lat="47.2879" lon="-1.48314">
        <ele>34.59</ele>
        <time>2016-12-17T13:03:41Z</time>
      </trkpt>
      <trkpt lat="47.28794" lon="-1.48341">
        <ele>34.07</ele>
        <time>2016-12-17T13:03:44Z</time>
      </trkpt>
      <trkpt lat="47.28798" lon="-1.48374">
        <ele>30.84</ele>
        <time>2016-12-17T13:03:48Z</time>
      </trkpt>
      <trkpt lat="47.28811" lon="-1.48396">
        <ele>28.97</ele>
        <time>2016-12-17T13:03:52Z</time>
      </trkpt>
      <trkpt lat="47.28832" lon="-1.48408">
        <ele>31.66</ele>
        <time>2016-12-17T13:03:56Z</time>
      </trkpt>
      <trkpt lat="47.28853" lon="-1.48418">
        <ele>32.89</ele>
        <time>2016-12-17T13:04:00Z</time>
      </trkpt>
      <trkpt lat="47.28871" lon="-1.48426">
        <ele>32.28</ele>
        <time>2016-12-17T13:04:03Z</time>
      </trkpt>
      <trkpt lat="47.28895" lon="-1.48438">
        <ele>32.27</ele>
        <time>2016-12-17T13:04:07Z</time>
      </trkpt>
      <trkpt lat="47.28917" lon="-1.48451">
        <ele>31.72</ele>
        <time>2016-12-17T13:04:11Z</time>
      </trkpt>
      <trkpt lat="47.28933" lon="-1.48462">
        <ele>31.64</ele>
        <time>2016-12-17T13:04:14Z</time>
      </trkpt>
      <trkpt lat="47.28951" lon="-1.48473">
        <ele>29.99</ele>
        <time>2016-12-17T13:04:17Z</time>
      </trkpt>
      <trkpt lat="47.28969" lon="-1.48486">
        <ele>30.29</ele>
        <time>2016-12-17T13:04:20Z</time>
      </trkpt>
      <trkpt lat="47.28989" lon="-1.48496">
        <ele>29.45</ele>
        <time>2016-12-17T13:04:23Z</time>
      </trkpt>
      <trkpt lat="47.29011" lon="-1.48514">
        <ele>30.16</ele>
        <time>2016-12-17T13:04:27Z</time>
      </trkpt>
      <trkpt lat="47.29028" lon="-1.48528">
        <ele>29.38</ele>
        <time>2016-12-17T13:04:30Z</time>
      </trkpt>
      <trkpt lat="47.29044" lon="-1.48541">
        <ele>29.51</ele>
        <time>2016-12-17T13:04:33Z</time>
      </trkpt>
      <trkpt lat="47.29062" lon="-1.48551">
        <ele>31.13</ele>
        <time>2016-12-17T13:04:36Z</time>
      </trkpt>
      <trkpt lat="47.29078" lon="-1.48568">
        <ele>30.86</ele>
        <time>2016-12-17T13:04:39Z</time>
      </trkpt>
      <trkpt lat="47.29097" lon="-1.48582">
        <ele>29.05</ele>
        <time>2016-12-17T13:04:42Z</time>
      </trkpt>
      <trkpt lat="47.29113" lon="-1.48593">
        <ele>27.63</ele>
        <time>2016-12-17T13:04:45Z</time>
      </trkpt>
      <trkpt lat="47.29134" lon="-1.4861">
        <ele>27.55</ele>
        <time>2016-12-17T13:04:49Z</time>
      </trkpt>
      <trkpt lat="47.29155" lon="-1.48623">
        <ele>28.76</ele>
        <time>2016-12-17T13:04:53Z</time>
      </trkpt>
      <trkpt lat="47.29172" lon="-1.48635">
        <ele>28.79</ele>
        <time>2016-12-17T13:04:56Z</time>
      </trkpt>
      <trkpt lat="47.29189" lon="-1.48649">
        <ele>28.52</ele>
        <time>2016-12-17T13:04:59Z</time>
      </trkpt>
      <trkpt lat="47.2921" lon="-1.48665">
        <ele>26.28</ele>
        <time>2016-12-17T13:05:03Z</time>
      </trkpt>
      <trkpt lat="47.29227" lon="-1.48678">
        <ele>26.02</ele>
        <time>2016-12-17T13:05:06Z</time>
      </trkpt>
      <trkpt lat="47.29245" lon="-1.48689">
        <ele>25.3</ele>
        <time>2016-12-17T13:05:10Z</time>
      </trkpt>
      <trkpt lat="47.29266" lon="-1.48684">
        <ele>26.56</ele>
        <time>2016-12-17T13:05:14Z</time>
      </trkpt>
      <trkpt lat="47.29279" lon="-1.48702">
        <ele>28.47</ele>
        <time>2016-12-17T13:05:19Z</time>
      </trkpt>
      <trkpt lat="47.2929" lon="-1.48729">
        <ele>29.66</ele>
        <time>2016-12-17T13:05:23Z</time>
      </trkpt>
      <trkpt lat="47.29308" lon="-1.48746">
        <ele>30.34</ele>
        <time>2016-12-17T13:05:27Z</time>
      </trkpt>
      <trkpt lat="47.29327" lon="-1.48762">
        <ele>31.3</ele>
        <time>2016-12-17T13:05:31Z</time>
      </trkpt>
      <trkpt lat="47.29343" lon="-1.48776">
        <ele>30.98</ele>
        <time>2016-12-17T13:05:34Z</time>
      </trkpt>
      <trkpt lat="47.29366" lon="-1.48788">
        <ele>27.96</ele>
        <time>2016-12-17T13:05:38Z</time>
      </trkpt>
      <trkpt lat="47.29386" lon="-1.48792">
        <ele>25.78</ele>
        <time>2016-12-17T13:05:42Z</time>
      </trkpt>
      <trkpt lat="47.2941" lon="-1.48786">
        <ele>27.53</ele>
        <time>2016-12-17T13:05:47Z</time>
      </trkpt>
      <trkpt lat="47.2943" lon="-1.48767">
        <ele>29.81</ele>
        <time>2016-12-17T13:05:51Z</time>
      </trkpt>
      <trkpt lat="47.29446" lon="-1.48752">
        <ele>30.56</ele>
        <time>2016-12-17T13:05:54Z</time>
      </trkpt>
      <trkpt lat="47.29465" lon="-1.48736">
        <ele>29.96</ele>
        <time>2016-12-17T13:05:58Z</time>
      </trkpt>
      <trkpt lat="47.29483" lon="-1.48722">
        <ele>28.91</ele>
        <time>2016-12-17T13:06:02Z</time>
      </trkpt>
      <trkpt lat="47.295" lon="-1.48707">
        <ele>29.92</ele>
        <time>2016-12-17T13:06:06Z</time>
      </trkpt>
      <trkpt lat="47.2952" lon="-1.48693">
        <ele>30.42</ele>
        <time>2016-12-17T13:06:10Z</time>
      </trkpt>
      <trkpt lat="47.29541" lon="-1.4868">
        <ele>33.71</ele>
        <time>2016-12-17T13:06:14Z</time>
      </trkpt>
      <trkpt lat="47.29564" lon="-1.48671">
        <ele>33.99</ele>
        <time>2016-12-17T13:06:18Z</time>
      </trkpt>
      <trkpt lat="47.29581" lon="-1.48663">
        <ele>32.7</ele>
        <time>2016-12-17T13:06:21Z</time>
      </trkpt>
      <trkpt lat="47.29602" lon="-1.48655">
        <ele>30.92</ele>
        <time>2016-12-17T13:06:24Z</time>
      </trkpt>
      <trkpt lat="47.2962" lon="-1.48649">
        <ele>30.1</ele>
        <time>2016-12-17T13:06:27Z</time>
      </trkpt>
      <trkpt lat="47.29639" lon="-1.48634">
        <ele>28.19</ele>
        <time>2016-12-17T13:06:31Z</time>
      </trkpt>
      <trkpt lat="47.29657" lon="-1.4861">
        <ele>27.44</ele>
        <time>2016-12-17T13:06:36Z</time>
      </trkpt>
      <trkpt lat="47.29676" lon="-1.48603">
        <ele>28.03</ele>
        <time>2016-12-17T13:06:40Z</time>
      </trkpt>
      <trkpt lat="47.297" lon="-1.48598">
        <ele>27.2</ele>
        <time>2016-12-17T13:06:44Z</time>
      </trkpt>
      <trkpt lat="47.29718" lon="-1.486">
        <ele>26.95</ele>
        <time>2016-12-17T13:06:47Z</time>
      </trkpt>
      <trkpt lat="47.2974" lon="-1.48606">
        <ele>25.3</ele>
        <time>2016-12-17T13:06:51Z</time>
      </trkpt>
      <trkpt lat="47.29761" lon="-1.48613">
        <ele>25.79</ele>
        <time>2016-12-17T13:06:55Z</time>
      </trkpt>
      <trkpt lat="47.29782" lon="-1.48618">
        <ele>26.94</ele>
        <time>2016-12-17T13:07:01Z</time>
      </trkpt>
      <trkpt lat="47.29806" lon="-1.48625">
        <ele>23.62</ele>
        <time>2016-12-17T13:07:05Z</time>
      </trkpt>
      <trkpt lat="47.29826" lon="-1.48628">
        <ele>22.82</ele>
        <time>2016-12-17T13:07:08Z</time>
      </trkpt>
      <trkpt lat="47.29848" lon="-1.48631">
        <ele>25.19</ele>
        <time>2016-12-17T13:07:12Z</time>
      </trkpt>
      <trkpt lat="47.29868" lon="-1.48631">
        <ele>25.52</ele>
        <time>2016-12-17T13:07:15Z</time>
      </trkpt>
      <trkpt lat="47.29887" lon="-1.48631">
        <ele>23.14</ele>
        <time>2016-12-17T13:07:18Z</time>
      </trkpt>
      <trkpt lat="47.29906" lon="-1.4863">
        <ele>22.44</ele>
        <time>2016-12-17T13:07:21Z</time>
      </trkpt>
      <trkpt lat="47.29925" lon="-1.48629">
        <ele>20.95</ele>
        <time>2016-12-17T13:07:24Z</time>
      </trkpt>
      <trkpt lat="47.29949" lon="-1.48626">
        <ele>21.07</ele>
        <time>2016-12-17T13:07:28Z</time>
      </trkpt>
      <trkpt lat="47.2997" lon="-1.48625">
        <ele>22.5</ele>
        <time>2016-12-17T13:07:31Z</time>
      </trkpt>
      <trkpt lat="47.29994" lon="-1.48622">
        <ele>22.94</ele>
        <time>2016-12-17T13:07:35Z</time>
      </trkpt>
      <trkpt lat="47.30013" lon="-1.48618">
        <ele>24.18</ele>
        <time>2016-12-17T13:07:38Z</time>
      </trkpt>
      <trkpt lat="47.30032" lon="-1.48614">
        <ele>24.66</ele>
        <time>2016-12-17T13:07:41Z</time>
      </trkpt>
      <trkpt lat="47.30052" lon="-1.48608">
        <ele>24.47</ele>
        <time>2016-12-17T13:07:44Z</time>
      </trkpt>
      <trkpt lat="47.30072" lon="-1.48601">
        <ele>26.89</ele>
        <time>2016-12-17T13:07:47Z</time>
      </trkpt>
      <trkpt lat="47.30092" lon="-1.48596">
        <ele>28.41</ele>
        <time>2016-12-17T13:07:50Z</time>
      </trkpt>
      <trkpt lat="47.30111" lon="-1.48589">
        <ele>27.5</ele>
        <time>2016-12-17T13:07:53Z</time>
      </trkpt>
      <trkpt lat="47.30129" lon="-1.48582">
        <ele>26.97</ele>
        <time>2016-12-17T13:07:56Z</time>
      </trkpt>
      <trkpt lat="47.3015" lon="-1.48573">
        <ele>25.55</ele>
        <time>2016-12-17T13:07:59Z</time>
      </trkpt>
      <trkpt lat="47.30171" lon="-1.48563">
        <ele>24.7</ele>
        <time>2016-12-17T13:08:03Z</time>
      </trkpt>
      <trkpt lat="47.3019" lon="-1.48552">
        <ele>24.53</ele>
        <time>2016-12-17T13:08:06Z</time>
      </trkpt>
      <trkpt lat="47.3021" lon="-1.48541">
        <ele>22.97</ele>
        <time>2016-12-17T13:08:09Z</time>
      </trkpt>
      <trkpt lat="47.30229" lon="-1.48529">
        <ele>22.68</ele>
        <time>2016-12-17T13:08:12Z</time>
      </trkpt>
      <trkpt lat="47.30246" lon="-1.48518">
        <ele>22.35</ele>
        <time>2016-12-17T13:08:15Z</time>
      </trkpt>
      <trkpt lat="47.30264" lon="-1.48506">
        <ele>22.18</ele>
        <time>2016-12-17T13:08:18Z</time>
      </trkpt>
      <trkpt lat="47.30282" lon="-1.48492">
        <ele>21.05</ele>
        <time>2016-12-17T13:08:21Z</time>
      </trkpt>
      <trkpt lat="47.30303" lon="-1.48478">
        <ele>21.22</ele>
        <time>2016-12-17T13:08:25Z</time>
      </trkpt>
      <trkpt lat="47.30324" lon="-1.48462">
        <ele>21.22</ele>
        <time>2016-12-17T13:08:29Z</time>
      </trkpt>
      <trkpt lat="47.30343" lon="-1.48448">
        <ele>24.23</ele>
        <time>2016-12-17T13:08:33Z</time>
      </trkpt>
      <trkpt lat="47.30359" lon="-1.48429">
        <ele>23.27</ele>
        <time>2016-12-17T13:08:40Z</time>
      </trkpt>
      <trkpt lat="47.30377" lon="-1.4842">
        <ele>21.94</ele>
        <time>2016-12-17T13:08:46Z</time>
      </trkpt>
      <trkpt lat="47.30395" lon="-1.484">
        <ele>21.17</ele>
        <time>2016-12-17T13:08:51Z</time>
      </trkpt>
      <trkpt lat="47.30414" lon="-1.48381">
        <ele>21.24</ele>
        <time>2016-12-17T13:08:54Z</time>
      </trkpt>
      <trkpt lat="47.30433" lon="-1.48361">
        <ele>20.24</ele>
        <time>2016-12-17T13:08:58Z</time>
      </trkpt>
      <trkpt lat="47.30451" lon="-1.48339">
        <ele>19.22</ele>
        <time>2016-12-17T13:09:02Z</time>
      </trkpt>
      <trkpt lat="47.3047" lon="-1.48317">
        <ele>19.61</ele>
        <time>2016-12-17T13:09:06Z</time>
      </trkpt>
      <trkpt lat="47.30487" lon="-1.48295">
        <ele>18.05</ele>
        <time>2016-12-17T13:09:10Z</time>
      </trkpt>
      <trkpt lat="47.30503" lon="-1.48274">
        <ele>16.76</ele>
        <time>2016-12-17T13:09:13Z</time>
      </trkpt>
      <trkpt lat="47.30521" lon="-1.4825">
        <ele>15.81</ele>
        <time>2016-12-17T13:09:17Z</time>
      </trkpt>
      <trkpt lat="47.30534" lon="-1.48229">
        <ele>16.82</ele>
        <time>2016-12-17T13:09:20Z</time>
      </trkpt>
      <trkpt lat="47.30547" lon="-1.48206">
        <ele>17.03</ele>
        <time>2016-12-17T13:09:23Z</time>
      </trkpt>
      <trkpt lat="47.30559" lon="-1.48185">
        <ele>17.78</ele>
        <time>2016-12-17T13:09:26Z</time>
      </trkpt>
      <trkpt lat="47.30572" lon="-1.48165">
        <ele>18.55</ele>
        <time>2016-12-17T13:09:29Z</time>
      </trkpt>
      <trkpt lat="47.30589" lon="-1.48137">
        <ele>18.35</ele>
        <time>2016-12-17T13:09:33Z</time>
      </trkpt>
      <trkpt lat="47.30603" lon="-1.48115">
        <ele>18.16</ele>
        <time>2016-12-17T13:09:36Z</time>
      </trkpt>
      <trkpt lat="47.30615" lon="-1.48095">
        <ele>17.41</ele>
        <time>2016-12-17T13:09:39Z</time>
      </trkpt>
      <trkpt lat="47.30631" lon="-1.48075">
        <ele>17.31</ele>
        <time>2016-12-17T13:09:43Z</time>
      </trkpt>
      <trkpt lat="47.30654" lon="-1.48086">
        <ele>15.12</ele>
        <time>2016-12-17T13:09:47Z</time>
      </trkpt>
      <trkpt lat="47.30673" lon="-1.48104">
        <ele>16.75</ele>
        <time>2016-12-17T13:09:51Z</time>
      </trkpt>
      <trkpt lat="47.30691" lon="-1.48125">
        <ele>16.04</ele>
        <time>2016-12-17T13:09:55Z</time>
      </trkpt>
      <trkpt lat="47.30707" lon="-1.48146">
        <ele>14.95</ele>
        <time>2016-12-17T13:09:59Z</time>
      </trkpt>
      <trkpt lat="47.30719" lon="-1.4817">
        <ele>15.52</ele>
        <time>2016-12-17T13:10:03Z</time>
      </trkpt>
      <trkpt lat="47.30723" lon="-1.482">
        <ele>16.39</ele>
        <time>2016-12-17T13:10:07Z</time>
      </trkpt>
      <trkpt lat="47.30743" lon="-1.48206">
        <ele>16.52</ele>
        <time>2016-12-17T13:10:11Z</time>
      </trkpt>
      <trkpt lat="47.30756" lon="-1.48186">
        <ele>17.02</ele>
        <time>2016-12-17T13:10:15Z</time>
      </trkpt>
      <trkpt lat="47.30746" lon="-1.48161">
        <ele>15.48</ele>
        <time>2016-12-17T13:10:20Z</time>
      </trkpt>
      <trkpt lat="47.30729" lon="-1.48149">
        <ele>16.29</ele>
        <time>2016-12-17T13:10:24Z</time>
      </trkpt>
      <trkpt lat="47.30738" lon="-1.48175">
        <ele>16.55</ele>
        <time>2016-12-17T13:10:30Z</time>
      </trkpt>
      <trkpt lat="47.30749" lon="-1.48201">
        <ele>17.16</ele>
        <time>2016-12-17T13:10:35Z</time>
      </trkpt>
      <trkpt lat="47.30768" lon="-1.48205">
        <ele>18.27</ele>
        <time>2016-12-17T13:10:41Z</time>
      </trkpt>
      <trkpt lat="47.30776" lon="-1.48177">
        <ele>19.2</ele>
        <time>2016-12-17T13:10:45Z</time>
      </trkpt>
      <trkpt lat="47.30784" lon="-1.48145">
        <ele>18.45</ele>
        <time>2016-12-17T13:10:49Z</time>
      </trkpt>
      <trkpt lat="47.30791" lon="-1.48113">
        <ele>16.73</ele>
        <time>2016-12-17T13:10:53Z</time>
      </trkpt>
      <trkpt lat="47.30798" lon="-1.48081">
        <ele>14.87</ele>
        <time>2016-12-17T13:10:57Z</time>
      </trkpt>
      <trkpt lat="47.30804" lon="-1.48054">
        <ele>13.72</ele>
        <time>2016-12-17T13:11:00Z</time>
      </trkpt>
      <trkpt lat="47.30806" lon="-1.48022">
        <ele>14.29</ele>
        <time>2016-12-17T13:11:04Z</time>
      </trkpt>
      <trkpt lat="47.3082" lon="-1.48002">
        <ele>15.09</ele>
        <time>2016-12-17T13:11:08Z</time>
      </trkpt>
      <trkpt lat="47.30837" lon="-1.4802">
        <ele>15.35</ele>
        <time>2016-12-17T13:11:11Z</time>
      </trkpt>
      <trkpt lat="47.30846" lon="-1.4805">
        <ele>16.14</ele>
        <time>2016-12-17T13:11:14Z</time>
      </trkpt>
      <trkpt lat="47.3086" lon="-1.48071">
        <ele>14.63</ele>
        <time>2016-12-17T13:11:17Z</time>
      </trkpt>
      <trkpt lat="47.30875" lon="-1.48089">
        <ele>13</ele>
        <time>2016-12-17T13:11:20Z</time>
      </trkpt>
      <trkpt lat="47.30893" lon="-1.48105">
        <ele>13.62</ele>
        <time>2016-12-17T13:11:23Z</time>
      </trkpt>
      <trkpt lat="47.30912" lon="-1.48117">
        <ele>14.19</ele>
        <time>2016-12-17T13:11:26Z</time>
      </trkpt>
      <trkpt lat="47.30934" lon="-1.48124">
        <ele>14.13</ele>
        <time>2016-12-17T13:11:29Z</time>
      </trkpt>
      <trkpt lat="47.30954" lon="-1.48122">
        <ele>13.69</ele>
        <time>2016-12-17T13:11:32Z</time>
      </trkpt>
      <trkpt lat="47.30975" lon="-1.48129">
        <ele>12.66</ele>
        <time>2016-12-17T13:11:35Z</time>
      </trkpt>
      <trkpt lat="47.30995" lon="-1.48135">
        <ele>12.16</ele>
        <time>2016-12-17T13:11:38Z</time>
      </trkpt>
      <trkpt lat="47.31014" lon="-1.48131">
        <ele>13.01</ele>
        <time>2016-12-17T13:11:41Z</time>
      </trkpt>
      <trkpt lat="47.31035" lon="-1.48123">
        <ele>12.56</ele>
        <time>2016-12-17T13:11:44Z</time>
      </trkpt>
      <trkpt lat="47.31054" lon="-1.48113">
        <ele>11.48</ele>
        <time>2016-12-17T13:11:47Z</time>
      </trkpt>
      <trkpt lat="47.31072" lon="-1.48104">
        <ele>11.99</ele>
        <time>2016-12-17T13:11:50Z</time>
      </trkpt>
      <trkpt lat="47.3109" lon="-1.48094">
        <ele>11.17</ele>
        <time>2016-12-17T13:11:53Z</time>
      </trkpt>
      <trkpt lat="47.31109" lon="-1.48085">
        <ele>9.99</ele>
        <time>2016-12-17T13:11:56Z</time>
      </trkpt>
      <trkpt lat="47.31127" lon="-1.48074">
        <ele>11.59</ele>
        <time>2016-12-17T13:11:59Z</time>
      </trkpt>
      <trkpt lat="47.31145" lon="-1.48063">
        <ele>13.19</ele>
        <time>2016-12-17T13:12:02Z</time>
      </trkpt>
      <trkpt lat="47.31164" lon="-1.48053">
        <ele>14.48</ele>
        <time>2016-12-17T13:12:05Z</time>
      </trkpt>
      <trkpt lat="47.31182" lon="-1.48043">
        <ele>13.72</ele>
        <time>2016-12-17T13:12:08Z</time>
      </trkpt>
      <trkpt lat="47.31202" lon="-1.48031">
        <ele>13.84</ele>
        <time>2016-12-17T13:12:12Z</time>
      </trkpt>
      <trkpt lat="47.31221" lon="-1.4802">
        <ele>12.4</ele>
        <time>2016-12-17T13:12:16Z</time>
      </trkpt>
      <trkpt lat="47.31242" lon="-1.48008">
        <ele>12.34</ele>
        <time>2016-12-17T13:12:20Z</time>
      </trkpt>
      <trkpt lat="47.31265" lon="-1.47994">
        <ele>14.12</ele>
        <time>2016-12-17T13:12:24Z</time>
      </trkpt>
      <trkpt lat="47.31281" lon="-1.47984">
        <ele>14.4</ele>
        <time>2016-12-17T13:12:27Z</time>
      </trkpt>
      <trkpt lat="47.31305" lon="-1.47971">
        <ele>14.3</ele>
        <time>2016-12-17T13:12:31Z</time>
      </trkpt>
      <trkpt lat="47.31323" lon="-1.47961">
        <ele>13.9</ele>
        <time>2016-12-17T13:12:34Z</time>
      </trkpt>
      <trkpt lat="47.31342" lon="-1.4795">
        <ele>14.59</ele>
        <time>2016-12-17T13:12:37Z</time>
      </trkpt>
      <trkpt lat="47.31361" lon="-1.47938">
        <ele>14.36</ele>
        <time>2016-12-17T13:12:40Z</time>
      </trkpt>
      <trkpt lat="47.3138" lon="-1.47927">
        <ele>13.12</ele>
        <time>2016-12-17T13:12:43Z</time>
      </trkpt>
      <trkpt lat="47.31402" lon="-1.47915">
        <ele>15.16</ele>
        <time>2016-12-17T13:12:47Z</time>
      </trkpt>
      <trkpt lat="47.3142" lon="-1.47904">
        <ele>14.83</ele>
        <time>2016-12-17T13:12:50Z</time>
      </trkpt>
      <trkpt lat="47.31441" lon="-1.47891">
        <ele>13.89</ele>
        <time>2016-12-17T13:12:54Z</time>
      </trkpt>
      <trkpt lat="47.31459" lon="-1.47881">
        <ele>12.86</ele>
        <time>2016-12-17T13:12:57Z</time>
      </trkpt>
      <trkpt lat="47.31476" lon="-1.4787">
        <ele>12.39</ele>
        <time>2016-12-17T13:13:00Z</time>
      </trkpt>
      <trkpt lat="47.31494" lon="-1.47861">
        <ele>12.81</ele>
        <time>2016-12-17T13:13:04Z</time>
      </trkpt>
      <trkpt lat="47.31512" lon="-1.47852">
        <ele>13.73</ele>
        <time>2016-12-17T13:13:07Z</time>
      </trkpt>
      <trkpt lat="47.3153" lon="-1.47844">
        <ele>13.88</ele>
        <time>2016-12-17T13:13:10Z</time>
      </trkpt>
      <trkpt lat="47.31548" lon="-1.4784">
        <ele>15.22</ele>
        <time>2016-12-17T13:13:13Z</time>
      </trkpt>
      <trkpt lat="47.31568" lon="-1.47835">
        <ele>14.76</ele>
        <time>2016-12-17T13:13:16Z</time>
      </trkpt>
      <trkpt lat="47.31586" lon="-1.47832">
        <ele>14.39</ele>
        <time>2016-12-17T13:13:19Z</time>
      </trkpt>
      <trkpt lat="47.31606" lon="-1.47831">
        <ele>12.98</ele>
        <time>2016-12-17T13:13:22Z</time>
      </trkpt>
      <trkpt lat="47.31626" lon="-1.4783">
        <ele>11.28</ele>
        <time>2016-12-17T13:13:25Z</time>
      </trkpt>
      <trkpt lat="47.31645" lon="-1.4783">
        <ele>10.9</ele>
        <time>2016-12-17T13:13:28Z</time>
      </trkpt>
      <trkpt lat="47.31663" lon="-1.47819">
        <ele>11.37</ele>
        <time>2016-12-17T13:13:31Z</time>
      </trkpt>
      <trkpt lat="47.3168" lon="-1.47836">
        <ele>12.18</ele>
        <time>2016-12-17T13:13:34Z</time>
      </trkpt>
      <trkpt lat="47.3167" lon="-1.47863">
        <ele>11.31</ele>
        <time>2016-12-17T13:13:37Z</time>
      </trkpt>
      <trkpt lat="47.31656" lon="-1.47887">
        <ele>11.17</ele>
        <time>2016-12-17T13:13:40Z</time>
      </trkpt>
      <trkpt lat="47.31643" lon="-1.47908">
        <ele>11.18</ele>
        <time>2016-12-17T13:13:43Z</time>
      </trkpt>
      <trkpt lat="47.3163" lon="-1.47927">
        <ele>12.93</ele>
        <time>2016-12-17T13:13:46Z</time>
      </trkpt>
      <trkpt lat="47.31615" lon="-1.47949">
        <ele>14.85</ele>
        <time>2016-12-17T13:13:49Z</time>
      </trkpt>
      <trkpt lat="47.31603" lon="-1.47979">
        <ele>18.01</ele>
        <time>2016-12-17T13:13:53Z</time>
      </trkpt>
      <trkpt lat="47.31601" lon="-1.48007">
        <ele>18.11</ele>
        <time>2016-12-17T13:13:56Z</time>
      </trkpt>
      <trkpt lat="47.31607" lon="-1.48032">
        <ele>18.33</ele>
        <time>2016-12-17T13:13:59Z</time>
      </trkpt>
      <trkpt lat="47.31613" lon="-1.48064">
        <ele>19.36</ele>
        <time>2016-12-17T13:14:03Z</time>
      </trkpt>
      <trkpt lat="47.3162" lon="-1.4809">
        <ele>20.22</ele>
        <time>2016-12-17T13:14:06Z</time>
      </trkpt>
      <trkpt lat="47.31639" lon="-1.48105">
        <ele>18.98</ele>
        <time>2016-12-17T13:14:10Z</time>
      </trkpt>
      <trkpt lat="47.31662" lon="-1.48101">
        <ele>17.76</ele>
        <time>2016-12-17T13:14:14Z</time>
      </trkpt>
      <trkpt lat="47.31681" lon="-1.48087">
        <ele>18.37</ele>
        <time>2016-12-17T13:14:17Z</time>
      </trkpt>
      <trkpt lat="47.31699" lon="-1.4807">
        <ele>17.43</ele>
        <time>2016-12-17T13:14:20Z</time>
      </trkpt>
      <trkpt lat="47.31717" lon="-1.4805">
        <ele>16.51</ele>
        <time>2016-12-17T13:14:23Z</time>
      </trkpt>
      <trkpt lat="47.31738" lon="-1.4803">
        <ele>14.64</ele>
        <time>2016-12-17T13:14:26Z</time>
      </trkpt>
      <trkpt lat="47.31759" lon="-1.48016">
        <ele>13.6</ele>
        <time>2016-12-17T13:14:29Z</time>
      </trkpt>
      <trkpt lat="47.31778" lon="-1.48005">
        <ele>13.04</ele>
        <time>2016-12-17T13:14:32Z</time>
      </trkpt>
      <trkpt lat="47.31799" lon="-1.47996">
        <ele>11.48</ele>
        <time>2016-12-17T13:14:35Z</time>
      </trkpt>
      <trkpt lat="47.31821" lon="-1.47989">
        <ele>11.53</ele>
        <time>2016-12-17T13:14:38Z</time>
      </trkpt>
      <trkpt lat="47.3184" lon="-1.47983">
        <ele>11.59</ele>
        <time>2016-12-17T13:14:41Z</time>
      </trkpt>
      <trkpt lat="47.3186" lon="-1.47977">
        <ele>11.47</ele>
        <time>2016-12-17T13:14:44Z</time>
      </trkpt>
      <trkpt lat="47.3188" lon="-1.47971">
        <ele>11.3</ele>
        <time>2016-12-17T13:14:47Z</time>
      </trkpt>
      <trkpt lat="47.319" lon="-1.47965">
        <ele>12.23</ele>
        <time>2016-12-17T13:14:50Z</time>
      </trkpt>
      <trkpt lat="47.31919" lon="-1.4796">
        <ele>12.83</ele>
        <time>2016-12-17T13:14:53Z</time>
      </trkpt>
      <trkpt lat="47.31937" lon="-1.47955">
        <ele>11.04</ele>
        <time>2016-12-17T13:14:56Z</time>
      </trkpt>
      <trkpt lat="47.31956" lon="-1.47949">
        <ele>10.82</ele>
        <time>2016-12-17T13:14:59Z</time>
      </trkpt>
      <trkpt lat="47.31977" lon="-1.47945">
        <ele>10.5</ele>
        <time>2016-12-17T13:15:02Z</time>
      </trkpt>
      <trkpt lat="47.32002" lon="-1.47939">
        <ele>9.47</ele>
        <time>2016-12-17T13:15:06Z</time>
      </trkpt>
      <trkpt lat="47.32023" lon="-1.47934">
        <ele>10.43</ele>
        <time>2016-12-17T13:15:09Z</time>
      </trkpt>
      <trkpt lat="47.32046" lon="-1.47929">
        <ele>11.01</ele>
        <time>2016-12-17T13:15:13Z</time>
      </trkpt>
      <trkpt lat="47.32066" lon="-1.47924">
        <ele>12.47</ele>
        <time>2016-12-17T13:15:16Z</time>
      </trkpt>
      <trkpt lat="47.3209" lon="-1.4792">
        <ele>13.31</ele>
        <time>2016-12-17T13:15:20Z</time>
      </trkpt>
      <trkpt lat="47.32109" lon="-1.47916">
        <ele>12.98</ele>
        <time>2016-12-17T13:15:23Z</time>
      </trkpt>
      <trkpt lat="47.32127" lon="-1.47912">
        <ele>11.46</ele>
        <time>2016-12-17T13:15:26Z</time>
      </trkpt>
      <trkpt lat="47.32146" lon="-1.47906">
        <ele>11.96</ele>
        <time>2016-12-17T13:15:29Z</time>
      </trkpt>
      <trkpt lat="47.32171" lon="-1.479">
        <ele>12.64</ele>
        <time>2016-12-17T13:15:33Z</time>
      </trkpt>
      <trkpt lat="47.32189" lon="-1.47896">
        <ele>12.25</ele>
        <time>2016-12-17T13:15:36Z</time>
      </trkpt>
      <trkpt lat="47.32209" lon="-1.47891">
        <ele>12.71</ele>
        <time>2016-12-17T13:15:39Z</time>
      </trkpt>
      <trkpt lat="47.32227" lon="-1.47886">
        <ele>12.94</ele>
        <time>2016-12-17T13:15:42Z</time>
      </trkpt>
      <trkpt lat="47.32246" lon="-1.4788">
        <ele>12.71</ele>
        <time>2016-12-17T13:15:45Z</time>
      </trkpt>
      <trkpt lat="47.32265" lon="-1.47875">
        <ele>12.69</ele>
        <time>2016-12-17T13:15:48Z</time>
      </trkpt>
      <trkpt lat="47.32285" lon="-1.47871">
        <ele>13.15</ele>
        <time>2016-12-17T13:15:51Z</time>
      </trkpt>
      <trkpt lat="47.32309" lon="-1.47865">
        <ele>13.56</ele>
        <time>2016-12-17T13:15:55Z</time>
      </trkpt>
      <trkpt lat="47.32327" lon="-1.47861">
        <ele>13.22</ele>
        <time>2016-12-17T13:15:58Z</time>
      </trkpt>
      <trkpt lat="47.32347" lon="-1.47856">
        <ele>12.9</ele>
        <time>2016-12-17T13:16:01Z</time>
      </trkpt>
      <trkpt lat="47.32367" lon="-1.47852">
        <ele>13.02</ele>
        <time>2016-12-17T13:16:04Z</time>
      </trkpt>
      <trkpt lat="47.32387" lon="-1.47847">
        <ele>13.78</ele>
        <time>2016-12-17T13:16:07Z</time>
      </trkpt>
      <trkpt lat="47.32406" lon="-1.47842">
        <ele>13.82</ele>
        <time>2016-12-17T13:16:10Z</time>
      </trkpt>
      <trkpt lat="47.32428" lon="-1.47837">
        <ele>12.37</ele>
        <time>2016-12-17T13:16:14Z</time>
      </trkpt>
      <trkpt lat="47.32449" lon="-1.47832">
        <ele>12.58</ele>
        <time>2016-12-17T13:16:17Z</time>
      </trkpt>
      <trkpt lat="47.32469" lon="-1.47827">
        <ele>13.89</ele>
        <time>2016-12-17T13:16:20Z</time>
      </trkpt>
      <trkpt lat="47.32488" lon="-1.47822">
        <ele>13.07</ele>
        <time>2016-12-17T13:16:23Z</time>
      </trkpt>
      <trkpt lat="47.32509" lon="-1.47818">
        <ele>13.02</ele>
        <time>2016-12-17T13:16:26Z</time>
      </trkpt>
      <trkpt lat="47.32532" lon="-1.47811">
        <ele>13.29</ele>
        <time>2016-12-17T13:16:30Z</time>
      </trkpt>
      <trkpt lat="47.32555" lon="-1.47805">
        <ele>12.24</ele>
        <time>2016-12-17T13:16:33Z</time>
      </trkpt>
      <trkpt lat="47.32573" lon="-1.47801">
        <ele>12.08</ele>
        <time>2016-12-17T13:16:36Z</time>
      </trkpt>
      <trkpt lat="47.32592" lon="-1.47798">
        <ele>12.4</ele>
        <time>2016-12-17T13:16:39Z</time>
      </trkpt>
      <trkpt lat="47.32611" lon="-1.47792">
        <ele>12.92</ele>
        <time>2016-12-17T13:16:42Z</time>
      </trkpt>
      <trkpt lat="47.3263" lon="-1.47788">
        <ele>12.5</ele>
        <time>2016-12-17T13:16:45Z</time>
      </trkpt>
      <trkpt lat="47.32648" lon="-1.47784">
        <ele>13.54</ele>
        <time>2016-12-17T13:16:48Z</time>
      </trkpt>
      <trkpt lat="47.32671" lon="-1.47778">
        <ele>13.2</ele>
        <time>2016-12-17T13:16:52Z</time>
      </trkpt>
      <trkpt lat="47.32694" lon="-1.47773">
        <ele>13.83</ele>
        <time>2016-12-17T13:16:56Z</time>
      </trkpt>
      <trkpt lat="47.32712" lon="-1.47768">
        <ele>13.71</ele>
        <time>2016-12-17T13:16:59Z</time>
      </trkpt>
      <trkpt lat="47.32731" lon="-1.47763">
        <ele>13.68</ele>
        <time>2016-12-17T13:17:02Z</time>
      </trkpt>
      <trkpt lat="47.32755" lon="-1.47757">
        <ele>14.51</ele>
        <time>2016-12-17T13:17:06Z</time>
      </trkpt>
      <trkpt lat="47.32776" lon="-1.47753">
        <ele>16.5</ele>
        <time>2016-12-17T13:17:10Z</time>
      </trkpt>
      <trkpt lat="47.32795" lon="-1.47748">
        <ele>15.05</ele>
        <time>2016-12-17T13:17:13Z</time>
      </trkpt>
      <trkpt lat="47.32817" lon="-1.47743">
        <ele>14.41</ele>
        <time>2016-12-17T13:17:17Z</time>
      </trkpt>
      <trkpt lat="47.32836" lon="-1.47739">
        <ele>12.44</ele>
        <time>2016-12-17T13:17:21Z</time>
      </trkpt>
      <trkpt lat="47.3286" lon="-1.47737">
        <ele>13.18</ele>
        <time>2016-12-17T13:17:25Z</time>
      </trkpt>
      <trkpt lat="47.32882" lon="-1.47736">
        <ele>12.7</ele>
        <time>2016-12-17T13:17:29Z</time>
      </trkpt>
      <trkpt lat="47.32905" lon="-1.47736">
        <ele>12.77</ele>
        <time>2016-12-17T13:17:33Z</time>
      </trkpt>
      <trkpt lat="47.32925" lon="-1.47735">
        <ele>12.86</ele>
        <time>2016-12-17T13:17:37Z</time>
      </trkpt>
      <trkpt lat="47.32943" lon="-1.47735">
        <ele>11.7</ele>
        <time>2016-12-17T13:17:40Z</time>
      </trkpt>
      <trkpt lat="47.32965" lon="-1.47738">
        <ele>12.4</ele>
        <time>2016-12-17T13:17:44Z</time>
      </trkpt>
      <trkpt lat="47.32987" lon="-1.47743">
        <ele>12.93</ele>
        <time>2016-12-17T13:17:48Z</time>
      </trkpt>
      <trkpt lat="47.33005" lon="-1.47749">
        <ele>13.6</ele>
        <time>2016-12-17T13:17:51Z</time>
      </trkpt>
      <trkpt lat="47.33025" lon="-1.47754">
        <ele>12.59</ele>
        <time>2016-12-17T13:17:55Z</time>
      </trkpt>
      <trkpt lat="47.33043" lon="-1.47758">
        <ele>11.84</ele>
        <time>2016-12-17T13:17:58Z</time>
      </trkpt>
      <trkpt lat="47.33064" lon="-1.47771">
        <ele>12.78</ele>
        <time>2016-12-17T13:18:02Z</time>
      </trkpt>
      <trkpt lat="47.3308" lon="-1.47784">
        <ele>11.66</ele>
        <time>2016-12-17T13:18:05Z</time>
      </trkpt>
      <trkpt lat="47.33098" lon="-1.47782">
        <ele>10.92</ele>
        <time>2016-12-17T13:18:09Z</time>
      </trkpt>
      <trkpt lat="47.33107" lon="-1.47809">
        <ele>10.2</ele>
        <time>2016-12-17T13:18:20Z</time>
      </trkpt>
      <trkpt lat="47.3311" lon="-1.47839">
        <ele>11.1</ele>
        <time>2016-12-17T13:18:23Z</time>
      </trkpt>
      <trkpt lat="47.33112" lon="-1.47868">
        <ele>13.76</ele>
        <time>2016-12-17T13:18:26Z</time>
      </trkpt>
      <trkpt lat="47.33113" lon="-1.47896">
        <ele>16.7</ele>
        <time>2016-12-17T13:18:29Z</time>
      </trkpt>
      <trkpt lat="47.33116" lon="-1.47923">
        <ele>15.84</ele>
        <time>2016-12-17T13:18:32Z</time>
      </trkpt>
      <trkpt lat="47.3312" lon="-1.47952">
        <ele>14.45</ele>
        <time>2016-12-17T13:18:35Z</time>
      </trkpt>
      <trkpt lat="47.33123" lon="-1.4798">
        <ele>12.45</ele>
        <time>2016-12-17T13:18:38Z</time>
      </trkpt>
      <trkpt lat="47.33129" lon="-1.48007">
        <ele>9.98</ele>
        <time>2016-12-17T13:18:41Z</time>
      </trkpt>
      <trkpt lat="47.33135" lon="-1.4804">
        <ele>7.37</ele>
        <time>2016-12-17T13:18:45Z</time>
      </trkpt>
      <trkpt lat="47.33142" lon="-1.48068">
        <ele>7.42</ele>
        <time>2016-12-17T13:18:48Z</time>
      </trkpt>
      <trkpt lat="47.33148" lon="-1.48093">
        <ele>7.87</ele>
        <time>2016-12-17T13:18:51Z</time>
      </trkpt>
      <trkpt lat="47.33157" lon="-1.48118">
        <ele>7.7</ele>
        <time>2016-12-17T13:18:54Z</time>
      </trkpt>
      <trkpt lat="47.33169" lon="-1.48148">
        <ele>8.09</ele>
        <time>2016-12-17T13:18:58Z</time>
      </trkpt>
      <trkpt lat="47.33178" lon="-1.48172">
        <ele>6.72</ele>
        <time>2016-12-17T13:19:01Z</time>
      </trkpt>
      <trkpt lat="47.33187" lon="-1.48197">
        <ele>5.4</ele>
        <time>2016-12-17T13:19:04Z</time>
      </trkpt>
      <trkpt lat="47.33198" lon="-1.48224">
        <ele>3.25</ele>
        <time>2016-12-17T13:19:07Z</time>
      </trkpt>
      <trkpt lat="47.33209" lon="-1.48255">
        <ele>3.01</ele>
        <time>2016-12-17T13:19:11Z</time>
      </trkpt>
      <trkpt lat="47.33218" lon="-1.4828">
        <ele>3.04</ele>
        <time>2016-12-17T13:19:14Z</time>
      </trkpt>
      <trkpt lat="47.33227" lon="-1.48303">
        <ele>3.82</ele>
        <time>2016-12-17T13:19:17Z</time>
      </trkpt>
      <trkpt lat="47.33236" lon="-1.48328">
        <ele>4.74</ele>
        <time>2016-12-17T13:19:20Z</time>
      </trkpt>
      <trkpt lat="47.33245" lon="-1.48352">
        <ele>6.64</ele>
        <time>2016-12-17T13:19:23Z</time>
      </trkpt>
      <trkpt lat="47.33254" lon="-1.48377">
        <ele>8.11</ele>
        <time>2016-12-17T13:19:30Z</time>
      </trkpt>
      <trkpt lat="47.33263" lon="-1.484">
        <ele>7.06</ele>
        <time>2016-12-17T13:19:34Z</time>
      </trkpt>
      <trkpt lat="47.33272" lon="-1.48425">
        <ele>6.89</ele>
        <time>2016-12-17T13:19:37Z</time>
      </trkpt>
      <trkpt lat="47.33284" lon="-1.48455">
        <ele>7.26</ele>
        <time>2016-12-17T13:19:41Z</time>
      </trkpt>
      <trkpt lat="47.33297" lon="-1.48484">
        <ele>5.75</ele>
        <time>2016-12-17T13:19:45Z</time>
      </trkpt>
      <trkpt lat="47.33309" lon="-1.48513">
        <ele>4.74</ele>
        <time>2016-12-17T13:19:49Z</time>
      </trkpt>
      <trkpt lat="47.33319" lon="-1.48536">
        <ele>3.73</ele>
        <time>2016-12-17T13:19:52Z</time>
      </trkpt>
      <trkpt lat="47.33331" lon="-1.48564">
        <ele>1.9</ele>
        <time>2016-12-17T13:19:56Z</time>
      </trkpt>
      <trkpt lat="47.33347" lon="-1.48589">
        <ele>1.67</ele>
        <time>2016-12-17T13:20:00Z</time>
      </trkpt>
      <trkpt lat="47.33361" lon="-1.4861">
        <ele>4.17</ele>
        <time>2016-12-17T13:20:03Z</time>
      </trkpt>
      <trkpt lat="47.33373" lon="-1.4863">
        <ele>5.91</ele>
        <time>2016-12-17T13:20:06Z</time>
      </trkpt>
      <trkpt lat="47.33381" lon="-1.48654">
        <ele>7.7</ele>
        <time>2016-12-17T13:20:09Z</time>
      </trkpt>
      <trkpt lat="47.33384" lon="-1.48682">
        <ele>6.92</ele>
        <time>2016-12-17T13:20:12Z</time>
      </trkpt>
      <trkpt lat="47.33386" lon="-1.4871">
        <ele>8.47</ele>
        <time>2016-12-17T13:20:15Z</time>
      </trkpt>
      <trkpt lat="47.33388" lon="-1.48738">
        <ele>9.14</ele>
        <time>2016-12-17T13:20:18Z</time>
      </trkpt>
      <trkpt lat="47.33391" lon="-1.48772">
        <ele>7.72</ele>
        <time>2016-12-17T13:20:22Z</time>
      </trkpt>
      <trkpt lat="47.33393" lon="-1.48802">
        <ele>8.82</ele>
        <time>2016-12-17T13:20:26Z</time>
      </trkpt>
      <trkpt lat="47.33396" lon="-1.48835">
        <ele>8.3</ele>
        <time>2016-12-17T13:20:30Z</time>
      </trkpt>
      <trkpt lat="47.33399" lon="-1.48865">
        <ele>11.43</ele>
        <time>2016-12-17T13:20:34Z</time>
      </trkpt>
      <trkpt lat="47.33402" lon="-1.48892">
        <ele>12.67</ele>
        <time>2016-12-17T13:20:37Z</time>
      </trkpt>
      <trkpt lat="47.33404" lon="-1.48922">
        <ele>11.96</ele>
        <time>2016-12-17T13:20:40Z</time>
      </trkpt>
      <trkpt lat="47.33406" lon="-1.4895">
        <ele>14.07</ele>
        <time>2016-12-17T13:20:43Z</time>
      </trkpt>
      <trkpt lat="47.33407" lon="-1.48977">
        <ele>12.56</ele>
        <time>2016-12-17T13:20:46Z</time>
      </trkpt>
      <trkpt lat="47.33411" lon="-1.49007">
        <ele>10.87</ele>
        <time>2016-12-17T13:20:49Z</time>
      </trkpt>
      <trkpt lat="47.33417" lon="-1.49035">
        <ele>10.09</ele>
        <time>2016-12-17T13:20:52Z</time>
      </trkpt>
      <trkpt lat="47.33426" lon="-1.4906">
        <ele>8.99</ele>
        <time>2016-12-17T13:20:55Z</time>
      </trkpt>
      <trkpt lat="47.33441" lon="-1.4909">
        <ele>8.49</ele>
        <time>2016-12-17T13:20:59Z</time>
      </trkpt>
      <trkpt lat="47.33453" lon="-1.49112">
        <ele>8.15</ele>
        <time>2016-12-17T13:21:02Z</time>
      </trkpt>
      <trkpt lat="47.33465" lon="-1.49134">
        <ele>8.46</ele>
        <time>2016-12-17T13:21:05Z</time>
      </trkpt>
      <trkpt lat="47.33476" lon="-1.49157">
        <ele>8.29</ele>
        <time>2016-12-17T13:21:08Z</time>
      </trkpt>
      <trkpt lat="47.33488" lon="-1.49181">
        <ele>7.91</ele>
        <time>2016-12-17T13:21:11Z</time>
      </trkpt>
      <trkpt lat="47.335" lon="-1.49207">
        <ele>8.62</ele>
        <time>2016-12-17T13:21:14Z</time>
      </trkpt>
      <trkpt lat="47.33512" lon="-1.49231">
        <ele>8.29</ele>
        <time>2016-12-17T13:21:17Z</time>
      </trkpt>
      <trkpt lat="47.33523" lon="-1.49255">
        <ele>8.42</ele>
        <time>2016-12-17T13:21:20Z</time>
      </trkpt>
      <trkpt lat="47.33534" lon="-1.49278">
        <ele>8.45</ele>
        <time>2016-12-17T13:21:23Z</time>
      </trkpt>
      <trkpt lat="47.33546" lon="-1.49304">
        <ele>8.46</ele>
        <time>2016-12-17T13:21:26Z</time>
      </trkpt>
      <trkpt lat="47.33558" lon="-1.49328">
        <ele>9.92</ele>
        <time>2016-12-17T13:21:29Z</time>
      </trkpt>
      <trkpt lat="47.33568" lon="-1.49351">
        <ele>8.55</ele>
        <time>2016-12-17T13:21:32Z</time>
      </trkpt>
      <trkpt lat="47.33579" lon="-1.49376">
        <ele>9.67</ele>
        <time>2016-12-17T13:21:35Z</time>
      </trkpt>
      <trkpt lat="47.33591" lon="-1.494">
        <ele>8.63</ele>
        <time>2016-12-17T13:21:38Z</time>
      </trkpt>
      <trkpt lat="47.33604" lon="-1.49427">
        <ele>6.75</ele>
        <time>2016-12-17T13:21:41Z</time>
      </trkpt>
      <trkpt lat="47.33615" lon="-1.49449">
        <ele>6.03</ele>
        <time>2016-12-17T13:21:44Z</time>
      </trkpt>
      <trkpt lat="47.33625" lon="-1.49476">
        <ele>7.12</ele>
        <time>2016-12-17T13:21:47Z</time>
      </trkpt>
      <trkpt lat="47.33633" lon="-1.49502">
        <ele>6.48</ele>
        <time>2016-12-17T13:21:50Z</time>
      </trkpt>
      <trkpt lat="47.3364" lon="-1.49534">
        <ele>8.33</ele>
        <time>2016-12-17T13:21:54Z</time>
      </trkpt>
      <trkpt lat="47.33645" lon="-1.49567">
        <ele>9.1</ele>
        <time>2016-12-17T13:21:57Z</time>
      </trkpt>
      <trkpt lat="47.33645" lon="-1.49595">
        <ele>8.81</ele>
        <time>2016-12-17T13:22:00Z</time>
      </trkpt>
      <trkpt lat="47.33643" lon="-1.49625">
        <ele>10.75</ele>
        <time>2016-12-17T13:22:03Z</time>
      </trkpt>
      <trkpt lat="47.33642" lon="-1.49658">
        <ele>11.2</ele>
        <time>2016-12-17T13:22:06Z</time>
      </trkpt>
      <trkpt lat="47.33644" lon="-1.49684">
        <ele>11.16</ele>
        <time>2016-12-17T13:22:09Z</time>
      </trkpt>
      <trkpt lat="47.33648" lon="-1.4972">
        <ele>7.06</ele>
        <time>2016-12-17T13:22:13Z</time>
      </trkpt>
      <trkpt lat="47.33652" lon="-1.49751">
        <ele>5.45</ele>
        <time>2016-12-17T13:22:16Z</time>
      </trkpt>
      <trkpt lat="47.33655" lon="-1.49779">
        <ele>4.39</ele>
        <time>2016-12-17T13:22:19Z</time>
      </trkpt>
      <trkpt lat="47.33658" lon="-1.49805">
        <ele>5.52</ele>
        <time>2016-12-17T13:22:22Z</time>
      </trkpt>
      <trkpt lat="47.33663" lon="-1.49839">
        <ele>8.81</ele>
        <time>2016-12-17T13:22:26Z</time>
      </trkpt>
      <trkpt lat="47.33672" lon="-1.49863">
        <ele>9.73</ele>
        <time>2016-12-17T13:22:30Z</time>
      </trkpt>
      <trkpt lat="47.33687" lon="-1.49887">
        <ele>11.03</ele>
        <time>2016-12-17T13:22:34Z</time>
      </trkpt>
      <trkpt lat="47.33705" lon="-1.49907">
        <ele>9.43</ele>
        <time>2016-12-17T13:22:38Z</time>
      </trkpt>
      <trkpt lat="47.33722" lon="-1.49925">
        <ele>9.42</ele>
        <time>2016-12-17T13:22:42Z</time>
      </trkpt>
      <trkpt lat="47.33735" lon="-1.49953">
        <ele>11.46</ele>
        <time>2016-12-17T13:22:46Z</time>
      </trkpt>
      <trkpt lat="47.33743" lon="-1.49984">
        <ele>10.1</ele>
        <time>2016-12-17T13:22:50Z</time>
      </trkpt>
      <trkpt lat="47.33749" lon="-1.5001">
        <ele>7.28</ele>
        <time>2016-12-17T13:22:53Z</time>
      </trkpt>
      <trkpt lat="47.33755" lon="-1.50039">
        <ele>10.18</ele>
        <time>2016-12-17T13:22:57Z</time>
      </trkpt>
      <trkpt lat="47.33758" lon="-1.50066">
        <ele>13.38</ele>
        <time>2016-12-17T13:23:00Z</time>
      </trkpt>
      <trkpt lat="47.33761" lon="-1.50101">
        <ele>17.57</ele>
        <time>2016-12-17T13:23:04Z</time>
      </trkpt>
      <trkpt lat="47.33761" lon="-1.5013">
        <ele>15.9</ele>
        <time>2016-12-17T13:23:07Z</time>
      </trkpt>
      <trkpt lat="47.33763" lon="-1.50158">
        <ele>10.09</ele>
        <time>2016-12-17T13:23:10Z</time>
      </trkpt>
      <trkpt lat="47.33767" lon="-1.50188">
        <ele>9.2</ele>
        <time>2016-12-17T13:23:13Z</time>
      </trkpt>
      <trkpt lat="47.33771" lon="-1.50216">
        <ele>10.65</ele>
        <time>2016-12-17T13:23:16Z</time>
      </trkpt>
      <trkpt lat="47.33776" lon="-1.50248">
        <ele>9.83</ele>
        <time>2016-12-17T13:23:19Z</time>
      </trkpt>
      <trkpt lat="47.33781" lon="-1.5028">
        <ele>8.96</ele>
        <time>2016-12-17T13:23:22Z</time>
      </trkpt>
      <trkpt lat="47.33786" lon="-1.5031">
        <ele>10.24</ele>
        <time>2016-12-17T13:23:25Z</time>
      </trkpt>
      <trkpt lat="47.33791" lon="-1.5034">
        <ele>9.92</ele>
        <time>2016-12-17T13:23:28Z</time>
      </trkpt>
      <trkpt lat="47.33795" lon="-1.50371">
        <ele>8.06</ele>
        <time>2016-12-17T13:23:31Z</time>
      </trkpt>
      <trkpt lat="47.33794" lon="-1.50404">
        <ele>5.76</ele>
        <time>2016-12-17T13:23:34Z</time>
      </trkpt>
      <trkpt lat="47.33788" lon="-1.50433">
        <ele>6.27</ele>
        <time>2016-12-17T13:23:37Z</time>
      </trkpt>
      <trkpt lat="47.33781" lon="-1.50463">
        <ele>5.76</ele>
        <time>2016-12-17T13:23:40Z</time>
      </trkpt>
      <trkpt lat="47.33774" lon="-1.5049">
        <ele>7.34</ele>
        <time>2016-12-17T13:23:43Z</time>
      </trkpt>
      <trkpt lat="47.33768" lon="-1.5052">
        <ele>9.06</ele>
        <time>2016-12-17T13:23:46Z</time>
      </trkpt>
      <trkpt lat="47.33762" lon="-1.50553">
        <ele>11.67</ele>
        <time>2016-12-17T13:23:49Z</time>
      </trkpt>
      <trkpt lat="47.33755" lon="-1.50584">
        <ele>11.89</ele>
        <time>2016-12-17T13:23:52Z</time>
      </trkpt>
      <trkpt lat="47.33749" lon="-1.50617">
        <ele>11.43</ele>
        <time>2016-12-17T13:23:56Z</time>
      </trkpt>
      <trkpt lat="47.33744" lon="-1.50645">
        <ele>12.43</ele>
        <time>2016-12-17T13:23:59Z</time>
      </trkpt>
      <trkpt lat="47.33738" lon="-1.50676">
        <ele>13.32</ele>
        <time>2016-12-17T13:24:02Z</time>
      </trkpt>
      <trkpt lat="47.3373" lon="-1.50711">
        <ele>13.73</ele>
        <time>2016-12-17T13:24:06Z</time>
      </trkpt>
      <trkpt lat="47.33726" lon="-1.50737">
        <ele>14.08</ele>
        <time>2016-12-17T13:24:09Z</time>
      </trkpt>
      <trkpt lat="47.33721" lon="-1.50764">
        <ele>15.26</ele>
        <time>2016-12-17T13:24:12Z</time>
      </trkpt>
      <trkpt lat="47.33715" lon="-1.50792">
        <ele>15.79</ele>
        <time>2016-12-17T13:24:15Z</time>
      </trkpt>
      <trkpt lat="47.3371" lon="-1.5082">
        <ele>16.48</ele>
        <time>2016-12-17T13:24:18Z</time>
      </trkpt>
      <trkpt lat="47.33705" lon="-1.50848">
        <ele>17.39</ele>
        <time>2016-12-17T13:24:21Z</time>
      </trkpt>
      <trkpt lat="47.33698" lon="-1.50879">
        <ele>17.08</ele>
        <time>2016-12-17T13:24:25Z</time>
      </trkpt>
      <trkpt lat="47.33693" lon="-1.50911">
        <ele>15.28</ele>
        <time>2016-12-17T13:24:29Z</time>
      </trkpt>
      <trkpt lat="47.33689" lon="-1.50939">
        <ele>16.36</ele>
        <time>2016-12-17T13:24:32Z</time>
      </trkpt>
      <trkpt lat="47.33682" lon="-1.50971">
        <ele>13.8</ele>
        <time>2016-12-17T13:24:36Z</time>
      </trkpt>
      <trkpt lat="47.33677" lon="-1.51004">
        <ele>15.15</ele>
        <time>2016-12-17T13:24:40Z</time>
      </trkpt>
      <trkpt lat="47.33671" lon="-1.51038">
        <ele>16.23</ele>
        <time>2016-12-17T13:24:44Z</time>
      </trkpt>
      <trkpt lat="47.33663" lon="-1.51069">
        <ele>15.18</ele>
        <time>2016-12-17T13:24:48Z</time>
      </trkpt>
      <trkpt lat="47.33659" lon="-1.51099">
        <ele>15.54</ele>
        <time>2016-12-17T13:24:52Z</time>
      </trkpt>
      <trkpt lat="47.33654" lon="-1.51125">
        <ele>15.07</ele>
        <time>2016-12-17T13:24:55Z</time>
      </trkpt>
      <trkpt lat="47.33653" lon="-1.51156">
        <ele>14.91</ele>
        <time>2016-12-17T13:24:58Z</time>
      </trkpt>
      <trkpt lat="47.33654" lon="-1.51191">
        <ele>17.05</ele>
        <time>2016-12-17T13:25:02Z</time>
      </trkpt>
      <trkpt lat="47.33657" lon="-1.5122">
        <ele>17.02</ele>
        <time>2016-12-17T13:25:05Z</time>
      </trkpt>
      <trkpt lat="47.33658" lon="-1.51252">
        <ele>15.41</ele>
        <time>2016-12-17T13:25:09Z</time>
      </trkpt>
      <trkpt lat="47.33661" lon="-1.51279">
        <ele>14.99</ele>
        <time>2016-12-17T13:25:12Z</time>
      </trkpt>
      <trkpt lat="47.33665" lon="-1.51308">
        <ele>14.03</ele>
        <time>2016-12-17T13:25:16Z</time>
      </trkpt>
      <trkpt lat="47.3367" lon="-1.51337">
        <ele>17.5</ele>
        <time>2016-12-17T13:25:20Z</time>
      </trkpt>
      <trkpt lat="47.33678" lon="-1.51366">
        <ele>19.94</ele>
        <time>2016-12-17T13:25:24Z</time>
      </trkpt>
      <trkpt lat="47.33685" lon="-1.51397">
        <ele>18.78</ele>
        <time>2016-12-17T13:25:28Z</time>
      </trkpt>
      <trkpt lat="47.33692" lon="-1.51427">
        <ele>20.28</ele>
        <time>2016-12-17T13:25:32Z</time>
      </trkpt>
      <trkpt lat="47.33695" lon="-1.51453">
        <ele>21.02</ele>
        <time>2016-12-17T13:25:36Z</time>
      </trkpt>
      <trkpt lat="47.33697" lon="-1.51486">
        <ele>19.82</ele>
        <time>2016-12-17T13:25:40Z</time>
      </trkpt>
      <trkpt lat="47.337" lon="-1.51522">
        <ele>21.78</ele>
        <time>2016-12-17T13:25:45Z</time>
      </trkpt>
      <trkpt lat="47.33706" lon="-1.51548">
        <ele>22.23</ele>
        <time>2016-12-17T13:25:49Z</time>
      </trkpt>
      <trkpt lat="47.33712" lon="-1.51577">
        <ele>22.47</ele>
        <time>2016-12-17T13:25:53Z</time>
      </trkpt>
      <trkpt lat="47.33722" lon="-1.51607">
        <ele>24.43</ele>
        <time>2016-12-17T13:25:58Z</time>
      </trkpt>
      <trkpt lat="47.33729" lon="-1.51636">
        <ele>24.71</ele>
        <time>2016-12-17T13:26:02Z</time>
      </trkpt>
      <trkpt lat="47.33735" lon="-1.51666">
        <ele>26.82</ele>
        <time>2016-12-17T13:26:06Z</time>
      </trkpt>
      <trkpt lat="47.33739" lon="-1.51693">
        <ele>24.68</ele>
        <time>2016-12-17T13:26:09Z</time>
      </trkpt>
      <trkpt lat="47.33741" lon="-1.51725">
        <ele>25.73</ele>
        <time>2016-12-17T13:26:13Z</time>
      </trkpt>
      <trkpt lat="47.33741" lon="-1.51757">
        <ele>26.16</ele>
        <time>2016-12-17T13:26:17Z</time>
      </trkpt>
      <trkpt lat="47.33741" lon="-1.51785">
        <ele>26.87</ele>
        <time>2016-12-17T13:26:21Z</time>
      </trkpt>
      <trkpt lat="47.33743" lon="-1.51813">
        <ele>28.1</ele>
        <time>2016-12-17T13:26:24Z</time>
      </trkpt>
      <trkpt lat="47.33745" lon="-1.51841">
        <ele>27.72</ele>
        <time>2016-12-17T13:26:27Z</time>
      </trkpt>
      <trkpt lat="47.33747" lon="-1.51876">
        <ele>27.85</ele>
        <time>2016-12-17T13:26:31Z</time>
      </trkpt>
      <trkpt lat="47.33749" lon="-1.51911">
        <ele>25.48</ele>
        <time>2016-12-17T13:26:35Z</time>
      </trkpt>
      <trkpt lat="47.3375" lon="-1.51942">
        <ele>24.92</ele>
        <time>2016-12-17T13:26:39Z</time>
      </trkpt>
      <trkpt lat="47.33753" lon="-1.5197">
        <ele>24.78</ele>
        <time>2016-12-17T13:26:42Z</time>
      </trkpt>
      <trkpt lat="47.33759" lon="-1.51996">
        <ele>23.39</ele>
        <time>2016-12-17T13:26:45Z</time>
      </trkpt>
      <trkpt lat="47.33764" lon="-1.52024">
        <ele>22.71</ele>
        <time>2016-12-17T13:26:48Z</time>
      </trkpt>
      <trkpt lat="47.33766" lon="-1.52052">
        <ele>23.85</ele>
        <time>2016-12-17T13:26:51Z</time>
      </trkpt>
      <trkpt lat="47.33764" lon="-1.52079">
        <ele>23.9</ele>
        <time>2016-12-17T13:26:54Z</time>
      </trkpt>
      <trkpt lat="47.3376" lon="-1.5211">
        <ele>22.58</ele>
        <time>2016-12-17T13:26:57Z</time>
      </trkpt>
      <trkpt lat="47.33756" lon="-1.52145">
        <ele>22.34</ele>
        <time>2016-12-17T13:27:00Z</time>
      </trkpt>
      <trkpt lat="47.33753" lon="-1.52176">
        <ele>19.29</ele>
        <time>2016-12-17T13:27:03Z</time>
      </trkpt>
      <trkpt lat="47.33751" lon="-1.52205">
        <ele>17.48</ele>
        <time>2016-12-17T13:27:06Z</time>
      </trkpt>
      <trkpt lat="47.33747" lon="-1.52232">
        <ele>15.24</ele>
        <time>2016-12-17T13:27:09Z</time>
      </trkpt>
      <trkpt lat="47.33741" lon="-1.52267">
        <ele>15.03</ele>
        <time>2016-12-17T13:27:13Z</time>
      </trkpt>
      <trkpt lat="47.33734" lon="-1.52295">
        <ele>15.3</ele>
        <time>2016-12-17T13:27:16Z</time>
      </trkpt>
      <trkpt lat="47.33727" lon="-1.52327">
        <ele>16.58</ele>
        <time>2016-12-17T13:27:20Z</time>
      </trkpt>
      <trkpt lat="47.33722" lon="-1.52358">
        <ele>19.45</ele>
        <time>2016-12-17T13:27:24Z</time>
      </trkpt>
      <trkpt lat="47.33716" lon="-1.52392">
        <ele>18.04</ele>
        <time>2016-12-17T13:27:27Z</time>
      </trkpt>
      <trkpt lat="47.33708" lon="-1.52428">
        <ele>13.38</ele>
        <time>2016-12-17T13:27:30Z</time>
      </trkpt>
      <trkpt lat="47.33702" lon="-1.52455">
        <ele>9.64</ele>
        <time>2016-12-17T13:27:33Z</time>
      </trkpt>
      <trkpt lat="47.33702" lon="-1.52482">
        <ele>7.43</ele>
        <time>2016-12-17T13:27:37Z</time>
      </trkpt>
      <trkpt lat="47.33716" lon="-1.52504">
        <ele>8.46</ele>
        <time>2016-12-17T13:27:40Z</time>
      </trkpt>
      <trkpt lat="47.33735" lon="-1.52518">
        <ele>8.88</ele>
        <time>2016-12-17T13:27:43Z</time>
      </trkpt>
      <trkpt lat="47.33753" lon="-1.52526">
        <ele>11.78</ele>
        <time>2016-12-17T13:27:46Z</time>
      </trkpt>
      <trkpt lat="47.33772" lon="-1.52534">
        <ele>13.68</ele>
        <time>2016-12-17T13:27:49Z</time>
      </trkpt>
      <trkpt lat="47.33794" lon="-1.52543">
        <ele>15.4</ele>
        <time>2016-12-17T13:27:53Z</time>
      </trkpt>
      <trkpt lat="47.33813" lon="-1.52552">
        <ele>14.38</ele>
        <time>2016-12-17T13:27:56Z</time>
      </trkpt>
      <trkpt lat="47.33834" lon="-1.5256">
        <ele>12.73</ele>
        <time>2016-12-17T13:27:59Z</time>
      </trkpt>
      <trkpt lat="47.33855" lon="-1.52566">
        <ele>11</ele>
        <time>2016-12-17T13:28:02Z</time>
      </trkpt>
      <trkpt lat="47.33876" lon="-1.52574">
        <ele>9.49</ele>
        <time>2016-12-17T13:28:05Z</time>
      </trkpt>
      <trkpt lat="47.33894" lon="-1.5258">
        <ele>8.21</ele>
        <time>2016-12-17T13:28:08Z</time>
      </trkpt>
      <trkpt lat="47.33915" lon="-1.52588">
        <ele>7.66</ele>
        <time>2016-12-17T13:28:11Z</time>
      </trkpt>
      <trkpt lat="47.33934" lon="-1.52596">
        <ele>8.01</ele>
        <time>2016-12-17T13:28:14Z</time>
      </trkpt>
      <trkpt lat="47.33954" lon="-1.52605">
        <ele>9.58</ele>
        <time>2016-12-17T13:28:18Z</time>
      </trkpt>
      <trkpt lat="47.33974" lon="-1.52614">
        <ele>10.51</ele>
        <time>2016-12-17T13:28:21Z</time>
      </trkpt>
      <trkpt lat="47.33997" lon="-1.52624">
        <ele>12.84</ele>
        <time>2016-12-17T13:28:25Z</time>
      </trkpt>
      <trkpt lat="47.34014" lon="-1.52631">
        <ele>14.74</ele>
        <time>2016-12-17T13:28:28Z</time>
      </trkpt>
      <trkpt lat="47.34035" lon="-1.52641">
        <ele>19.22</ele>
        <time>2016-12-17T13:28:32Z</time>
      </trkpt>
      <trkpt lat="47.34055" lon="-1.52647">
        <ele>20.13</ele>
        <time>2016-12-17T13:28:36Z</time>
      </trkpt>
      <trkpt lat="47.34055" lon="-1.52678">
        <ele>20.83</ele>
        <time>2016-12-17T13:28:40Z</time>
      </trkpt>
      <trkpt lat="47.34047" lon="-1.52709">
        <ele>17.2</ele>
        <time>2016-12-17T13:28:44Z</time>
      </trkpt>
      <trkpt lat="47.34041" lon="-1.52739">
        <ele>13.13</ele>
        <time>2016-12-17T13:28:47Z</time>
      </trkpt>
      <trkpt lat="47.34036" lon="-1.52771">
        <ele>8.59</ele>
        <time>2016-12-17T13:28:50Z</time>
      </trkpt>
      <trkpt lat="47.34029" lon="-1.52798">
        <ele>6.39</ele>
        <time>2016-12-17T13:28:52Z</time>
      </trkpt>
      <trkpt lat="47.34019" lon="-1.52829">
        <ele>3.68</ele>
        <time>2016-12-17T13:28:55Z</time>
      </trkpt>
      <trkpt lat="47.34015" lon="-1.52861">
        <ele>2.46</ele>
        <time>2016-12-17T13:28:59Z</time>
      </trkpt>
      <trkpt lat="47.34013" lon="-1.52888">
        <ele>6.33</ele>
        <time>2016-12-17T13:29:03Z</time>
      </trkpt>
      <trkpt lat="47.34007" lon="-1.52923">
        <ele>9.11</ele>
        <time>2016-12-17T13:29:07Z</time>
      </trkpt>
      <trkpt lat="47.34003" lon="-1.5295">
        <ele>9.54</ele>
        <time>2016-12-17T13:29:10Z</time>
      </trkpt>
      <trkpt lat="47.33999" lon="-1.52981">
        <ele>10.41</ele>
        <time>2016-12-17T13:29:13Z</time>
      </trkpt>
      <trkpt lat="47.33997" lon="-1.53008">
        <ele>9.11</ele>
        <time>2016-12-17T13:29:16Z</time>
      </trkpt>
      <trkpt lat="47.33995" lon="-1.53035">
        <ele>7.97</ele>
        <time>2016-12-17T13:29:19Z</time>
      </trkpt>
      <trkpt lat="47.33993" lon="-1.53064">
        <ele>7.15</ele>
        <time>2016-12-17T13:29:22Z</time>
      </trkpt>
      <trkpt lat="47.33996" lon="-1.53092">
        <ele>7.49</ele>
        <time>2016-12-17T13:29:25Z</time>
      </trkpt>
      <trkpt lat="47.34001" lon="-1.53124">
        <ele>7.01</ele>
        <time>2016-12-17T13:29:29Z</time>
      </trkpt>
      <trkpt lat="47.33992" lon="-1.53149">
        <ele>7.25</ele>
        <time>2016-12-17T13:29:32Z</time>
      </trkpt>
      <trkpt lat="47.33982" lon="-1.53174">
        <ele>6.25</ele>
        <time>2016-12-17T13:29:35Z</time>
      </trkpt>
      <trkpt lat="47.33967" lon="-1.53201">
        <ele>5.41</ele>
        <time>2016-12-17T13:29:39Z</time>
      </trkpt>
      <trkpt lat="47.33949" lon="-1.53221">
        <ele>5.34</ele>
        <time>2016-12-17T13:29:43Z</time>
      </trkpt>
      <trkpt lat="47.33934" lon="-1.53238">
        <ele>4.69</ele>
        <time>2016-12-17T13:29:46Z</time>
      </trkpt>
      <trkpt lat="47.3392" lon="-1.53256">
        <ele>5.9</ele>
        <time>2016-12-17T13:29:49Z</time>
      </trkpt>
      <trkpt lat="47.33905" lon="-1.53275">
        <ele>7.04</ele>
        <time>2016-12-17T13:29:52Z</time>
      </trkpt>
      <trkpt lat="47.33889" lon="-1.53293">
        <ele>5.87</ele>
        <time>2016-12-17T13:29:55Z</time>
      </trkpt>
      <trkpt lat="47.33871" lon="-1.53312">
        <ele>5</ele>
        <time>2016-12-17T13:29:59Z</time>
      </trkpt>
      <trkpt lat="47.33857" lon="-1.53329">
        <ele>5.9</ele>
        <time>2016-12-17T13:30:02Z</time>
      </trkpt>
      <trkpt lat="47.33843" lon="-1.53347">
        <ele>6.34</ele>
        <time>2016-12-17T13:30:05Z</time>
      </trkpt>
      <trkpt lat="47.33825" lon="-1.53368">
        <ele>4.03</ele>
        <time>2016-12-17T13:30:09Z</time>
      </trkpt>
      <trkpt lat="47.33807" lon="-1.53386">
        <ele>7.26</ele>
        <time>2016-12-17T13:30:13Z</time>
      </trkpt>
      <trkpt lat="47.33791" lon="-1.534">
        <ele>8.87</ele>
        <time>2016-12-17T13:30:16Z</time>
      </trkpt>
      <trkpt lat="47.33775" lon="-1.53415">
        <ele>10.66</ele>
        <time>2016-12-17T13:30:19Z</time>
      </trkpt>
      <trkpt lat="47.33756" lon="-1.53431">
        <ele>11.04</ele>
        <time>2016-12-17T13:30:22Z</time>
      </trkpt>
      <trkpt lat="47.33737" lon="-1.53447">
        <ele>10.97</ele>
        <time>2016-12-17T13:30:25Z</time>
      </trkpt>
      <trkpt lat="47.33716" lon="-1.53464">
        <ele>8.87</ele>
        <time>2016-12-17T13:30:28Z</time>
      </trkpt>
      <trkpt lat="47.33695" lon="-1.53478">
        <ele>6.07</ele>
        <time>2016-12-17T13:30:31Z</time>
      </trkpt>
      <trkpt lat="47.33675" lon="-1.53486">
        <ele>5.01</ele>
        <time>2016-12-17T13:30:34Z</time>
      </trkpt>
      <trkpt lat="47.33654" lon="-1.53491">
        <ele>4.82</ele>
        <time>2016-12-17T13:30:37Z</time>
      </trkpt>
      <trkpt lat="47.3363" lon="-1.53492">
        <ele>5.64</ele>
        <time>2016-12-17T13:30:41Z</time>
      </trkpt>
      <trkpt lat="47.33606" lon="-1.53491">
        <ele>6.41</ele>
        <time>2016-12-17T13:30:45Z</time>
      </trkpt>
      <trkpt lat="47.33587" lon="-1.5349">
        <ele>7.85</ele>
        <time>2016-12-17T13:30:48Z</time>
      </trkpt>
      <trkpt lat="47.33567" lon="-1.53489">
        <ele>8.76</ele>
        <time>2016-12-17T13:30:51Z</time>
      </trkpt>
      <trkpt lat="47.33548" lon="-1.53488">
        <ele>8.27</ele>
        <time>2016-12-17T13:30:54Z</time>
      </trkpt>
      <trkpt lat="47.3353" lon="-1.53488">
        <ele>7.74</ele>
        <time>2016-12-17T13:30:57Z</time>
      </trkpt>
      <trkpt lat="47.33511" lon="-1.53489">
        <ele>9.22</ele>
        <time>2016-12-17T13:31:00Z</time>
      </trkpt>
      <trkpt lat="47.33493" lon="-1.5349">
        <ele>9.88</ele>
        <time>2016-12-17T13:31:03Z</time>
      </trkpt>
      <trkpt lat="47.3347" lon="-1.53491">
        <ele>8.82</ele>
        <time>2016-12-17T13:31:07Z</time>
      </trkpt>
      <trkpt lat="47.3345" lon="-1.53495">
        <ele>9.96</ele>
        <time>2016-12-17T13:31:11Z</time>
      </trkpt>
      <trkpt lat="47.33431" lon="-1.53499">
        <ele>11.29</ele>
        <time>2016-12-17T13:31:14Z</time>
      </trkpt>
      <trkpt lat="47.33409" lon="-1.53503">
        <ele>12.11</ele>
        <time>2016-12-17T13:31:18Z</time>
      </trkpt>
      <trkpt lat="47.33386" lon="-1.53509">
        <ele>14.23</ele>
        <time>2016-12-17T13:31:22Z</time>
      </trkpt>
      <trkpt lat="47.33368" lon="-1.53515">
        <ele>14.96</ele>
        <time>2016-12-17T13:31:26Z</time>
      </trkpt>
      <trkpt lat="47.3335" lon="-1.53523">
        <ele>15.72</ele>
        <time>2016-12-17T13:31:30Z</time>
      </trkpt>
      <trkpt lat="47.33331" lon="-1.53531">
        <ele>16.27</ele>
        <time>2016-12-17T13:31:34Z</time>
      </trkpt>
      <trkpt lat="47.3331" lon="-1.53539">
        <ele>15.98</ele>
        <time>2016-12-17T13:31:38Z</time>
      </trkpt>
      <trkpt lat="47.33293" lon="-1.53545">
        <ele>17.84</ele>
        <time>2016-12-17T13:31:41Z</time>
      </trkpt>
      <trkpt lat="47.33269" lon="-1.53551">
        <ele>17.24</ele>
        <time>2016-12-17T13:31:45Z</time>
      </trkpt>
      <trkpt lat="47.33252" lon="-1.53542">
        <ele>15.77</ele>
        <time>2016-12-17T13:31:49Z</time>
      </trkpt>
      <trkpt lat="47.33248" lon="-1.53512">
        <ele>16.72</ele>
        <time>2016-12-17T13:31:52Z</time>
      </trkpt>
      <trkpt lat="47.33227" lon="-1.53495">
        <ele>19.3</ele>
        <time>2016-12-17T13:31:57Z</time>
      </trkpt>
      <trkpt lat="47.33207" lon="-1.53487">
        <ele>21.33</ele>
        <time>2016-12-17T13:32:00Z</time>
      </trkpt>
      <trkpt lat="47.3319" lon="-1.53478">
        <ele>24.17</ele>
        <time>2016-12-17T13:32:03Z</time>
      </trkpt>
      <trkpt lat="47.33171" lon="-1.53474">
        <ele>25.21</ele>
        <time>2016-12-17T13:32:06Z</time>
      </trkpt>
      <trkpt lat="47.33153" lon="-1.5347">
        <ele>25.34</ele>
        <time>2016-12-17T13:32:09Z</time>
      </trkpt>
      <trkpt lat="47.3313" lon="-1.53462">
        <ele>25.51</ele>
        <time>2016-12-17T13:32:13Z</time>
      </trkpt>
      <trkpt lat="47.33111" lon="-1.53463">
        <ele>24.58</ele>
        <time>2016-12-17T13:32:16Z</time>
      </trkpt>
      <trkpt lat="47.33088" lon="-1.53466">
        <ele>23.29</ele>
        <time>2016-12-17T13:32:19Z</time>
      </trkpt>
      <trkpt lat="47.33065" lon="-1.53469">
        <ele>19.81</ele>
        <time>2016-12-17T13:32:22Z</time>
      </trkpt>
      <trkpt lat="47.33043" lon="-1.53476">
        <ele>14.18</ele>
        <time>2016-12-17T13:32:25Z</time>
      </trkpt>
      <trkpt lat="47.33023" lon="-1.53481">
        <ele>10.62</ele>
        <time>2016-12-17T13:32:29Z</time>
      </trkpt>
      <trkpt lat="47.33006" lon="-1.5349">
        <ele>8.26</ele>
        <time>2016-12-17T13:32:33Z</time>
      </trkpt>
      <trkpt lat="47.32987" lon="-1.53504">
        <ele>4.19</ele>
        <time>2016-12-17T13:32:36Z</time>
      </trkpt>
      <trkpt lat="47.32969" lon="-1.53521">
        <ele>4</ele>
        <time>2016-12-17T13:32:40Z</time>
      </trkpt>
      <trkpt lat="47.32949" lon="-1.5353">
        <ele>5.09</ele>
        <time>2016-12-17T13:32:44Z</time>
      </trkpt>
      <trkpt lat="47.32927" lon="-1.53538">
        <ele>6.96</ele>
        <time>2016-12-17T13:32:48Z</time>
      </trkpt>
      <trkpt lat="47.32908" lon="-1.53546">
        <ele>7.02</ele>
        <time>2016-12-17T13:32:51Z</time>
      </trkpt>
      <trkpt lat="47.32891" lon="-1.53553">
        <ele>7.72</ele>
        <time>2016-12-17T13:32:54Z</time>
      </trkpt>
      <trkpt lat="47.32873" lon="-1.53563">
        <ele>7.43</ele>
        <time>2016-12-17T13:32:57Z</time>
      </trkpt>
      <trkpt lat="47.32855" lon="-1.53578">
        <ele>9.32</ele>
        <time>2016-12-17T13:33:01Z</time>
      </trkpt>
      <trkpt lat="47.32839" lon="-1.53595">
        <ele>12.93</ele>
        <time>2016-12-17T13:33:05Z</time>
      </trkpt>
      <trkpt lat="47.32825" lon="-1.53612">
        <ele>14.22</ele>
        <time>2016-12-17T13:33:09Z</time>
      </trkpt>
      <trkpt lat="47.32836" lon="-1.53641">
        <ele>12.97</ele>
        <time>2016-12-17T13:33:14Z</time>
      </trkpt>
      <trkpt lat="47.32852" lon="-1.53662">
        <ele>13.67</ele>
        <time>2016-12-17T13:33:18Z</time>
      </trkpt>
      <trkpt lat="47.32832" lon="-1.53674">
        <ele>11.38</ele>
        <time>2016-12-17T13:33:25Z</time>
      </trkpt>
      <trkpt lat="47.32813" lon="-1.53678">
        <ele>10.03</ele>
        <time>2016-12-17T13:33:29Z</time>
      </trkpt>
      <trkpt lat="47.32791" lon="-1.5368">
        <ele>11.64</ele>
        <time>2016-12-17T13:33:33Z</time>
      </trkpt>
      <trkpt lat="47.32772" lon="-1.53684">
        <ele>11.56</ele>
        <time>2016-12-17T13:33:37Z</time>
      </trkpt>
      <trkpt lat="47.32754" lon="-1.53686">
        <ele>13.38</ele>
        <time>2016-12-17T13:33:41Z</time>
      </trkpt>
      <trkpt lat="47.32735" lon="-1.53693">
        <ele>12.61</ele>
        <time>2016-12-17T13:33:45Z</time>
      </trkpt>
      <trkpt lat="47.32716" lon="-1.53695">
        <ele>17.08</ele>
        <time>2016-12-17T13:33:50Z</time>
      </trkpt>
      <trkpt lat="47.32695" lon="-1.53694">
        <ele>14.72</ele>
        <time>2016-12-17T13:33:54Z</time>
      </trkpt>
      <trkpt lat="47.32676" lon="-1.53693">
        <ele>14.12</ele>
        <time>2016-12-17T13:33:58Z</time>
      </trkpt>
      <trkpt lat="47.32655" lon="-1.53695">
        <ele>17.88</ele>
        <time>2016-12-17T13:34:05Z</time>
      </trkpt>
      <trkpt lat="47.32636" lon="-1.53695">
        <ele>24.72</ele>
        <time>2016-12-17T13:34:10Z</time>
      </trkpt>
      <trkpt lat="47.32618" lon="-1.53691">
        <ele>31.62</ele>
        <time>2016-12-17T13:34:14Z</time>
      </trkpt>
      <trkpt lat="47.32599" lon="-1.53685">
        <ele>34.33</ele>
        <time>2016-12-17T13:34:18Z</time>
      </trkpt>
      <trkpt lat="47.32579" lon="-1.53676">
        <ele>34.91</ele>
        <time>2016-12-17T13:34:22Z</time>
      </trkpt>
      <trkpt lat="47.3256" lon="-1.53667">
        <ele>34.39</ele>
        <time>2016-12-17T13:34:26Z</time>
      </trkpt>
      <trkpt lat="47.32542" lon="-1.53658">
        <ele>34.5</ele>
        <time>2016-12-17T13:34:30Z</time>
      </trkpt>
      <trkpt lat="47.32521" lon="-1.53648">
        <ele>34.82</ele>
        <time>2016-12-17T13:34:34Z</time>
      </trkpt>
      <trkpt lat="47.32499" lon="-1.53638">
        <ele>35.42</ele>
        <time>2016-12-17T13:34:38Z</time>
      </trkpt>
      <trkpt lat="47.32477" lon="-1.53627">
        <ele>35.96</ele>
        <time>2016-12-17T13:34:42Z</time>
      </trkpt>
      <trkpt lat="47.32458" lon="-1.53618">
        <ele>35.95</ele>
        <time>2016-12-17T13:34:45Z</time>
      </trkpt>
      <trkpt lat="47.32436" lon="-1.53605">
        <ele>34.68</ele>
        <time>2016-12-17T13:34:49Z</time>
      </trkpt>
      <trkpt lat="47.32416" lon="-1.53596">
        <ele>34.04</ele>
        <time>2016-12-17T13:34:52Z</time>
      </trkpt>
      <trkpt lat="47.32396" lon="-1.53585">
        <ele>32.69</ele>
        <time>2016-12-17T13:34:55Z</time>
      </trkpt>
      <trkpt lat="47.32375" lon="-1.53573">
        <ele>28.63</ele>
        <time>2016-12-17T13:34:58Z</time>
      </trkpt>
      <trkpt lat="47.32352" lon="-1.53562">
        <ele>25.15</ele>
        <time>2016-12-17T13:35:01Z</time>
      </trkpt>
      <trkpt lat="47.32331" lon="-1.53552">
        <ele>19.69</ele>
        <time>2016-12-17T13:35:04Z</time>
      </trkpt>
      <trkpt lat="47.32311" lon="-1.5354">
        <ele>17.31</ele>
        <time>2016-12-17T13:35:07Z</time>
      </trkpt>
      <trkpt lat="47.32287" lon="-1.53525">
        <ele>16.03</ele>
        <time>2016-12-17T13:35:10Z</time>
      </trkpt>
      <trkpt lat="47.3227" lon="-1.53516">
        <ele>14.22</ele>
        <time>2016-12-17T13:35:12Z</time>
      </trkpt>
      <trkpt lat="47.3225" lon="-1.53502">
        <ele>12.28</ele>
        <time>2016-12-17T13:35:15Z</time>
      </trkpt>
      <trkpt lat="47.32245" lon="-1.53528">
        <ele>10.77</ele>
        <time>2016-12-17T13:35:20Z</time>
      </trkpt>
      <trkpt lat="47.32246" lon="-1.53558">
        <ele>10.39</ele>
        <time>2016-12-17T13:35:23Z</time>
      </trkpt>
      <trkpt lat="47.32235" lon="-1.53585">
        <ele>7.48</ele>
        <time>2016-12-17T13:35:27Z</time>
      </trkpt>
      <trkpt lat="47.3221" lon="-1.53583">
        <ele>5.97</ele>
        <time>2016-12-17T13:35:31Z</time>
      </trkpt>
      <trkpt lat="47.3219" lon="-1.53583">
        <ele>5.81</ele>
        <time>2016-12-17T13:35:34Z</time>
      </trkpt>
      <trkpt lat="47.32171" lon="-1.53582">
        <ele>5.03</ele>
        <time>2016-12-17T13:35:37Z</time>
      </trkpt>
      <trkpt lat="47.32147" lon="-1.53583">
        <ele>6.27</ele>
        <time>2016-12-17T13:35:41Z</time>
      </trkpt>
      <trkpt lat="47.32125" lon="-1.53584">
        <ele>5.6</ele>
        <time>2016-12-17T13:35:44Z</time>
      </trkpt>
      <trkpt lat="47.32106" lon="-1.53587">
        <ele>5.31</ele>
        <time>2016-12-17T13:35:47Z</time>
      </trkpt>
      <trkpt lat="47.32087" lon="-1.53597">
        <ele>5.05</ele>
        <time>2016-12-17T13:35:50Z</time>
      </trkpt>
      <trkpt lat="47.32072" lon="-1.53612">
        <ele>5.8</ele>
        <time>2016-12-17T13:35:53Z</time>
      </trkpt>
      <trkpt lat="47.32062" lon="-1.53637">
        <ele>4.8</ele>
        <time>2016-12-17T13:35:56Z</time>
      </trkpt>
      <trkpt lat="47.32059" lon="-1.53666">
        <ele>4.7</ele>
        <time>2016-12-17T13:35:59Z</time>
      </trkpt>
      <trkpt lat="47.32051" lon="-1.53695">
        <ele>4.59</ele>
        <time>2016-12-17T13:36:02Z</time>
      </trkpt>
      <trkpt lat="47.32036" lon="-1.53719">
        <ele>4.29</ele>
        <time>2016-12-17T13:36:05Z</time>
      </trkpt>
      <trkpt lat="47.32015" lon="-1.53733">
        <ele>5</ele>
        <time>2016-12-17T13:36:08Z</time>
      </trkpt>
      <trkpt lat="47.31997" lon="-1.53746">
        <ele>6.05</ele>
        <time>2016-12-17T13:36:11Z</time>
      </trkpt>
      <trkpt lat="47.31982" lon="-1.53766">
        <ele>6.91</ele>
        <time>2016-12-17T13:36:14Z</time>
      </trkpt>
      <trkpt lat="47.31965" lon="-1.53786">
        <ele>6.77</ele>
        <time>2016-12-17T13:36:17Z</time>
      </trkpt>
      <trkpt lat="47.31954" lon="-1.53812">
        <ele>4.5</ele>
        <time>2016-12-17T13:36:20Z</time>
      </trkpt>
      <trkpt lat="47.31943" lon="-1.53838">
        <ele>3.94</ele>
        <time>2016-12-17T13:36:23Z</time>
      </trkpt>
      <trkpt lat="47.3193" lon="-1.53865">
        <ele>4.79</ele>
        <time>2016-12-17T13:36:26Z</time>
      </trkpt>
      <trkpt lat="47.31917" lon="-1.53889">
        <ele>5.05</ele>
        <time>2016-12-17T13:36:29Z</time>
      </trkpt>
      <trkpt lat="47.31903" lon="-1.53916">
        <ele>3.24</ele>
        <time>2016-12-17T13:36:32Z</time>
      </trkpt>
      <trkpt lat="47.31891" lon="-1.53941">
        <ele>1.2</ele>
        <time>2016-12-17T13:36:35Z</time>
      </trkpt>
      <trkpt lat="47.31878" lon="-1.53967">
        <ele>-0.33</ele>
        <time>2016-12-17T13:36:38Z</time>
      </trkpt>
      <trkpt lat="47.31865" lon="-1.53994">
        <ele>1.42</ele>
        <time>2016-12-17T13:36:41Z</time>
      </trkpt>
      <trkpt lat="47.31852" lon="-1.5402">
        <ele>2.67</ele>
        <time>2016-12-17T13:36:44Z</time>
      </trkpt>
      <trkpt lat="47.3184" lon="-1.54044">
        <ele>3.43</ele>
        <time>2016-12-17T13:36:47Z</time>
      </trkpt>
      <trkpt lat="47.31826" lon="-1.54071">
        <ele>2.2</ele>
        <time>2016-12-17T13:36:50Z</time>
      </trkpt>
      <trkpt lat="47.31815" lon="-1.54095">
        <ele>2.28</ele>
        <time>2016-12-17T13:36:53Z</time>
      </trkpt>
      <trkpt lat="47.31801" lon="-1.5412">
        <ele>3.41</ele>
        <time>2016-12-17T13:36:56Z</time>
      </trkpt>
      <trkpt lat="47.3179" lon="-1.54141">
        <ele>3.41</ele>
        <time>2016-12-17T13:36:59Z</time>
      </trkpt>
      <trkpt lat="47.31775" lon="-1.54167">
        <ele>2.87</ele>
        <time>2016-12-17T13:37:02Z</time>
      </trkpt>
      <trkpt lat="47.3176" lon="-1.5419">
        <ele>2.18</ele>
        <time>2016-12-17T13:37:05Z</time>
      </trkpt>
      <trkpt lat="47.31743" lon="-1.54207">
        <ele>3.09</ele>
        <time>2016-12-17T13:37:08Z</time>
      </trkpt>
      <trkpt lat="47.31724" lon="-1.54225">
        <ele>2.89</ele>
        <time>2016-12-17T13:37:11Z</time>
      </trkpt>
      <trkpt lat="47.31705" lon="-1.54245">
        <ele>0.56</ele>
        <time>2016-12-17T13:37:14Z</time>
      </trkpt>
      <trkpt lat="47.31687" lon="-1.54262">
        <ele>-1.28</ele>
        <time>2016-12-17T13:37:17Z</time>
      </trkpt>
      <trkpt lat="47.31669" lon="-1.54277">
        <ele>-1.22</ele>
        <time>2016-12-17T13:37:20Z</time>
      </trkpt>
      <trkpt lat="47.31649" lon="-1.54292">
        <ele>-0.16</ele>
        <time>2016-12-17T13:37:23Z</time>
      </trkpt>
      <trkpt lat="47.31633" lon="-1.5431">
        <ele>-2.41</ele>
        <time>2016-12-17T13:37:26Z</time>
      </trkpt>
      <trkpt lat="47.31615" lon="-1.54328">
        <ele>-4.23</ele>
        <time>2016-12-17T13:37:29Z</time>
      </trkpt>
      <trkpt lat="47.31595" lon="-1.54332">
        <ele>-3.01</ele>
        <time>2016-12-17T13:37:32Z</time>
      </trkpt>
      <trkpt lat="47.31573" lon="-1.54328">
        <ele>-1.31</ele>
        <time>2016-12-17T13:37:35Z</time>
      </trkpt>
      <trkpt lat="47.31554" lon="-1.54324">
        <ele>-1.53</ele>
        <time>2016-12-17T13:37:37Z</time>
      </trkpt>
      <trkpt lat="47.31531" lon="-1.54322">
        <ele>-1.75</ele>
        <time>2016-12-17T13:37:40Z</time>
      </trkpt>
      <trkpt lat="47.3151" lon="-1.5432">
        <ele>0.38</ele>
        <time>2016-12-17T13:37:43Z</time>
      </trkpt>
      <trkpt lat="47.3149" lon="-1.5433">
        <ele>2.16</ele>
        <time>2016-12-17T13:37:46Z</time>
      </trkpt>
      <trkpt lat="47.3147" lon="-1.54331">
        <ele>4.32</ele>
        <time>2016-12-17T13:37:49Z</time>
      </trkpt>
      <trkpt lat="47.31449" lon="-1.54329">
        <ele>4.2</ele>
        <time>2016-12-17T13:37:52Z</time>
      </trkpt>
      <trkpt lat="47.31427" lon="-1.54324">
        <ele>2.21</ele>
        <time>2016-12-17T13:37:55Z</time>
      </trkpt>
      <trkpt lat="47.31408" lon="-1.5432">
        <ele>1</ele>
        <time>2016-12-17T13:37:58Z</time>
      </trkpt>
      <trkpt lat="47.31387" lon="-1.54316">
        <ele>2.84</ele>
        <time>2016-12-17T13:38:01Z</time>
      </trkpt>
      <trkpt lat="47.31365" lon="-1.54313">
        <ele>1.8</ele>
        <time>2016-12-17T13:38:04Z</time>
      </trkpt>
      <trkpt lat="47.31346" lon="-1.5431">
        <ele>0.73</ele>
        <time>2016-12-17T13:38:07Z</time>
      </trkpt>
      <trkpt lat="47.31325" lon="-1.54301">
        <ele>2.56</ele>
        <time>2016-12-17T13:38:10Z</time>
      </trkpt>
      <trkpt lat="47.31303" lon="-1.543">
        <ele>4.41</ele>
        <time>2016-12-17T13:38:13Z</time>
      </trkpt>
      <trkpt lat="47.31281" lon="-1.54298">
        <ele>2.38</ele>
        <time>2016-12-17T13:38:16Z</time>
      </trkpt>
      <trkpt lat="47.31259" lon="-1.54299">
        <ele>1.83</ele>
        <time>2016-12-17T13:38:19Z</time>
      </trkpt>
      <trkpt lat="47.31239" lon="-1.5431">
        <ele>0.73</ele>
        <time>2016-12-17T13:38:22Z</time>
      </trkpt>
      <trkpt lat="47.31221" lon="-1.54325">
        <ele>-0.56</ele>
        <time>2016-12-17T13:38:26Z</time>
      </trkpt>
      <trkpt lat="47.31203" lon="-1.54307">
        <ele>1.67</ele>
        <time>2016-12-17T13:38:30Z</time>
      </trkpt>
      <trkpt lat="47.31182" lon="-1.54297">
        <ele>1.85</ele>
        <time>2016-12-17T13:38:33Z</time>
      </trkpt>
      <trkpt lat="47.31161" lon="-1.54291">
        <ele>3.04</ele>
        <time>2016-12-17T13:38:36Z</time>
      </trkpt>
      <trkpt lat="47.3114" lon="-1.54289">
        <ele>4.39</ele>
        <time>2016-12-17T13:38:39Z</time>
      </trkpt>
      <trkpt lat="47.31119" lon="-1.54288">
        <ele>1.68</ele>
        <time>2016-12-17T13:38:42Z</time>
      </trkpt>
      <trkpt lat="47.31095" lon="-1.54288">
        <ele>0.98</ele>
        <time>2016-12-17T13:38:46Z</time>
      </trkpt>
      <trkpt lat="47.31076" lon="-1.54287">
        <ele>1.64</ele>
        <time>2016-12-17T13:38:49Z</time>
      </trkpt>
      <trkpt lat="47.31053" lon="-1.54285">
        <ele>4.66</ele>
        <time>2016-12-17T13:38:53Z</time>
      </trkpt>
      <trkpt lat="47.31029" lon="-1.54284">
        <ele>6.69</ele>
        <time>2016-12-17T13:38:57Z</time>
      </trkpt>
      <trkpt lat="47.31005" lon="-1.54282">
        <ele>7.26</ele>
        <time>2016-12-17T13:39:01Z</time>
      </trkpt>
      <trkpt lat="47.30983" lon="-1.54284">
        <ele>8.73</ele>
        <time>2016-12-17T13:39:05Z</time>
      </trkpt>
      <trkpt lat="47.3096" lon="-1.54288">
        <ele>9.79</ele>
        <time>2016-12-17T13:39:09Z</time>
      </trkpt>
      <trkpt lat="47.30943" lon="-1.54278">
        <ele>10.47</ele>
        <time>2016-12-17T13:39:13Z</time>
      </trkpt>
      <trkpt lat="47.30924" lon="-1.54269">
        <ele>10.94</ele>
        <time>2016-12-17T13:39:16Z</time>
      </trkpt>
      <trkpt lat="47.30903" lon="-1.54267">
        <ele>10.35</ele>
        <time>2016-12-17T13:39:20Z</time>
      </trkpt>
      <trkpt lat="47.30881" lon="-1.54266">
        <ele>11.64</ele>
        <time>2016-12-17T13:39:25Z</time>
      </trkpt>
      <trkpt lat="47.3086" lon="-1.54266">
        <ele>11.8</ele>
        <time>2016-12-17T13:39:29Z</time>
      </trkpt>
      <trkpt lat="47.30842" lon="-1.54278">
        <ele>10.86</ele>
        <time>2016-12-17T13:39:33Z</time>
      </trkpt>
      <trkpt lat="47.30826" lon="-1.54292">
        <ele>10.5</ele>
        <time>2016-12-17T13:39:37Z</time>
      </trkpt>
      <trkpt lat="47.30805" lon="-1.54299">
        <ele>9.99</ele>
        <time>2016-12-17T13:39:42Z</time>
      </trkpt>
      <trkpt lat="47.30784" lon="-1.54302">
        <ele>8.46</ele>
        <time>2016-12-17T13:39:46Z</time>
      </trkpt>
      <trkpt lat="47.30765" lon="-1.54298">
        <ele>14.04</ele>
        <time>2016-12-17T13:39:51Z</time>
      </trkpt>
      <trkpt lat="47.30746" lon="-1.54303">
        <ele>15.12</ele>
        <time>2016-12-17T13:39:55Z</time>
      </trkpt>
      <trkpt lat="47.30726" lon="-1.54316">
        <ele>16.15</ele>
        <time>2016-12-17T13:39:59Z</time>
      </trkpt>
      <trkpt lat="47.30707" lon="-1.54334">
        <ele>13.95</ele>
        <time>2016-12-17T13:40:04Z</time>
      </trkpt>
      <trkpt lat="47.30692" lon="-1.5435">
        <ele>14.66</ele>
        <time>2016-12-17T13:40:08Z</time>
      </trkpt>
      <trkpt lat="47.30674" lon="-1.54369">
        <ele>16.01</ele>
        <time>2016-12-17T13:40:13Z</time>
      </trkpt>
      <trkpt lat="47.30656" lon="-1.54385">
        <ele>14.97</ele>
        <time>2016-12-17T13:40:17Z</time>
      </trkpt>
      <trkpt lat="47.3064" lon="-1.54401">
        <ele>18.77</ele>
        <time>2016-12-17T13:40:21Z</time>
      </trkpt>
      <trkpt lat="47.30625" lon="-1.54415">
        <ele>19.77</ele>
        <time>2016-12-17T13:40:24Z</time>
      </trkpt>
      <trkpt lat="47.30606" lon="-1.5443">
        <ele>18.55</ele>
        <time>2016-12-17T13:40:28Z</time>
      </trkpt>
      <trkpt lat="47.3059" lon="-1.54446">
        <ele>19.69</ele>
        <time>2016-12-17T13:40:32Z</time>
      </trkpt>
      <trkpt lat="47.30574" lon="-1.54463">
        <ele>19.12</ele>
        <time>2016-12-17T13:40:36Z</time>
      </trkpt>
      <trkpt lat="47.30558" lon="-1.54477">
        <ele>19.39</ele>
        <time>2016-12-17T13:40:40Z</time>
      </trkpt>
      <trkpt lat="47.30537" lon="-1.54495">
        <ele>21.68</ele>
        <time>2016-12-17T13:40:44Z</time>
      </trkpt>
      <trkpt lat="47.30515" lon="-1.54513">
        <ele>20.69</ele>
        <time>2016-12-17T13:40:48Z</time>
      </trkpt>
      <trkpt lat="47.30497" lon="-1.54528">
        <ele>21.31</ele>
        <time>2016-12-17T13:40:51Z</time>
      </trkpt>
      <trkpt lat="47.30479" lon="-1.54543">
        <ele>19.95</ele>
        <time>2016-12-17T13:40:54Z</time>
      </trkpt>
      <trkpt lat="47.30457" lon="-1.54558">
        <ele>17.07</ele>
        <time>2016-12-17T13:40:57Z</time>
      </trkpt>
      <trkpt lat="47.30437" lon="-1.54571">
        <ele>16.25</ele>
        <time>2016-12-17T13:41:00Z</time>
      </trkpt>
      <trkpt lat="47.30414" lon="-1.54589">
        <ele>14.76</ele>
        <time>2016-12-17T13:41:03Z</time>
      </trkpt>
      <trkpt lat="47.30396" lon="-1.54609">
        <ele>13.21</ele>
        <time>2016-12-17T13:41:06Z</time>
      </trkpt>
      <trkpt lat="47.30376" lon="-1.54635">
        <ele>12.97</ele>
        <time>2016-12-17T13:41:09Z</time>
      </trkpt>
      <trkpt lat="47.30361" lon="-1.54655">
        <ele>12.62</ele>
        <time>2016-12-17T13:41:12Z</time>
      </trkpt>
      <trkpt lat="47.30341" lon="-1.54662">
        <ele>15.56</ele>
        <time>2016-12-17T13:41:16Z</time>
      </trkpt>
      <trkpt lat="47.30319" lon="-1.54667">
        <ele>13.79</ele>
        <time>2016-12-17T13:41:20Z</time>
      </trkpt>
      <trkpt lat="47.30297" lon="-1.54658">
        <ele>12.77</ele>
        <time>2016-12-17T13:41:24Z</time>
      </trkpt>
      <trkpt lat="47.30277" lon="-1.54649">
        <ele>14.72</ele>
        <time>2016-12-17T13:41:27Z</time>
      </trkpt>
      <trkpt lat="47.30255" lon="-1.54655">
        <ele>14.28</ele>
        <time>2016-12-17T13:41:30Z</time>
      </trkpt>
      <trkpt lat="47.30235" lon="-1.54665">
        <ele>13.21</ele>
        <time>2016-12-17T13:41:33Z</time>
      </trkpt>
      <trkpt lat="47.30217" lon="-1.54675">
        <ele>11.65</ele>
        <time>2016-12-17T13:41:36Z</time>
      </trkpt>
      <trkpt lat="47.30199" lon="-1.54686">
        <ele>10.45</ele>
        <time>2016-12-17T13:41:39Z</time>
      </trkpt>
      <trkpt lat="47.30177" lon="-1.54699">
        <ele>7.51</ele>
        <time>2016-12-17T13:41:43Z</time>
      </trkpt>
      <trkpt lat="47.3016" lon="-1.5471">
        <ele>9.04</ele>
        <time>2016-12-17T13:41:46Z</time>
      </trkpt>
      <trkpt lat="47.30139" lon="-1.54722">
        <ele>9.4</ele>
        <time>2016-12-17T13:41:50Z</time>
      </trkpt>
      <trkpt lat="47.30117" lon="-1.54734">
        <ele>15.95</ele>
        <time>2016-12-17T13:41:54Z</time>
      </trkpt>
      <trkpt lat="47.301" lon="-1.54744">
        <ele>17.97</ele>
        <time>2016-12-17T13:41:57Z</time>
      </trkpt>
      <trkpt lat="47.30082" lon="-1.54754">
        <ele>18.66</ele>
        <time>2016-12-17T13:42:00Z</time>
      </trkpt>
      <trkpt lat="47.30064" lon="-1.54762">
        <ele>18.66</ele>
        <time>2016-12-17T13:42:03Z</time>
      </trkpt>
      <trkpt lat="47.30046" lon="-1.54768">
        <ele>18.07</ele>
        <time>2016-12-17T13:42:06Z</time>
      </trkpt>
      <trkpt lat="47.30028" lon="-1.54773">
        <ele>17.96</ele>
        <time>2016-12-17T13:42:09Z</time>
      </trkpt>
      <trkpt lat="47.30004" lon="-1.5478">
        <ele>17.12</ele>
        <time>2016-12-17T13:42:13Z</time>
      </trkpt>
      <trkpt lat="47.29984" lon="-1.54786">
        <ele>16.47</ele>
        <time>2016-12-17T13:42:16Z</time>
      </trkpt>
      <trkpt lat="47.29961" lon="-1.54795">
        <ele>16.89</ele>
        <time>2016-12-17T13:42:20Z</time>
      </trkpt>
      <trkpt lat="47.29943" lon="-1.54801">
        <ele>16.14</ele>
        <time>2016-12-17T13:42:23Z</time>
      </trkpt>
      <trkpt lat="47.29924" lon="-1.54808">
        <ele>14.46</ele>
        <time>2016-12-17T13:42:26Z</time>
      </trkpt>
      <trkpt lat="47.29901" lon="-1.54815">
        <ele>15.05</ele>
        <time>2016-12-17T13:42:30Z</time>
      </trkpt>
      <trkpt lat="47.29881" lon="-1.54819">
        <ele>17.19</ele>
        <time>2016-12-17T13:42:33Z</time>
      </trkpt>
      <trkpt lat="47.2986" lon="-1.54825">
        <ele>18.18</ele>
        <time>2016-12-17T13:42:36Z</time>
      </trkpt>
      <trkpt lat="47.2984" lon="-1.54831">
        <ele>17.17</ele>
        <time>2016-12-17T13:42:39Z</time>
      </trkpt>
      <trkpt lat="47.29821" lon="-1.54835">
        <ele>17.44</ele>
        <time>2016-12-17T13:42:42Z</time>
      </trkpt>
      <trkpt lat="47.29802" lon="-1.5484">
        <ele>16.27</ele>
        <time>2016-12-17T13:42:45Z</time>
      </trkpt>
      <trkpt lat="47.29779" lon="-1.54836">
        <ele>15.2</ele>
        <time>2016-12-17T13:42:49Z</time>
      </trkpt>
      <trkpt lat="47.29757" lon="-1.5484">
        <ele>15.44</ele>
        <time>2016-12-17T13:42:53Z</time>
      </trkpt>
      <trkpt lat="47.29739" lon="-1.54845">
        <ele>15.79</ele>
        <time>2016-12-17T13:42:56Z</time>
      </trkpt>
      <trkpt lat="47.29717" lon="-1.54851">
        <ele>13.61</ele>
        <time>2016-12-17T13:43:03Z</time>
      </trkpt>
      <trkpt lat="47.29699" lon="-1.54849">
        <ele>13.46</ele>
        <time>2016-12-17T13:43:06Z</time>
      </trkpt>
      <trkpt lat="47.29679" lon="-1.54855">
        <ele>15.27</ele>
        <time>2016-12-17T13:43:09Z</time>
      </trkpt>
      <trkpt lat="47.29658" lon="-1.5486">
        <ele>15.58</ele>
        <time>2016-12-17T13:43:12Z</time>
      </trkpt>
      <trkpt lat="47.29636" lon="-1.54864">
        <ele>16.97</ele>
        <time>2016-12-17T13:43:16Z</time>
      </trkpt>
      <trkpt lat="47.29616" lon="-1.54868">
        <ele>18.08</ele>
        <time>2016-12-17T13:43:19Z</time>
      </trkpt>
      <trkpt lat="47.29597" lon="-1.54874">
        <ele>17.54</ele>
        <time>2016-12-17T13:43:22Z</time>
      </trkpt>
      <trkpt lat="47.29577" lon="-1.54883">
        <ele>16.46</ele>
        <time>2016-12-17T13:43:26Z</time>
      </trkpt>
      <trkpt lat="47.29557" lon="-1.54886">
        <ele>16.87</ele>
        <time>2016-12-17T13:43:29Z</time>
      </trkpt>
      <trkpt lat="47.29538" lon="-1.54886">
        <ele>14.62</ele>
        <time>2016-12-17T13:43:32Z</time>
      </trkpt>
      <trkpt lat="47.29515" lon="-1.54886">
        <ele>16.25</ele>
        <time>2016-12-17T13:43:36Z</time>
      </trkpt>
      <trkpt lat="47.29493" lon="-1.54888">
        <ele>16.8</ele>
        <time>2016-12-17T13:43:40Z</time>
      </trkpt>
      <trkpt lat="47.2947" lon="-1.54888">
        <ele>18.69</ele>
        <time>2016-12-17T13:43:44Z</time>
      </trkpt>
      <trkpt lat="47.2945" lon="-1.54885">
        <ele>21.36</ele>
        <time>2016-12-17T13:43:48Z</time>
      </trkpt>
      <trkpt lat="47.29426" lon="-1.54885">
        <ele>18.56</ele>
        <time>2016-12-17T13:43:52Z</time>
      </trkpt>
      <trkpt lat="47.29404" lon="-1.54887">
        <ele>16.27</ele>
        <time>2016-12-17T13:43:56Z</time>
      </trkpt>
      <trkpt lat="47.29385" lon="-1.54888">
        <ele>16.58</ele>
        <time>2016-12-17T13:44:00Z</time>
      </trkpt>
      <trkpt lat="47.29363" lon="-1.54889">
        <ele>17.96</ele>
        <time>2016-12-17T13:44:04Z</time>
      </trkpt>
      <trkpt lat="47.29343" lon="-1.54898">
        <ele>19.85</ele>
        <time>2016-12-17T13:44:08Z</time>
      </trkpt>
      <trkpt lat="47.29321" lon="-1.54911">
        <ele>20.04</ele>
        <time>2016-12-17T13:44:12Z</time>
      </trkpt>
      <trkpt lat="47.29298" lon="-1.54917">
        <ele>17.92</ele>
        <time>2016-12-17T13:44:16Z</time>
      </trkpt>
      <trkpt lat="47.29276" lon="-1.54916">
        <ele>19.01</ele>
        <time>2016-12-17T13:44:20Z</time>
      </trkpt>
      <trkpt lat="47.29252" lon="-1.54916">
        <ele>21.35</ele>
        <time>2016-12-17T13:44:23Z</time>
      </trkpt>
      <trkpt lat="47.29234" lon="-1.5491">
        <ele>22.2</ele>
        <time>2016-12-17T13:44:26Z</time>
      </trkpt>
      <trkpt lat="47.29216" lon="-1.54902">
        <ele>22.96</ele>
        <time>2016-12-17T13:44:29Z</time>
      </trkpt>
      <trkpt lat="47.29193" lon="-1.54901">
        <ele>23.21</ele>
        <time>2016-12-17T13:44:32Z</time>
      </trkpt>
      <trkpt lat="47.29173" lon="-1.54902">
        <ele>24.1</ele>
        <time>2016-12-17T13:44:34Z</time>
      </trkpt>
      <trkpt lat="47.29153" lon="-1.54904">
        <ele>24.88</ele>
        <time>2016-12-17T13:44:36Z</time>
      </trkpt>
      <trkpt lat="47.29135" lon="-1.54905">
        <ele>24.79</ele>
        <time>2016-12-17T13:44:38Z</time>
      </trkpt>
      <trkpt lat="47.29111" lon="-1.54906">
        <ele>21.73</ele>
        <time>2016-12-17T13:44:41Z</time>
      </trkpt>
      <trkpt lat="47.29084" lon="-1.54908">
        <ele>21.63</ele>
        <time>2016-12-17T13:44:44Z</time>
      </trkpt>
      <trkpt lat="47.29066" lon="-1.5491">
        <ele>21.95</ele>
        <time>2016-12-17T13:44:46Z</time>
      </trkpt>
      <trkpt lat="47.29042" lon="-1.54912">
        <ele>21.05</ele>
        <time>2016-12-17T13:44:49Z</time>
      </trkpt>
      <trkpt lat="47.29024" lon="-1.54928">
        <ele>19.24</ele>
        <time>2016-12-17T13:44:53Z</time>
      </trkpt>
      <trkpt lat="47.29005" lon="-1.54934">
        <ele>20.61</ele>
        <time>2016-12-17T13:44:56Z</time>
      </trkpt>
      <trkpt lat="47.28986" lon="-1.54931">
        <ele>20.44</ele>
        <time>2016-12-17T13:44:59Z</time>
      </trkpt>
      <trkpt lat="47.28965" lon="-1.54924">
        <ele>20.99</ele>
        <time>2016-12-17T13:45:02Z</time>
      </trkpt>
      <trkpt lat="47.28944" lon="-1.5492">
        <ele>21.46</ele>
        <time>2016-12-17T13:45:05Z</time>
      </trkpt>
      <trkpt lat="47.28923" lon="-1.5492">
        <ele>20.45</ele>
        <time>2016-12-17T13:45:08Z</time>
      </trkpt>
      <trkpt lat="47.28902" lon="-1.54923">
        <ele>19.46</ele>
        <time>2016-12-17T13:45:11Z</time>
      </trkpt>
      <trkpt lat="47.28882" lon="-1.54928">
        <ele>19.31</ele>
        <time>2016-12-17T13:45:14Z</time>
      </trkpt>
      <trkpt lat="47.28859" lon="-1.54932">
        <ele>19.24</ele>
        <time>2016-12-17T13:45:17Z</time>
      </trkpt>
      <trkpt lat="47.28839" lon="-1.54935">
        <ele>18.57</ele>
        <time>2016-12-17T13:45:20Z</time>
      </trkpt>
      <trkpt lat="47.28818" lon="-1.54939">
        <ele>17.68</ele>
        <time>2016-12-17T13:45:23Z</time>
      </trkpt>
      <trkpt lat="47.28797" lon="-1.54942">
        <ele>17.48</ele>
        <time>2016-12-17T13:45:26Z</time>
      </trkpt>
      <trkpt lat="47.28775" lon="-1.54946">
        <ele>18.03</ele>
        <time>2016-12-17T13:45:29Z</time>
      </trkpt>
      <trkpt lat="47.28754" lon="-1.54948">
        <ele>18.48</ele>
        <time>2016-12-17T13:45:32Z</time>
      </trkpt>
      <trkpt lat="47.28734" lon="-1.54952">
        <ele>18.8</ele>
        <time>2016-12-17T13:45:35Z</time>
      </trkpt>
      <trkpt lat="47.28711" lon="-1.54955">
        <ele>19.77</ele>
        <time>2016-12-17T13:45:38Z</time>
      </trkpt>
      <trkpt lat="47.28689" lon="-1.54959">
        <ele>20.25</ele>
        <time>2016-12-17T13:45:41Z</time>
      </trkpt>
      <trkpt lat="47.28667" lon="-1.54961">
        <ele>19.71</ele>
        <time>2016-12-17T13:45:44Z</time>
      </trkpt>
      <trkpt lat="47.28644" lon="-1.54964">
        <ele>19.29</ele>
        <time>2016-12-17T13:45:47Z</time>
      </trkpt>
      <trkpt lat="47.28622" lon="-1.54967">
        <ele>19.56</ele>
        <time>2016-12-17T13:45:50Z</time>
      </trkpt>
      <trkpt lat="47.28602" lon="-1.54973">
        <ele>19.26</ele>
        <time>2016-12-17T13:45:53Z</time>
      </trkpt>
      <trkpt lat="47.28588" lon="-1.54993">
        <ele>20.2</ele>
        <time>2016-12-17T13:45:57Z</time>
      </trkpt>
      <trkpt lat="47.28576" lon="-1.5502">
        <ele>19.73</ele>
        <time>2016-12-17T13:46:01Z</time>
      </trkpt>
      <trkpt lat="47.28565" lon="-1.5505">
        <ele>19.14</ele>
        <time>2016-12-17T13:46:05Z</time>
      </trkpt>
      <trkpt lat="47.28548" lon="-1.55041">
        <ele>20.23</ele>
        <time>2016-12-17T13:46:09Z</time>
      </trkpt>
      <trkpt lat="47.28535" lon="-1.55021">
        <ele>20.94</ele>
        <time>2016-12-17T13:46:12Z</time>
      </trkpt>
      <trkpt lat="47.28522" lon="-1.55003">
        <ele>20.33</ele>
        <time>2016-12-17T13:46:18Z</time>
      </trkpt>
      <trkpt lat="47.28509" lon="-1.54982">
        <ele>19.94</ele>
        <time>2016-12-17T13:46:21Z</time>
      </trkpt>
      <trkpt lat="47.28489" lon="-1.54978">
        <ele>20.27</ele>
        <time>2016-12-17T13:46:24Z</time>
      </trkpt>
      <trkpt lat="47.28469" lon="-1.54979">
        <ele>20.37</ele>
        <time>2016-12-17T13:46:27Z</time>
      </trkpt>
      <trkpt lat="47.28449" lon="-1.54979">
        <ele>18.88</ele>
        <time>2016-12-17T13:46:30Z</time>
      </trkpt>
      <trkpt lat="47.28429" lon="-1.5498">
        <ele>19.78</ele>
        <time>2016-12-17T13:46:33Z</time>
      </trkpt>
      <trkpt lat="47.28405" lon="-1.54978">
        <ele>20.4</ele>
        <time>2016-12-17T13:46:37Z</time>
      </trkpt>
      <trkpt lat="47.28381" lon="-1.54975">
        <ele>21.73</ele>
        <time>2016-12-17T13:46:41Z</time>
      </trkpt>
      <trkpt lat="47.28357" lon="-1.54972">
        <ele>21.12</ele>
        <time>2016-12-17T13:46:45Z</time>
      </trkpt>
      <trkpt lat="47.28339" lon="-1.54971">
        <ele>22.03</ele>
        <time>2016-12-17T13:46:48Z</time>
      </trkpt>
      <trkpt lat="47.28319" lon="-1.5497">
        <ele>22.27</ele>
        <time>2016-12-17T13:46:51Z</time>
      </trkpt>
      <trkpt lat="47.28298" lon="-1.54978">
        <ele>22.8</ele>
        <time>2016-12-17T13:46:55Z</time>
      </trkpt>
      <trkpt lat="47.28277" lon="-1.54974">
        <ele>20.95</ele>
        <time>2016-12-17T13:46:59Z</time>
      </trkpt>
      <trkpt lat="47.28259" lon="-1.54968">
        <ele>20.82</ele>
        <time>2016-12-17T13:47:02Z</time>
      </trkpt>
      <trkpt lat="47.28238" lon="-1.54965">
        <ele>21.43</ele>
        <time>2016-12-17T13:47:05Z</time>
      </trkpt>
      <trkpt lat="47.28215" lon="-1.54962">
        <ele>22.09</ele>
        <time>2016-12-17T13:47:08Z</time>
      </trkpt>
      <trkpt lat="47.28195" lon="-1.54958">
        <ele>21.89</ele>
        <time>2016-12-17T13:47:11Z</time>
      </trkpt>
      <trkpt lat="47.28175" lon="-1.54953">
        <ele>22.86</ele>
        <time>2016-12-17T13:47:14Z</time>
      </trkpt>
      <trkpt lat="47.28156" lon="-1.54948">
        <ele>24.95</ele>
        <time>2016-12-17T13:47:17Z</time>
      </trkpt>
      <trkpt lat="47.28133" lon="-1.54943">
        <ele>26.6</ele>
        <time>2016-12-17T13:47:20Z</time>
      </trkpt>
      <trkpt lat="47.28111" lon="-1.54936">
        <ele>25.8</ele>
        <time>2016-12-17T13:47:23Z</time>
      </trkpt>
      <trkpt lat="47.2809" lon="-1.5493">
        <ele>23.2</ele>
        <time>2016-12-17T13:47:26Z</time>
      </trkpt>
      <trkpt lat="47.2807" lon="-1.54923">
        <ele>20.24</ele>
        <time>2016-12-17T13:47:29Z</time>
      </trkpt>
      <trkpt lat="47.28048" lon="-1.54916">
        <ele>18.77</ele>
        <time>2016-12-17T13:47:32Z</time>
      </trkpt>
      <trkpt lat="47.28024" lon="-1.54907">
        <ele>19.95</ele>
        <time>2016-12-17T13:47:36Z</time>
      </trkpt>
      <trkpt lat="47.28003" lon="-1.54903">
        <ele>20.78</ele>
        <time>2016-12-17T13:47:39Z</time>
      </trkpt>
      <trkpt lat="47.27981" lon="-1.54898">
        <ele>19.19</ele>
        <time>2016-12-17T13:47:42Z</time>
      </trkpt>
      <trkpt lat="47.27961" lon="-1.54892">
        <ele>17.85</ele>
        <time>2016-12-17T13:47:45Z</time>
      </trkpt>
      <trkpt lat="47.27943" lon="-1.54886">
        <ele>16.05</ele>
        <time>2016-12-17T13:47:48Z</time>
      </trkpt>
      <trkpt lat="47.27921" lon="-1.54877">
        <ele>16.81</ele>
        <time>2016-12-17T13:47:52Z</time>
      </trkpt>
      <trkpt lat="47.27903" lon="-1.54873">
        <ele>18.22</ele>
        <time>2016-12-17T13:47:55Z</time>
      </trkpt>
      <trkpt lat="47.27884" lon="-1.54867">
        <ele>19.35</ele>
        <time>2016-12-17T13:47:58Z</time>
      </trkpt>
      <trkpt lat="47.27866" lon="-1.54862">
        <ele>20.57</ele>
        <time>2016-12-17T13:48:01Z</time>
      </trkpt>
      <trkpt lat="47.27843" lon="-1.54855">
        <ele>22.91</ele>
        <time>2016-12-17T13:48:05Z</time>
      </trkpt>
      <trkpt lat="47.27825" lon="-1.5485">
        <ele>23.27</ele>
        <time>2016-12-17T13:48:08Z</time>
      </trkpt>
      <trkpt lat="47.27803" lon="-1.54845">
        <ele>24.84</ele>
        <time>2016-12-17T13:48:12Z</time>
      </trkpt>
      <trkpt lat="47.27782" lon="-1.5484">
        <ele>26.16</ele>
        <time>2016-12-17T13:48:16Z</time>
      </trkpt>
      <trkpt lat="47.27761" lon="-1.54832">
        <ele>31.03</ele>
        <time>2016-12-17T13:48:20Z</time>
      </trkpt>
      <trkpt lat="47.27742" lon="-1.54826">
        <ele>31.57</ele>
        <time>2016-12-17T13:48:24Z</time>
      </trkpt>
      <trkpt lat="47.27723" lon="-1.5482">
        <ele>34.37</ele>
        <time>2016-12-17T13:48:28Z</time>
      </trkpt>
      <trkpt lat="47.27704" lon="-1.54814">
        <ele>32.85</ele>
        <time>2016-12-17T13:48:32Z</time>
      </trkpt>
      <trkpt lat="47.27685" lon="-1.5481">
        <ele>34.04</ele>
        <time>2016-12-17T13:48:36Z</time>
      </trkpt>
      <trkpt lat="47.27667" lon="-1.54808">
        <ele>38.16</ele>
        <time>2016-12-17T13:48:40Z</time>
      </trkpt>
      <trkpt lat="47.27646" lon="-1.54812">
        <ele>38.16</ele>
        <time>2016-12-17T13:48:44Z</time>
      </trkpt>
      <trkpt lat="47.27627" lon="-1.54821">
        <ele>35.82</ele>
        <time>2016-12-17T13:48:48Z</time>
      </trkpt>
      <trkpt lat="47.27606" lon="-1.54822">
        <ele>32.01</ele>
        <time>2016-12-17T13:48:52Z</time>
      </trkpt>
      <trkpt lat="47.27592" lon="-1.54797">
        <ele>32.04</ele>
        <time>2016-12-17T13:49:03Z</time>
      </trkpt>
      <trkpt lat="47.27583" lon="-1.54772">
        <ele>33.49</ele>
        <time>2016-12-17T13:49:06Z</time>
      </trkpt>
      <trkpt lat="47.27564" lon="-1.54764">
        <ele>35.83</ele>
        <time>2016-12-17T13:49:10Z</time>
      </trkpt>
      <trkpt lat="47.2754" lon="-1.54758">
        <ele>36.66</ele>
        <time>2016-12-17T13:49:14Z</time>
      </trkpt>
      <trkpt lat="47.27521" lon="-1.54753">
        <ele>37.95</ele>
        <time>2016-12-17T13:49:17Z</time>
      </trkpt>
      <trkpt lat="47.27503" lon="-1.54748">
        <ele>38.21</ele>
        <time>2016-12-17T13:49:20Z</time>
      </trkpt>
      <trkpt lat="47.27483" lon="-1.54743">
        <ele>37.05</ele>
        <time>2016-12-17T13:49:23Z</time>
      </trkpt>
      <trkpt lat="47.27463" lon="-1.54743">
        <ele>34.6</ele>
        <time>2016-12-17T13:49:26Z</time>
      </trkpt>
      <trkpt lat="47.27442" lon="-1.54759">
        <ele>32.47</ele>
        <time>2016-12-17T13:49:29Z</time>
      </trkpt>
      <trkpt lat="47.27424" lon="-1.54773">
        <ele>31.09</ele>
        <time>2016-12-17T13:49:32Z</time>
      </trkpt>
      <trkpt lat="47.27406" lon="-1.54772">
        <ele>28.87</ele>
        <time>2016-12-17T13:49:35Z</time>
      </trkpt>
      <trkpt lat="47.27389" lon="-1.54756">
        <ele>26.68</ele>
        <time>2016-12-17T13:49:38Z</time>
      </trkpt>
      <trkpt lat="47.27375" lon="-1.54736">
        <ele>25.51</ele>
        <time>2016-12-17T13:49:41Z</time>
      </trkpt>
      <trkpt lat="47.27357" lon="-1.54716">
        <ele>25.43</ele>
        <time>2016-12-17T13:49:44Z</time>
      </trkpt>
      <trkpt lat="47.27335" lon="-1.54705">
        <ele>25.38</ele>
        <time>2016-12-17T13:49:47Z</time>
      </trkpt>
      <trkpt lat="47.27314" lon="-1.54697">
        <ele>26.05</ele>
        <time>2016-12-17T13:49:50Z</time>
      </trkpt>
      <trkpt lat="47.27292" lon="-1.5469">
        <ele>25.47</ele>
        <time>2016-12-17T13:49:53Z</time>
      </trkpt>
      <trkpt lat="47.2727" lon="-1.54683">
        <ele>26.11</ele>
        <time>2016-12-17T13:49:56Z</time>
      </trkpt>
      <trkpt lat="47.27248" lon="-1.54676">
        <ele>26.56</ele>
        <time>2016-12-17T13:49:59Z</time>
      </trkpt>
      <trkpt lat="47.27225" lon="-1.54671">
        <ele>25.9</ele>
        <time>2016-12-17T13:50:02Z</time>
      </trkpt>
      <trkpt lat="47.27205" lon="-1.54664">
        <ele>25.18</ele>
        <time>2016-12-17T13:50:05Z</time>
      </trkpt>
      <trkpt lat="47.27187" lon="-1.54659">
        <ele>23.79</ele>
        <time>2016-12-17T13:50:08Z</time>
      </trkpt>
      <trkpt lat="47.27166" lon="-1.54652">
        <ele>23.1</ele>
        <time>2016-12-17T13:50:11Z</time>
      </trkpt>
      <trkpt lat="47.27145" lon="-1.54646">
        <ele>24.6</ele>
        <time>2016-12-17T13:50:14Z</time>
      </trkpt>
      <trkpt lat="47.27126" lon="-1.5464">
        <ele>26.17</ele>
        <time>2016-12-17T13:50:17Z</time>
      </trkpt>
      <trkpt lat="47.27105" lon="-1.54634">
        <ele>26.71</ele>
        <time>2016-12-17T13:50:20Z</time>
      </trkpt>
      <trkpt lat="47.27086" lon="-1.54628">
        <ele>26.41</ele>
        <time>2016-12-17T13:50:23Z</time>
      </trkpt>
      <trkpt lat="47.27065" lon="-1.5462">
        <ele>26.14</ele>
        <time>2016-12-17T13:50:26Z</time>
      </trkpt>
      <trkpt lat="47.27044" lon="-1.54617">
        <ele>27.17</ele>
        <time>2016-12-17T13:50:29Z</time>
      </trkpt>
      <trkpt lat="47.27024" lon="-1.54614">
        <ele>27.51</ele>
        <time>2016-12-17T13:50:32Z</time>
      </trkpt>
      <trkpt lat="47.27002" lon="-1.54612">
        <ele>27.21</ele>
        <time>2016-12-17T13:50:35Z</time>
      </trkpt>
      <trkpt lat="47.26982" lon="-1.54613">
        <ele>28.44</ele>
        <time>2016-12-17T13:50:38Z</time>
      </trkpt>
      <trkpt lat="47.26961" lon="-1.54614">
        <ele>28.09</ele>
        <time>2016-12-17T13:50:41Z</time>
      </trkpt>
      <trkpt lat="47.2694" lon="-1.54617">
        <ele>27.96</ele>
        <time>2016-12-17T13:50:44Z</time>
      </trkpt>
      <trkpt lat="47.26918" lon="-1.54618">
        <ele>29.83</ele>
        <time>2016-12-17T13:50:47Z</time>
      </trkpt>
      <trkpt lat="47.26897" lon="-1.54619">
        <ele>31.18</ele>
        <time>2016-12-17T13:50:50Z</time>
      </trkpt>
      <trkpt lat="47.26875" lon="-1.54613">
        <ele>31.03</ele>
        <time>2016-12-17T13:50:54Z</time>
      </trkpt>
      <trkpt lat="47.26853" lon="-1.54602">
        <ele>29.39</ele>
        <time>2016-12-17T13:50:57Z</time>
      </trkpt>
      <trkpt lat="47.26831" lon="-1.54596">
        <ele>28.75</ele>
        <time>2016-12-17T13:51:00Z</time>
      </trkpt>
      <trkpt lat="47.26813" lon="-1.54593">
        <ele>27.29</ele>
        <time>2016-12-17T13:51:03Z</time>
      </trkpt>
      <trkpt lat="47.26792" lon="-1.54592">
        <ele>26.8</ele>
        <time>2016-12-17T13:51:06Z</time>
      </trkpt>
      <trkpt lat="47.26773" lon="-1.54594">
        <ele>25.22</ele>
        <time>2016-12-17T13:51:09Z</time>
      </trkpt>
      <trkpt lat="47.26751" lon="-1.54596">
        <ele>25.5</ele>
        <time>2016-12-17T13:51:13Z</time>
      </trkpt>
      <trkpt lat="47.26746" lon="-1.54569">
        <ele>25.97</ele>
        <time>2016-12-17T13:51:20Z</time>
      </trkpt>
      <trkpt lat="47.26757" lon="-1.54545">
        <ele>25.51</ele>
        <time>2016-12-17T13:51:24Z</time>
      </trkpt>
      <trkpt lat="47.26754" lon="-1.54512">
        <ele>25.25</ele>
        <time>2016-12-17T13:51:28Z</time>
      </trkpt>
      <trkpt lat="47.26745" lon="-1.54484">
        <ele>25.15</ele>
        <time>2016-12-17T13:51:31Z</time>
      </trkpt>
      <trkpt lat="47.26724" lon="-1.54465">
        <ele>24.1</ele>
        <time>2016-12-17T13:51:34Z</time>
      </trkpt>
      <trkpt lat="47.26702" lon="-1.54457">
        <ele>21.39</ele>
        <time>2016-12-17T13:51:37Z</time>
      </trkpt>
      <trkpt lat="47.26678" lon="-1.54454">
        <ele>18.7</ele>
        <time>2016-12-17T13:51:40Z</time>
      </trkpt>
      <trkpt lat="47.26653" lon="-1.54455">
        <ele>17.96</ele>
        <time>2016-12-17T13:51:43Z</time>
      </trkpt>
      <trkpt lat="47.2663" lon="-1.5446">
        <ele>18.01</ele>
        <time>2016-12-17T13:51:46Z</time>
      </trkpt>
      <trkpt lat="47.26608" lon="-1.54465">
        <ele>17.5</ele>
        <time>2016-12-17T13:51:49Z</time>
      </trkpt>
      <trkpt lat="47.26588" lon="-1.54461">
        <ele>17.82</ele>
        <time>2016-12-17T13:51:52Z</time>
      </trkpt>
      <trkpt lat="47.26576" lon="-1.54433">
        <ele>17.73</ele>
        <time>2016-12-17T13:51:55Z</time>
      </trkpt>
      <trkpt lat="47.26569" lon="-1.54406">
        <ele>18.66</ele>
        <time>2016-12-17T13:51:58Z</time>
      </trkpt>
      <trkpt lat="47.26549" lon="-1.5439">
        <ele>18.86</ele>
        <time>2016-12-17T13:52:02Z</time>
      </trkpt>
      <trkpt lat="47.26526" lon="-1.54399">
        <ele>18.16</ele>
        <time>2016-12-17T13:52:05Z</time>
      </trkpt>
      <trkpt lat="47.26509" lon="-1.54409">
        <ele>17</ele>
        <time>2016-12-17T13:52:07Z</time>
      </trkpt>
      <trkpt lat="47.26487" lon="-1.54421">
        <ele>18.19</ele>
        <time>2016-12-17T13:52:10Z</time>
      </trkpt>
      <trkpt lat="47.26465" lon="-1.54434">
        <ele>19.36</ele>
        <time>2016-12-17T13:52:13Z</time>
      </trkpt>
      <trkpt lat="47.26441" lon="-1.54442">
        <ele>17.18</ele>
        <time>2016-12-17T13:52:16Z</time>
      </trkpt>
      <trkpt lat="47.2642" lon="-1.54438">
        <ele>15.31</ele>
        <time>2016-12-17T13:52:19Z</time>
      </trkpt>
      <trkpt lat="47.26397" lon="-1.54422">
        <ele>13.87</ele>
        <time>2016-12-17T13:52:22Z</time>
      </trkpt>
      <trkpt lat="47.26377" lon="-1.54404">
        <ele>12.62</ele>
        <time>2016-12-17T13:52:25Z</time>
      </trkpt>
      <trkpt lat="47.26357" lon="-1.54383">
        <ele>12.58</ele>
        <time>2016-12-17T13:52:28Z</time>
      </trkpt>
      <trkpt lat="47.26336" lon="-1.54363">
        <ele>11.31</ele>
        <time>2016-12-17T13:52:31Z</time>
      </trkpt>
      <trkpt lat="47.26318" lon="-1.54344">
        <ele>11.49</ele>
        <time>2016-12-17T13:52:34Z</time>
      </trkpt>
      <trkpt lat="47.26302" lon="-1.54327">
        <ele>12.66</ele>
        <time>2016-12-17T13:52:37Z</time>
      </trkpt>
      <trkpt lat="47.26286" lon="-1.54311">
        <ele>14.28</ele>
        <time>2016-12-17T13:52:40Z</time>
      </trkpt>
      <trkpt lat="47.26266" lon="-1.54294">
        <ele>14.02</ele>
        <time>2016-12-17T13:52:43Z</time>
      </trkpt>
      <trkpt lat="47.26245" lon="-1.54283">
        <ele>13.67</ele>
        <time>2016-12-17T13:52:46Z</time>
      </trkpt>
      <trkpt lat="47.26225" lon="-1.54279">
        <ele>14.6</ele>
        <time>2016-12-17T13:52:49Z</time>
      </trkpt>
      <trkpt lat="47.26206" lon="-1.54275">
        <ele>16.7</ele>
        <time>2016-12-17T13:52:52Z</time>
      </trkpt>
      <trkpt lat="47.26184" lon="-1.54273">
        <ele>15.8</ele>
        <time>2016-12-17T13:52:55Z</time>
      </trkpt>
      <trkpt lat="47.26164" lon="-1.54271">
        <ele>15.22</ele>
        <time>2016-12-17T13:52:58Z</time>
      </trkpt>
      <trkpt lat="47.26144" lon="-1.5427">
        <ele>15.77</ele>
        <time>2016-12-17T13:53:01Z</time>
      </trkpt>
      <trkpt lat="47.2612" lon="-1.5427">
        <ele>15.41</ele>
        <time>2016-12-17T13:53:05Z</time>
      </trkpt>
      <trkpt lat="47.26097" lon="-1.5427">
        <ele>17.21</ele>
        <time>2016-12-17T13:53:09Z</time>
      </trkpt>
      <trkpt lat="47.26076" lon="-1.54268">
        <ele>15.84</ele>
        <time>2016-12-17T13:53:13Z</time>
      </trkpt>
      <trkpt lat="47.26053" lon="-1.54264">
        <ele>16.89</ele>
        <time>2016-12-17T13:53:17Z</time>
      </trkpt>
      <trkpt lat="47.2603" lon="-1.54264">
        <ele>17.47</ele>
        <time>2016-12-17T13:53:21Z</time>
      </trkpt>
      <trkpt lat="47.26007" lon="-1.54269">
        <ele>22.1</ele>
        <time>2016-12-17T13:53:25Z</time>
      </trkpt>
      <trkpt lat="47.25986" lon="-1.54274">
        <ele>22.45</ele>
        <time>2016-12-17T13:53:29Z</time>
      </trkpt>
      <trkpt lat="47.25965" lon="-1.5428">
        <ele>23.03</ele>
        <time>2016-12-17T13:53:33Z</time>
      </trkpt>
      <trkpt lat="47.25941" lon="-1.54289">
        <ele>26.06</ele>
        <time>2016-12-17T13:53:37Z</time>
      </trkpt>
      <trkpt lat="47.25919" lon="-1.54294">
        <ele>23.21</ele>
        <time>2016-12-17T13:53:41Z</time>
      </trkpt>
      <trkpt lat="47.25897" lon="-1.54294">
        <ele>21.92</ele>
        <time>2016-12-17T13:53:45Z</time>
      </trkpt>
      <trkpt lat="47.25874" lon="-1.54291">
        <ele>21.65</ele>
        <time>2016-12-17T13:53:49Z</time>
      </trkpt>
      <trkpt lat="47.25854" lon="-1.5428">
        <ele>21.39</ele>
        <time>2016-12-17T13:53:52Z</time>
      </trkpt>
      <trkpt lat="47.25831" lon="-1.54261">
        <ele>22.37</ele>
        <time>2016-12-17T13:53:55Z</time>
      </trkpt>
      <trkpt lat="47.25816" lon="-1.54245">
        <ele>22.04</ele>
        <time>2016-12-17T13:53:57Z</time>
      </trkpt>
      <trkpt lat="47.25805" lon="-1.54215">
        <ele>21.91</ele>
        <time>2016-12-17T13:54:00Z</time>
      </trkpt>
      <trkpt lat="47.25794" lon="-1.54184">
        <ele>20.49</ele>
        <time>2016-12-17T13:54:03Z</time>
      </trkpt>
      <trkpt lat="47.25784" lon="-1.54153">
        <ele>17.23</ele>
        <time>2016-12-17T13:54:06Z</time>
      </trkpt>
      <trkpt lat="47.25773" lon="-1.5412">
        <ele>13.88</ele>
        <time>2016-12-17T13:54:09Z</time>
      </trkpt>
      <trkpt lat="47.25764" lon="-1.54087">
        <ele>13.32</ele>
        <time>2016-12-17T13:54:12Z</time>
      </trkpt>
      <trkpt lat="47.25756" lon="-1.54062">
        <ele>13.42</ele>
        <time>2016-12-17T13:54:14Z</time>
      </trkpt>
      <trkpt lat="47.25749" lon="-1.54037">
        <ele>12.79</ele>
        <time>2016-12-17T13:54:16Z</time>
      </trkpt>
      <trkpt lat="47.25738" lon="-1.54003">
        <ele>11.71</ele>
        <time>2016-12-17T13:54:19Z</time>
      </trkpt>
      <trkpt lat="47.2573" lon="-1.53978">
        <ele>11.34</ele>
        <time>2016-12-17T13:54:21Z</time>
      </trkpt>
      <trkpt lat="47.25713" lon="-1.5395">
        <ele>11.5</ele>
        <time>2016-12-17T13:54:24Z</time>
      </trkpt>
      <trkpt lat="47.25695" lon="-1.53943">
        <ele>11.19</ele>
        <time>2016-12-17T13:54:26Z</time>
      </trkpt>
      <trkpt lat="47.25671" lon="-1.53938">
        <ele>10.18</ele>
        <time>2016-12-17T13:54:29Z</time>
      </trkpt>
      <trkpt lat="47.25647" lon="-1.53941">
        <ele>7.4</ele>
        <time>2016-12-17T13:54:32Z</time>
      </trkpt>
      <trkpt lat="47.25624" lon="-1.53949">
        <ele>6.4</ele>
        <time>2016-12-17T13:54:35Z</time>
      </trkpt>
      <trkpt lat="47.25606" lon="-1.53955">
        <ele>7.23</ele>
        <time>2016-12-17T13:54:37Z</time>
      </trkpt>
      <trkpt lat="47.25584" lon="-1.53971">
        <ele>5.67</ele>
        <time>2016-12-17T13:54:40Z</time>
      </trkpt>
      <trkpt lat="47.25565" lon="-1.53982">
        <ele>3.69</ele>
        <time>2016-12-17T13:54:43Z</time>
      </trkpt>
      <trkpt lat="47.25547" lon="-1.53991">
        <ele>2.48</ele>
        <time>2016-12-17T13:54:46Z</time>
      </trkpt>
      <trkpt lat="47.25527" lon="-1.54002">
        <ele>0.52</ele>
        <time>2016-12-17T13:54:49Z</time>
      </trkpt>
      <trkpt lat="47.25509" lon="-1.54011">
        <ele>0.68</ele>
        <time>2016-12-17T13:54:52Z</time>
      </trkpt>
      <trkpt lat="47.25485" lon="-1.54015">
        <ele>-0.83</ele>
        <time>2016-12-17T13:54:55Z</time>
      </trkpt>
      <trkpt lat="47.25465" lon="-1.54013">
        <ele>-0.53</ele>
        <time>2016-12-17T13:54:58Z</time>
      </trkpt>
      <trkpt lat="47.25444" lon="-1.54013">
        <ele>0.87</ele>
        <time>2016-12-17T13:55:01Z</time>
      </trkpt>
      <trkpt lat="47.25419" lon="-1.54019">
        <ele>-0.23</ele>
        <time>2016-12-17T13:55:04Z</time>
      </trkpt>
      <trkpt lat="47.25396" lon="-1.54023">
        <ele>-0.1</ele>
        <time>2016-12-17T13:55:07Z</time>
      </trkpt>
      <trkpt lat="47.25371" lon="-1.54028">
        <ele>1.17</ele>
        <time>2016-12-17T13:55:11Z</time>
      </trkpt>
      <trkpt lat="47.25353" lon="-1.54034">
        <ele>0.47</ele>
        <time>2016-12-17T13:55:14Z</time>
      </trkpt>
      <trkpt lat="47.25331" lon="-1.54041">
        <ele>0.74</ele>
        <time>2016-12-17T13:55:17Z</time>
      </trkpt>
      <trkpt lat="47.25311" lon="-1.54047">
        <ele>-1.36</ele>
        <time>2016-12-17T13:55:20Z</time>
      </trkpt>
      <trkpt lat="47.2529" lon="-1.54052">
        <ele>-2.48</ele>
        <time>2016-12-17T13:55:23Z</time>
      </trkpt>
      <trkpt lat="47.25269" lon="-1.54057">
        <ele>-3.15</ele>
        <time>2016-12-17T13:55:26Z</time>
      </trkpt>
      <trkpt lat="47.2525" lon="-1.54063">
        <ele>-0.61</ele>
        <time>2016-12-17T13:55:29Z</time>
      </trkpt>
      <trkpt lat="47.25227" lon="-1.54067">
        <ele>2.45</ele>
        <time>2016-12-17T13:55:32Z</time>
      </trkpt>
      <trkpt lat="47.25204" lon="-1.54074">
        <ele>2.4</ele>
        <time>2016-12-17T13:55:35Z</time>
      </trkpt>
      <trkpt lat="47.25184" lon="-1.54081">
        <ele>0.07</ele>
        <time>2016-12-17T13:55:38Z</time>
      </trkpt>
      <trkpt lat="47.25162" lon="-1.54085">
        <ele>-0.18</ele>
        <time>2016-12-17T13:55:42Z</time>
      </trkpt>
      <trkpt lat="47.25142" lon="-1.5409">
        <ele>-0.18</ele>
        <time>2016-12-17T13:55:48Z</time>
      </trkpt>
      <trkpt lat="47.25123" lon="-1.54103">
        <ele>-1.1</ele>
        <time>2016-12-17T13:55:55Z</time>
      </trkpt>
      <trkpt lat="47.25106" lon="-1.54114">
        <ele>-1.45</ele>
        <time>2016-12-17T13:55:58Z</time>
      </trkpt>
      <trkpt lat="47.25087" lon="-1.54125">
        <ele>-0.72</ele>
        <time>2016-12-17T13:56:01Z</time>
      </trkpt>
      <trkpt lat="47.25071" lon="-1.54138">
        <ele>-2.57</ele>
        <time>2016-12-17T13:56:04Z</time>
      </trkpt>
      <trkpt lat="47.25054" lon="-1.54156">
        <ele>-3.2</ele>
        <time>2016-12-17T13:56:07Z</time>
      </trkpt>
      <trkpt lat="47.2504" lon="-1.54175">
        <ele>-4.51</ele>
        <time>2016-12-17T13:56:10Z</time>
      </trkpt>
      <trkpt lat="47.25025" lon="-1.54195">
        <ele>-6.74</ele>
        <time>2016-12-17T13:56:13Z</time>
      </trkpt>
      <trkpt lat="47.25011" lon="-1.54213">
        <ele>-6.16</ele>
        <time>2016-12-17T13:56:16Z</time>
      </trkpt>
      <trkpt lat="47.24995" lon="-1.54232">
        <ele>-5.8</ele>
        <time>2016-12-17T13:56:20Z</time>
      </trkpt>
      <trkpt lat="47.24978" lon="-1.5425">
        <ele>-5.66</ele>
        <time>2016-12-17T13:56:23Z</time>
      </trkpt>
      <trkpt lat="47.24962" lon="-1.54268">
        <ele>-2.8</ele>
        <time>2016-12-17T13:56:27Z</time>
      </trkpt>
      <trkpt lat="47.24948" lon="-1.5429">
        <ele>-1.32</ele>
        <time>2016-12-17T13:56:31Z</time>
      </trkpt>
      <trkpt lat="47.24932" lon="-1.54313">
        <ele>-1.16</ele>
        <time>2016-12-17T13:56:35Z</time>
      </trkpt>
      <trkpt lat="47.24916" lon="-1.54334">
        <ele>1.07</ele>
        <time>2016-12-17T13:56:39Z</time>
      </trkpt>
      <trkpt lat="47.24901" lon="-1.5435">
        <ele>0.59</ele>
        <time>2016-12-17T13:56:42Z</time>
      </trkpt>
      <trkpt lat="47.24884" lon="-1.5437">
        <ele>0.71</ele>
        <time>2016-12-17T13:56:46Z</time>
      </trkpt>
      <trkpt lat="47.24866" lon="-1.54388">
        <ele>-2.06</ele>
        <time>2016-12-17T13:56:50Z</time>
      </trkpt>
      <trkpt lat="47.24851" lon="-1.54405">
        <ele>-1.55</ele>
        <time>2016-12-17T13:56:53Z</time>
      </trkpt>
      <trkpt lat="47.24835" lon="-1.54426">
        <ele>-0.61</ele>
        <time>2016-12-17T13:56:57Z</time>
      </trkpt>
      <trkpt lat="47.24819" lon="-1.54445">
        <ele>-1.86</ele>
        <time>2016-12-17T13:57:00Z</time>
      </trkpt>
      <trkpt lat="47.24804" lon="-1.54462">
        <ele>-4.13</ele>
        <time>2016-12-17T13:57:03Z</time>
      </trkpt>
      <trkpt lat="47.24787" lon="-1.54479">
        <ele>-3.48</ele>
        <time>2016-12-17T13:57:07Z</time>
      </trkpt>
      <trkpt lat="47.24771" lon="-1.54495">
        <ele>-0.84</ele>
        <time>2016-12-17T13:57:11Z</time>
      </trkpt>
      <trkpt lat="47.24758" lon="-1.54516">
        <ele>-0.63</ele>
        <time>2016-12-17T13:57:18Z</time>
      </trkpt>
      <trkpt lat="47.24742" lon="-1.54531">
        <ele>-1.37</ele>
        <time>2016-12-17T13:57:22Z</time>
      </trkpt>
      <trkpt lat="47.24723" lon="-1.54542">
        <ele>-1.41</ele>
        <time>2016-12-17T13:57:28Z</time>
      </trkpt>
      <trkpt lat="47.24705" lon="-1.54556">
        <ele>-2.45</ele>
        <time>2016-12-17T13:57:33Z</time>
      </trkpt>
      <trkpt lat="47.24683" lon="-1.54565">
        <ele>-2.95</ele>
        <time>2016-12-17T13:57:38Z</time>
      </trkpt>
      <trkpt lat="47.24664" lon="-1.54572">
        <ele>-2.01</ele>
        <time>2016-12-17T13:57:41Z</time>
      </trkpt>
      <trkpt lat="47.24646" lon="-1.54583">
        <ele>0.28</ele>
        <time>2016-12-17T13:57:45Z</time>
      </trkpt>
      <trkpt lat="47.2463" lon="-1.54598">
        <ele>0.46</ele>
        <time>2016-12-17T13:57:50Z</time>
      </trkpt>
      <trkpt lat="47.2461" lon="-1.546">
        <ele>2.13</ele>
        <time>2016-12-17T13:57:57Z</time>
      </trkpt>
      <trkpt lat="47.24587" lon="-1.546">
        <ele>4.99</ele>
        <time>2016-12-17T13:58:01Z</time>
      </trkpt>
      <trkpt lat="47.24566" lon="-1.54606">
        <ele>7.28</ele>
        <time>2016-12-17T13:58:05Z</time>
      </trkpt>
      <trkpt lat="47.24548" lon="-1.54617">
        <ele>4.82</ele>
        <time>2016-12-17T13:58:08Z</time>
      </trkpt>
      <trkpt lat="47.24531" lon="-1.54627">
        <ele>3.08</ele>
        <time>2016-12-17T13:58:11Z</time>
      </trkpt>
      <trkpt lat="47.24508" lon="-1.54637">
        <ele>0.3</ele>
        <time>2016-12-17T13:58:15Z</time>
      </trkpt>
      <trkpt lat="47.24486" lon="-1.5465">
        <ele>-1.39</ele>
        <time>2016-12-17T13:58:19Z</time>
      </trkpt>
      <trkpt lat="47.24464" lon="-1.54666">
        <ele>-3.07</ele>
        <time>2016-12-17T13:58:23Z</time>
      </trkpt>
      <trkpt lat="47.24444" lon="-1.54681">
        <ele>-2.98</ele>
        <time>2016-12-17T13:58:27Z</time>
      </trkpt>
      <trkpt lat="47.24424" lon="-1.54692">
        <ele>-1.61</ele>
        <time>2016-12-17T13:58:31Z</time>
      </trkpt>
      <trkpt lat="47.24405" lon="-1.54703">
        <ele>-0.74</ele>
        <time>2016-12-17T13:58:34Z</time>
      </trkpt>
      <trkpt lat="47.24385" lon="-1.54719">
        <ele>-3.31</ele>
        <time>2016-12-17T13:58:38Z</time>
      </trkpt>
      <trkpt lat="47.24367" lon="-1.54734">
        <ele>-2.87</ele>
        <time>2016-12-17T13:58:42Z</time>
      </trkpt>
      <trkpt lat="47.24348" lon="-1.5475">
        <ele>-3.14</ele>
        <time>2016-12-17T13:58:46Z</time>
      </trkpt>
      <trkpt lat="47.24333" lon="-1.5477">
        <ele>-3.43</ele>
        <time>2016-12-17T13:58:50Z</time>
      </trkpt>
      <trkpt lat="47.2432" lon="-1.5479">
        <ele>-3.17</ele>
        <time>2016-12-17T13:58:53Z</time>
      </trkpt>
      <trkpt lat="47.24301" lon="-1.54798">
        <ele>-0.42</ele>
        <time>2016-12-17T13:58:57Z</time>
      </trkpt>
      <trkpt lat="47.24283" lon="-1.54805">
        <ele>-0.04</ele>
        <time>2016-12-17T13:59:00Z</time>
      </trkpt>
      <trkpt lat="47.24265" lon="-1.54822">
        <ele>-0.4</ele>
        <time>2016-12-17T13:59:05Z</time>
      </trkpt>
      <trkpt lat="47.24245" lon="-1.54821">
        <ele>1.33</ele>
        <time>2016-12-17T13:59:25Z</time>
      </trkpt>
      <trkpt lat="47.24224" lon="-1.54818">
        <ele>1.8</ele>
        <time>2016-12-17T13:59:34Z</time>
      </trkpt>
      <trkpt lat="47.24208" lon="-1.54803">
        <ele>1.72</ele>
        <time>2016-12-17T13:59:39Z</time>
      </trkpt>
      <trkpt lat="47.24188" lon="-1.54793">
        <ele>1.59</ele>
        <time>2016-12-17T13:59:43Z</time>
      </trkpt>
      <trkpt lat="47.24168" lon="-1.54789">
        <ele>2.74</ele>
        <time>2016-12-17T13:59:47Z</time>
      </trkpt>
      <trkpt lat="47.24149" lon="-1.5479">
        <ele>1.03</ele>
        <time>2016-12-17T13:59:50Z</time>
      </trkpt>
      <trkpt lat="47.2413" lon="-1.54791">
        <ele>-2.46</ele>
        <time>2016-12-17T13:59:53Z</time>
      </trkpt>
      <trkpt lat="47.24108" lon="-1.54797">
        <ele>-5.87</ele>
        <time>2016-12-17T13:59:57Z</time>
      </trkpt>
      <trkpt lat="47.2409" lon="-1.5482">
        <ele>-9.46</ele>
        <time>2016-12-17T14:00:01Z</time>
      </trkpt>
      <trkpt lat="47.24072" lon="-1.54838">
        <ele>-9.5</ele>
        <time>2016-12-17T14:00:05Z</time>
      </trkpt>
      <trkpt lat="47.24057" lon="-1.54855">
        <ele>-8.74</ele>
        <time>2016-12-17T14:00:09Z</time>
      </trkpt>
      <trkpt lat="47.24043" lon="-1.54877">
        <ele>-8.9</ele>
        <time>2016-12-17T14:00:13Z</time>
      </trkpt>
      <trkpt lat="47.24026" lon="-1.54904">
        <ele>-8.39</ele>
        <time>2016-12-17T14:00:17Z</time>
      </trkpt>
      <trkpt lat="47.24011" lon="-1.54925">
        <ele>-8.13</ele>
        <time>2016-12-17T14:00:21Z</time>
      </trkpt>
      <trkpt lat="47.23995" lon="-1.54939">
        <ele>-7.51</ele>
        <time>2016-12-17T14:00:25Z</time>
      </trkpt>
      <trkpt lat="47.2398" lon="-1.5496">
        <ele>-6.51</ele>
        <time>2016-12-17T14:00:29Z</time>
      </trkpt>
      <trkpt lat="47.23963" lon="-1.54978">
        <ele>-6.52</ele>
        <time>2016-12-17T14:00:33Z</time>
      </trkpt>
      <trkpt lat="47.23947" lon="-1.54999">
        <ele>-4.28</ele>
        <time>2016-12-17T14:00:37Z</time>
      </trkpt>
      <trkpt lat="47.23929" lon="-1.55005">
        <ele>-3.87</ele>
        <time>2016-12-17T14:00:42Z</time>
      </trkpt>
      <trkpt lat="47.23907" lon="-1.55004">
        <ele>-4.91</ele>
        <time>2016-12-17T14:00:53Z</time>
      </trkpt>
      <trkpt lat="47.23885" lon="-1.55004">
        <ele>-6.37</ele>
        <time>2016-12-17T14:00:59Z</time>
      </trkpt>
      <trkpt lat="47.23864" lon="-1.55019">
        <ele>-7.47</ele>
        <time>2016-12-17T14:01:03Z</time>
      </trkpt>
      <trkpt lat="47.23847" lon="-1.55038">
        <ele>-6.69</ele>
        <time>2016-12-17T14:01:07Z</time>
      </trkpt>
      <trkpt lat="47.2383" lon="-1.55055">
        <ele>-5.98</ele>
        <time>2016-12-17T14:01:13Z</time>
      </trkpt>
      <trkpt lat="47.2381" lon="-1.5506">
        <ele>-6.13</ele>
        <time>2016-12-17T14:01:19Z</time>
      </trkpt>
      <trkpt lat="47.23788" lon="-1.55059">
        <ele>-3.86</ele>
        <time>2016-12-17T14:01:23Z</time>
      </trkpt>
      <trkpt lat="47.2377" lon="-1.55056">
        <ele>-2.81</ele>
        <time>2016-12-17T14:01:26Z</time>
      </trkpt>
      <trkpt lat="47.2375" lon="-1.55051">
        <ele>-1.25</ele>
        <time>2016-12-17T14:01:30Z</time>
      </trkpt>
      <trkpt lat="47.23728" lon="-1.5505">
        <ele>-3.05</ele>
        <time>2016-12-17T14:01:35Z</time>
      </trkpt>
      <trkpt lat="47.23707" lon="-1.55053">
        <ele>-4.83</ele>
        <time>2016-12-17T14:01:39Z</time>
      </trkpt>
      <trkpt lat="47.23688" lon="-1.55049">
        <ele>-5.34</ele>
        <time>2016-12-17T14:01:44Z</time>
      </trkpt>
      <trkpt lat="47.23667" lon="-1.5505">
        <ele>-4.55</ele>
        <time>2016-12-17T14:01:52Z</time>
      </trkpt>
      <trkpt lat="47.23649" lon="-1.55046">
        <ele>-2.88</ele>
        <time>2016-12-17T14:01:56Z</time>
      </trkpt>
      <trkpt lat="47.23629" lon="-1.55041">
        <ele>-6.27</ele>
        <time>2016-12-17T14:02:01Z</time>
      </trkpt>
      <trkpt lat="47.2361" lon="-1.55029">
        <ele>-5.62</ele>
        <time>2016-12-17T14:02:05Z</time>
      </trkpt>
      <trkpt lat="47.23595" lon="-1.55012">
        <ele>-1.91</ele>
        <time>2016-12-17T14:02:09Z</time>
      </trkpt>
      <trkpt lat="47.23581" lon="-1.54991">
        <ele>0.74</ele>
        <time>2016-12-17T14:02:13Z</time>
      </trkpt>
      <trkpt lat="47.23568" lon="-1.54964">
        <ele>1.44</ele>
        <time>2016-12-17T14:02:17Z</time>
      </trkpt>
      <trkpt lat="47.23554" lon="-1.54942">
        <ele>3.22</ele>
        <time>2016-12-17T14:02:21Z</time>
      </trkpt>
      <trkpt lat="47.23539" lon="-1.54921">
        <ele>4.02</ele>
        <time>2016-12-17T14:02:25Z</time>
      </trkpt>
      <trkpt lat="47.23516" lon="-1.54906">
        <ele>0.79</ele>
        <time>2016-12-17T14:02:30Z</time>
      </trkpt>
      <trkpt lat="47.23494" lon="-1.54899">
        <ele>-0.44</ele>
        <time>2016-12-17T14:02:33Z</time>
      </trkpt>
      <trkpt lat="47.23474" lon="-1.54893">
        <ele>-1.39</ele>
        <time>2016-12-17T14:02:36Z</time>
      </trkpt>
      <trkpt lat="47.23455" lon="-1.5489">
        <ele>-1.94</ele>
        <time>2016-12-17T14:02:39Z</time>
      </trkpt>
      <trkpt lat="47.23437" lon="-1.54888">
        <ele>-2.15</ele>
        <time>2016-12-17T14:02:42Z</time>
      </trkpt>
      <trkpt lat="47.23418" lon="-1.54885">
        <ele>-1.74</ele>
        <time>2016-12-17T14:02:45Z</time>
      </trkpt>
      <trkpt lat="47.23399" lon="-1.54883">
        <ele>-1.94</ele>
        <time>2016-12-17T14:02:48Z</time>
      </trkpt>
      <trkpt lat="47.23376" lon="-1.5488">
        <ele>-2.06</ele>
        <time>2016-12-17T14:02:52Z</time>
      </trkpt>
      <trkpt lat="47.23357" lon="-1.5488">
        <ele>-2.97</ele>
        <time>2016-12-17T14:02:57Z</time>
      </trkpt>
      <trkpt lat="47.23335" lon="-1.54884">
        <ele>-3.48</ele>
        <time>2016-12-17T14:03:01Z</time>
      </trkpt>
      <trkpt lat="47.23317" lon="-1.54882">
        <ele>-1.66</ele>
        <time>2016-12-17T14:03:04Z</time>
      </trkpt>
      <trkpt lat="47.23296" lon="-1.54885">
        <ele>-1.86</ele>
        <time>2016-12-17T14:03:08Z</time>
      </trkpt>
      <trkpt lat="47.23277" lon="-1.54885">
        <ele>-0.79</ele>
        <time>2016-12-17T14:03:11Z</time>
      </trkpt>
      <trkpt lat="47.23257" lon="-1.54886">
        <ele>0.29</ele>
        <time>2016-12-17T14:03:14Z</time>
      </trkpt>
      <trkpt lat="47.23238" lon="-1.54897">
        <ele>1.94</ele>
        <time>2016-12-17T14:03:18Z</time>
      </trkpt>
      <trkpt lat="47.23217" lon="-1.54908">
        <ele>1.38</ele>
        <time>2016-12-17T14:03:21Z</time>
      </trkpt>
      <trkpt lat="47.232" lon="-1.54919">
        <ele>0.27</ele>
        <time>2016-12-17T14:03:24Z</time>
      </trkpt>
      <trkpt lat="47.23181" lon="-1.54932">
        <ele>-0.94</ele>
        <time>2016-12-17T14:03:27Z</time>
      </trkpt>
      <trkpt lat="47.23163" lon="-1.54947">
        <ele>-2.46</ele>
        <time>2016-12-17T14:03:30Z</time>
      </trkpt>
      <trkpt lat="47.23147" lon="-1.54964">
        <ele>-4.37</ele>
        <time>2016-12-17T14:03:33Z</time>
      </trkpt>
      <trkpt lat="47.23131" lon="-1.54981">
        <ele>-4.84</ele>
        <time>2016-12-17T14:03:36Z</time>
      </trkpt>
      <trkpt lat="47.23115" lon="-1.54999">
        <ele>-5.29</ele>
        <time>2016-12-17T14:03:39Z</time>
      </trkpt>
      <trkpt lat="47.23099" lon="-1.55017">
        <ele>-4.59</ele>
        <time>2016-12-17T14:03:42Z</time>
      </trkpt>
      <trkpt lat="47.23084" lon="-1.55036">
        <ele>-4.26</ele>
        <time>2016-12-17T14:03:45Z</time>
      </trkpt>
      <trkpt lat="47.23067" lon="-1.55054">
        <ele>-5.09</ele>
        <time>2016-12-17T14:03:48Z</time>
      </trkpt>
      <trkpt lat="47.2305" lon="-1.55073">
        <ele>-6.84</ele>
        <time>2016-12-17T14:03:51Z</time>
      </trkpt>
      <trkpt lat="47.23033" lon="-1.55089">
        <ele>-7.61</ele>
        <time>2016-12-17T14:03:54Z</time>
      </trkpt>
      <trkpt lat="47.23016" lon="-1.55108">
        <ele>-7.08</ele>
        <time>2016-12-17T14:03:57Z</time>
      </trkpt>
      <trkpt lat="47.23001" lon="-1.55126">
        <ele>-5.3</ele>
        <time>2016-12-17T14:04:00Z</time>
      </trkpt>
      <trkpt lat="47.22985" lon="-1.55144">
        <ele>-3.29</ele>
        <time>2016-12-17T14:04:03Z</time>
      </trkpt>
      <trkpt lat="47.22969" lon="-1.55163">
        <ele>-3.29</ele>
        <time>2016-12-17T14:04:06Z</time>
      </trkpt>
      <trkpt lat="47.22952" lon="-1.55182">
        <ele>-4.59</ele>
        <time>2016-12-17T14:04:09Z</time>
      </trkpt>
      <trkpt lat="47.22938" lon="-1.552">
        <ele>-4.4</ele>
        <time>2016-12-17T14:04:12Z</time>
      </trkpt>
      <trkpt lat="47.22922" lon="-1.55219">
        <ele>-3.68</ele>
        <time>2016-12-17T14:04:15Z</time>
      </trkpt>
      <trkpt lat="47.22907" lon="-1.55237">
        <ele>-4.65</ele>
        <time>2016-12-17T14:04:18Z</time>
      </trkpt>
      <trkpt lat="47.2289" lon="-1.55257">
        <ele>-5.84</ele>
        <time>2016-12-17T14:04:21Z</time>
      </trkpt>
      <trkpt lat="47.22874" lon="-1.55274">
        <ele>-5.02</ele>
        <time>2016-12-17T14:04:24Z</time>
      </trkpt>
      <trkpt lat="47.22858" lon="-1.55292">
        <ele>-3.8</ele>
        <time>2016-12-17T14:04:27Z</time>
      </trkpt>
      <trkpt lat="47.22844" lon="-1.55311">
        <ele>-2.61</ele>
        <time>2016-12-17T14:04:30Z</time>
      </trkpt>
      <trkpt lat="47.22831" lon="-1.5533">
        <ele>-1.67</ele>
        <time>2016-12-17T14:04:33Z</time>
      </trkpt>
      <trkpt lat="47.22817" lon="-1.5535">
        <ele>-2.36</ele>
        <time>2016-12-17T14:04:36Z</time>
      </trkpt>
      <trkpt lat="47.22804" lon="-1.55369">
        <ele>-4.23</ele>
        <time>2016-12-17T14:04:39Z</time>
      </trkpt>
      <trkpt lat="47.22789" lon="-1.55389">
        <ele>-6</ele>
        <time>2016-12-17T14:04:42Z</time>
      </trkpt>
      <trkpt lat="47.22775" lon="-1.5541">
        <ele>-6</ele>
        <time>2016-12-17T14:04:45Z</time>
      </trkpt>
      <trkpt lat="47.22762" lon="-1.55428">
        <ele>-6.33</ele>
        <time>2016-12-17T14:04:48Z</time>
      </trkpt>
      <trkpt lat="47.22746" lon="-1.55451">
        <ele>-5.17</ele>
        <time>2016-12-17T14:04:52Z</time>
      </trkpt>
      <trkpt lat="47.22732" lon="-1.55473">
        <ele>-3.36</ele>
        <time>2016-12-17T14:04:56Z</time>
      </trkpt>
      <trkpt lat="47.22717" lon="-1.55497">
        <ele>-3.13</ele>
        <time>2016-12-17T14:05:00Z</time>
      </trkpt>
      <trkpt lat="47.22702" lon="-1.55513">
        <ele>-1.92</ele>
        <time>2016-12-17T14:05:03Z</time>
      </trkpt>
      <trkpt lat="47.2269" lon="-1.55532">
        <ele>-1.72</ele>
        <time>2016-12-17T14:05:06Z</time>
      </trkpt>
      <trkpt lat="47.22673" lon="-1.5555">
        <ele>-2.81</ele>
        <time>2016-12-17T14:05:10Z</time>
      </trkpt>
      <trkpt lat="47.22651" lon="-1.55563">
        <ele>-3.99</ele>
        <time>2016-12-17T14:05:14Z</time>
      </trkpt>
      <trkpt lat="47.22634" lon="-1.55572">
        <ele>-2.4</ele>
        <time>2016-12-17T14:05:17Z</time>
      </trkpt>
      <trkpt lat="47.22614" lon="-1.5558">
        <ele>1.62</ele>
        <time>2016-12-17T14:05:21Z</time>
      </trkpt>
      <trkpt lat="47.22595" lon="-1.55579">
        <ele>3.96</ele>
        <time>2016-12-17T14:05:24Z</time>
      </trkpt>
      <trkpt lat="47.22575" lon="-1.55572">
        <ele>4.82</ele>
        <time>2016-12-17T14:05:27Z</time>
      </trkpt>
      <trkpt lat="47.22555" lon="-1.55565">
        <ele>7.87</ele>
        <time>2016-12-17T14:05:30Z</time>
      </trkpt>
      <trkpt lat="47.22538" lon="-1.55553">
        <ele>9.96</ele>
        <time>2016-12-17T14:05:33Z</time>
      </trkpt>
      <trkpt lat="47.22519" lon="-1.55536">
        <ele>13.4</ele>
        <time>2016-12-17T14:05:36Z</time>
      </trkpt>
      <trkpt lat="47.22504" lon="-1.55513">
        <ele>13.7</ele>
        <time>2016-12-17T14:05:39Z</time>
      </trkpt>
      <trkpt lat="47.22491" lon="-1.55485">
        <ele>14.88</ele>
        <time>2016-12-17T14:05:42Z</time>
      </trkpt>
      <trkpt lat="47.22479" lon="-1.55456">
        <ele>13.95</ele>
        <time>2016-12-17T14:05:45Z</time>
      </trkpt>
      <trkpt lat="47.2247" lon="-1.55431">
        <ele>12.22</ele>
        <time>2016-12-17T14:05:48Z</time>
      </trkpt>
      <trkpt lat="47.22457" lon="-1.55401">
        <ele>12</ele>
        <time>2016-12-17T14:05:52Z</time>
      </trkpt>
      <trkpt lat="47.2244" lon="-1.55378">
        <ele>11.37</ele>
        <time>2016-12-17T14:05:56Z</time>
      </trkpt>
      <trkpt lat="47.22424" lon="-1.55361">
        <ele>9.15</ele>
        <time>2016-12-17T14:05:59Z</time>
      </trkpt>
      <trkpt lat="47.22403" lon="-1.55347">
        <ele>5.82</ele>
        <time>2016-12-17T14:06:02Z</time>
      </trkpt>
      <trkpt lat="47.22379" lon="-1.55341">
        <ele>3.63</ele>
        <time>2016-12-17T14:06:06Z</time>
      </trkpt>
      <trkpt lat="47.22357" lon="-1.55337">
        <ele>2.37</ele>
        <time>2016-12-17T14:06:09Z</time>
      </trkpt>
      <trkpt lat="47.22338" lon="-1.55336">
        <ele>2.55</ele>
        <time>2016-12-17T14:06:12Z</time>
      </trkpt>
      <trkpt lat="47.22316" lon="-1.55337">
        <ele>3.65</ele>
        <time>2016-12-17T14:06:15Z</time>
      </trkpt>
      <trkpt lat="47.22298" lon="-1.55335">
        <ele>1.56</ele>
        <time>2016-12-17T14:06:18Z</time>
      </trkpt>
      <trkpt lat="47.22277" lon="-1.55328">
        <ele>-1.01</ele>
        <time>2016-12-17T14:06:30Z</time>
      </trkpt>
      <trkpt lat="47.22259" lon="-1.55323">
        <ele>-1.44</ele>
        <time>2016-12-17T14:06:33Z</time>
      </trkpt>
      <trkpt lat="47.22239" lon="-1.55324">
        <ele>-0.24</ele>
        <time>2016-12-17T14:06:36Z</time>
      </trkpt>
      <trkpt lat="47.22219" lon="-1.5533">
        <ele>0.12</ele>
        <time>2016-12-17T14:06:39Z</time>
      </trkpt>
      <trkpt lat="47.22201" lon="-1.55342">
        <ele>-0.19</ele>
        <time>2016-12-17T14:06:42Z</time>
      </trkpt>
      <trkpt lat="47.22182" lon="-1.55354">
        <ele>-0.12</ele>
        <time>2016-12-17T14:06:45Z</time>
      </trkpt>
      <trkpt lat="47.22165" lon="-1.55365">
        <ele>-0.18</ele>
        <time>2016-12-17T14:06:48Z</time>
      </trkpt>
      <trkpt lat="47.22144" lon="-1.5538">
        <ele>-1.37</ele>
        <time>2016-12-17T14:06:51Z</time>
      </trkpt>
      <trkpt lat="47.22128" lon="-1.55399">
        <ele>-2.96</ele>
        <time>2016-12-17T14:06:54Z</time>
      </trkpt>
      <trkpt lat="47.22114" lon="-1.55421">
        <ele>-3.38</ele>
        <time>2016-12-17T14:06:57Z</time>
      </trkpt>
      <trkpt lat="47.22101" lon="-1.55447">
        <ele>-2.29</ele>
        <time>2016-12-17T14:07:01Z</time>
      </trkpt>
      <trkpt lat="47.22086" lon="-1.55472">
        <ele>-2.74</ele>
        <time>2016-12-17T14:07:05Z</time>
      </trkpt>
      <trkpt lat="47.22072" lon="-1.55494">
        <ele>-3.37</ele>
        <time>2016-12-17T14:07:08Z</time>
      </trkpt>
      <trkpt lat="47.22055" lon="-1.55516">
        <ele>-0.61</ele>
        <time>2016-12-17T14:07:12Z</time>
      </trkpt>
      <trkpt lat="47.22033" lon="-1.5552">
        <ele>0.18</ele>
        <time>2016-12-17T14:07:16Z</time>
      </trkpt>
      <trkpt lat="47.22015" lon="-1.55505">
        <ele>-0.38</ele>
        <time>2016-12-17T14:07:19Z</time>
      </trkpt>
      <trkpt lat="47.21996" lon="-1.5551">
        <ele>-1.92</ele>
        <time>2016-12-17T14:07:26Z</time>
      </trkpt>
      <trkpt lat="47.21984" lon="-1.55539">
        <ele>-2.17</ele>
        <time>2016-12-17T14:07:29Z</time>
      </trkpt>
      <trkpt lat="47.2197" lon="-1.55567">
        <ele>-1.83</ele>
        <time>2016-12-17T14:07:32Z</time>
      </trkpt>
      <trkpt lat="47.21953" lon="-1.55595">
        <ele>-2.27</ele>
        <time>2016-12-17T14:07:35Z</time>
      </trkpt>
      <trkpt lat="47.21936" lon="-1.55623">
        <ele>-5.14</ele>
        <time>2016-12-17T14:07:38Z</time>
      </trkpt>
      <trkpt lat="47.21921" lon="-1.55649">
        <ele>-4.61</ele>
        <time>2016-12-17T14:07:41Z</time>
      </trkpt>
      <trkpt lat="47.21906" lon="-1.55672">
        <ele>-4.85</ele>
        <time>2016-12-17T14:07:44Z</time>
      </trkpt>
      <trkpt lat="47.21886" lon="-1.55693">
        <ele>-2.69</ele>
        <time>2016-12-17T14:07:47Z</time>
      </trkpt>
      <trkpt lat="47.21863" lon="-1.55704">
        <ele>-3.23</ele>
        <time>2016-12-17T14:07:50Z</time>
      </trkpt>
      <trkpt lat="47.21842" lon="-1.55713">
        <ele>-4.86</ele>
        <time>2016-12-17T14:07:53Z</time>
      </trkpt>
      <trkpt lat="47.2182" lon="-1.55716">
        <ele>-5.44</ele>
        <time>2016-12-17T14:07:56Z</time>
      </trkpt>
      <trkpt lat="47.21798" lon="-1.55716">
        <ele>-5.27</ele>
        <time>2016-12-17T14:07:59Z</time>
      </trkpt>
      <trkpt lat="47.21775" lon="-1.55716">
        <ele>-5.86</ele>
        <time>2016-12-17T14:08:03Z</time>
      </trkpt>
      <trkpt lat="47.21756" lon="-1.55713">
        <ele>-3.88</ele>
        <time>2016-12-17T14:08:06Z</time>
      </trkpt>
      <trkpt lat="47.21737" lon="-1.55701">
        <ele>-3.33</ele>
        <time>2016-12-17T14:08:09Z</time>
      </trkpt>
      <trkpt lat="47.21714" lon="-1.55694">
        <ele>-2.79</ele>
        <time>2016-12-17T14:08:12Z</time>
      </trkpt>
      <trkpt lat="47.21691" lon="-1.55686">
        <ele>-2.07</ele>
        <time>2016-12-17T14:08:15Z</time>
      </trkpt>
      <trkpt lat="47.21666" lon="-1.55678">
        <ele>-3.02</ele>
        <time>2016-12-17T14:08:18Z</time>
      </trkpt>
      <trkpt lat="47.21644" lon="-1.55671">
        <ele>-1.95</ele>
        <time>2016-12-17T14:08:21Z</time>
      </trkpt>
      <trkpt lat="47.21624" lon="-1.55661">
        <ele>-0.58</ele>
        <time>2016-12-17T14:08:24Z</time>
      </trkpt>
      <trkpt lat="47.21604" lon="-1.55653">
        <ele>-0.55</ele>
        <time>2016-12-17T14:08:33Z</time>
      </trkpt>
      <trkpt lat="47.21585" lon="-1.55643">
        <ele>-1.28</ele>
        <time>2016-12-17T14:08:36Z</time>
      </trkpt>
      <trkpt lat="47.21565" lon="-1.55635">
        <ele>-3.76</ele>
        <time>2016-12-17T14:08:39Z</time>
      </trkpt>
      <trkpt lat="47.21541" lon="-1.55625">
        <ele>-6.69</ele>
        <time>2016-12-17T14:08:42Z</time>
      </trkpt>
      <trkpt lat="47.21521" lon="-1.55617">
        <ele>-6.73</ele>
        <time>2016-12-17T14:08:45Z</time>
      </trkpt>
      <trkpt lat="47.21504" lon="-1.55608">
        <ele>-8.28</ele>
        <time>2016-12-17T14:08:50Z</time>
      </trkpt>
      <trkpt lat="47.21486" lon="-1.55592">
        <ele>-3.85</ele>
        <time>2016-12-17T14:08:54Z</time>
      </trkpt>
      <trkpt lat="47.21465" lon="-1.55575">
        <ele>-2.9</ele>
        <time>2016-12-17T14:08:57Z</time>
      </trkpt>
      <trkpt lat="47.21445" lon="-1.55559">
        <ele>-3.31</ele>
        <time>2016-12-17T14:09:00Z</time>
      </trkpt>
      <trkpt lat="47.21428" lon="-1.55543">
        <ele>-2.93</ele>
        <time>2016-12-17T14:09:04Z</time>
      </trkpt>
      <trkpt lat="47.21411" lon="-1.55527">
        <ele>-2.63</ele>
        <time>2016-12-17T14:09:10Z</time>
      </trkpt>
      <trkpt lat="47.2139" lon="-1.55521">
        <ele>-2.67</ele>
        <time>2016-12-17T14:09:26Z</time>
      </trkpt>
      <trkpt lat="47.21368" lon="-1.5554">
        <ele>-3.2</ele>
        <time>2016-12-17T14:09:30Z</time>
      </trkpt>
      <trkpt lat="47.21356" lon="-1.55563">
        <ele>-4.07</ele>
        <time>2016-12-17T14:09:33Z</time>
      </trkpt>
      <trkpt lat="47.21345" lon="-1.55589">
        <ele>-3.88</ele>
        <time>2016-12-17T14:09:36Z</time>
      </trkpt>
      <trkpt lat="47.21335" lon="-1.55617">
        <ele>-4.97</ele>
        <time>2016-12-17T14:09:39Z</time>
      </trkpt>
      <trkpt lat="47.21327" lon="-1.5564">
        <ele>-6.87</ele>
        <time>2016-12-17T14:09:41Z</time>
      </trkpt>
      <trkpt lat="47.21316" lon="-1.5567">
        <ele>-8.5</ele>
        <time>2016-12-17T14:09:44Z</time>
      </trkpt>
      <trkpt lat="47.21303" lon="-1.55698">
        <ele>-9.86</ele>
        <time>2016-12-17T14:09:47Z</time>
      </trkpt>
      <trkpt lat="47.21293" lon="-1.55723">
        <ele>-8.31</ele>
        <time>2016-12-17T14:09:50Z</time>
      </trkpt>
      <trkpt lat="47.21283" lon="-1.55747">
        <ele>-5.52</ele>
        <time>2016-12-17T14:09:53Z</time>
      </trkpt>
      <trkpt lat="47.21273" lon="-1.55771">
        <ele>-4.03</ele>
        <time>2016-12-17T14:09:56Z</time>
      </trkpt>
      <trkpt lat="47.21259" lon="-1.55797">
        <ele>-4.17</ele>
        <time>2016-12-17T14:09:59Z</time>
      </trkpt>
      <trkpt lat="47.21241" lon="-1.55823">
        <ele>-2.94</ele>
        <time>2016-12-17T14:10:02Z</time>
      </trkpt>
      <trkpt lat="47.21226" lon="-1.55844">
        <ele>-2.93</ele>
        <time>2016-12-17T14:10:05Z</time>
      </trkpt>
      <trkpt lat="47.2121" lon="-1.55862">
        <ele>-2.28</ele>
        <time>2016-12-17T14:10:08Z</time>
      </trkpt>
      <trkpt lat="47.21196" lon="-1.55883">
        <ele>-1.05</ele>
        <time>2016-12-17T14:10:12Z</time>
      </trkpt>
      <trkpt lat="47.21176" lon="-1.55893">
        <ele>0.29</ele>
        <time>2016-12-17T14:10:16Z</time>
      </trkpt>
      <trkpt lat="47.21158" lon="-1.55893">
        <ele>1.47</ele>
        <time>2016-12-17T14:10:19Z</time>
      </trkpt>
      <trkpt lat="47.21138" lon="-1.55903">
        <ele>1.29</ele>
        <time>2016-12-17T14:10:22Z</time>
      </trkpt>
      <trkpt lat="47.21118" lon="-1.55916">
        <ele>0.71</ele>
        <time>2016-12-17T14:10:25Z</time>
      </trkpt>
      <trkpt lat="47.211" lon="-1.55928">
        <ele>0.9</ele>
        <time>2016-12-17T14:10:28Z</time>
      </trkpt>
      <trkpt lat="47.21084" lon="-1.55943">
        <ele>-0.41</ele>
        <time>2016-12-17T14:10:31Z</time>
      </trkpt>
      <trkpt lat="47.21069" lon="-1.55964">
        <ele>0.61</ele>
        <time>2016-12-17T14:10:35Z</time>
      </trkpt>
      <trkpt lat="47.21059" lon="-1.55992">
        <ele>-0.59</ele>
        <time>2016-12-17T14:10:39Z</time>
      </trkpt>
      <trkpt lat="47.21049" lon="-1.56015">
        <ele>-3.43</ele>
        <time>2016-12-17T14:10:42Z</time>
      </trkpt>
      <trkpt lat="47.21037" lon="-1.56045">
        <ele>-1.58</ele>
        <time>2016-12-17T14:10:46Z</time>
      </trkpt>
      <trkpt lat="47.21027" lon="-1.5607">
        <ele>-1.48</ele>
        <time>2016-12-17T14:10:49Z</time>
      </trkpt>
      <trkpt lat="47.21017" lon="-1.561">
        <ele>-4.52</ele>
        <time>2016-12-17T14:10:53Z</time>
      </trkpt>
      <trkpt lat="47.21007" lon="-1.56127">
        <ele>-6.4</ele>
        <time>2016-12-17T14:10:57Z</time>
      </trkpt>
      <trkpt lat="47.20997" lon="-1.56152">
        <ele>-4.21</ele>
        <time>2016-12-17T14:11:02Z</time>
      </trkpt>
      <trkpt lat="47.20982" lon="-1.56169">
        <ele>-1.06</ele>
        <time>2016-12-17T14:11:10Z</time>
      </trkpt>
      <trkpt lat="47.20962" lon="-1.56167">
        <ele>0.66</ele>
        <time>2016-12-17T14:11:14Z</time>
      </trkpt>
      <trkpt lat="47.20944" lon="-1.56161">
        <ele>0.53</ele>
        <time>2016-12-17T14:11:17Z</time>
      </trkpt>
      <trkpt lat="47.20926" lon="-1.56156">
        <ele>-0.23</ele>
        <time>2016-12-17T14:11:20Z</time>
      </trkpt>
      <trkpt lat="47.20907" lon="-1.56152">
        <ele>-1.25</ele>
        <time>2016-12-17T14:11:24Z</time>
      </trkpt>
      <trkpt lat="47.20883" lon="-1.56149">
        <ele>-0.12</ele>
        <time>2016-12-17T14:11:31Z</time>
      </trkpt>
      <trkpt lat="47.20865" lon="-1.56144">
        <ele>-0.48</ele>
        <time>2016-12-17T14:11:34Z</time>
      </trkpt>
      <trkpt lat="47.20845" lon="-1.56138">
        <ele>-0.36</ele>
        <time>2016-12-17T14:11:39Z</time>
      </trkpt>
      <trkpt lat="47.20831" lon="-1.56167">
        <ele>-3.81</ele>
        <time>2016-12-17T14:11:45Z</time>
      </trkpt>
      <trkpt lat="47.20829" lon="-1.562">
        <ele>-5.54</ele>
        <time>2016-12-17T14:11:49Z</time>
      </trkpt>
      <trkpt lat="47.2083" lon="-1.56233">
        <ele>-3.63</ele>
        <time>2016-12-17T14:11:53Z</time>
      </trkpt>
      <trkpt lat="47.20831" lon="-1.56261">
        <ele>-5.98</ele>
        <time>2016-12-17T14:11:56Z</time>
      </trkpt>
      <trkpt lat="47.20831" lon="-1.56288">
        <ele>-9.79</ele>
        <time>2016-12-17T14:11:59Z</time>
      </trkpt>
      <trkpt lat="47.20825" lon="-1.56322">
        <ele>-11.64</ele>
        <time>2016-12-17T14:12:02Z</time>
      </trkpt>
      <trkpt lat="47.20817" lon="-1.56347">
        <ele>-11.64</ele>
        <time>2016-12-17T14:12:05Z</time>
      </trkpt>
      <trkpt lat="47.20808" lon="-1.56371">
        <ele>-8.82</ele>
        <time>2016-12-17T14:12:08Z</time>
      </trkpt>
      <trkpt lat="47.20799" lon="-1.56394">
        <ele>-4.82</ele>
        <time>2016-12-17T14:12:11Z</time>
      </trkpt>
      <trkpt lat="47.2079" lon="-1.56422">
        <ele>-2.68</ele>
        <time>2016-12-17T14:12:14Z</time>
      </trkpt>
      <trkpt lat="47.20784" lon="-1.56449">
        <ele>-4.41</ele>
        <time>2016-12-17T14:12:17Z</time>
      </trkpt>
      <trkpt lat="47.20774" lon="-1.5648">
        <ele>-3.79</ele>
        <time>2016-12-17T14:12:21Z</time>
      </trkpt>
      <trkpt lat="47.20765" lon="-1.56507">
        <ele>-7.68</ele>
        <time>2016-12-17T14:12:25Z</time>
      </trkpt>
      <trkpt lat="47.20746" lon="-1.56492">
        <ele>-9.94</ele>
        <time>2016-12-17T14:12:32Z</time>
      </trkpt>
      <trkpt lat="47.20729" lon="-1.5651">
        <ele>-7.88</ele>
        <time>2016-12-17T14:12:39Z</time>
      </trkpt>
      <trkpt lat="47.20718" lon="-1.56538">
        <ele>-5.4</ele>
        <time>2016-12-17T14:12:42Z</time>
      </trkpt>
      <trkpt lat="47.20706" lon="-1.5656">
        <ele>-4.7</ele>
        <time>2016-12-17T14:12:45Z</time>
      </trkpt>
      <trkpt lat="47.20688" lon="-1.56573">
        <ele>-6.37</ele>
        <time>2016-12-17T14:12:51Z</time>
      </trkpt>
      <trkpt lat="47.2067" lon="-1.56578">
        <ele>-2.14</ele>
        <time>2016-12-17T14:12:56Z</time>
      </trkpt>
      <trkpt lat="47.20651" lon="-1.56574">
        <ele>0.68</ele>
        <time>2016-12-17T14:12:59Z</time>
      </trkpt>
      <trkpt lat="47.20638" lon="-1.56555">
        <ele>2.63</ele>
        <time>2016-12-17T14:13:02Z</time>
      </trkpt>
      <trkpt lat="47.20619" lon="-1.5656">
        <ele>1.13</ele>
        <time>2016-12-17T14:13:07Z</time>
      </trkpt>
      <trkpt lat="47.20606" lon="-1.56582">
        <ele>0.41</ele>
        <time>2016-12-17T14:13:10Z</time>
      </trkpt>
      <trkpt lat="47.20593" lon="-1.56606">
        <ele>-0.97</ele>
        <time>2016-12-17T14:13:13Z</time>
      </trkpt>
      <trkpt lat="47.20582" lon="-1.56629">
        <ele>-2.95</ele>
        <time>2016-12-17T14:13:16Z</time>
      </trkpt>
      <trkpt lat="47.20572" lon="-1.56651">
        <ele>-4.46</ele>
        <time>2016-12-17T14:13:19Z</time>
      </trkpt>
      <trkpt lat="47.20559" lon="-1.56679">
        <ele>-5.04</ele>
        <time>2016-12-17T14:13:23Z</time>
      </trkpt>
      <trkpt lat="47.20548" lon="-1.56706">
        <ele>-3.43</ele>
        <time>2016-12-17T14:13:27Z</time>
      </trkpt>
      <trkpt lat="47.20551" lon="-1.56737">
        <ele>-4.76</ele>
        <time>2016-12-17T14:13:30Z</time>
      </trkpt>
      <trkpt lat="47.20548" lon="-1.56772">
        <ele>-4.39</ele>
        <time>2016-12-17T14:13:33Z</time>
      </trkpt>
      <trkpt lat="47.20541" lon="-1.56806">
        <ele>-6.11</ele>
        <time>2016-12-17T14:13:36Z</time>
      </trkpt>
      <trkpt lat="47.20535" lon="-1.56835">
        <ele>-7.32</ele>
        <time>2016-12-17T14:13:39Z</time>
      </trkpt>
      <trkpt lat="47.20524" lon="-1.56867">
        <ele>-5.17</ele>
        <time>2016-12-17T14:13:43Z</time>
      </trkpt>
      <trkpt lat="47.20506" lon="-1.56877">
        <ele>-5.45</ele>
        <time>2016-12-17T14:13:47Z</time>
      </trkpt>
      <trkpt lat="47.2049" lon="-1.56907">
        <ele>-5.24</ele>
        <time>2016-12-17T14:13:51Z</time>
      </trkpt>
      <trkpt lat="47.2048" lon="-1.56935">
        <ele>-6.8</ele>
        <time>2016-12-17T14:13:54Z</time>
      </trkpt>
      <trkpt lat="47.20473" lon="-1.56963">
        <ele>-7.96</ele>
        <time>2016-12-17T14:13:57Z</time>
      </trkpt>
      <trkpt lat="47.20468" lon="-1.56992">
        <ele>-8.29</ele>
        <time>2016-12-17T14:14:00Z</time>
      </trkpt>
      <trkpt lat="47.20464" lon="-1.57019">
        <ele>-7</ele>
        <time>2016-12-17T14:14:03Z</time>
      </trkpt>
      <trkpt lat="47.20459" lon="-1.5705">
        <ele>-6.28</ele>
        <time>2016-12-17T14:14:06Z</time>
      </trkpt>
      <trkpt lat="47.20453" lon="-1.57077">
        <ele>-4.88</ele>
        <time>2016-12-17T14:14:09Z</time>
      </trkpt>
      <trkpt lat="47.20442" lon="-1.57103">
        <ele>-4.22</ele>
        <time>2016-12-17T14:14:12Z</time>
      </trkpt>
      <trkpt lat="47.20427" lon="-1.5712">
        <ele>-3.53</ele>
        <time>2016-12-17T14:14:15Z</time>
      </trkpt>
      <trkpt lat="47.20409" lon="-1.57136">
        <ele>-3.67</ele>
        <time>2016-12-17T14:14:18Z</time>
      </trkpt>
      <trkpt lat="47.20391" lon="-1.57146">
        <ele>-3.75</ele>
        <time>2016-12-17T14:14:21Z</time>
      </trkpt>
      <trkpt lat="47.20372" lon="-1.57159">
        <ele>-4.36</ele>
        <time>2016-12-17T14:14:24Z</time>
      </trkpt>
      <trkpt lat="47.20351" lon="-1.57174">
        <ele>-3.47</ele>
        <time>2016-12-17T14:14:28Z</time>
      </trkpt>
      <trkpt lat="47.20332" lon="-1.57181">
        <ele>-2.62</ele>
        <time>2016-12-17T14:14:31Z</time>
      </trkpt>
      <trkpt lat="47.20314" lon="-1.57186">
        <ele>-2.1</ele>
        <time>2016-12-17T14:14:34Z</time>
      </trkpt>
      <trkpt lat="47.20293" lon="-1.57196">
        <ele>-1.89</ele>
        <time>2016-12-17T14:14:37Z</time>
      </trkpt>
      <trkpt lat="47.20274" lon="-1.57206">
        <ele>-1.69</ele>
        <time>2016-12-17T14:14:40Z</time>
      </trkpt>
      <trkpt lat="47.20254" lon="-1.57213">
        <ele>-1.26</ele>
        <time>2016-12-17T14:14:43Z</time>
      </trkpt>
      <trkpt lat="47.20235" lon="-1.57206">
        <ele>-1.69</ele>
        <time>2016-12-17T14:14:46Z</time>
      </trkpt>
      <trkpt lat="47.20222" lon="-1.57182">
        <ele>-2.58</ele>
        <time>2016-12-17T14:14:50Z</time>
      </trkpt>
      <trkpt lat="47.20202" lon="-1.5719">
        <ele>-3.23</ele>
        <time>2016-12-17T14:14:54Z</time>
      </trkpt>
      <trkpt lat="47.20182" lon="-1.57203">
        <ele>-2.87</ele>
        <time>2016-12-17T14:14:57Z</time>
      </trkpt>
      <trkpt lat="47.20162" lon="-1.57215">
        <ele>-2.09</ele>
        <time>2016-12-17T14:15:00Z</time>
      </trkpt>
      <trkpt lat="47.20142" lon="-1.57228">
        <ele>-2.47</ele>
        <time>2016-12-17T14:15:03Z</time>
      </trkpt>
      <trkpt lat="47.20121" lon="-1.5724">
        <ele>-3.57</ele>
        <time>2016-12-17T14:15:06Z</time>
      </trkpt>
      <trkpt lat="47.20101" lon="-1.57252">
        <ele>-3.57</ele>
        <time>2016-12-17T14:15:09Z</time>
      </trkpt>
      <trkpt lat="47.20083" lon="-1.57265">
        <ele>-2.23</ele>
        <time>2016-12-17T14:15:12Z</time>
      </trkpt>
      <trkpt lat="47.20065" lon="-1.57278">
        <ele>-1.84</ele>
        <time>2016-12-17T14:15:15Z</time>
      </trkpt>
      <trkpt lat="47.20047" lon="-1.57289">
        <ele>-0.77</ele>
        <time>2016-12-17T14:15:18Z</time>
      </trkpt>
      <trkpt lat="47.20029" lon="-1.57302">
        <ele>-1.47</ele>
        <time>2016-12-17T14:15:21Z</time>
      </trkpt>
      <trkpt lat="47.20012" lon="-1.57314">
        <ele>-4.37</ele>
        <time>2016-12-17T14:15:24Z</time>
      </trkpt>
      <trkpt lat="47.19994" lon="-1.57327">
        <ele>-5.77</ele>
        <time>2016-12-17T14:15:27Z</time>
      </trkpt>
      <trkpt lat="47.19974" lon="-1.57321">
        <ele>-4.84</ele>
        <time>2016-12-17T14:15:33Z</time>
      </trkpt>
      <trkpt lat="47.19951" lon="-1.57323">
        <ele>-3.97</ele>
        <time>2016-12-17T14:15:39Z</time>
      </trkpt>
      <trkpt lat="47.19931" lon="-1.57324">
        <ele>-4.2</ele>
        <time>2016-12-17T14:15:43Z</time>
      </trkpt>
      <trkpt lat="47.19926" lon="-1.57291">
        <ele>-3.21</ele>
        <time>2016-12-17T14:15:47Z</time>
      </trkpt>
      <trkpt lat="47.19927" lon="-1.57258">
        <ele>-3.29</ele>
        <time>2016-12-17T14:15:50Z</time>
      </trkpt>
      <trkpt lat="47.19926" lon="-1.5723">
        <ele>-2.8</ele>
        <time>2016-12-17T14:15:53Z</time>
      </trkpt>
      <trkpt lat="47.19925" lon="-1.57201">
        <ele>-1.78</ele>
        <time>2016-12-17T14:15:56Z</time>
      </trkpt>
      <trkpt lat="47.19925" lon="-1.57169">
        <ele>-2.48</ele>
        <time>2016-12-17T14:16:00Z</time>
      </trkpt>
      <trkpt lat="47.19926" lon="-1.57141">
        <ele>-3.27</ele>
        <time>2016-12-17T14:16:03Z</time>
      </trkpt>
      <trkpt lat="47.19927" lon="-1.57113">
        <ele>-4.73</ele>
        <time>2016-12-17T14:16:06Z</time>
      </trkpt>
      <trkpt lat="47.19927" lon="-1.57083">
        <ele>-5.09</ele>
        <time>2016-12-17T14:16:09Z</time>
      </trkpt>
      <trkpt lat="47.19927" lon="-1.57051">
        <ele>-4.91</ele>
        <time>2016-12-17T14:16:13Z</time>
      </trkpt>
      <trkpt lat="47.19926" lon="-1.57023">
        <ele>-5.85</ele>
        <time>2016-12-17T14:16:16Z</time>
      </trkpt>
      <trkpt lat="47.19925" lon="-1.56992">
        <ele>-6.96</ele>
        <time>2016-12-17T14:16:19Z</time>
      </trkpt>
      <trkpt lat="47.19924" lon="-1.56963">
        <ele>-7.03</ele>
        <time>2016-12-17T14:16:22Z</time>
      </trkpt>
      <trkpt lat="47.19923" lon="-1.56935">
        <ele>-7.28</ele>
        <time>2016-12-17T14:16:25Z</time>
      </trkpt>
      <trkpt lat="47.19922" lon="-1.569">
        <ele>-8.05</ele>
        <time>2016-12-17T14:16:29Z</time>
      </trkpt>
      <trkpt lat="47.19922" lon="-1.56873">
        <ele>-7.42</ele>
        <time>2016-12-17T14:16:32Z</time>
      </trkpt>
      <trkpt lat="47.19923" lon="-1.56844">
        <ele>-8.6</ele>
        <time>2016-12-17T14:16:35Z</time>
      </trkpt>
      <trkpt lat="47.19923" lon="-1.5681">
        <ele>-9.97</ele>
        <time>2016-12-17T14:16:39Z</time>
      </trkpt>
      <trkpt lat="47.19923" lon="-1.5678">
        <ele>-10.51</ele>
        <time>2016-12-17T14:16:42Z</time>
      </trkpt>
      <trkpt lat="47.19923" lon="-1.56752">
        <ele>-11.31</ele>
        <time>2016-12-17T14:16:45Z</time>
      </trkpt>
      <trkpt lat="47.19922" lon="-1.56722">
        <ele>-10.06</ele>
        <time>2016-12-17T14:16:49Z</time>
      </trkpt>
      <trkpt lat="47.19922" lon="-1.56696">
        <ele>-7.77</ele>
        <time>2016-12-17T14:16:52Z</time>
      </trkpt>
      <trkpt lat="47.19922" lon="-1.56662">
        <ele>-6.55</ele>
        <time>2016-12-17T14:16:56Z</time>
      </trkpt>
      <trkpt lat="47.19922" lon="-1.56635">
        <ele>-8.03</ele>
        <time>2016-12-17T14:16:59Z</time>
      </trkpt>
      <trkpt lat="47.19925" lon="-1.56602">
        <ele>-9.44</ele>
        <time>2016-12-17T14:17:03Z</time>
      </trkpt>
      <trkpt lat="47.19929" lon="-1.56575">
        <ele>-9.56</ele>
        <time>2016-12-17T14:17:06Z</time>
      </trkpt>
      <trkpt lat="47.19933" lon="-1.5654">
        <ele>-9.32</ele>
        <time>2016-12-17T14:17:10Z</time>
      </trkpt>
      <trkpt lat="47.19937" lon="-1.56509">
        <ele>-7.09</ele>
        <time>2016-12-17T14:17:14Z</time>
      </trkpt>
      <trkpt lat="47.19945" lon="-1.56477">
        <ele>-4.89</ele>
        <time>2016-12-17T14:17:18Z</time>
      </trkpt>
      <trkpt lat="47.19953" lon="-1.56451">
        <ele>-6.17</ele>
        <time>2016-12-17T14:17:21Z</time>
      </trkpt>
      <trkpt lat="47.19961" lon="-1.56421">
        <ele>-6.7</ele>
        <time>2016-12-17T14:17:25Z</time>
      </trkpt>
      <trkpt lat="47.19969" lon="-1.5639">
        <ele>-5.2</ele>
        <time>2016-12-17T14:17:29Z</time>
      </trkpt>
      <trkpt lat="47.19973" lon="-1.56356">
        <ele>-4.5</ele>
        <time>2016-12-17T14:17:33Z</time>
      </trkpt>
      <trkpt lat="47.19975" lon="-1.56322">
        <ele>-5.33</ele>
        <time>2016-12-17T14:17:37Z</time>
      </trkpt>
      <trkpt lat="47.19976" lon="-1.56295">
        <ele>-3.81</ele>
        <time>2016-12-17T14:17:40Z</time>
      </trkpt>
      <trkpt lat="47.19978" lon="-1.56264">
        <ele>-2.97</ele>
        <time>2016-12-17T14:17:44Z</time>
      </trkpt>
      <trkpt lat="47.19977" lon="-1.5623">
        <ele>-5.12</ele>
        <time>2016-12-17T14:17:48Z</time>
      </trkpt>
      <trkpt lat="47.19977" lon="-1.56198">
        <ele>-5.01</ele>
        <time>2016-12-17T14:17:52Z</time>
      </trkpt>
      <trkpt lat="47.19974" lon="-1.56169">
        <ele>-5.04</ele>
        <time>2016-12-17T14:17:56Z</time>
      </trkpt>
      <trkpt lat="47.19956" lon="-1.56165">
        <ele>-5.21</ele>
        <time>2016-12-17T14:18:00Z</time>
      </trkpt>
      <trkpt lat="47.19933" lon="-1.56169">
        <ele>-4.59</ele>
        <time>2016-12-17T14:18:04Z</time>
      </trkpt>
      <trkpt lat="47.19911" lon="-1.56174">
        <ele>-3.26</ele>
        <time>2016-12-17T14:18:08Z</time>
      </trkpt>
      <trkpt lat="47.19889" lon="-1.56177">
        <ele>-2.95</ele>
        <time>2016-12-17T14:18:12Z</time>
      </trkpt>
      <trkpt lat="47.19867" lon="-1.56181">
        <ele>-1.79</ele>
        <time>2016-12-17T14:18:16Z</time>
      </trkpt>
      <trkpt lat="47.19847" lon="-1.56185">
        <ele>-2.68</ele>
        <time>2016-12-17T14:18:20Z</time>
      </trkpt>
      <trkpt lat="47.19829" lon="-1.56189">
        <ele>-4.02</ele>
        <time>2016-12-17T14:18:24Z</time>
      </trkpt>
      <trkpt lat="47.19811" lon="-1.56192">
        <ele>-4.37</ele>
        <time>2016-12-17T14:18:28Z</time>
      </trkpt>
      <trkpt lat="47.19788" lon="-1.56196">
        <ele>-4.4</ele>
        <time>2016-12-17T14:18:33Z</time>
      </trkpt>
      <trkpt lat="47.19768" lon="-1.56202">
        <ele>-2.72</ele>
        <time>2016-12-17T14:18:37Z</time>
      </trkpt>
      <trkpt lat="47.1975" lon="-1.56204">
        <ele>-3.19</ele>
        <time>2016-12-17T14:18:40Z</time>
      </trkpt>
      <trkpt lat="47.19725" lon="-1.56209">
        <ele>-4.87</ele>
        <time>2016-12-17T14:18:44Z</time>
      </trkpt>
      <trkpt lat="47.19703" lon="-1.56213">
        <ele>-3.72</ele>
        <time>2016-12-17T14:18:47Z</time>
      </trkpt>
      <trkpt lat="47.19678" lon="-1.56218">
        <ele>-3.01</ele>
        <time>2016-12-17T14:18:50Z</time>
      </trkpt>
      <trkpt lat="47.19653" lon="-1.56225">
        <ele>-3.3</ele>
        <time>2016-12-17T14:18:53Z</time>
      </trkpt>
      <trkpt lat="47.19631" lon="-1.56247">
        <ele>-3.66</ele>
        <time>2016-12-17T14:18:56Z</time>
      </trkpt>
      <trkpt lat="47.19627" lon="-1.56281">
        <ele>-5.74</ele>
        <time>2016-12-17T14:18:59Z</time>
      </trkpt>
      <trkpt lat="47.19629" lon="-1.56317">
        <ele>-7.17</ele>
        <time>2016-12-17T14:19:02Z</time>
      </trkpt>
      <trkpt lat="47.19628" lon="-1.56351">
        <ele>-6.76</ele>
        <time>2016-12-17T14:19:05Z</time>
      </trkpt>
      <trkpt lat="47.19628" lon="-1.56382">
        <ele>-6.08</ele>
        <time>2016-12-17T14:19:08Z</time>
      </trkpt>
      <trkpt lat="47.19628" lon="-1.56414">
        <ele>-7.33</ele>
        <time>2016-12-17T14:19:11Z</time>
      </trkpt>
      <trkpt lat="47.19629" lon="-1.56446">
        <ele>-8.19</ele>
        <time>2016-12-17T14:19:14Z</time>
      </trkpt>
      <trkpt lat="47.19631" lon="-1.56477">
        <ele>-7.67</ele>
        <time>2016-12-17T14:19:17Z</time>
      </trkpt>
      <trkpt lat="47.19632" lon="-1.56505">
        <ele>-6.73</ele>
        <time>2016-12-17T14:19:20Z</time>
      </trkpt>
      <trkpt lat="47.19632" lon="-1.56534">
        <ele>-6.7</ele>
        <time>2016-12-17T14:19:23Z</time>
      </trkpt>
      <trkpt lat="47.19632" lon="-1.56561">
        <ele>-5.62</ele>
        <time>2016-12-17T14:19:26Z</time>
      </trkpt>
      <trkpt lat="47.19631" lon="-1.56591">
        <ele>-4.43</ele>
        <time>2016-12-17T14:19:29Z</time>
      </trkpt>
      <trkpt lat="47.1963" lon="-1.56623">
        <ele>-2.89</ele>
        <time>2016-12-17T14:19:32Z</time>
      </trkpt>
      <trkpt lat="47.19629" lon="-1.56649">
        <ele>-3.25</ele>
        <time>2016-12-17T14:19:35Z</time>
      </trkpt>
      <trkpt lat="47.19628" lon="-1.56679">
        <ele>-5.37</ele>
        <time>2016-12-17T14:19:38Z</time>
      </trkpt>
      <trkpt lat="47.19627" lon="-1.56709">
        <ele>-6.67</ele>
        <time>2016-12-17T14:19:41Z</time>
      </trkpt>
      <trkpt lat="47.19625" lon="-1.5674">
        <ele>-5.79</ele>
        <time>2016-12-17T14:19:44Z</time>
      </trkpt>
      <trkpt lat="47.19622" lon="-1.56767">
        <ele>-5.21</ele>
        <time>2016-12-17T14:19:47Z</time>
      </trkpt>
      <trkpt lat="47.19619" lon="-1.56798">
        <ele>-5.22</ele>
        <time>2016-12-17T14:19:50Z</time>
      </trkpt>
      <trkpt lat="47.19616" lon="-1.56829">
        <ele>-4.48</ele>
        <time>2016-12-17T14:19:53Z</time>
      </trkpt>
      <trkpt lat="47.19615" lon="-1.56864">
        <ele>-3.81</ele>
        <time>2016-12-17T14:19:57Z</time>
      </trkpt>
      <trkpt lat="47.19613" lon="-1.56896">
        <ele>-4.28</ele>
        <time>2016-12-17T14:20:00Z</time>
      </trkpt>
      <trkpt lat="47.19611" lon="-1.56926">
        <ele>-4.09</ele>
        <time>2016-12-17T14:20:03Z</time>
      </trkpt>
      <trkpt lat="47.19609" lon="-1.56957">
        <ele>-4.8</ele>
        <time>2016-12-17T14:20:06Z</time>
      </trkpt>
      <trkpt lat="47.19607" lon="-1.56988">
        <ele>-3.86</ele>
        <time>2016-12-17T14:20:09Z</time>
      </trkpt>
      <trkpt lat="47.19605" lon="-1.57017">
        <ele>-1.57</ele>
        <time>2016-12-17T14:20:12Z</time>
      </trkpt>
      <trkpt lat="47.19603" lon="-1.57048">
        <ele>-3.03</ele>
        <time>2016-12-17T14:20:15Z</time>
      </trkpt>
      <trkpt lat="47.19601" lon="-1.57077">
        <ele>-5.5</ele>
        <time>2016-12-17T14:20:18Z</time>
      </trkpt>
      <trkpt lat="47.19599" lon="-1.57106">
        <ele>-4.76</ele>
        <time>2016-12-17T14:20:21Z</time>
      </trkpt>
      <trkpt lat="47.19598" lon="-1.57139">
        <ele>-5.45</ele>
        <time>2016-12-17T14:20:25Z</time>
      </trkpt>
      <trkpt lat="47.19595" lon="-1.57168">
        <ele>-5.69</ele>
        <time>2016-12-17T14:20:28Z</time>
      </trkpt>
      <trkpt lat="47.19593" lon="-1.57198">
        <ele>-7.36</ele>
        <time>2016-12-17T14:20:31Z</time>
      </trkpt>
      <trkpt lat="47.19591" lon="-1.5723">
        <ele>-8.4</ele>
        <time>2016-12-17T14:20:34Z</time>
      </trkpt>
      <trkpt lat="47.19588" lon="-1.57261">
        <ele>-6.7</ele>
        <time>2016-12-17T14:20:37Z</time>
      </trkpt>
      <trkpt lat="47.19586" lon="-1.57289">
        <ele>-5.97</ele>
        <time>2016-12-17T14:20:40Z</time>
      </trkpt>
      <trkpt lat="47.19583" lon="-1.57324">
        <ele>-4.03</ele>
        <time>2016-12-17T14:20:44Z</time>
      </trkpt>
      <trkpt lat="47.19578" lon="-1.57351">
        <ele>-4.67</ele>
        <time>2016-12-17T14:20:47Z</time>
      </trkpt>
      <trkpt lat="47.19574" lon="-1.57378">
        <ele>-5.52</ele>
        <time>2016-12-17T14:20:50Z</time>
      </trkpt>
      <trkpt lat="47.19569" lon="-1.57406">
        <ele>-6.7</ele>
        <time>2016-12-17T14:20:53Z</time>
      </trkpt>
      <trkpt lat="47.19562" lon="-1.57434">
        <ele>-10.84</ele>
        <time>2016-12-17T14:20:57Z</time>
      </trkpt>
      <trkpt lat="47.19555" lon="-1.57468">
        <ele>-9.88</ele>
        <time>2016-12-17T14:21:01Z</time>
      </trkpt>
      <trkpt lat="47.19548" lon="-1.57498">
        <ele>-6.26</ele>
        <time>2016-12-17T14:21:04Z</time>
      </trkpt>
      <trkpt lat="47.19542" lon="-1.57527">
        <ele>-5.16</ele>
        <time>2016-12-17T14:21:07Z</time>
      </trkpt>
      <trkpt lat="47.19537" lon="-1.57554">
        <ele>-4.42</ele>
        <time>2016-12-17T14:21:10Z</time>
      </trkpt>
      <trkpt lat="47.1953" lon="-1.57589">
        <ele>-3.21</ele>
        <time>2016-12-17T14:21:14Z</time>
      </trkpt>
      <trkpt lat="47.19525" lon="-1.57617">
        <ele>-1.94</ele>
        <time>2016-12-17T14:21:17Z</time>
      </trkpt>
      <trkpt lat="47.19519" lon="-1.57647">
        <ele>-1.12</ele>
        <time>2016-12-17T14:21:20Z</time>
      </trkpt>
      <trkpt lat="47.19515" lon="-1.57673">
        <ele>-3.36</ele>
        <time>2016-12-17T14:21:23Z</time>
      </trkpt>
      <trkpt lat="47.19509" lon="-1.57701">
        <ele>-4.98</ele>
        <time>2016-12-17T14:21:26Z</time>
      </trkpt>
      <trkpt lat="47.19505" lon="-1.57727">
        <ele>-6.87</ele>
        <time>2016-12-17T14:21:29Z</time>
      </trkpt>
      <trkpt lat="47.19498" lon="-1.57764">
        <ele>-8.21</ele>
        <time>2016-12-17T14:21:33Z</time>
      </trkpt>
      <trkpt lat="47.19492" lon="-1.57793">
        <ele>-9.28</ele>
        <time>2016-12-17T14:21:36Z</time>
      </trkpt>
      <trkpt lat="47.19486" lon="-1.57819">
        <ele>-8.84</ele>
        <time>2016-12-17T14:21:39Z</time>
      </trkpt>
      <trkpt lat="47.19481" lon="-1.57847">
        <ele>-9.88</ele>
        <time>2016-12-17T14:21:42Z</time>
      </trkpt>
      <trkpt lat="47.19476" lon="-1.57881">
        <ele>-10.49</ele>
        <time>2016-12-17T14:21:46Z</time>
      </trkpt>
      <trkpt lat="47.19471" lon="-1.5791">
        <ele>-10.8</ele>
        <time>2016-12-17T14:21:49Z</time>
      </trkpt>
      <trkpt lat="47.19468" lon="-1.57939">
        <ele>-11.59</ele>
        <time>2016-12-17T14:21:52Z</time>
      </trkpt>
      <trkpt lat="47.19465" lon="-1.57968">
        <ele>-12.86</ele>
        <time>2016-12-17T14:21:55Z</time>
      </trkpt>
      <trkpt lat="47.19462" lon="-1.57995">
        <ele>-13.55</ele>
        <time>2016-12-17T14:21:58Z</time>
      </trkpt>
      <trkpt lat="47.1946" lon="-1.58027">
        <ele>-12.54</ele>
        <time>2016-12-17T14:22:02Z</time>
      </trkpt>
      <trkpt lat="47.19457" lon="-1.58056">
        <ele>-11.15</ele>
        <time>2016-12-17T14:22:05Z</time>
      </trkpt>
      <trkpt lat="47.19453" lon="-1.58086">
        <ele>-9.13</ele>
        <time>2016-12-17T14:22:09Z</time>
      </trkpt>
      <trkpt lat="47.1944" lon="-1.58115">
        <ele>-6.4</ele>
        <time>2016-12-17T14:22:13Z</time>
      </trkpt>
      <trkpt lat="47.19426" lon="-1.58134">
        <ele>-6.34</ele>
        <time>2016-12-17T14:22:16Z</time>
      </trkpt>
      <trkpt lat="47.19409" lon="-1.58152">
        <ele>-7.76</ele>
        <time>2016-12-17T14:22:19Z</time>
      </trkpt>
      <trkpt lat="47.19397" lon="-1.58177">
        <ele>-9.95</ele>
        <time>2016-12-17T14:22:22Z</time>
      </trkpt>
      <trkpt lat="47.19389" lon="-1.58201">
        <ele>-11.09</ele>
        <time>2016-12-17T14:22:25Z</time>
      </trkpt>
      <trkpt lat="47.19376" lon="-1.58228">
        <ele>-11.71</ele>
        <time>2016-12-17T14:22:28Z</time>
      </trkpt>
      <trkpt lat="47.19362" lon="-1.58257">
        <ele>-8.3</ele>
        <time>2016-12-17T14:22:32Z</time>
      </trkpt>
      <trkpt lat="47.19349" lon="-1.58283">
        <ele>-9.48</ele>
        <time>2016-12-17T14:22:35Z</time>
      </trkpt>
      <trkpt lat="47.19335" lon="-1.583">
        <ele>-10.07</ele>
        <time>2016-12-17T14:22:38Z</time>
      </trkpt>
      <trkpt lat="47.19318" lon="-1.58315">
        <ele>-11.4</ele>
        <time>2016-12-17T14:22:41Z</time>
      </trkpt>
      <trkpt lat="47.19301" lon="-1.58328">
        <ele>-11.61</ele>
        <time>2016-12-17T14:22:44Z</time>
      </trkpt>
      <trkpt lat="47.1928" lon="-1.58344">
        <ele>-12.45</ele>
        <time>2016-12-17T14:22:47Z</time>
      </trkpt>
      <trkpt lat="47.19263" lon="-1.58357">
        <ele>-12.08</ele>
        <time>2016-12-17T14:22:50Z</time>
      </trkpt>
      <trkpt lat="47.19247" lon="-1.58372">
        <ele>-12.42</ele>
        <time>2016-12-17T14:22:53Z</time>
      </trkpt>
      <trkpt lat="47.19228" lon="-1.58388">
        <ele>-13.7</ele>
        <time>2016-12-17T14:22:56Z</time>
      </trkpt>
      <trkpt lat="47.19213" lon="-1.58403">
        <ele>-14.41</ele>
        <time>2016-12-17T14:22:59Z</time>
      </trkpt>
      <trkpt lat="47.19196" lon="-1.58418">
        <ele>-14.79</ele>
        <time>2016-12-17T14:23:02Z</time>
      </trkpt>
      <trkpt lat="47.19177" lon="-1.58436">
        <ele>-14.08</ele>
        <time>2016-12-17T14:23:05Z</time>
      </trkpt>
      <trkpt lat="47.19158" lon="-1.58454">
        <ele>-14.16</ele>
        <time>2016-12-17T14:23:09Z</time>
      </trkpt>
      <trkpt lat="47.19138" lon="-1.58474">
        <ele>-14.55</ele>
        <time>2016-12-17T14:23:13Z</time>
      </trkpt>
      <trkpt lat="47.19119" lon="-1.58492">
        <ele>-13.27</ele>
        <time>2016-12-17T14:23:16Z</time>
      </trkpt>
      <trkpt lat="47.19102" lon="-1.58506">
        <ele>-11.88</ele>
        <time>2016-12-17T14:23:19Z</time>
      </trkpt>
      <trkpt lat="47.19086" lon="-1.58521">
        <ele>-9.22</ele>
        <time>2016-12-17T14:23:22Z</time>
      </trkpt>
      <trkpt lat="47.19069" lon="-1.58536">
        <ele>-10.09</ele>
        <time>2016-12-17T14:23:25Z</time>
      </trkpt>
      <trkpt lat="47.19051" lon="-1.58553">
        <ele>-9.36</ele>
        <time>2016-12-17T14:23:28Z</time>
      </trkpt>
      <trkpt lat="47.19035" lon="-1.58568">
        <ele>-10.02</ele>
        <time>2016-12-17T14:23:31Z</time>
      </trkpt>
      <trkpt lat="47.1902" lon="-1.58585">
        <ele>-10.87</ele>
        <time>2016-12-17T14:23:34Z</time>
      </trkpt>
      <trkpt lat="47.19004" lon="-1.58601">
        <ele>-12.05</ele>
        <time>2016-12-17T14:23:37Z</time>
      </trkpt>
      <trkpt lat="47.18987" lon="-1.58617">
        <ele>-11.58</ele>
        <time>2016-12-17T14:23:40Z</time>
      </trkpt>
      <trkpt lat="47.18971" lon="-1.58634">
        <ele>-9.79</ele>
        <time>2016-12-17T14:23:43Z</time>
      </trkpt>
      <trkpt lat="47.18954" lon="-1.58649">
        <ele>-10.07</ele>
        <time>2016-12-17T14:23:46Z</time>
      </trkpt>
      <trkpt lat="47.18936" lon="-1.58666">
        <ele>-11.12</ele>
        <time>2016-12-17T14:23:49Z</time>
      </trkpt>
      <trkpt lat="47.1892" lon="-1.58681">
        <ele>-11.36</ele>
        <time>2016-12-17T14:23:52Z</time>
      </trkpt>
      <trkpt lat="47.18899" lon="-1.58699">
        <ele>-10.52</ele>
        <time>2016-12-17T14:23:56Z</time>
      </trkpt>
      <trkpt lat="47.18882" lon="-1.58711">
        <ele>-8.84</ele>
        <time>2016-12-17T14:23:59Z</time>
      </trkpt>
      <trkpt lat="47.18863" lon="-1.58723">
        <ele>-8.3</ele>
        <time>2016-12-17T14:24:02Z</time>
      </trkpt>
      <trkpt lat="47.18841" lon="-1.58737">
        <ele>-8.56</ele>
        <time>2016-12-17T14:24:06Z</time>
      </trkpt>
      <trkpt lat="47.18827" lon="-1.58766">
        <ele>-8.69</ele>
        <time>2016-12-17T14:24:10Z</time>
      </trkpt>
      <trkpt lat="47.18818" lon="-1.58791">
        <ele>-8.91</ele>
        <time>2016-12-17T14:24:13Z</time>
      </trkpt>
      <trkpt lat="47.18802" lon="-1.58807">
        <ele>-8.61</ele>
        <time>2016-12-17T14:24:16Z</time>
      </trkpt>
      <trkpt lat="47.18786" lon="-1.58829">
        <ele>-9.94</ele>
        <time>2016-12-17T14:24:20Z</time>
      </trkpt>
      <trkpt lat="47.18779" lon="-1.58856">
        <ele>-10.42</ele>
        <time>2016-12-17T14:24:23Z</time>
      </trkpt>
      <trkpt lat="47.18775" lon="-1.58882">
        <ele>-11.41</ele>
        <time>2016-12-17T14:24:26Z</time>
      </trkpt>
      <trkpt lat="47.18771" lon="-1.5891">
        <ele>-12.42</ele>
        <time>2016-12-17T14:24:29Z</time>
      </trkpt>
      <trkpt lat="47.18766" lon="-1.5894">
        <ele>-12.95</ele>
        <time>2016-12-17T14:24:32Z</time>
      </trkpt>
      <trkpt lat="47.18764" lon="-1.58969">
        <ele>-12.11</ele>
        <time>2016-12-17T14:24:35Z</time>
      </trkpt>
      <trkpt lat="47.18761" lon="-1.58996">
        <ele>-11.21</ele>
        <time>2016-12-17T14:24:38Z</time>
      </trkpt>
      <trkpt lat="47.18758" lon="-1.59027">
        <ele>-11.95</ele>
        <time>2016-12-17T14:24:41Z</time>
      </trkpt>
      <trkpt lat="47.18755" lon="-1.59055">
        <ele>-11.88</ele>
        <time>2016-12-17T14:24:44Z</time>
      </trkpt>
      <trkpt lat="47.1875" lon="-1.59091">
        <ele>-12.19</ele>
        <time>2016-12-17T14:24:48Z</time>
      </trkpt>
      <trkpt lat="47.18747" lon="-1.59118">
        <ele>-11.25</ele>
        <time>2016-12-17T14:24:51Z</time>
      </trkpt>
      <trkpt lat="47.18743" lon="-1.59152">
        <ele>-9.81</ele>
        <time>2016-12-17T14:24:55Z</time>
      </trkpt>
      <trkpt lat="47.1874" lon="-1.5918">
        <ele>-9.81</ele>
        <time>2016-12-17T14:24:58Z</time>
      </trkpt>
      <trkpt lat="47.18736" lon="-1.59214">
        <ele>-9.77</ele>
        <time>2016-12-17T14:25:02Z</time>
      </trkpt>
      <trkpt lat="47.18733" lon="-1.59244">
        <ele>-9.04</ele>
        <time>2016-12-17T14:25:05Z</time>
      </trkpt>
      <trkpt lat="47.18729" lon="-1.59277">
        <ele>-9.47</ele>
        <time>2016-12-17T14:25:09Z</time>
      </trkpt>
      <trkpt lat="47.18726" lon="-1.59306">
        <ele>-10.73</ele>
        <time>2016-12-17T14:25:12Z</time>
      </trkpt>
      <trkpt lat="47.18723" lon="-1.59335">
        <ele>-10.83</ele>
        <time>2016-12-17T14:25:15Z</time>
      </trkpt>
      <trkpt lat="47.18719" lon="-1.59368">
        <ele>-13.54</ele>
        <time>2016-12-17T14:25:19Z</time>
      </trkpt>
      <trkpt lat="47.18717" lon="-1.59397">
        <ele>-14.06</ele>
        <time>2016-12-17T14:25:22Z</time>
      </trkpt>
      <trkpt lat="47.18714" lon="-1.59427">
        <ele>-13.97</ele>
        <time>2016-12-17T14:25:25Z</time>
      </trkpt>
      <trkpt lat="47.18711" lon="-1.59454">
        <ele>-14.13</ele>
        <time>2016-12-17T14:25:28Z</time>
      </trkpt>
      <trkpt lat="47.18708" lon="-1.59481">
        <ele>-13.85</ele>
        <time>2016-12-17T14:25:31Z</time>
      </trkpt>
      <trkpt lat="47.18704" lon="-1.59515">
        <ele>-12.81</ele>
        <time>2016-12-17T14:25:35Z</time>
      </trkpt>
      <trkpt lat="47.187" lon="-1.59543">
        <ele>-11.87</ele>
        <time>2016-12-17T14:25:38Z</time>
      </trkpt>
      <trkpt lat="47.18697" lon="-1.59579">
        <ele>-11.61</ele>
        <time>2016-12-17T14:25:42Z</time>
      </trkpt>
      <trkpt lat="47.18694" lon="-1.59608">
        <ele>-10.74</ele>
        <time>2016-12-17T14:25:45Z</time>
      </trkpt>
      <trkpt lat="47.18691" lon="-1.59636">
        <ele>-12.05</ele>
        <time>2016-12-17T14:25:48Z</time>
      </trkpt>
      <trkpt lat="47.18687" lon="-1.59663">
        <ele>-10.99</ele>
        <time>2016-12-17T14:25:51Z</time>
      </trkpt>
      <trkpt lat="47.18683" lon="-1.59693">
        <ele>-9.74</ele>
        <time>2016-12-17T14:25:54Z</time>
      </trkpt>
      <trkpt lat="47.1868" lon="-1.59721">
        <ele>-7.91</ele>
        <time>2016-12-17T14:25:57Z</time>
      </trkpt>
      <trkpt lat="47.18679" lon="-1.59748">
        <ele>-8.95</ele>
        <time>2016-12-17T14:26:00Z</time>
      </trkpt>
      <trkpt lat="47.18681" lon="-1.59779">
        <ele>-10.12</ele>
        <time>2016-12-17T14:26:03Z</time>
      </trkpt>
      <trkpt lat="47.18679" lon="-1.59814">
        <ele>-11.48</ele>
        <time>2016-12-17T14:26:06Z</time>
      </trkpt>
      <trkpt lat="47.18666" lon="-1.59844">
        <ele>-11.77</ele>
        <time>2016-12-17T14:26:09Z</time>
      </trkpt>
      <trkpt lat="47.18644" lon="-1.59842">
        <ele>-7.97</ele>
        <time>2016-12-17T14:26:12Z</time>
      </trkpt>
      <trkpt lat="47.18622" lon="-1.59825">
        <ele>-4.88</ele>
        <time>2016-12-17T14:26:15Z</time>
      </trkpt>
      <trkpt lat="47.18615" lon="-1.5985">
        <ele>-5.04</ele>
        <time>2016-12-17T14:26:19Z</time>
      </trkpt>
      <trkpt lat="47.18617" lon="-1.59879">
        <ele>-7.99</ele>
        <time>2016-12-17T14:26:22Z</time>
      </trkpt>
      <trkpt lat="47.18611" lon="-1.59911">
        <ele>-10.64</ele>
        <time>2016-12-17T14:26:25Z</time>
      </trkpt>
      <trkpt lat="47.18604" lon="-1.59939">
        <ele>-12.93</ele>
        <time>2016-12-17T14:26:28Z</time>
      </trkpt>
      <trkpt lat="47.18596" lon="-1.59968">
        <ele>-13.63</ele>
        <time>2016-12-17T14:26:31Z</time>
      </trkpt>
      <trkpt lat="47.18587" lon="-1.59998">
        <ele>-14.27</ele>
        <time>2016-12-17T14:26:34Z</time>
      </trkpt>
      <trkpt lat="47.18576" lon="-1.60026">
        <ele>-14.99</ele>
        <time>2016-12-17T14:26:37Z</time>
      </trkpt>
      <trkpt lat="47.18566" lon="-1.60052">
        <ele>-15.42</ele>
        <time>2016-12-17T14:26:40Z</time>
      </trkpt>
      <trkpt lat="47.18556" lon="-1.60077">
        <ele>-13.59</ele>
        <time>2016-12-17T14:26:43Z</time>
      </trkpt>
      <trkpt lat="47.18546" lon="-1.60101">
        <ele>-10.69</ele>
        <time>2016-12-17T14:26:46Z</time>
      </trkpt>
      <trkpt lat="47.18536" lon="-1.60127">
        <ele>-7.39</ele>
        <time>2016-12-17T14:26:49Z</time>
      </trkpt>
      <trkpt lat="47.18524" lon="-1.60154">
        <ele>-5.82</ele>
        <time>2016-12-17T14:26:52Z</time>
      </trkpt>
      <trkpt lat="47.18512" lon="-1.6018">
        <ele>-5.89</ele>
        <time>2016-12-17T14:26:55Z</time>
      </trkpt>
      <trkpt lat="47.185" lon="-1.60203">
        <ele>-7.22</ele>
        <time>2016-12-17T14:26:58Z</time>
      </trkpt>
      <trkpt lat="47.18489" lon="-1.60224">
        <ele>-7.78</ele>
        <time>2016-12-17T14:27:01Z</time>
      </trkpt>
      <trkpt lat="47.18476" lon="-1.60247">
        <ele>-6.41</ele>
        <time>2016-12-17T14:27:04Z</time>
      </trkpt>
      <trkpt lat="47.18464" lon="-1.60268">
        <ele>-6.52</ele>
        <time>2016-12-17T14:27:07Z</time>
      </trkpt>
      <trkpt lat="47.18451" lon="-1.60292">
        <ele>-6.56</ele>
        <time>2016-12-17T14:27:10Z</time>
      </trkpt>
      <trkpt lat="47.18438" lon="-1.60313">
        <ele>-7.16</ele>
        <time>2016-12-17T14:27:13Z</time>
      </trkpt>
      <trkpt lat="47.18423" lon="-1.60335">
        <ele>-7.63</ele>
        <time>2016-12-17T14:27:16Z</time>
      </trkpt>
      <trkpt lat="47.18408" lon="-1.60356">
        <ele>-8.62</ele>
        <time>2016-12-17T14:27:19Z</time>
      </trkpt>
      <trkpt lat="47.18392" lon="-1.60377">
        <ele>-10.54</ele>
        <time>2016-12-17T14:27:22Z</time>
      </trkpt>
      <trkpt lat="47.18378" lon="-1.60394">
        <ele>-11.17</ele>
        <time>2016-12-17T14:27:25Z</time>
      </trkpt>
      <trkpt lat="47.18363" lon="-1.60414">
        <ele>-11.29</ele>
        <time>2016-12-17T14:27:28Z</time>
      </trkpt>
      <trkpt lat="47.18344" lon="-1.60438">
        <ele>-11.72</ele>
        <time>2016-12-17T14:27:32Z</time>
      </trkpt>
      <trkpt lat="47.18327" lon="-1.6046">
        <ele>-12.1</ele>
        <time>2016-12-17T14:27:35Z</time>
      </trkpt>
      <trkpt lat="47.1831" lon="-1.60478">
        <ele>-13.39</ele>
        <time>2016-12-17T14:27:38Z</time>
      </trkpt>
      <trkpt lat="47.18295" lon="-1.60496">
        <ele>-13.58</ele>
        <time>2016-12-17T14:27:41Z</time>
      </trkpt>
      <trkpt lat="47.18277" lon="-1.60513">
        <ele>-12.3</ele>
        <time>2016-12-17T14:27:44Z</time>
      </trkpt>
      <trkpt lat="47.18261" lon="-1.6053">
        <ele>-9.96</ele>
        <time>2016-12-17T14:27:47Z</time>
      </trkpt>
      <trkpt lat="47.18243" lon="-1.60545">
        <ele>-10.09</ele>
        <time>2016-12-17T14:27:50Z</time>
      </trkpt>
      <trkpt lat="47.18225" lon="-1.60557">
        <ele>-12.19</ele>
        <time>2016-12-17T14:27:53Z</time>
      </trkpt>
      <trkpt lat="47.18205" lon="-1.60568">
        <ele>-12.38</ele>
        <time>2016-12-17T14:27:56Z</time>
      </trkpt>
      <trkpt lat="47.18186" lon="-1.60579">
        <ele>-11.21</ele>
        <time>2016-12-17T14:28:00Z</time>
      </trkpt>
      <trkpt lat="47.18174" lon="-1.60599">
        <ele>-8.35</ele>
        <time>2016-12-17T14:28:04Z</time>
      </trkpt>
      <trkpt lat="47.18154" lon="-1.60602">
        <ele>-7.03</ele>
        <time>2016-12-17T14:28:07Z</time>
      </trkpt>
      <trkpt lat="47.18134" lon="-1.60598">
        <ele>-6.27</ele>
        <time>2016-12-17T14:28:10Z</time>
      </trkpt>
      <trkpt lat="47.18116" lon="-1.60594">
        <ele>-6.13</ele>
        <time>2016-12-17T14:28:13Z</time>
      </trkpt>
      <trkpt lat="47.18096" lon="-1.60586">
        <ele>-6.66</ele>
        <time>2016-12-17T14:28:16Z</time>
      </trkpt>
      <trkpt lat="47.18074" lon="-1.60576">
        <ele>-7.21</ele>
        <time>2016-12-17T14:28:19Z</time>
      </trkpt>
      <trkpt lat="47.18057" lon="-1.60567">
        <ele>-8.36</ele>
        <time>2016-12-17T14:28:22Z</time>
      </trkpt>
      <trkpt lat="47.18039" lon="-1.60555">
        <ele>-8.81</ele>
        <time>2016-12-17T14:28:25Z</time>
      </trkpt>
      <trkpt lat="47.18021" lon="-1.60546">
        <ele>-7.52</ele>
        <time>2016-12-17T14:28:28Z</time>
      </trkpt>
      <trkpt lat="47.18002" lon="-1.60547">
        <ele>-7.35</ele>
        <time>2016-12-17T14:28:31Z</time>
      </trkpt>
      <trkpt lat="47.17984" lon="-1.6055">
        <ele>-6.99</ele>
        <time>2016-12-17T14:28:34Z</time>
      </trkpt>
      <trkpt lat="47.17965" lon="-1.60556">
        <ele>-6.34</ele>
        <time>2016-12-17T14:28:37Z</time>
      </trkpt>
      <trkpt lat="47.17944" lon="-1.60567">
        <ele>-4.87</ele>
        <time>2016-12-17T14:28:41Z</time>
      </trkpt>
      <trkpt lat="47.17925" lon="-1.60578">
        <ele>-5.58</ele>
        <time>2016-12-17T14:28:45Z</time>
      </trkpt>
      <trkpt lat="47.17908" lon="-1.60594">
        <ele>-7.38</ele>
        <time>2016-12-17T14:28:59Z</time>
      </trkpt>
      <trkpt lat="47.17899" lon="-1.60624">
        <ele>-6.89</ele>
        <time>2016-12-17T14:29:03Z</time>
      </trkpt>
      <trkpt lat="47.17889" lon="-1.60651">
        <ele>-6.55</ele>
        <time>2016-12-17T14:29:06Z</time>
      </trkpt>
      <trkpt lat="47.17879" lon="-1.60679">
        <ele>-4.22</ele>
        <time>2016-12-17T14:29:09Z</time>
      </trkpt>
      <trkpt lat="47.17871" lon="-1.60707">
        <ele>-5.62</ele>
        <time>2016-12-17T14:29:12Z</time>
      </trkpt>
      <trkpt lat="47.17865" lon="-1.60733">
        <ele>-4.44</ele>
        <time>2016-12-17T14:29:15Z</time>
      </trkpt>
      <trkpt lat="47.17858" lon="-1.60761">
        <ele>-5.21</ele>
        <time>2016-12-17T14:29:18Z</time>
      </trkpt>
      <trkpt lat="47.1785" lon="-1.60796">
        <ele>-4.35</ele>
        <time>2016-12-17T14:29:22Z</time>
      </trkpt>
      <trkpt lat="47.17844" lon="-1.60821">
        <ele>-5.03</ele>
        <time>2016-12-17T14:29:25Z</time>
      </trkpt>
      <trkpt lat="47.17836" lon="-1.60848">
        <ele>-6.06</ele>
        <time>2016-12-17T14:29:28Z</time>
      </trkpt>
      <trkpt lat="47.17824" lon="-1.6087">
        <ele>-8.53</ele>
        <time>2016-12-17T14:29:31Z</time>
      </trkpt>
      <trkpt lat="47.17809" lon="-1.60888">
        <ele>-9.69</ele>
        <time>2016-12-17T14:29:34Z</time>
      </trkpt>
      <trkpt lat="47.17792" lon="-1.60904">
        <ele>-10.12</ele>
        <time>2016-12-17T14:29:37Z</time>
      </trkpt>
      <trkpt lat="47.1777" lon="-1.6092">
        <ele>-8.98</ele>
        <time>2016-12-17T14:29:41Z</time>
      </trkpt>
      <trkpt lat="47.17753" lon="-1.60932">
        <ele>-9</ele>
        <time>2016-12-17T14:29:44Z</time>
      </trkpt>
      <trkpt lat="47.17737" lon="-1.60944">
        <ele>-9.15</ele>
        <time>2016-12-17T14:29:47Z</time>
      </trkpt>
      <trkpt lat="47.17719" lon="-1.60957">
        <ele>-9.09</ele>
        <time>2016-12-17T14:29:50Z</time>
      </trkpt>
      <trkpt lat="47.17702" lon="-1.60969">
        <ele>-8.03</ele>
        <time>2016-12-17T14:29:53Z</time>
      </trkpt>
      <trkpt lat="47.17683" lon="-1.60972">
        <ele>-8.15</ele>
        <time>2016-12-17T14:29:56Z</time>
      </trkpt>
      <trkpt lat="47.17662" lon="-1.60971">
        <ele>-9.15</ele>
        <time>2016-12-17T14:29:59Z</time>
      </trkpt>
      <trkpt lat="47.17643" lon="-1.60982">
        <ele>-9.38</ele>
        <time>2016-12-17T14:30:02Z</time>
      </trkpt>
      <trkpt lat="47.17626" lon="-1.60997">
        <ele>-10.3</ele>
        <time>2016-12-17T14:30:05Z</time>
      </trkpt>
      <trkpt lat="47.1761" lon="-1.61009">
        <ele>-11.58</ele>
        <time>2016-12-17T14:30:08Z</time>
      </trkpt>
      <trkpt lat="47.17595" lon="-1.61023">
        <ele>-13.13</ele>
        <time>2016-12-17T14:30:11Z</time>
      </trkpt>
      <trkpt lat="47.17578" lon="-1.61037">
        <ele>-12.49</ele>
        <time>2016-12-17T14:30:14Z</time>
      </trkpt>
      <trkpt lat="47.17562" lon="-1.6105">
        <ele>-12.26</ele>
        <time>2016-12-17T14:30:17Z</time>
      </trkpt>
      <trkpt lat="47.17541" lon="-1.61066">
        <ele>-10.45</ele>
        <time>2016-12-17T14:30:21Z</time>
      </trkpt>
      <trkpt lat="47.17525" lon="-1.61081">
        <ele>-10.55</ele>
        <time>2016-12-17T14:30:24Z</time>
      </trkpt>
      <trkpt lat="47.17509" lon="-1.61096">
        <ele>-10.77</ele>
        <time>2016-12-17T14:30:27Z</time>
      </trkpt>
      <trkpt lat="47.17487" lon="-1.61103">
        <ele>-10.7</ele>
        <time>2016-12-17T14:30:31Z</time>
      </trkpt>
      <trkpt lat="47.17468" lon="-1.611">
        <ele>-9.6</ele>
        <time>2016-12-17T14:30:34Z</time>
      </trkpt>
      <trkpt lat="47.1745" lon="-1.61081">
        <ele>-7.93</ele>
        <time>2016-12-17T14:30:38Z</time>
      </trkpt>
      <trkpt lat="47.17437" lon="-1.61058">
        <ele>-5.98</ele>
        <time>2016-12-17T14:30:42Z</time>
      </trkpt>
      <trkpt lat="47.17429" lon="-1.61033">
        <ele>-2.69</ele>
        <time>2016-12-17T14:30:46Z</time>
      </trkpt>
      <trkpt lat="47.17427" lon="-1.6106">
        <ele>-4.21</ele>
        <time>2016-12-17T14:30:58Z</time>
      </trkpt>
      <trkpt lat="47.17438" lon="-1.61088">
        <ele>-8.34</ele>
        <time>2016-12-17T14:31:03Z</time>
      </trkpt>
      <trkpt lat="47.1745" lon="-1.61116">
        <ele>-9.11</ele>
        <time>2016-12-17T14:31:07Z</time>
      </trkpt>
      <trkpt lat="47.17462" lon="-1.61141">
        <ele>-7.56</ele>
        <time>2016-12-17T14:31:12Z</time>
      </trkpt>
      <trkpt lat="47.17472" lon="-1.61166">
        <ele>-6.54</ele>
        <time>2016-12-17T14:31:16Z</time>
      </trkpt>
      <trkpt lat="47.17481" lon="-1.61191">
        <ele>-4.71</ele>
        <time>2016-12-17T14:31:20Z</time>
      </trkpt>
      <trkpt lat="47.17492" lon="-1.61218">
        <ele>-6.61</ele>
        <time>2016-12-17T14:31:24Z</time>
      </trkpt>
      <trkpt lat="47.17503" lon="-1.61242">
        <ele>-8.36</ele>
        <time>2016-12-17T14:31:28Z</time>
      </trkpt>
      <trkpt lat="47.17517" lon="-1.61264">
        <ele>-10.07</ele>
        <time>2016-12-17T14:31:32Z</time>
      </trkpt>
      <trkpt lat="47.17533" lon="-1.61281">
        <ele>-9.81</ele>
        <time>2016-12-17T14:31:36Z</time>
      </trkpt>
      <trkpt lat="47.17552" lon="-1.61297">
        <ele>-6.77</ele>
        <time>2016-12-17T14:31:40Z</time>
      </trkpt>
      <trkpt lat="47.17558" lon="-1.61328">
        <ele>-5.29</ele>
        <time>2016-12-17T14:31:44Z</time>
      </trkpt>
      <trkpt lat="47.17546" lon="-1.6135">
        <ele>-4.42</ele>
        <time>2016-12-17T14:31:47Z</time>
      </trkpt>
      <trkpt lat="47.17532" lon="-1.61368">
        <ele>-4.1</ele>
        <time>2016-12-17T14:31:50Z</time>
      </trkpt>
      <trkpt lat="47.17522" lon="-1.6139">
        <ele>-3.9</ele>
        <time>2016-12-17T14:31:53Z</time>
      </trkpt>
      <trkpt lat="47.17514" lon="-1.61423">
        <ele>-3.76</ele>
        <time>2016-12-17T14:31:57Z</time>
      </trkpt>
      <trkpt lat="47.17508" lon="-1.61452">
        <ele>-1.7</ele>
        <time>2016-12-17T14:32:01Z</time>
      </trkpt>
      <trkpt lat="47.17489" lon="-1.61466">
        <ele>0.73</ele>
        <time>2016-12-17T14:32:06Z</time>
      </trkpt>
      <trkpt lat="47.17468" lon="-1.61473">
        <ele>1.16</ele>
        <time>2016-12-17T14:32:10Z</time>
      </trkpt>
      <trkpt lat="47.17447" lon="-1.61481">
        <ele>3.2</ele>
        <time>2016-12-17T14:32:15Z</time>
      </trkpt>
      <trkpt lat="47.17429" lon="-1.61494">
        <ele>5.81</ele>
        <time>2016-12-17T14:32:20Z</time>
      </trkpt>
      <trkpt lat="47.17411" lon="-1.61506">
        <ele>4.61</ele>
        <time>2016-12-17T14:32:24Z</time>
      </trkpt>
      <trkpt lat="47.17392" lon="-1.61521">
        <ele>4.84</ele>
        <time>2016-12-17T14:32:29Z</time>
      </trkpt>
      <trkpt lat="47.17372" lon="-1.61538">
        <ele>5.31</ele>
        <time>2016-12-17T14:32:34Z</time>
      </trkpt>
      <trkpt lat="47.17356" lon="-1.61552">
        <ele>4.77</ele>
        <time>2016-12-17T14:32:38Z</time>
      </trkpt>
      <trkpt lat="47.17338" lon="-1.61571">
        <ele>6.45</ele>
        <time>2016-12-17T14:32:43Z</time>
      </trkpt>
      <trkpt lat="47.17322" lon="-1.61593">
        <ele>8.63</ele>
        <time>2016-12-17T14:32:47Z</time>
      </trkpt>
      <trkpt lat="47.17308" lon="-1.61615">
        <ele>7.8</ele>
        <time>2016-12-17T14:32:51Z</time>
      </trkpt>
      <trkpt lat="47.17294" lon="-1.61638">
        <ele>5.04</ele>
        <time>2016-12-17T14:32:55Z</time>
      </trkpt>
      <trkpt lat="47.17282" lon="-1.61661">
        <ele>4.58</ele>
        <time>2016-12-17T14:32:59Z</time>
      </trkpt>
      <trkpt lat="47.17267" lon="-1.6169">
        <ele>5.35</ele>
        <time>2016-12-17T14:33:03Z</time>
      </trkpt>
      <trkpt lat="47.17256" lon="-1.61711">
        <ele>5.08</ele>
        <time>2016-12-17T14:33:07Z</time>
      </trkpt>
      <trkpt lat="47.17244" lon="-1.61742">
        <ele>3.98</ele>
        <time>2016-12-17T14:33:11Z</time>
      </trkpt>
      <trkpt lat="47.17237" lon="-1.61774">
        <ele>6.08</ele>
        <time>2016-12-17T14:33:15Z</time>
      </trkpt>
      <trkpt lat="47.17217" lon="-1.61792">
        <ele>5.4</ele>
        <time>2016-12-17T14:33:19Z</time>
      </trkpt>
      <trkpt lat="47.17198" lon="-1.61809">
        <ele>6.56</ele>
        <time>2016-12-17T14:33:23Z</time>
      </trkpt>
      <trkpt lat="47.17183" lon="-1.61823">
        <ele>7.73</ele>
        <time>2016-12-17T14:33:26Z</time>
      </trkpt>
      <trkpt lat="47.17164" lon="-1.6184">
        <ele>6.2</ele>
        <time>2016-12-17T14:33:30Z</time>
      </trkpt>
      <trkpt lat="47.17145" lon="-1.61858">
        <ele>5.74</ele>
        <time>2016-12-17T14:33:34Z</time>
      </trkpt>
      <trkpt lat="47.17128" lon="-1.61875">
        <ele>3.73</ele>
        <time>2016-12-17T14:33:38Z</time>
      </trkpt>
      <trkpt lat="47.1711" lon="-1.61893">
        <ele>3</ele>
        <time>2016-12-17T14:33:42Z</time>
      </trkpt>
      <trkpt lat="47.17092" lon="-1.61912">
        <ele>4.79</ele>
        <time>2016-12-17T14:33:46Z</time>
      </trkpt>
      <trkpt lat="47.17074" lon="-1.6193">
        <ele>2.09</ele>
        <time>2016-12-17T14:33:50Z</time>
      </trkpt>
      <trkpt lat="47.17059" lon="-1.61945">
        <ele>5.05</ele>
        <time>2016-12-17T14:33:53Z</time>
      </trkpt>
      <trkpt lat="47.17041" lon="-1.61968">
        <ele>3.04</ele>
        <time>2016-12-17T14:33:57Z</time>
      </trkpt>
      <trkpt lat="47.17027" lon="-1.61988">
        <ele>3.79</ele>
        <time>2016-12-17T14:34:00Z</time>
      </trkpt>
      <trkpt lat="47.17014" lon="-1.62007">
        <ele>3.98</ele>
        <time>2016-12-17T14:34:03Z</time>
      </trkpt>
      <trkpt lat="47.17" lon="-1.62032">
        <ele>6.2</ele>
        <time>2016-12-17T14:34:07Z</time>
      </trkpt>
      <trkpt lat="47.16987" lon="-1.62055">
        <ele>6.72</ele>
        <time>2016-12-17T14:34:10Z</time>
      </trkpt>
      <trkpt lat="47.16975" lon="-1.62076">
        <ele>6.43</ele>
        <time>2016-12-17T14:34:13Z</time>
      </trkpt>
      <trkpt lat="47.16961" lon="-1.62101">
        <ele>4.01</ele>
        <time>2016-12-17T14:34:17Z</time>
      </trkpt>
      <trkpt lat="47.1695" lon="-1.62123">
        <ele>2.5</ele>
        <time>2016-12-17T14:34:20Z</time>
      </trkpt>
      <trkpt lat="47.16939" lon="-1.62144">
        <ele>0.8</ele>
        <time>2016-12-17T14:34:23Z</time>
      </trkpt>
      <trkpt lat="47.16929" lon="-1.62171">
        <ele>2.64</ele>
        <time>2016-12-17T14:34:27Z</time>
      </trkpt>
      <trkpt lat="47.16914" lon="-1.62199">
        <ele>4.7</ele>
        <time>2016-12-17T14:34:31Z</time>
      </trkpt>
      <trkpt lat="47.16899" lon="-1.62221">
        <ele>5.42</ele>
        <time>2016-12-17T14:34:35Z</time>
      </trkpt>
      <trkpt lat="47.16883" lon="-1.62239">
        <ele>6</ele>
        <time>2016-12-17T14:34:38Z</time>
      </trkpt>
      <trkpt lat="47.16866" lon="-1.62259">
        <ele>6.62</ele>
        <time>2016-12-17T14:34:42Z</time>
      </trkpt>
      <trkpt lat="47.16848" lon="-1.62279">
        <ele>4.62</ele>
        <time>2016-12-17T14:34:46Z</time>
      </trkpt>
      <trkpt lat="47.16831" lon="-1.62299">
        <ele>4.84</ele>
        <time>2016-12-17T14:34:50Z</time>
      </trkpt>
      <trkpt lat="47.16815" lon="-1.62314">
        <ele>4.48</ele>
        <time>2016-12-17T14:34:53Z</time>
      </trkpt>
      <trkpt lat="47.16794" lon="-1.62328">
        <ele>1.18</ele>
        <time>2016-12-17T14:34:57Z</time>
      </trkpt>
      <trkpt lat="47.16775" lon="-1.62338">
        <ele>-0.76</ele>
        <time>2016-12-17T14:35:00Z</time>
      </trkpt>
      <trkpt lat="47.16753" lon="-1.6235">
        <ele>-1.77</ele>
        <time>2016-12-17T14:35:04Z</time>
      </trkpt>
      <trkpt lat="47.16737" lon="-1.62367">
        <ele>-0.08</ele>
        <time>2016-12-17T14:35:07Z</time>
      </trkpt>
      <trkpt lat="47.16729" lon="-1.62394">
        <ele>0.96</ele>
        <time>2016-12-17T14:35:10Z</time>
      </trkpt>
      <trkpt lat="47.16725" lon="-1.62426">
        <ele>2.31</ele>
        <time>2016-12-17T14:35:14Z</time>
      </trkpt>
      <trkpt lat="47.16719" lon="-1.62457">
        <ele>3.68</ele>
        <time>2016-12-17T14:35:18Z</time>
      </trkpt>
      <trkpt lat="47.16714" lon="-1.62483">
        <ele>5.77</ele>
        <time>2016-12-17T14:35:21Z</time>
      </trkpt>
      <trkpt lat="47.1673" lon="-1.62498">
        <ele>5.12</ele>
        <time>2016-12-17T14:35:25Z</time>
      </trkpt>
      <trkpt lat="47.16748" lon="-1.62504">
        <ele>3.82</ele>
        <time>2016-12-17T14:35:28Z</time>
      </trkpt>
      <trkpt lat="47.16767" lon="-1.62512">
        <ele>4.01</ele>
        <time>2016-12-17T14:35:31Z</time>
      </trkpt>
      <trkpt lat="47.16785" lon="-1.62524">
        <ele>4.43</ele>
        <time>2016-12-17T14:35:35Z</time>
      </trkpt>
      <trkpt lat="47.16801" lon="-1.62536">
        <ele>5.53</ele>
        <time>2016-12-17T14:35:38Z</time>
      </trkpt>
      <trkpt lat="47.1682" lon="-1.6255">
        <ele>5.82</ele>
        <time>2016-12-17T14:35:42Z</time>
      </trkpt>
      <trkpt lat="47.16834" lon="-1.62569">
        <ele>6.82</ele>
        <time>2016-12-17T14:35:45Z</time>
      </trkpt>
      <trkpt lat="47.16824" lon="-1.62599">
        <ele>10.7</ele>
        <time>2016-12-17T14:35:49Z</time>
      </trkpt>
      <trkpt lat="47.1681" lon="-1.62621">
        <ele>10.03</ele>
        <time>2016-12-17T14:35:53Z</time>
      </trkpt>
      <trkpt lat="47.16794" lon="-1.62643">
        <ele>6.81</ele>
        <time>2016-12-17T14:35:57Z</time>
      </trkpt>
      <trkpt lat="47.16778" lon="-1.62656">
        <ele>5.26</ele>
        <time>2016-12-17T14:36:03Z</time>
      </trkpt>
    </trkseg>
  </trk>
</gpx>